<?xml version="1.0" encoding="UTF-8"?>
<gpx xmlns="http://www.topografix.com/GPX/1/1" xmlns:xsi="http://www.w3.org/2001/XMLSchema-instance" creator="orig: https://MapMagic.app [change: GPX2CNX_MultyTool v1.1.9]" xsi:schemaLocation="http://www.topografix.com/GPX/1/1 http://www.topografix.com/GPX/1/1/gpx.xsd" version="1.1">
	<metadata><name>БУД300.Павловский_Посад-Шатура(V2)</name><desc>Круговой маршрут со стартом и финишем в Павловском Посаде. Трек проходит преимущественно вокруг Мещерского заповедника с мало загруженными дорогами с плоскими равнинными участками. </desc><author><name>caravan-randonneur-moscow</name><email id="mail.ru">caravan_randonneur</email><link href="www.caravan-randonneur.ru/calendar" /></author><time>2026-08-23T22:44:57Z</time></metadata><trk>
		<name>БУД300.Павловский_Посад-Шатура(V2)</name>
		<desc>Круговой маршрут со стартом и финишем в Павловском посаде. Трек проходит преимущественно вокруг Мещерского лесопаркового заповедника с мало загруженными дорогами и плоскими равнинными участками.</desc>
		<trkseg>
			<trkpt lat="55.776320" lon="38.674800"><ele>139.0</ele><time>1970-01-01T00:00:00Z</time></trkpt>
			<trkpt lat="55.776320" lon="38.674800"><ele>139.0</ele><time>1970-01-01T00:00:00Z</time></trkpt>
			<trkpt lat="55.776310" lon="38.675170"><ele>139.2</ele><time>1970-01-01T00:00:00Z</time></trkpt>
			<trkpt lat="55.776570" lon="38.675200"><ele>139.3</ele><time>1970-01-01T00:00:01Z</time></trkpt>
			<trkpt lat="55.776560" lon="38.675330"><ele>139.4</ele><time>1970-01-01T00:00:02Z</time></trkpt>
			<trkpt lat="55.776560" lon="38.675580"><ele>139.7</ele><time>1970-01-01T00:00:02Z</time></trkpt>
			<trkpt lat="55.776520" lon="38.676490"><ele>140.0</ele><time>1970-01-01T00:00:03Z</time></trkpt>
			<trkpt lat="55.776500" lon="38.676860"><ele>139.7</ele><time>1970-01-01T00:00:04Z</time></trkpt>
			<trkpt lat="55.776500" lon="38.676880"><ele>139.7</ele><time>1970-01-01T00:00:05Z</time></trkpt>
			<trkpt lat="55.776500" lon="38.676880"><ele>139.7</ele><time>1970-01-01T00:00:05Z</time></trkpt>
			<trkpt lat="55.776490" lon="38.677060"><ele>139.4</ele><time>1970-01-01T00:00:06Z</time></trkpt>
			<trkpt lat="55.776450" lon="38.678110"><ele>138.0</ele><time>1970-01-01T00:00:07Z</time></trkpt>
			<trkpt lat="55.776450" lon="38.678110"><ele>138.0</ele><time>1970-01-01T00:00:07Z</time></trkpt>
			<trkpt lat="55.776430" lon="38.678530"><ele>137.7</ele><time>1970-01-01T00:00:08Z</time></trkpt>
			<trkpt lat="55.776410" lon="38.678740"><ele>137.7</ele><time>1970-01-01T00:00:09Z</time></trkpt>
			<trkpt lat="55.776408" lon="38.678740"><ele>137.7</ele><time>1970-01-01T00:00:09Z</time></trkpt>
			<trkpt lat="55.776370" lon="38.679170"><ele>137.6</ele><time>1970-01-01T00:00:14Z</time></trkpt>
			<trkpt lat="55.776290" lon="38.680190"><ele>136.6</ele><time>1970-01-01T00:00:20Z</time></trkpt>
			<trkpt lat="55.776280" lon="38.680360"><ele>136.3</ele><time>1970-01-01T00:00:26Z</time></trkpt>
			<trkpt lat="55.776220" lon="38.681120"><ele>135.3</ele><time>1970-01-01T00:00:32Z</time></trkpt>
			<trkpt lat="55.776090" lon="38.682500"><ele>133.8</ele><time>1970-01-01T00:00:37Z</time></trkpt>
			<trkpt lat="55.775990" lon="38.683540"><ele>134.2</ele><time>1970-01-01T00:00:43Z</time></trkpt>
			<trkpt lat="55.775890" lon="38.684180"><ele>133.8</ele><time>1970-01-01T00:00:49Z</time></trkpt>
			<trkpt lat="55.775520" lon="38.685780"><ele>132.6</ele><time>1970-01-01T00:00:55Z</time></trkpt>
			<trkpt lat="55.775460" lon="38.685980"><ele>132.7</ele><time>1970-01-01T00:01:00Z</time></trkpt>
			<trkpt lat="55.775400" lon="38.686150"><ele>132.9</ele><time>1970-01-01T00:01:06Z</time></trkpt>
			<trkpt lat="55.775290" lon="38.686310"><ele>133.3</ele><time>1970-01-01T00:01:12Z</time></trkpt>
			<trkpt lat="55.775220" lon="38.686350"><ele>133.5</ele><time>1970-01-01T00:01:18Z</time></trkpt>
			<trkpt lat="55.775110" lon="38.686360"><ele>133.9</ele><time>1970-01-01T00:01:23Z</time></trkpt>
			<trkpt lat="55.775110" lon="38.686360"><ele>133.9</ele><time>1970-01-01T00:01:29Z</time></trkpt>
			<trkpt lat="55.774860" lon="38.686270"><ele>134.4</ele><time>1970-01-01T00:01:35Z</time></trkpt>
			<trkpt lat="55.774860" lon="38.686270"><ele>134.4</ele><time>1970-01-01T00:01:41Z</time></trkpt>
			<trkpt lat="55.774630" lon="38.686170"><ele>134.4</ele><time>1970-01-01T00:01:46Z</time></trkpt>
			<trkpt lat="55.774370" lon="38.686060"><ele>134.5</ele><time>1970-01-01T00:01:52Z</time></trkpt>
			<trkpt lat="55.773660" lon="38.685820"><ele>135.0</ele><time>1970-01-01T00:01:58Z</time></trkpt>
			<trkpt lat="55.773530" lon="38.685830"><ele>135.0</ele><time>1970-01-01T00:02:04Z</time></trkpt>
			<trkpt lat="55.773370" lon="38.685900"><ele>134.9</ele><time>1970-01-01T00:02:09Z</time></trkpt>
			<trkpt lat="55.773220" lon="38.686060"><ele>134.7</ele><time>1970-01-01T00:02:15Z</time></trkpt>
			<trkpt lat="55.773020" lon="38.686530"><ele>134.4</ele><time>1970-01-01T00:02:21Z</time></trkpt>
			<trkpt lat="55.772690" lon="38.687300"><ele>135.2</ele><time>1970-01-01T00:02:27Z</time></trkpt>
			<trkpt lat="55.772440" lon="38.687880"><ele>135.5</ele><time>1970-01-01T00:02:32Z</time></trkpt>
			<trkpt lat="55.772360" lon="38.688120"><ele>135.2</ele><time>1970-01-01T00:02:38Z</time></trkpt>
			<trkpt lat="55.772310" lon="38.688330"><ele>135.0</ele><time>1970-01-01T00:02:44Z</time></trkpt>
			<trkpt lat="55.772140" lon="38.689330"><ele>134.6</ele><time>1970-01-01T00:02:50Z</time></trkpt>
			<trkpt lat="55.771860" lon="38.690900"><ele>134.6</ele><time>1970-01-01T00:02:55Z</time></trkpt>
			<trkpt lat="55.771820" lon="38.691070"><ele>134.5</ele><time>1970-01-01T00:03:01Z</time></trkpt>
			<trkpt lat="55.771770" lon="38.691230"><ele>134.4</ele><time>1970-01-01T00:03:07Z</time></trkpt>
			<trkpt lat="55.771640" lon="38.691540"><ele>134.0</ele><time>1970-01-01T00:03:13Z</time></trkpt>
			<trkpt lat="55.771270" lon="38.692260"><ele>132.5</ele><time>1970-01-01T00:03:18Z</time></trkpt>
			<trkpt lat="55.770420" lon="38.693660"><ele>133.1</ele><time>1970-01-01T00:03:24Z</time></trkpt>
			<trkpt lat="55.770140" lon="38.694060"><ele>133.2</ele><time>1970-01-01T00:03:30Z</time></trkpt>
			<trkpt lat="55.770030" lon="38.694190"><ele>133.1</ele><time>1970-01-01T00:03:36Z</time></trkpt>
			<trkpt lat="55.768700" lon="38.695260"><ele>134.4</ele><time>1970-01-01T00:03:41Z</time></trkpt>
			<trkpt lat="55.768440" lon="38.695440"><ele>134.8</ele><time>1970-01-01T00:03:47Z</time></trkpt>
			<trkpt lat="55.767380" lon="38.696070"><ele>133.7</ele><time>1970-01-01T00:03:53Z</time></trkpt>
			<trkpt lat="55.767170" lon="38.696230"><ele>133.5</ele><time>1970-01-01T00:03:59Z</time></trkpt>
			<trkpt lat="55.767090" lon="38.696350"><ele>133.4</ele><time>1970-01-01T00:04:04Z</time></trkpt>
			<trkpt lat="55.767020" lon="38.696550"><ele>133.1</ele><time>1970-01-01T00:04:10Z</time></trkpt>
			<trkpt lat="55.766980" lon="38.696780"><ele>132.9</ele><time>1970-01-01T00:04:16Z</time></trkpt>
			<trkpt lat="55.766970" lon="38.697040"><ele>132.7</ele><time>1970-01-01T00:04:22Z</time></trkpt>
			<trkpt lat="55.767000" lon="38.697920"><ele>132.7</ele><time>1970-01-01T00:04:27Z</time></trkpt>
			<trkpt lat="55.766980" lon="38.698210"><ele>132.9</ele><time>1970-01-01T00:04:33Z</time></trkpt>
			<trkpt lat="55.766920" lon="38.698520"><ele>132.9</ele><time>1970-01-01T00:04:39Z</time></trkpt>
			<trkpt lat="55.766820" lon="38.698730"><ele>132.9</ele><time>1970-01-01T00:04:45Z</time></trkpt>
			<trkpt lat="55.766690" lon="38.698860"><ele>133.0</ele><time>1970-01-01T00:04:50Z</time></trkpt>
			<trkpt lat="55.765890" lon="38.699240"><ele>133.1</ele><time>1970-01-01T00:04:56Z</time></trkpt>
			<trkpt lat="55.765690" lon="38.699410"><ele>133.2</ele><time>1970-01-01T00:05:02Z</time></trkpt>
			<trkpt lat="55.765490" lon="38.699640"><ele>133.1</ele><time>1970-01-01T00:05:08Z</time></trkpt>
			<trkpt lat="55.765300" lon="38.699960"><ele>132.7</ele><time>1970-01-01T00:05:13Z</time></trkpt>
			<trkpt lat="55.764910" lon="38.700480"><ele>131.4</ele><time>1970-01-01T00:05:19Z</time></trkpt>
			<trkpt lat="55.764090" lon="38.701310"><ele>130.3</ele><time>1970-01-01T00:05:25Z</time></trkpt>
			<trkpt lat="55.763610" lon="38.701850"><ele>129.4</ele><time>1970-01-01T00:05:31Z</time></trkpt>
			<trkpt lat="55.763440" lon="38.702080"><ele>129.5</ele><time>1970-01-01T00:05:36Z</time></trkpt>
			<trkpt lat="55.763290" lon="38.702340"><ele>129.6</ele><time>1970-01-01T00:05:42Z</time></trkpt>
			<trkpt lat="55.763260" lon="38.702400"><ele>129.6</ele><time>1970-01-01T00:05:48Z</time></trkpt>
			<trkpt lat="55.763060" lon="38.702820"><ele>128.8</ele><time>1970-01-01T00:05:54Z</time></trkpt>
			<trkpt lat="55.762930" lon="38.703090"><ele>128.2</ele><time>1970-01-01T00:05:59Z</time></trkpt>
			<trkpt lat="55.762840" lon="38.703250"><ele>127.9</ele><time>1970-01-01T00:06:05Z</time></trkpt>
			<trkpt lat="55.762690" lon="38.703470"><ele>127.7</ele><time>1970-01-01T00:06:11Z</time></trkpt>
			<trkpt lat="55.762540" lon="38.703630"><ele>127.8</ele><time>1970-01-01T00:06:17Z</time></trkpt>
			<trkpt lat="55.762320" lon="38.703800"><ele>127.7</ele><time>1970-01-01T00:06:22Z</time></trkpt>
			<trkpt lat="55.761170" lon="38.704720"><ele>126.2</ele><time>1970-01-01T00:06:28Z</time></trkpt>
			<trkpt lat="55.760920" lon="38.704910"><ele>126.1</ele><time>1970-01-01T00:06:34Z</time></trkpt>
			<trkpt lat="55.760700" lon="38.705050"><ele>126.1</ele><time>1970-01-01T00:06:40Z</time></trkpt>
			<trkpt lat="55.760500" lon="38.705220"><ele>126.4</ele><time>1970-01-01T00:06:45Z</time></trkpt>
			<trkpt lat="55.760320" lon="38.705410"><ele>126.7</ele><time>1970-01-01T00:06:51Z</time></trkpt>
			<trkpt lat="55.760120" lon="38.705690"><ele>127.4</ele><time>1970-01-01T00:06:57Z</time></trkpt>
			<trkpt lat="55.759090" lon="38.707250"><ele>132.2</ele><time>1970-01-01T00:07:03Z</time></trkpt>
			<trkpt lat="55.758930" lon="38.707480"><ele>132.8</ele><time>1970-01-01T00:07:08Z</time></trkpt>
			<trkpt lat="55.758810" lon="38.707690"><ele>133.2</ele><time>1970-01-01T00:07:14Z</time></trkpt>
			<trkpt lat="55.758520" lon="38.708170"><ele>133.7</ele><time>1970-01-01T00:07:20Z</time></trkpt>
			<trkpt lat="55.758290" lon="38.708500"><ele>134.3</ele><time>1970-01-01T00:07:26Z</time></trkpt>
			<trkpt lat="55.758100" lon="38.708670"><ele>134.8</ele><time>1970-01-01T00:07:31Z</time></trkpt>
			<trkpt lat="55.757930" lon="38.708740"><ele>135.2</ele><time>1970-01-01T00:07:37Z</time></trkpt>
			<trkpt lat="55.757770" lon="38.708720"><ele>135.5</ele><time>1970-01-01T00:07:43Z</time></trkpt>
			<trkpt lat="55.757590" lon="38.708590"><ele>135.8</ele><time>1970-01-01T00:07:49Z</time></trkpt>
			<trkpt lat="55.755190" lon="38.704830"><ele>136.6</ele><time>1970-01-01T00:07:54Z</time></trkpt>
			<trkpt lat="55.754760" lon="38.704170"><ele>136.0</ele><time>1970-01-01T00:08:00Z</time></trkpt>
			<trkpt lat="55.753000" lon="38.701420"><ele>133.9</ele><time>1970-01-01T00:08:06Z</time></trkpt>
			<trkpt lat="55.752840" lon="38.701210"><ele>133.8</ele><time>1970-01-01T00:08:12Z</time></trkpt>
			<trkpt lat="55.752610" lon="38.701000"><ele>134.0</ele><time>1970-01-01T00:08:17Z</time></trkpt>
			<trkpt lat="55.752200" lon="38.700740"><ele>133.5</ele><time>1970-01-01T00:08:23Z</time></trkpt>
			<trkpt lat="55.752100" lon="38.700690"><ele>133.3</ele><time>1970-01-01T00:08:29Z</time></trkpt>
			<trkpt lat="55.752000" lon="38.700680"><ele>133.2</ele><time>1970-01-01T00:08:35Z</time></trkpt>
			<trkpt lat="55.751900" lon="38.700740"><ele>133.2</ele><time>1970-01-01T00:08:40Z</time></trkpt>
			<trkpt lat="55.751790" lon="38.700920"><ele>133.2</ele><time>1970-01-01T00:08:46Z</time></trkpt>
			<trkpt lat="55.751590" lon="38.701610"><ele>132.8</ele><time>1970-01-01T00:08:52Z</time></trkpt>
			<trkpt lat="55.751460" lon="38.701980"><ele>132.5</ele><time>1970-01-01T00:08:58Z</time></trkpt>
			<trkpt lat="55.751280" lon="38.702310"><ele>132.1</ele><time>1970-01-01T00:09:03Z</time></trkpt>
			<trkpt lat="55.751110" lon="38.702550"><ele>131.7</ele><time>1970-01-01T00:09:09Z</time></trkpt>
			<trkpt lat="55.750560" lon="38.703160"><ele>131.1</ele><time>1970-01-01T00:09:15Z</time></trkpt>
			<trkpt lat="55.750350" lon="38.703350"><ele>130.9</ele><time>1970-01-01T00:09:21Z</time></trkpt>
			<trkpt lat="55.750060" lon="38.703530"><ele>130.6</ele><time>1970-01-01T00:09:26Z</time></trkpt>
			<trkpt lat="55.750010" lon="38.703540"><ele>130.5</ele><time>1970-01-01T00:09:32Z</time></trkpt>
			<trkpt lat="55.749870" lon="38.703570"><ele>130.6</ele><time>1970-01-01T00:09:38Z</time></trkpt>
			<trkpt lat="55.749630" lon="38.703550"><ele>130.8</ele><time>1970-01-01T00:09:44Z</time></trkpt>
			<trkpt lat="55.748180" lon="38.703120"><ele>132.3</ele><time>1970-01-01T00:09:49Z</time></trkpt>
			<trkpt lat="55.747220" lon="38.702840"><ele>132.7</ele><time>1970-01-01T00:09:55Z</time></trkpt>
			<trkpt lat="55.745400" lon="38.702290"><ele>131.9</ele><time>1970-01-01T00:10:01Z</time></trkpt>
			<trkpt lat="55.744130" lon="38.701910"><ele>133.8</ele><time>1970-01-01T00:10:07Z</time></trkpt>
			<trkpt lat="55.743180" lon="38.701670"><ele>133.6</ele><time>1970-01-01T00:10:12Z</time></trkpt>
			<trkpt lat="55.741600" lon="38.701400"><ele>133.4</ele><time>1970-01-01T00:10:18Z</time></trkpt>
			<trkpt lat="55.741350" lon="38.701410"><ele>133.4</ele><time>1970-01-01T00:10:24Z</time></trkpt>
			<trkpt lat="55.741130" lon="38.701470"><ele>133.5</ele><time>1970-01-01T00:10:30Z</time></trkpt>
			<trkpt lat="55.740910" lon="38.701580"><ele>133.8</ele><time>1970-01-01T00:10:35Z</time></trkpt>
			<trkpt lat="55.740780" lon="38.701680"><ele>133.8</ele><time>1970-01-01T00:10:41Z</time></trkpt>
			<trkpt lat="55.739400" lon="38.702860"><ele>130.7</ele><time>1970-01-01T00:10:47Z</time></trkpt>
			<trkpt lat="55.739000" lon="38.703200"><ele>130.7</ele><time>1970-01-01T00:10:53Z</time></trkpt>
			<trkpt lat="55.738680" lon="38.703430"><ele>131.5</ele><time>1970-01-01T00:10:59Z</time></trkpt>
			<trkpt lat="55.738390" lon="38.703610"><ele>131.9</ele><time>1970-01-01T00:11:04Z</time></trkpt>
			<trkpt lat="55.737440" lon="38.704210"><ele>135.9</ele><time>1970-01-01T00:11:10Z</time></trkpt>
			<trkpt lat="55.736930" lon="38.704470"><ele>135.3</ele><time>1970-01-01T00:11:16Z</time></trkpt>
			<trkpt lat="55.736650" lon="38.704580"><ele>135.2</ele><time>1970-01-01T00:11:22Z</time></trkpt>
			<trkpt lat="55.736040" lon="38.704730"><ele>136.7</ele><time>1970-01-01T00:11:27Z</time></trkpt>
			<trkpt lat="55.734980" lon="38.704970"><ele>134.3</ele><time>1970-01-01T00:11:33Z</time></trkpt>
			<trkpt lat="55.734470" lon="38.705040"><ele>136.5</ele><time>1970-01-01T00:11:39Z</time></trkpt>
			<trkpt lat="55.734170" lon="38.705010"><ele>137.6</ele><time>1970-01-01T00:11:45Z</time></trkpt>
			<trkpt lat="55.733880" lon="38.704930"><ele>137.1</ele><time>1970-01-01T00:11:50Z</time></trkpt>
			<trkpt lat="55.733560" lon="38.704780"><ele>135.9</ele><time>1970-01-01T00:11:56Z</time></trkpt>
			<trkpt lat="55.733200" lon="38.704540"><ele>135.3</ele><time>1970-01-01T00:12:02Z</time></trkpt>
			<trkpt lat="55.732920" lon="38.704300"><ele>136.0</ele><time>1970-01-01T00:12:08Z</time></trkpt>
			<trkpt lat="55.731150" lon="38.702750"><ele>134.7</ele><time>1970-01-01T00:12:13Z</time></trkpt>
			<trkpt lat="55.730870" lon="38.702510"><ele>134.9</ele><time>1970-01-01T00:12:19Z</time></trkpt>
			<trkpt lat="55.730450" lon="38.702240"><ele>134.6</ele><time>1970-01-01T00:12:25Z</time></trkpt>
			<trkpt lat="55.730190" lon="38.702120"><ele>134.0</ele><time>1970-01-01T00:12:31Z</time></trkpt>
			<trkpt lat="55.729960" lon="38.702050"><ele>133.6</ele><time>1970-01-01T00:12:36Z</time></trkpt>
			<trkpt lat="55.729670" lon="38.701970"><ele>133.9</ele><time>1970-01-01T00:12:42Z</time></trkpt>
			<trkpt lat="55.729390" lon="38.701980"><ele>134.4</ele><time>1970-01-01T00:12:48Z</time></trkpt>
			<trkpt lat="55.729050" lon="38.702040"><ele>135.2</ele><time>1970-01-01T00:12:54Z</time></trkpt>
			<trkpt lat="55.728540" lon="38.702290"><ele>137.0</ele><time>1970-01-01T00:12:59Z</time></trkpt>
			<trkpt lat="55.728220" lon="38.702520"><ele>138.5</ele><time>1970-01-01T00:13:05Z</time></trkpt>
			<trkpt lat="55.727540" lon="38.703070"><ele>141.2</ele><time>1970-01-01T00:13:11Z</time></trkpt>
			<trkpt lat="55.726560" lon="38.703890"><ele>142.1</ele><time>1970-01-01T00:13:17Z</time></trkpt>
			<trkpt lat="55.726080" lon="38.704300"><ele>141.7</ele><time>1970-01-01T00:13:22Z</time></trkpt>
			<trkpt lat="55.725720" lon="38.704560"><ele>141.6</ele><time>1970-01-01T00:13:28Z</time></trkpt>
			<trkpt lat="55.725180" lon="38.704870"><ele>141.3</ele><time>1970-01-01T00:13:34Z</time></trkpt>
			<trkpt lat="55.724610" lon="38.705170"><ele>141.6</ele><time>1970-01-01T00:13:40Z</time></trkpt>
			<trkpt lat="55.724230" lon="38.705360"><ele>142.0</ele><time>1970-01-01T00:13:45Z</time></trkpt>
			<trkpt lat="55.724130" lon="38.705430"><ele>141.9</ele><time>1970-01-01T00:13:51Z</time></trkpt>
			<trkpt lat="55.724060" lon="38.705480"><ele>141.8</ele><time>1970-01-01T00:13:57Z</time></trkpt>
			<trkpt lat="55.723830" lon="38.705700"><ele>141.3</ele><time>1970-01-01T00:14:03Z</time></trkpt>
			<trkpt lat="55.723550" lon="38.706030"><ele>140.5</ele><time>1970-01-01T00:14:08Z</time></trkpt>
			<trkpt lat="55.722850" lon="38.706910"><ele>140.0</ele><time>1970-01-01T00:14:14Z</time></trkpt>
			<trkpt lat="55.721930" lon="38.708240"><ele>140.3</ele><time>1970-01-01T00:14:20Z</time></trkpt>
			<trkpt lat="55.721540" lon="38.708760"><ele>139.8</ele><time>1970-01-01T00:14:26Z</time></trkpt>
			<trkpt lat="55.720690" lon="38.709740"><ele>136.3</ele><time>1970-01-01T00:14:31Z</time></trkpt>
			<trkpt lat="55.719430" lon="38.711090"><ele>132.5</ele><time>1970-01-01T00:14:37Z</time></trkpt>
			<trkpt lat="55.718560" lon="38.712250"><ele>133.8</ele><time>1970-01-01T00:14:43Z</time></trkpt>
			<trkpt lat="55.718410" lon="38.712450"><ele>133.3</ele><time>1970-01-01T00:14:49Z</time></trkpt>
			<trkpt lat="55.717650" lon="38.713460"><ele>130.7</ele><time>1970-01-01T00:14:54Z</time></trkpt>
			<trkpt lat="55.713200" lon="38.719500"><ele>129.7</ele><time>1970-01-01T00:15:00Z</time></trkpt>
			<trkpt lat="55.712490" lon="38.720450"><ele>129.8</ele><time>1970-01-01T00:15:06Z</time></trkpt>
			<trkpt lat="55.712430" lon="38.720550"><ele>129.5</ele><time>1970-01-01T00:15:12Z</time></trkpt>
			<trkpt lat="55.712150" lon="38.720960"><ele>128.7</ele><time>1970-01-01T00:15:17Z</time></trkpt>
			<trkpt lat="55.712060" lon="38.721140"><ele>128.9</ele><time>1970-01-01T00:15:23Z</time></trkpt>
			<trkpt lat="55.711980" lon="38.721380"><ele>129.2</ele><time>1970-01-01T00:15:29Z</time></trkpt>
			<trkpt lat="55.711930" lon="38.721630"><ele>129.6</ele><time>1970-01-01T00:15:35Z</time></trkpt>
			<trkpt lat="55.712050" lon="38.724430"><ele>130.8</ele><time>1970-01-01T00:15:40Z</time></trkpt>
			<trkpt lat="55.712050" lon="38.724800"><ele>131.0</ele><time>1970-01-01T00:15:46Z</time></trkpt>
			<trkpt lat="55.711990" lon="38.725100"><ele>131.3</ele><time>1970-01-01T00:15:52Z</time></trkpt>
			<trkpt lat="55.711900" lon="38.725320"><ele>131.6</ele><time>1970-01-01T00:15:58Z</time></trkpt>
			<trkpt lat="55.711750" lon="38.725470"><ele>131.9</ele><time>1970-01-01T00:16:03Z</time></trkpt>
			<trkpt lat="55.711620" lon="38.725550"><ele>132.1</ele><time>1970-01-01T00:16:09Z</time></trkpt>
			<trkpt lat="55.711460" lon="38.725610"><ele>132.2</ele><time>1970-01-01T00:16:15Z</time></trkpt>
			<trkpt lat="55.711060" lon="38.725680"><ele>132.7</ele><time>1970-01-01T00:16:21Z</time></trkpt>
			<trkpt lat="55.710170" lon="38.725770"><ele>132.1</ele><time>1970-01-01T00:16:26Z</time></trkpt>
			<trkpt lat="55.708100" lon="38.725960"><ele>131.2</ele><time>1970-01-01T00:16:32Z</time></trkpt>
			<trkpt lat="55.705950" lon="38.726180"><ele>129.6</ele><time>1970-01-01T00:16:38Z</time></trkpt>
			<trkpt lat="55.705210" lon="38.726270"><ele>128.8</ele><time>1970-01-01T00:16:44Z</time></trkpt>
			<trkpt lat="55.704600" lon="38.726350"><ele>127.7</ele><time>1970-01-01T00:16:49Z</time></trkpt>
			<trkpt lat="55.703810" lon="38.726450"><ele>125.7</ele><time>1970-01-01T00:16:55Z</time></trkpt>
			<trkpt lat="55.703530" lon="38.726490"><ele>124.8</ele><time>1970-01-01T00:17:01Z</time></trkpt>
			<trkpt lat="55.703390" lon="38.726530"><ele>124.3</ele><time>1970-01-01T00:17:07Z</time></trkpt>
			<trkpt lat="55.703310" lon="38.726570"><ele>124.1</ele><time>1970-01-01T00:17:12Z</time></trkpt>
			<trkpt lat="55.703090" lon="38.726710"><ele>124.0</ele><time>1970-01-01T00:17:18Z</time></trkpt>
			<trkpt lat="55.702900" lon="38.726870"><ele>124.0</ele><time>1970-01-01T00:17:24Z</time></trkpt>
			<trkpt lat="55.702250" lon="38.727600"><ele>124.1</ele><time>1970-01-01T00:17:30Z</time></trkpt>
			<trkpt lat="55.701690" lon="38.728250"><ele>124.9</ele><time>1970-01-01T00:17:35Z</time></trkpt>
			<trkpt lat="55.701180" lon="38.728830"><ele>126.5</ele><time>1970-01-01T00:17:41Z</time></trkpt>
			<trkpt lat="55.701010" lon="38.728950"><ele>127.2</ele><time>1970-01-01T00:17:47Z</time></trkpt>
			<trkpt lat="55.700850" lon="38.729020"><ele>127.8</ele><time>1970-01-01T00:17:53Z</time></trkpt>
			<trkpt lat="55.700700" lon="38.729060"><ele>127.8</ele><time>1970-01-01T00:17:58Z</time></trkpt>
			<trkpt lat="55.700540" lon="38.729070"><ele>127.8</ele><time>1970-01-01T00:18:04Z</time></trkpt>
			<trkpt lat="55.699320" lon="38.728950"><ele>125.8</ele><time>1970-01-01T00:18:10Z</time></trkpt>
			<trkpt lat="55.697420" lon="38.728600"><ele>128.5</ele><time>1970-01-01T00:18:16Z</time></trkpt>
			<trkpt lat="55.697270" lon="38.728600"><ele>128.0</ele><time>1970-01-01T00:18:21Z</time></trkpt>
			<trkpt lat="55.697050" lon="38.728650"><ele>127.4</ele><time>1970-01-01T00:18:27Z</time></trkpt>
			<trkpt lat="55.696000" lon="38.729220"><ele>127.0</ele><time>1970-01-01T00:18:33Z</time></trkpt>
			<trkpt lat="55.695390" lon="38.729480"><ele>128.1</ele><time>1970-01-01T00:18:39Z</time></trkpt>
			<trkpt lat="55.695330" lon="38.729490"><ele>128.2</ele><time>1970-01-01T00:18:44Z</time></trkpt>
			<trkpt lat="55.695150" lon="38.729520"><ele>128.6</ele><time>1970-01-01T00:18:50Z</time></trkpt>
			<trkpt lat="55.690460" lon="38.729600"><ele>134.2</ele><time>1970-01-01T00:18:56Z</time></trkpt>
			<trkpt lat="55.689690" lon="38.729610"><ele>134.7</ele><time>1970-01-01T00:19:02Z</time></trkpt>
			<trkpt lat="55.689290" lon="38.729720"><ele>136.3</ele><time>1970-01-01T00:19:07Z</time></trkpt>
			<trkpt lat="55.689090" lon="38.729800"><ele>136.9</ele><time>1970-01-01T00:19:13Z</time></trkpt>
			<trkpt lat="55.688220" lon="38.730150"><ele>136.5</ele><time>1970-01-01T00:19:19Z</time></trkpt>
			<trkpt lat="55.688050" lon="38.730210"><ele>136.4</ele><time>1970-01-01T00:19:25Z</time></trkpt>
			<trkpt lat="55.687200" lon="38.730580"><ele>136.1</ele><time>1970-01-01T00:19:30Z</time></trkpt>
			<trkpt lat="55.687070" lon="38.730660"><ele>136.3</ele><time>1970-01-01T00:19:36Z</time></trkpt>
			<trkpt lat="55.686920" lon="38.730820"><ele>136.7</ele><time>1970-01-01T00:19:42Z</time></trkpt>
			<trkpt lat="55.686610" lon="38.731240"><ele>138.1</ele><time>1970-01-01T00:19:48Z</time></trkpt>
			<trkpt lat="55.685980" lon="38.732150"><ele>140.5</ele><time>1970-01-01T00:19:53Z</time></trkpt>
			<trkpt lat="55.685680" lon="38.732550"><ele>140.9</ele><time>1970-01-01T00:19:59Z</time></trkpt>
			<trkpt lat="55.685280" lon="38.732920"><ele>141.1</ele><time>1970-01-01T00:20:05Z</time></trkpt>
			<trkpt lat="55.682040" lon="38.735470"><ele>142.6</ele><time>1970-01-01T00:20:11Z</time></trkpt>
			<trkpt lat="55.681490" lon="38.735980"><ele>139.8</ele><time>1970-01-01T00:20:16Z</time></trkpt>
			<trkpt lat="55.681210" lon="38.736260"><ele>137.7</ele><time>1970-01-01T00:20:22Z</time></trkpt>
			<trkpt lat="55.681020" lon="38.736510"><ele>136.3</ele><time>1970-01-01T00:20:28Z</time></trkpt>
			<trkpt lat="55.680810" lon="38.736850"><ele>135.3</ele><time>1970-01-01T00:20:34Z</time></trkpt>
			<trkpt lat="55.680660" lon="38.737170"><ele>135.3</ele><time>1970-01-01T00:20:39Z</time></trkpt>
			<trkpt lat="55.680300" lon="38.737810"><ele>136.0</ele><time>1970-01-01T00:20:45Z</time></trkpt>
			<trkpt lat="55.679930" lon="38.738620"><ele>138.6</ele><time>1970-01-01T00:20:51Z</time></trkpt>
			<trkpt lat="55.678700" lon="38.741320"><ele>144.1</ele><time>1970-01-01T00:20:57Z</time></trkpt>
			<trkpt lat="55.678580" lon="38.741720"><ele>144.4</ele><time>1970-01-01T00:21:02Z</time></trkpt>
			<trkpt lat="55.678440" lon="38.742390"><ele>141.8</ele><time>1970-01-01T00:21:08Z</time></trkpt>
			<trkpt lat="55.678330" lon="38.743290"><ele>140.3</ele><time>1970-01-01T00:21:14Z</time></trkpt>
			<trkpt lat="55.678190" lon="38.744120"><ele>142.1</ele><time>1970-01-01T00:21:20Z</time></trkpt>
			<trkpt lat="55.677470" lon="38.747210"><ele>139.1</ele><time>1970-01-01T00:21:26Z</time></trkpt>
			<trkpt lat="55.676370" lon="38.753370"><ele>137.0</ele><time>1970-01-01T00:21:31Z</time></trkpt>
			<trkpt lat="55.676090" lon="38.755080"><ele>137.5</ele><time>1970-01-01T00:21:37Z</time></trkpt>
			<trkpt lat="55.675830" lon="38.756860"><ele>138.0</ele><time>1970-01-01T00:21:43Z</time></trkpt>
			<trkpt lat="55.675730" lon="38.757770"><ele>137.7</ele><time>1970-01-01T00:21:49Z</time></trkpt>
			<trkpt lat="55.675700" lon="38.758690"><ele>137.0</ele><time>1970-01-01T00:21:54Z</time></trkpt>
			<trkpt lat="55.675700" lon="38.759440"><ele>136.6</ele><time>1970-01-01T00:22:00Z</time></trkpt>
			<trkpt lat="55.675650" lon="38.759900"><ele>135.9</ele><time>1970-01-01T00:22:06Z</time></trkpt>
			<trkpt lat="55.675310" lon="38.761380"><ele>135.2</ele><time>1970-01-01T00:22:12Z</time></trkpt>
			<trkpt lat="55.675110" lon="38.762090"><ele>133.9</ele><time>1970-01-01T00:22:17Z</time></trkpt>
			<trkpt lat="55.674880" lon="38.762640"><ele>133.0</ele><time>1970-01-01T00:22:23Z</time></trkpt>
			<trkpt lat="55.674580" lon="38.763170"><ele>132.6</ele><time>1970-01-01T00:22:29Z</time></trkpt>
			<trkpt lat="55.674150" lon="38.763760"><ele>131.6</ele><time>1970-01-01T00:22:35Z</time></trkpt>
			<trkpt lat="55.673220" lon="38.764820"><ele>133.2</ele><time>1970-01-01T00:22:40Z</time></trkpt>
			<trkpt lat="55.672450" lon="38.765740"><ele>134.3</ele><time>1970-01-01T00:22:46Z</time></trkpt>
			<trkpt lat="55.672280" lon="38.765940"><ele>134.8</ele><time>1970-01-01T00:22:52Z</time></trkpt>
			<trkpt lat="55.672170" lon="38.766110"><ele>135.3</ele><time>1970-01-01T00:22:58Z</time></trkpt>
			<trkpt lat="55.672100" lon="38.766250"><ele>135.7</ele><time>1970-01-01T00:23:03Z</time></trkpt>
			<trkpt lat="55.672030" lon="38.766440"><ele>136.1</ele><time>1970-01-01T00:23:09Z</time></trkpt>
			<trkpt lat="55.671960" lon="38.766700"><ele>136.6</ele><time>1970-01-01T00:23:15Z</time></trkpt>
			<trkpt lat="55.671730" lon="38.767830"><ele>138.7</ele><time>1970-01-01T00:23:21Z</time></trkpt>
			<trkpt lat="55.671690" lon="38.768070"><ele>138.9</ele><time>1970-01-01T00:23:26Z</time></trkpt>
			<trkpt lat="55.671240" lon="38.770280"><ele>139.7</ele><time>1970-01-01T00:23:32Z</time></trkpt>
			<trkpt lat="55.670730" lon="38.772570"><ele>138.1</ele><time>1970-01-01T00:23:38Z</time></trkpt>
			<trkpt lat="55.670530" lon="38.773360"><ele>137.7</ele><time>1970-01-01T00:23:44Z</time></trkpt>
			<trkpt lat="55.670340" lon="38.773970"><ele>137.4</ele><time>1970-01-01T00:23:49Z</time></trkpt>
			<trkpt lat="55.669600" lon="38.776160"><ele>137.4</ele><time>1970-01-01T00:23:55Z</time></trkpt>
			<trkpt lat="55.669510" lon="38.776480"><ele>137.8</ele><time>1970-01-01T00:24:01Z</time></trkpt>
			<trkpt lat="55.669450" lon="38.776710"><ele>138.0</ele><time>1970-01-01T00:24:07Z</time></trkpt>
			<trkpt lat="55.669420" lon="38.776840"><ele>138.2</ele><time>1970-01-01T00:24:12Z</time></trkpt>
			<trkpt lat="55.669280" lon="38.777480"><ele>139.3</ele><time>1970-01-01T00:24:18Z</time></trkpt>
			<trkpt lat="55.668880" lon="38.779760"><ele>138.2</ele><time>1970-01-01T00:24:24Z</time></trkpt>
			<trkpt lat="55.668660" lon="38.780850"><ele>137.7</ele><time>1970-01-01T00:24:30Z</time></trkpt>
			<trkpt lat="55.668460" lon="38.781620"><ele>137.8</ele><time>1970-01-01T00:24:35Z</time></trkpt>
			<trkpt lat="55.668270" lon="38.782290"><ele>137.2</ele><time>1970-01-01T00:24:41Z</time></trkpt>
			<trkpt lat="55.667970" lon="38.783150"><ele>135.8</ele><time>1970-01-01T00:24:47Z</time></trkpt>
			<trkpt lat="55.667610" lon="38.784080"><ele>135.8</ele><time>1970-01-01T00:24:53Z</time></trkpt>
			<trkpt lat="55.667300" lon="38.784920"><ele>136.2</ele><time>1970-01-01T00:24:58Z</time></trkpt>
			<trkpt lat="55.666940" lon="38.785890"><ele>137.0</ele><time>1970-01-01T00:25:04Z</time></trkpt>
			<trkpt lat="55.666700" lon="38.786630"><ele>137.9</ele><time>1970-01-01T00:25:10Z</time></trkpt>
			<trkpt lat="55.666550" lon="38.787220"><ele>139.1</ele><time>1970-01-01T00:25:16Z</time></trkpt>
			<trkpt lat="55.666450" lon="38.787770"><ele>140.1</ele><time>1970-01-01T00:25:21Z</time></trkpt>
			<trkpt lat="55.666360" lon="38.788560"><ele>140.3</ele><time>1970-01-01T00:25:27Z</time></trkpt>
			<trkpt lat="55.666070" lon="38.791840"><ele>140.2</ele><time>1970-01-01T00:25:33Z</time></trkpt>
			<trkpt lat="55.665710" lon="38.796060"><ele>137.6</ele><time>1970-01-01T00:25:39Z</time></trkpt>
			<trkpt lat="55.665610" lon="38.797040"><ele>138.5</ele><time>1970-01-01T00:25:44Z</time></trkpt>
			<trkpt lat="55.665540" lon="38.797540"><ele>139.3</ele><time>1970-01-01T00:25:50Z</time></trkpt>
			<trkpt lat="55.665380" lon="38.798270"><ele>139.2</ele><time>1970-01-01T00:25:56Z</time></trkpt>
			<trkpt lat="55.665180" lon="38.799050"><ele>139.6</ele><time>1970-01-01T00:26:02Z</time></trkpt>
			<trkpt lat="55.664780" lon="38.800500"><ele>140.1</ele><time>1970-01-01T00:26:07Z</time></trkpt>
			<trkpt lat="55.664670" lon="38.800890"><ele>139.9</ele><time>1970-01-01T00:26:13Z</time></trkpt>
			<trkpt lat="55.664050" lon="38.803190"><ele>138.2</ele><time>1970-01-01T00:26:19Z</time></trkpt>
			<trkpt lat="55.663960" lon="38.803500"><ele>138.1</ele><time>1970-01-01T00:26:25Z</time></trkpt>
			<trkpt lat="55.663730" lon="38.804260"><ele>138.5</ele><time>1970-01-01T00:26:30Z</time></trkpt>
			<trkpt lat="55.663570" lon="38.804660"><ele>138.7</ele><time>1970-01-01T00:26:36Z</time></trkpt>
			<trkpt lat="55.663340" lon="38.805120"><ele>138.6</ele><time>1970-01-01T00:26:42Z</time></trkpt>
			<trkpt lat="55.661180" lon="38.808800"><ele>137.5</ele><time>1970-01-01T00:26:48Z</time></trkpt>
			<trkpt lat="55.655050" lon="38.819020"><ele>134.1</ele><time>1970-01-01T00:26:53Z</time></trkpt>
			<trkpt lat="55.654770" lon="38.819580"><ele>133.9</ele><time>1970-01-01T00:26:59Z</time></trkpt>
			<trkpt lat="55.654630" lon="38.819930"><ele>133.9</ele><time>1970-01-01T00:27:05Z</time></trkpt>
			<trkpt lat="55.654530" lon="38.820280"><ele>134.0</ele><time>1970-01-01T00:27:11Z</time></trkpt>
			<trkpt lat="55.654450" lon="38.820640"><ele>134.0</ele><time>1970-01-01T00:27:16Z</time></trkpt>
			<trkpt lat="55.654120" lon="38.823110"><ele>132.7</ele><time>1970-01-01T00:27:22Z</time></trkpt>
			<trkpt lat="55.653810" lon="38.825430"><ele>131.7</ele><time>1970-01-01T00:27:28Z</time></trkpt>
			<trkpt lat="55.653660" lon="38.826470"><ele>128.9</ele><time>1970-01-01T00:27:34Z</time></trkpt>
			<trkpt lat="55.653400" lon="38.828200"><ele>125.2</ele><time>1970-01-01T00:27:39Z</time></trkpt>
			<trkpt lat="55.651860" lon="38.837330"><ele>124.0</ele><time>1970-01-01T00:27:45Z</time></trkpt>
			<trkpt lat="55.651840" lon="38.837450"><ele>124.0</ele><time>1970-01-01T00:27:51Z</time></trkpt>
			<trkpt lat="55.651430" lon="38.839850"><ele>127.4</ele><time>1970-01-01T00:27:57Z</time></trkpt>
			<trkpt lat="55.650060" lon="38.845570"><ele>134.0</ele><time>1970-01-01T00:28:02Z</time></trkpt>
			<trkpt lat="55.649820" lon="38.846450"><ele>134.9</ele><time>1970-01-01T00:28:08Z</time></trkpt>
			<trkpt lat="55.647850" lon="38.852430"><ele>133.4</ele><time>1970-01-01T00:28:14Z</time></trkpt>
			<trkpt lat="55.647680" lon="38.852870"><ele>132.9</ele><time>1970-01-01T00:28:20Z</time></trkpt>
			<trkpt lat="55.647490" lon="38.853250"><ele>132.1</ele><time>1970-01-01T00:28:25Z</time></trkpt>
			<trkpt lat="55.646340" lon="38.854980"><ele>130.2</ele><time>1970-01-01T00:28:31Z</time></trkpt>
			<trkpt lat="55.645630" lon="38.856040"><ele>128.8</ele><time>1970-01-01T00:28:37Z</time></trkpt>
			<trkpt lat="55.644570" lon="38.857560"><ele>127.0</ele><time>1970-01-01T00:28:43Z</time></trkpt>
			<trkpt lat="55.644240" lon="38.858040"><ele>126.4</ele><time>1970-01-01T00:28:48Z</time></trkpt>
			<trkpt lat="55.643940" lon="38.858410"><ele>126.1</ele><time>1970-01-01T00:28:54Z</time></trkpt>
			<trkpt lat="55.643600" lon="38.858750"><ele>126.5</ele><time>1970-01-01T00:29:00Z</time></trkpt>
			<trkpt lat="55.643380" lon="38.858940"><ele>126.7</ele><time>1970-01-01T00:29:06Z</time></trkpt>
			<trkpt lat="55.643220" lon="38.859070"><ele>126.7</ele><time>1970-01-01T00:29:11Z</time></trkpt>
			<trkpt lat="55.642090" lon="38.859940"><ele>126.4</ele><time>1970-01-01T00:29:17Z</time></trkpt>
			<trkpt lat="55.641920" lon="38.860090"><ele>126.3</ele><time>1970-01-01T00:29:23Z</time></trkpt>
			<trkpt lat="55.641640" lon="38.860370"><ele>126.0</ele><time>1970-01-01T00:29:29Z</time></trkpt>
			<trkpt lat="55.641320" lon="38.860730"><ele>126.0</ele><time>1970-01-01T00:29:34Z</time></trkpt>
			<trkpt lat="55.641240" lon="38.860820"><ele>126.0</ele><time>1970-01-01T00:29:40Z</time></trkpt>
			<trkpt lat="55.641160" lon="38.860900"><ele>126.0</ele><time>1970-01-01T00:29:46Z</time></trkpt>
			<trkpt lat="55.640880" lon="38.861280"><ele>126.0</ele><time>1970-01-01T00:29:52Z</time></trkpt>
			<trkpt lat="55.640530" lon="38.861790"><ele>126.0</ele><time>1970-01-01T00:29:57Z</time></trkpt>
			<trkpt lat="55.638620" lon="38.864920"><ele>126.0</ele><time>1970-01-01T00:30:03Z</time></trkpt>
			<trkpt lat="55.638350" lon="38.865370"><ele>126.4</ele><time>1970-01-01T00:30:09Z</time></trkpt>
			<trkpt lat="55.637710" lon="38.866380"><ele>127.5</ele><time>1970-01-01T00:30:15Z</time></trkpt>
			<trkpt lat="55.637220" lon="38.867200"><ele>126.5</ele><time>1970-01-01T00:30:20Z</time></trkpt>
			<trkpt lat="55.636940" lon="38.867700"><ele>126.1</ele><time>1970-01-01T00:30:26Z</time></trkpt>
			<trkpt lat="55.636890" lon="38.867800"><ele>126.2</ele><time>1970-01-01T00:30:32Z</time></trkpt>
			<trkpt lat="55.636860" lon="38.867850"><ele>126.2</ele><time>1970-01-01T00:30:38Z</time></trkpt>
			<trkpt lat="55.636750" lon="38.868050"><ele>126.5</ele><time>1970-01-01T00:30:43Z</time></trkpt>
			<trkpt lat="55.636700" lon="38.868110"><ele>126.5</ele><time>1970-01-01T00:30:49Z</time></trkpt>
			<trkpt lat="55.636660" lon="38.868160"><ele>126.6</ele><time>1970-01-01T00:30:55Z</time></trkpt>
			<trkpt lat="55.636430" lon="38.868450"><ele>126.7</ele><time>1970-01-01T00:31:01Z</time></trkpt>
			<trkpt lat="55.636220" lon="38.868600"><ele>126.3</ele><time>1970-01-01T00:31:06Z</time></trkpt>
			<trkpt lat="55.636010" lon="38.868730"><ele>125.8</ele><time>1970-01-01T00:31:12Z</time></trkpt>
			<trkpt lat="55.635410" lon="38.868990"><ele>124.5</ele><time>1970-01-01T00:31:18Z</time></trkpt>
			<trkpt lat="55.634740" lon="38.869170"><ele>123.7</ele><time>1970-01-01T00:31:24Z</time></trkpt>
			<trkpt lat="55.634470" lon="38.869200"><ele>123.4</ele><time>1970-01-01T00:31:29Z</time></trkpt>
			<trkpt lat="55.634190" lon="38.869190"><ele>123.1</ele><time>1970-01-01T00:31:35Z</time></trkpt>
			<trkpt lat="55.633960" lon="38.869140"><ele>123.0</ele><time>1970-01-01T00:31:41Z</time></trkpt>
			<trkpt lat="55.633690" lon="38.869050"><ele>122.9</ele><time>1970-01-01T00:31:47Z</time></trkpt>
			<trkpt lat="55.633410" lon="38.868940"><ele>123.0</ele><time>1970-01-01T00:31:52Z</time></trkpt>
			<trkpt lat="55.633130" lon="38.868770"><ele>122.9</ele><time>1970-01-01T00:31:58Z</time></trkpt>
			<trkpt lat="55.632890" lon="38.868610"><ele>122.8</ele><time>1970-01-01T00:32:04Z</time></trkpt>
			<trkpt lat="55.632660" lon="38.868400"><ele>122.9</ele><time>1970-01-01T00:32:10Z</time></trkpt>
			<trkpt lat="55.632330" lon="38.867960"><ele>122.4</ele><time>1970-01-01T00:32:16Z</time></trkpt>
			<trkpt lat="55.632080" lon="38.867610"><ele>122.1</ele><time>1970-01-01T00:32:21Z</time></trkpt>
			<trkpt lat="55.631780" lon="38.867120"><ele>121.5</ele><time>1970-01-01T00:32:27Z</time></trkpt>
			<trkpt lat="55.630400" lon="38.864720"><ele>123.6</ele><time>1970-01-01T00:32:33Z</time></trkpt>
			<trkpt lat="55.629530" lon="38.863220"><ele>128.4</ele><time>1970-01-01T00:32:39Z</time></trkpt>
			<trkpt lat="55.629340" lon="38.862960"><ele>129.0</ele><time>1970-01-01T00:32:44Z</time></trkpt>
			<trkpt lat="55.629270" lon="38.862870"><ele>129.0</ele><time>1970-01-01T00:32:50Z</time></trkpt>
			<trkpt lat="55.629060" lon="38.862650"><ele>129.3</ele><time>1970-01-01T00:32:56Z</time></trkpt>
			<trkpt lat="55.628820" lon="38.862490"><ele>129.5</ele><time>1970-01-01T00:33:02Z</time></trkpt>
			<trkpt lat="55.625980" lon="38.860770"><ele>131.8</ele><time>1970-01-01T00:33:07Z</time></trkpt>
			<trkpt lat="55.623730" lon="38.859400"><ele>131.6</ele><time>1970-01-01T00:33:13Z</time></trkpt>
			<trkpt lat="55.623070" lon="38.859010"><ele>129.8</ele><time>1970-01-01T00:33:19Z</time></trkpt>
			<trkpt lat="55.622330" lon="38.858640"><ele>130.4</ele><time>1970-01-01T00:33:25Z</time></trkpt>
			<trkpt lat="55.621940" lon="38.858460"><ele>132.0</ele><time>1970-01-01T00:33:30Z</time></trkpt>
			<trkpt lat="55.621770" lon="38.858370"><ele>132.6</ele><time>1970-01-01T00:33:36Z</time></trkpt>
			<trkpt lat="55.621670" lon="38.858290"><ele>132.8</ele><time>1970-01-01T00:33:42Z</time></trkpt>
			<trkpt lat="55.621520" lon="38.858140"><ele>132.8</ele><time>1970-01-01T00:33:48Z</time></trkpt>
			<trkpt lat="55.621410" lon="38.858010"><ele>132.6</ele><time>1970-01-01T00:33:53Z</time></trkpt>
			<trkpt lat="55.621190" lon="38.857680"><ele>132.2</ele><time>1970-01-01T00:33:59Z</time></trkpt>
			<trkpt lat="55.620630" lon="38.856770"><ele>133.0</ele><time>1970-01-01T00:34:05Z</time></trkpt>
			<trkpt lat="55.619660" lon="38.855110"><ele>133.1</ele><time>1970-01-01T00:34:11Z</time></trkpt>
			<trkpt lat="55.619070" lon="38.854110"><ele>132.7</ele><time>1970-01-01T00:34:16Z</time></trkpt>
			<trkpt lat="55.618570" lon="38.853230"><ele>131.6</ele><time>1970-01-01T00:34:22Z</time></trkpt>
			<trkpt lat="55.618280" lon="38.852710"><ele>131.2</ele><time>1970-01-01T00:34:28Z</time></trkpt>
			<trkpt lat="55.618060" lon="38.852340"><ele>130.9</ele><time>1970-01-01T00:34:34Z</time></trkpt>
			<trkpt lat="55.618020" lon="38.852260"><ele>130.8</ele><time>1970-01-01T00:34:39Z</time></trkpt>
			<trkpt lat="55.617980" lon="38.852200"><ele>130.8</ele><time>1970-01-01T00:34:45Z</time></trkpt>
			<trkpt lat="55.617740" lon="38.851760"><ele>130.8</ele><time>1970-01-01T00:34:51Z</time></trkpt>
			<trkpt lat="55.617600" lon="38.851580"><ele>130.8</ele><time>1970-01-01T00:34:57Z</time></trkpt>
			<trkpt lat="55.617520" lon="38.851500"><ele>130.8</ele><time>1970-01-01T00:35:02Z</time></trkpt>
			<trkpt lat="55.617440" lon="38.851450"><ele>130.8</ele><time>1970-01-01T00:35:08Z</time></trkpt>
			<trkpt lat="55.617280" lon="38.851400"><ele>130.9</ele><time>1970-01-01T00:35:14Z</time></trkpt>
			<trkpt lat="55.617070" lon="38.851440"><ele>131.0</ele><time>1970-01-01T00:35:20Z</time></trkpt>
			<trkpt lat="55.615950" lon="38.851730"><ele>131.8</ele><time>1970-01-01T00:35:25Z</time></trkpt>
			<trkpt lat="55.613910" lon="38.852370"><ele>132.2</ele><time>1970-01-01T00:35:31Z</time></trkpt>
			<trkpt lat="55.611230" lon="38.853210"><ele>129.3</ele><time>1970-01-01T00:35:37Z</time></trkpt>
			<trkpt lat="55.610500" lon="38.853460"><ele>128.5</ele><time>1970-01-01T00:35:43Z</time></trkpt>
			<trkpt lat="55.610350" lon="38.853560"><ele>128.7</ele><time>1970-01-01T00:35:48Z</time></trkpt>
			<trkpt lat="55.610280" lon="38.853620"><ele>128.8</ele><time>1970-01-01T00:35:54Z</time></trkpt>
			<trkpt lat="55.610230" lon="38.853720"><ele>128.8</ele><time>1970-01-01T00:36:00Z</time></trkpt>
			<trkpt lat="55.610180" lon="38.853990"><ele>128.9</ele><time>1970-01-01T00:36:06Z</time></trkpt>
			<trkpt lat="55.610270" lon="38.854700"><ele>127.9</ele><time>1970-01-01T00:36:11Z</time></trkpt>
			<trkpt lat="55.610370" lon="38.855510"><ele>126.9</ele><time>1970-01-01T00:36:17Z</time></trkpt>
			<trkpt lat="55.610380" lon="38.855630"><ele>126.8</ele><time>1970-01-01T00:36:23Z</time></trkpt>
			<trkpt lat="55.610360" lon="38.855750"><ele>126.7</ele><time>1970-01-01T00:36:29Z</time></trkpt>
			<trkpt lat="55.610320" lon="38.855860"><ele>126.6</ele><time>1970-01-01T00:36:34Z</time></trkpt>
			<trkpt lat="55.610240" lon="38.855950"><ele>126.7</ele><time>1970-01-01T00:36:40Z</time></trkpt>
			<trkpt lat="55.609050" lon="38.856840"><ele>128.4</ele><time>1970-01-01T00:36:46Z</time></trkpt>
			<trkpt lat="55.608890" lon="38.856970"><ele>127.8</ele><time>1970-01-01T00:36:52Z</time></trkpt>
			<trkpt lat="55.608760" lon="38.857100"><ele>127.3</ele><time>1970-01-01T00:36:57Z</time></trkpt>
			<trkpt lat="55.608650" lon="38.857240"><ele>126.9</ele><time>1970-01-01T00:37:03Z</time></trkpt>
			<trkpt lat="55.608440" lon="38.857540"><ele>126.2</ele><time>1970-01-01T00:37:09Z</time></trkpt>
			<trkpt lat="55.607950" lon="38.858290"><ele>125.2</ele><time>1970-01-01T00:37:15Z</time></trkpt>
			<trkpt lat="55.607810" lon="38.858500"><ele>125.0</ele><time>1970-01-01T00:37:20Z</time></trkpt>
			<trkpt lat="55.607560" lon="38.858820"><ele>125.3</ele><time>1970-01-01T00:37:26Z</time></trkpt>
			<trkpt lat="55.605750" lon="38.861450"><ele>128.8</ele><time>1970-01-01T00:37:32Z</time></trkpt>
			<trkpt lat="55.604430" lon="38.863410"><ele>126.7</ele><time>1970-01-01T00:37:38Z</time></trkpt>
			<trkpt lat="55.603610" lon="38.864630"><ele>126.0</ele><time>1970-01-01T00:37:43Z</time></trkpt>
			<trkpt lat="55.603210" lon="38.865250"><ele>126.3</ele><time>1970-01-01T00:37:49Z</time></trkpt>
			<trkpt lat="55.603130" lon="38.865370"><ele>126.3</ele><time>1970-01-01T00:37:55Z</time></trkpt>
			<trkpt lat="55.602880" lon="38.865760"><ele>126.0</ele><time>1970-01-01T00:38:01Z</time></trkpt>
			<trkpt lat="55.602800" lon="38.865870"><ele>125.7</ele><time>1970-01-01T00:38:06Z</time></trkpt>
			<trkpt lat="55.602040" lon="38.866970"><ele>125.5</ele><time>1970-01-01T00:38:12Z</time></trkpt>
			<trkpt lat="55.601590" lon="38.867610"><ele>124.0</ele><time>1970-01-01T00:38:18Z</time></trkpt>
			<trkpt lat="55.601190" lon="38.868020"><ele>123.7</ele><time>1970-01-01T00:38:24Z</time></trkpt>
			<trkpt lat="55.600600" lon="38.868320"><ele>122.7</ele><time>1970-01-01T00:38:29Z</time></trkpt>
			<trkpt lat="55.600040" lon="38.868590"><ele>122.1</ele><time>1970-01-01T00:38:35Z</time></trkpt>
			<trkpt lat="55.597870" lon="38.869590"><ele>124.6</ele><time>1970-01-01T00:38:41Z</time></trkpt>
			<trkpt lat="55.589810" lon="38.873270"><ele>130.7</ele><time>1970-01-01T00:38:47Z</time></trkpt>
			<trkpt lat="55.589570" lon="38.873390"><ele>128.9</ele><time>1970-01-01T00:38:52Z</time></trkpt>
			<trkpt lat="55.588990" lon="38.873860"><ele>125.4</ele><time>1970-01-01T00:38:58Z</time></trkpt>
			<trkpt lat="55.586030" lon="38.876280"><ele>126.7</ele><time>1970-01-01T00:39:04Z</time></trkpt>
			<trkpt lat="55.583730" lon="38.878040"><ele>120.3</ele><time>1970-01-01T00:39:10Z</time></trkpt>
			<trkpt lat="55.583100" lon="38.878460"><ele>121.3</ele><time>1970-01-01T00:39:15Z</time></trkpt>
			<trkpt lat="55.582930" lon="38.878570"><ele>120.8</ele><time>1970-01-01T00:39:21Z</time></trkpt>
			<trkpt lat="55.582550" lon="38.878780"><ele>119.8</ele><time>1970-01-01T00:39:27Z</time></trkpt>
			<trkpt lat="55.581980" lon="38.879100"><ele>119.2</ele><time>1970-01-01T00:39:33Z</time></trkpt>
			<trkpt lat="55.581830" lon="38.879220"><ele>119.2</ele><time>1970-01-01T00:39:38Z</time></trkpt>
			<trkpt lat="55.581670" lon="38.879370"><ele>119.0</ele><time>1970-01-01T00:39:44Z</time></trkpt>
			<trkpt lat="55.581450" lon="38.879630"><ele>118.7</ele><time>1970-01-01T00:39:50Z</time></trkpt>
			<trkpt lat="55.581180" lon="38.880000"><ele>118.4</ele><time>1970-01-01T00:39:56Z</time></trkpt>
			<trkpt lat="55.581040" lon="38.880210"><ele>117.9</ele><time>1970-01-01T00:40:01Z</time></trkpt>
			<trkpt lat="55.580970" lon="38.880390"><ele>117.6</ele><time>1970-01-01T00:40:07Z</time></trkpt>
			<trkpt lat="55.580550" lon="38.881370"><ele>117.0</ele><time>1970-01-01T00:40:13Z</time></trkpt>
			<trkpt lat="55.580510" lon="38.881620"><ele>117.1</ele><time>1970-01-01T00:40:19Z</time></trkpt>
			<trkpt lat="55.580500" lon="38.881670"><ele>117.1</ele><time>1970-01-01T00:40:24Z</time></trkpt>
			<trkpt lat="55.580490" lon="38.881820"><ele>117.1</ele><time>1970-01-01T00:40:30Z</time></trkpt>
			<trkpt lat="55.580480" lon="38.883660"><ele>115.8</ele><time>1970-01-01T00:40:36Z</time></trkpt>
			<trkpt lat="55.580450" lon="38.884270"><ele>116.3</ele><time>1970-01-01T00:40:42Z</time></trkpt>
			<trkpt lat="55.580420" lon="38.884560"><ele>116.3</ele><time>1970-01-01T00:40:47Z</time></trkpt>
			<trkpt lat="55.580370" lon="38.884850"><ele>116.2</ele><time>1970-01-01T00:40:53Z</time></trkpt>
			<trkpt lat="55.579310" lon="38.888830"><ele>119.0</ele><time>1970-01-01T00:40:59Z</time></trkpt>
			<trkpt lat="55.579120" lon="38.888770"><ele>119.6</ele><time>1970-01-01T00:41:05Z</time></trkpt>
			<trkpt lat="55.578800" lon="38.888680"><ele>120.3</ele><time>1970-01-01T00:41:10Z</time></trkpt>
			<trkpt lat="55.578750" lon="38.890110"><ele>122.1</ele><time>1970-01-01T00:41:16Z</time></trkpt>
			<trkpt lat="55.578590" lon="38.891590"><ele>123.1</ele><time>1970-01-01T00:41:22Z</time></trkpt>
			<trkpt lat="55.578490" lon="38.892600"><ele>122.7</ele><time>1970-01-01T00:41:28Z</time></trkpt>
			<trkpt lat="55.578320" lon="38.894620"><ele>119.5</ele><time>1970-01-01T00:41:33Z</time></trkpt>
			<trkpt lat="55.578290" lon="38.894890"><ele>119.3</ele><time>1970-01-01T00:41:39Z</time></trkpt>
			<trkpt lat="55.578180" lon="38.896210"><ele>117.9</ele><time>1970-01-01T00:41:45Z</time></trkpt>
			<trkpt lat="55.578030" lon="38.897350"><ele>117.9</ele><time>1970-01-01T00:41:51Z</time></trkpt>
			<trkpt lat="55.577990" lon="38.897580"><ele>118.0</ele><time>1970-01-01T00:41:56Z</time></trkpt>
			<trkpt lat="55.577790" lon="38.898210"><ele>117.7</ele><time>1970-01-01T00:42:02Z</time></trkpt>
			<trkpt lat="55.577610" lon="38.898810"><ele>117.2</ele><time>1970-01-01T00:42:08Z</time></trkpt>
			<trkpt lat="55.577540" lon="38.899080"><ele>117.1</ele><time>1970-01-01T00:42:14Z</time></trkpt>
			<trkpt lat="55.577500" lon="38.899260"><ele>117.2</ele><time>1970-01-01T00:42:19Z</time></trkpt>
			<trkpt lat="55.577480" lon="38.899490"><ele>117.4</ele><time>1970-01-01T00:42:25Z</time></trkpt>
			<trkpt lat="55.577620" lon="38.901030"><ele>118.9</ele><time>1970-01-01T00:42:31Z</time></trkpt>
			<trkpt lat="55.577860" lon="38.903740"><ele>118.6</ele><time>1970-01-01T00:42:37Z</time></trkpt>
			<trkpt lat="55.578586" lon="38.912070"><ele>119.8</ele><time>1970-01-01T00:42:43Z</time></trkpt>
			<trkpt lat="55.578561" lon="38.912391"><ele>120.1</ele><time>1970-01-01T00:42:44Z</time></trkpt>
			<trkpt lat="55.578577" lon="38.912692"><ele>120.2</ele><time>1970-01-01T00:42:46Z</time></trkpt>
			<trkpt lat="55.578642" lon="38.912995"><ele>119.9</ele><time>1970-01-01T00:42:47Z</time></trkpt>
			<trkpt lat="55.578642" lon="38.912995"><ele>119.9</ele><time>1970-01-01T00:42:47Z</time></trkpt>
			<trkpt lat="55.578700" lon="38.914010"><ele>119.6</ele><time>1970-01-01T00:43:03Z</time></trkpt>
			<trkpt lat="55.578750" lon="38.914760"><ele>120.6</ele><time>1970-01-01T00:43:20Z</time></trkpt>
			<trkpt lat="55.578930" lon="38.917310"><ele>122.7</ele><time>1970-01-01T00:43:37Z</time></trkpt>
			<trkpt lat="55.579060" lon="38.919510"><ele>123.3</ele><time>1970-01-01T00:43:53Z</time></trkpt>
			<trkpt lat="55.579140" lon="38.920560"><ele>122.3</ele><time>1970-01-01T00:44:10Z</time></trkpt>
			<trkpt lat="55.579150" lon="38.920820"><ele>122.1</ele><time>1970-01-01T00:44:27Z</time></trkpt>
			<trkpt lat="55.579180" lon="38.921340"><ele>122.6</ele><time>1970-01-01T00:44:44Z</time></trkpt>
			<trkpt lat="55.579230" lon="38.922070"><ele>122.5</ele><time>1970-01-01T00:45:00Z</time></trkpt>
			<trkpt lat="55.579250" lon="38.922400"><ele>122.2</ele><time>1970-01-01T00:45:17Z</time></trkpt>
			<trkpt lat="55.579360" lon="38.924030"><ele>122.0</ele><time>1970-01-01T00:45:34Z</time></trkpt>
			<trkpt lat="55.579370" lon="38.924170"><ele>121.9</ele><time>1970-01-01T00:45:51Z</time></trkpt>
			<trkpt lat="55.579430" lon="38.925150"><ele>120.7</ele><time>1970-01-01T00:46:07Z</time></trkpt>
			<trkpt lat="55.579620" lon="38.928070"><ele>119.6</ele><time>1970-01-01T00:46:24Z</time></trkpt>
			<trkpt lat="55.579730" lon="38.929380"><ele>119.1</ele><time>1970-01-01T00:46:41Z</time></trkpt>
			<trkpt lat="55.579800" lon="38.930690"><ele>117.6</ele><time>1970-01-01T00:46:58Z</time></trkpt>
			<trkpt lat="55.579760" lon="38.931560"><ele>117.6</ele><time>1970-01-01T00:47:14Z</time></trkpt>
			<trkpt lat="55.579600" lon="38.933640"><ele>118.1</ele><time>1970-01-01T00:47:31Z</time></trkpt>
			<trkpt lat="55.579430" lon="38.935870"><ele>119.3</ele><time>1970-01-01T00:47:48Z</time></trkpt>
			<trkpt lat="55.579370" lon="38.936690"><ele>119.5</ele><time>1970-01-01T00:48:04Z</time></trkpt>
			<trkpt lat="55.579350" lon="38.937080"><ele>119.7</ele><time>1970-01-01T00:48:21Z</time></trkpt>
			<trkpt lat="55.578910" lon="38.939140"><ele>118.4</ele><time>1970-01-01T00:48:38Z</time></trkpt>
			<trkpt lat="55.577770" lon="38.944300"><ele>120.0</ele><time>1970-01-01T00:48:55Z</time></trkpt>
			<trkpt lat="55.576580" lon="38.949660"><ele>120.8</ele><time>1970-01-01T00:49:11Z</time></trkpt>
			<trkpt lat="55.576220" lon="38.951480"><ele>119.1</ele><time>1970-01-01T00:49:28Z</time></trkpt>
			<trkpt lat="55.575830" lon="38.953870"><ele>120.0</ele><time>1970-01-01T00:49:45Z</time></trkpt>
			<trkpt lat="55.575400" lon="38.956380"><ele>118.7</ele><time>1970-01-01T00:50:02Z</time></trkpt>
			<trkpt lat="55.575400" lon="38.956420"><ele>118.7</ele><time>1970-01-01T00:50:18Z</time></trkpt>
			<trkpt lat="55.574420" lon="38.961960"><ele>119.8</ele><time>1970-01-01T00:50:35Z</time></trkpt>
			<trkpt lat="55.574170" lon="38.963280"><ele>121.0</ele><time>1970-01-01T00:50:52Z</time></trkpt>
			<trkpt lat="55.571850" lon="38.970910"><ele>123.7</ele><time>1970-01-01T00:51:09Z</time></trkpt>
			<trkpt lat="55.571240" lon="38.972910"><ele>120.3</ele><time>1970-01-01T00:51:25Z</time></trkpt>
			<trkpt lat="55.571070" lon="38.973590"><ele>119.3</ele><time>1970-01-01T00:51:42Z</time></trkpt>
			<trkpt lat="55.570710" lon="38.974750"><ele>119.2</ele><time>1970-01-01T00:51:59Z</time></trkpt>
			<trkpt lat="55.570480" lon="38.975250"><ele>119.4</ele><time>1970-01-01T00:52:15Z</time></trkpt>
			<trkpt lat="55.570190" lon="38.975790"><ele>119.8</ele><time>1970-01-01T00:52:32Z</time></trkpt>
			<trkpt lat="55.569800" lon="38.976550"><ele>120.7</ele><time>1970-01-01T00:52:49Z</time></trkpt>
			<trkpt lat="55.568330" lon="38.979160"><ele>120.0</ele><time>1970-01-01T00:53:06Z</time></trkpt>
			<trkpt lat="55.568210" lon="38.979300"><ele>120.1</ele><time>1970-01-01T00:53:22Z</time></trkpt>
			<trkpt lat="55.568110" lon="38.979330"><ele>120.2</ele><time>1970-01-01T00:53:39Z</time></trkpt>
			<trkpt lat="55.567890" lon="38.979260"><ele>120.1</ele><time>1970-01-01T00:53:56Z</time></trkpt>
			<trkpt lat="55.567750" lon="38.979250"><ele>120.1</ele><time>1970-01-01T00:54:13Z</time></trkpt>
			<trkpt lat="55.567650" lon="38.979280"><ele>120.2</ele><time>1970-01-01T00:54:29Z</time></trkpt>
			<trkpt lat="55.567520" lon="38.979370"><ele>120.3</ele><time>1970-01-01T00:54:46Z</time></trkpt>
			<trkpt lat="55.564840" lon="38.983100"><ele>128.0</ele><time>1970-01-01T00:55:03Z</time></trkpt>
			<trkpt lat="55.564840" lon="38.983460"><ele>128.7</ele><time>1970-01-01T00:55:20Z</time></trkpt>
			<trkpt lat="55.564460" lon="39.005860"><ele>132.3</ele><time>1970-01-01T00:55:36Z</time></trkpt>
			<trkpt lat="55.564240" lon="39.020760"><ele>128.3</ele><time>1970-01-01T00:55:53Z</time></trkpt>
			<trkpt lat="55.564060" lon="39.030050"><ele>127.9</ele><time>1970-01-01T00:56:10Z</time></trkpt>
			<trkpt lat="55.563850" lon="39.044190"><ele>123.5</ele><time>1970-01-01T00:56:26Z</time></trkpt>
			<trkpt lat="55.563940" lon="39.045770"><ele>125.9</ele><time>1970-01-01T00:56:43Z</time></trkpt>
			<trkpt lat="55.564350" lon="39.048850"><ele>126.7</ele><time>1970-01-01T00:57:00Z</time></trkpt>
			<trkpt lat="55.564430" lon="39.049860"><ele>127.6</ele><time>1970-01-01T00:57:17Z</time></trkpt>
			<trkpt lat="55.564460" lon="39.051200"><ele>127.5</ele><time>1970-01-01T00:57:33Z</time></trkpt>
			<trkpt lat="55.564180" lon="39.063760"><ele>127.5</ele><time>1970-01-01T00:57:50Z</time></trkpt>
			<trkpt lat="55.564110" lon="39.070540"><ele>132.7</ele><time>1970-01-01T00:58:07Z</time></trkpt>
			<trkpt lat="55.564120" lon="39.071130"><ele>133.1</ele><time>1970-01-01T00:58:24Z</time></trkpt>
			<trkpt lat="55.564130" lon="39.071850"><ele>133.1</ele><time>1970-01-01T00:58:40Z</time></trkpt>
			<trkpt lat="55.564160" lon="39.072990"><ele>133.0</ele><time>1970-01-01T00:58:57Z</time></trkpt>
			<trkpt lat="55.564160" lon="39.073300"><ele>133.1</ele><time>1970-01-01T00:59:14Z</time></trkpt>
			<trkpt lat="55.563960" lon="39.075310"><ele>133.4</ele><time>1970-01-01T00:59:31Z</time></trkpt>
			<trkpt lat="55.563130" lon="39.081690"><ele>134.1</ele><time>1970-01-01T00:59:47Z</time></trkpt>
			<trkpt lat="55.561830" lon="39.091740"><ele>139.7</ele><time>1970-01-01T01:00:04Z</time></trkpt>
			<trkpt lat="55.561380" lon="39.094850"><ele>138.0</ele><time>1970-01-01T01:00:21Z</time></trkpt>
			<trkpt lat="55.561240" lon="39.095560"><ele>138.0</ele><time>1970-01-01T01:00:37Z</time></trkpt>
			<trkpt lat="55.561040" lon="39.096420"><ele>138.0</ele><time>1970-01-01T01:00:54Z</time></trkpt>
			<trkpt lat="55.560000" lon="39.099270"><ele>137.9</ele><time>1970-01-01T01:01:11Z</time></trkpt>
			<trkpt lat="55.559860" lon="39.099730"><ele>137.2</ele><time>1970-01-01T01:01:28Z</time></trkpt>
			<trkpt lat="55.559610" lon="39.100580"><ele>138.3</ele><time>1970-01-01T01:01:44Z</time></trkpt>
			<trkpt lat="55.559130" lon="39.102210"><ele>143.2</ele><time>1970-01-01T01:02:01Z</time></trkpt>
			<trkpt lat="55.558940" lon="39.102940"><ele>144.5</ele><time>1970-01-01T01:02:18Z</time></trkpt>
			<trkpt lat="55.558660" lon="39.104020"><ele>144.2</ele><time>1970-01-01T01:02:35Z</time></trkpt>
			<trkpt lat="55.558380" lon="39.105130"><ele>142.3</ele><time>1970-01-01T01:02:51Z</time></trkpt>
			<trkpt lat="55.557080" lon="39.110190"><ele>141.4</ele><time>1970-01-01T01:03:08Z</time></trkpt>
			<trkpt lat="55.556700" lon="39.111690"><ele>142.0</ele><time>1970-01-01T01:03:25Z</time></trkpt>
			<trkpt lat="55.556640" lon="39.112000"><ele>142.0</ele><time>1970-01-01T01:03:42Z</time></trkpt>
			<trkpt lat="55.556510" lon="39.112660"><ele>142.4</ele><time>1970-01-01T01:03:58Z</time></trkpt>
			<trkpt lat="55.556490" lon="39.112850"><ele>142.7</ele><time>1970-01-01T01:04:15Z</time></trkpt>
			<trkpt lat="55.556370" lon="39.113770"><ele>144.6</ele><time>1970-01-01T01:04:32Z</time></trkpt>
			<trkpt lat="55.556360" lon="39.114100"><ele>145.3</ele><time>1970-01-01T01:04:48Z</time></trkpt>
			<trkpt lat="55.556340" lon="39.115190"><ele>147.9</ele><time>1970-01-01T01:05:05Z</time></trkpt>
			<trkpt lat="55.556430" lon="39.116570"><ele>147.8</ele><time>1970-01-01T01:05:22Z</time></trkpt>
			<trkpt lat="55.556710" lon="39.120490"><ele>141.3</ele><time>1970-01-01T01:05:39Z</time></trkpt>
			<trkpt lat="55.556750" lon="39.120960"><ele>140.2</ele><time>1970-01-01T01:05:55Z</time></trkpt>
			<trkpt lat="55.556870" lon="39.122470"><ele>140.5</ele><time>1970-01-01T01:06:12Z</time></trkpt>
			<trkpt lat="55.558720" lon="39.147330"><ele>151.6</ele><time>1970-01-01T01:06:29Z</time></trkpt>
			<trkpt lat="55.560040" lon="39.165790"><ele>151.1</ele><time>1970-01-01T01:06:46Z</time></trkpt>
			<trkpt lat="55.560140" lon="39.167250"><ele>149.6</ele><time>1970-01-01T01:07:02Z</time></trkpt>
			<trkpt lat="55.561240" lon="39.182660"><ele>148.4</ele><time>1970-01-01T01:07:19Z</time></trkpt>
			<trkpt lat="55.561700" lon="39.189240"><ele>139.1</ele><time>1970-01-01T01:07:36Z</time></trkpt>
			<trkpt lat="55.562560" lon="39.201160"><ele>136.9</ele><time>1970-01-01T01:07:53Z</time></trkpt>
			<trkpt lat="55.562560" lon="39.201160"><ele>136.9</ele><time>1970-01-01T01:07:53Z</time></trkpt>
			<trkpt lat="55.562980" lon="39.207140"><ele>137.2</ele><time>1970-01-01T01:09:32Z</time></trkpt>
			<trkpt lat="55.563200" lon="39.210130"><ele>137.6</ele><time>1970-01-01T01:11:11Z</time></trkpt>
			<trkpt lat="55.563230" lon="39.210520"><ele>137.8</ele><time>1970-01-01T01:12:51Z</time></trkpt>
			<trkpt lat="55.563590" lon="39.215570"><ele>141.2</ele><time>1970-01-01T01:14:30Z</time></trkpt>
			<trkpt lat="55.563850" lon="39.218800"><ele>145.0</ele><time>1970-01-01T01:16:09Z</time></trkpt>
			<trkpt lat="55.564300" lon="39.225250"><ele>139.2</ele><time>1970-01-01T01:17:49Z</time></trkpt>
			<trkpt lat="55.564960" lon="39.234530"><ele>142.0</ele><time>1970-01-01T01:19:28Z</time></trkpt>
			<trkpt lat="55.565090" lon="39.236640"><ele>139.9</ele><time>1970-01-01T01:21:07Z</time></trkpt>
			<trkpt lat="55.566310" lon="39.253210"><ele>147.1</ele><time>1970-01-01T01:22:47Z</time></trkpt>
			<trkpt lat="55.567070" lon="39.264310"><ele>147.5</ele><time>1970-01-01T01:24:26Z</time></trkpt>
			<trkpt lat="55.567690" lon="39.273010"><ele>148.2</ele><time>1970-01-01T01:26:06Z</time></trkpt>
			<trkpt lat="55.567710" lon="39.273190"><ele>148.4</ele><time>1970-01-01T01:27:45Z</time></trkpt>
			<trkpt lat="55.567770" lon="39.273640"><ele>149.0</ele><time>1970-01-01T01:29:24Z</time></trkpt>
			<trkpt lat="55.567800" lon="39.273770"><ele>149.2</ele><time>1970-01-01T01:31:04Z</time></trkpt>
			<trkpt lat="55.567850" lon="39.274020"><ele>149.7</ele><time>1970-01-01T01:32:43Z</time></trkpt>
			<trkpt lat="55.567960" lon="39.274390"><ele>150.1</ele><time>1970-01-01T01:34:22Z</time></trkpt>
			<trkpt lat="55.568030" lon="39.274660"><ele>150.3</ele><time>1970-01-01T01:36:02Z</time></trkpt>
			<trkpt lat="55.568190" lon="39.275070"><ele>150.4</ele><time>1970-01-01T01:37:41Z</time></trkpt>
			<trkpt lat="55.568380" lon="39.275490"><ele>149.5</ele><time>1970-01-01T01:39:20Z</time></trkpt>
			<trkpt lat="55.568480" lon="39.275690"><ele>149.4</ele><time>1970-01-01T01:41:00Z</time></trkpt>
			<trkpt lat="55.569120" lon="39.276710"><ele>152.1</ele><time>1970-01-01T01:42:39Z</time></trkpt>
			<trkpt lat="55.570200" lon="39.278380"><ele>151.6</ele><time>1970-01-01T01:44:19Z</time></trkpt>
			<trkpt lat="55.571320" lon="39.279790"><ele>149.0</ele><time>1970-01-01T01:45:58Z</time></trkpt>
			<trkpt lat="55.572050" lon="39.280630"><ele>146.5</ele><time>1970-01-01T01:47:37Z</time></trkpt>
			<trkpt lat="55.572510" lon="39.281300"><ele>148.3</ele><time>1970-01-01T01:49:17Z</time></trkpt>
			<trkpt lat="55.572780" lon="39.281770"><ele>149.4</ele><time>1970-01-01T01:50:56Z</time></trkpt>
			<trkpt lat="55.573080" lon="39.282480"><ele>148.9</ele><time>1970-01-01T01:52:35Z</time></trkpt>
			<trkpt lat="55.573200" lon="39.282920"><ele>148.6</ele><time>1970-01-01T01:54:15Z</time></trkpt>
			<trkpt lat="55.573310" lon="39.283450"><ele>148.6</ele><time>1970-01-01T01:55:54Z</time></trkpt>
			<trkpt lat="55.573450" lon="39.284500"><ele>152.1</ele><time>1970-01-01T01:57:33Z</time></trkpt>
			<trkpt lat="55.573770" lon="39.287870"><ele>156.7</ele><time>1970-01-01T01:59:13Z</time></trkpt>
			<trkpt lat="55.574030" lon="39.290650"><ele>152.8</ele><time>1970-01-01T02:00:52Z</time></trkpt>
			<trkpt lat="55.574290" lon="39.293370"><ele>146.0</ele><time>1970-01-01T02:02:32Z</time></trkpt>
			<trkpt lat="55.575030" lon="39.301130"><ele>145.6</ele><time>1970-01-01T02:04:11Z</time></trkpt>
			<trkpt lat="55.575040" lon="39.301210"><ele>145.5</ele><time>1970-01-01T02:05:50Z</time></trkpt>
			<trkpt lat="55.575150" lon="39.302470"><ele>143.7</ele><time>1970-01-01T02:07:30Z</time></trkpt>
			<trkpt lat="55.575180" lon="39.302940"><ele>143.2</ele><time>1970-01-01T02:09:09Z</time></trkpt>
			<trkpt lat="55.575230" lon="39.304700"><ele>141.7</ele><time>1970-01-01T02:10:48Z</time></trkpt>
			<trkpt lat="55.575290" lon="39.307440"><ele>140.4</ele><time>1970-01-01T02:12:28Z</time></trkpt>
			<trkpt lat="55.575420" lon="39.312980"><ele>141.8</ele><time>1970-01-01T02:14:07Z</time></trkpt>
			<trkpt lat="55.575590" lon="39.320410"><ele>143.5</ele><time>1970-01-01T02:15:47Z</time></trkpt>
			<trkpt lat="55.575590" lon="39.320410"><ele>143.5</ele><time>1970-01-01T02:15:47Z</time></trkpt>
			<trkpt lat="55.575600" lon="39.320760"><ele>143.9</ele><time>1970-01-01T02:15:50Z</time></trkpt>
			<trkpt lat="55.575610" lon="39.321080"><ele>144.2</ele><time>1970-01-01T02:15:53Z</time></trkpt>
			<trkpt lat="55.575609" lon="39.321075"><ele>144.2</ele><time>1970-01-01T02:15:53Z</time></trkpt>
			<trkpt lat="55.575620" lon="39.321460"><ele>144.6</ele><time>1970-01-01T02:16:15Z</time></trkpt>
			<trkpt lat="55.575670" lon="39.324170"><ele>144.8</ele><time>1970-01-01T02:16:37Z</time></trkpt>
			<trkpt lat="55.575730" lon="39.326890"><ele>143.2</ele><time>1970-01-01T02:16:59Z</time></trkpt>
			<trkpt lat="55.576000" lon="39.339260"><ele>144.9</ele><time>1970-01-01T02:17:21Z</time></trkpt>
			<trkpt lat="55.576280" lon="39.351910"><ele>149.5</ele><time>1970-01-01T02:17:44Z</time></trkpt>
			<trkpt lat="55.576290" lon="39.352730"><ele>149.5</ele><time>1970-01-01T02:18:06Z</time></trkpt>
			<trkpt lat="55.576570" lon="39.365890"><ele>143.0</ele><time>1970-01-01T02:18:28Z</time></trkpt>
			<trkpt lat="55.576830" lon="39.379700"><ele>135.0</ele><time>1970-01-01T02:18:50Z</time></trkpt>
			<trkpt lat="55.577020" lon="39.389440"><ele>137.5</ele><time>1970-01-01T02:19:12Z</time></trkpt>
			<trkpt lat="55.577030" lon="39.389790"><ele>137.1</ele><time>1970-01-01T02:19:35Z</time></trkpt>
			<trkpt lat="55.577050" lon="39.391240"><ele>135.5</ele><time>1970-01-01T02:19:57Z</time></trkpt>
			<trkpt lat="55.577060" lon="39.391790"><ele>136.2</ele><time>1970-01-01T02:20:19Z</time></trkpt>
			<trkpt lat="55.577090" lon="39.392650"><ele>137.9</ele><time>1970-01-01T02:20:41Z</time></trkpt>
			<trkpt lat="55.577190" lon="39.399430"><ele>139.6</ele><time>1970-01-01T02:21:03Z</time></trkpt>
			<trkpt lat="55.577190" lon="39.399970"><ele>139.3</ele><time>1970-01-01T02:21:26Z</time></trkpt>
			<trkpt lat="55.577250" lon="39.402870"><ele>136.3</ele><time>1970-01-01T02:21:48Z</time></trkpt>
			<trkpt lat="55.577350" lon="39.407760"><ele>143.4</ele><time>1970-01-01T02:22:10Z</time></trkpt>
			<trkpt lat="55.577500" lon="39.415250"><ele>137.4</ele><time>1970-01-01T02:22:32Z</time></trkpt>
			<trkpt lat="55.577540" lon="39.417170"><ele>136.6</ele><time>1970-01-01T02:22:54Z</time></trkpt>
			<trkpt lat="55.577570" lon="39.418420"><ele>136.4</ele><time>1970-01-01T02:23:17Z</time></trkpt>
			<trkpt lat="55.577600" lon="39.420690"><ele>133.3</ele><time>1970-01-01T02:23:39Z</time></trkpt>
			<trkpt lat="55.577610" lon="39.422100"><ele>133.4</ele><time>1970-01-01T02:24:01Z</time></trkpt>
			<trkpt lat="55.577630" lon="39.423180"><ele>132.9</ele><time>1970-01-01T02:24:23Z</time></trkpt>
			<trkpt lat="55.577630" lon="39.423230"><ele>132.9</ele><time>1970-01-01T02:24:45Z</time></trkpt>
			<trkpt lat="55.577630" lon="39.423820"><ele>132.8</ele><time>1970-01-01T02:25:08Z</time></trkpt>
			<trkpt lat="55.577640" lon="39.424240"><ele>132.7</ele><time>1970-01-01T02:25:30Z</time></trkpt>
			<trkpt lat="55.577660" lon="39.425340"><ele>132.6</ele><time>1970-01-01T02:25:52Z</time></trkpt>
			<trkpt lat="55.577670" lon="39.425650"><ele>132.6</ele><time>1970-01-01T02:26:14Z</time></trkpt>
			<trkpt lat="55.577760" lon="39.428030"><ele>127.8</ele><time>1970-01-01T02:26:36Z</time></trkpt>
			<trkpt lat="55.578220" lon="39.437960"><ele>139.2</ele><time>1970-01-01T02:26:59Z</time></trkpt>
			<trkpt lat="55.578230" lon="39.438160"><ele>139.8</ele><time>1970-01-01T02:27:21Z</time></trkpt>
			<trkpt lat="55.578480" lon="39.444070"><ele>142.4</ele><time>1970-01-01T02:27:43Z</time></trkpt>
			<trkpt lat="55.579200" lon="39.459110"><ele>139.2</ele><time>1970-01-01T02:28:05Z</time></trkpt>
			<trkpt lat="55.579340" lon="39.462130"><ele>131.7</ele><time>1970-01-01T02:28:27Z</time></trkpt>
			<trkpt lat="55.579520" lon="39.465670"><ele>129.4</ele><time>1970-01-01T02:28:50Z</time></trkpt>
			<trkpt lat="55.579590" lon="39.467610"><ele>131.0</ele><time>1970-01-01T02:29:12Z</time></trkpt>
			<trkpt lat="55.579610" lon="39.468300"><ele>131.0</ele><time>1970-01-01T02:29:34Z</time></trkpt>
			<trkpt lat="55.579610" lon="39.469250"><ele>130.1</ele><time>1970-01-01T02:29:56Z</time></trkpt>
			<trkpt lat="55.579490" lon="39.473400"><ele>132.8</ele><time>1970-01-01T02:30:18Z</time></trkpt>
			<trkpt lat="55.579430" lon="39.475070"><ele>135.1</ele><time>1970-01-01T02:30:41Z</time></trkpt>
			<trkpt lat="55.579320" lon="39.477780"><ele>135.5</ele><time>1970-01-01T02:31:03Z</time></trkpt>
			<trkpt lat="55.579260" lon="39.479000"><ele>133.4</ele><time>1970-01-01T02:31:25Z</time></trkpt>
			<trkpt lat="55.579120" lon="39.482180"><ele>130.2</ele><time>1970-01-01T02:31:47Z</time></trkpt>
			<trkpt lat="55.579070" lon="39.482890"><ele>129.7</ele><time>1970-01-01T02:32:09Z</time></trkpt>
			<trkpt lat="55.579000" lon="39.483540"><ele>129.5</ele><time>1970-01-01T02:32:32Z</time></trkpt>
			<trkpt lat="55.578930" lon="39.484040"><ele>129.2</ele><time>1970-01-01T02:32:54Z</time></trkpt>
			<trkpt lat="55.578870" lon="39.484290"><ele>129.0</ele><time>1970-01-01T02:33:16Z</time></trkpt>
			<trkpt lat="55.578790" lon="39.484630"><ele>128.9</ele><time>1970-01-01T02:33:38Z</time></trkpt>
			<trkpt lat="55.578710" lon="39.484860"><ele>128.8</ele><time>1970-01-01T02:34:00Z</time></trkpt>
			<trkpt lat="55.578460" lon="39.485610"><ele>128.4</ele><time>1970-01-01T02:34:23Z</time></trkpt>
			<trkpt lat="55.578290" lon="39.486130"><ele>127.9</ele><time>1970-01-01T02:34:45Z</time></trkpt>
			<trkpt lat="55.578170" lon="39.486490"><ele>127.8</ele><time>1970-01-01T02:35:07Z</time></trkpt>
			<trkpt lat="55.578110" lon="39.486740"><ele>127.9</ele><time>1970-01-01T02:35:29Z</time></trkpt>
			<trkpt lat="55.578010" lon="39.487170"><ele>128.6</ele><time>1970-01-01T02:35:51Z</time></trkpt>
			<trkpt lat="55.577980" lon="39.487310"><ele>128.8</ele><time>1970-01-01T02:36:14Z</time></trkpt>
			<trkpt lat="55.577930" lon="39.487630"><ele>129.4</ele><time>1970-01-01T02:36:36Z</time></trkpt>
			<trkpt lat="55.577630" lon="39.489950"><ele>128.4</ele><time>1970-01-01T02:36:58Z</time></trkpt>
			<trkpt lat="55.577580" lon="39.490320"><ele>127.8</ele><time>1970-01-01T02:37:20Z</time></trkpt>
			<trkpt lat="55.577160" lon="39.493710"><ele>127.0</ele><time>1970-01-01T02:37:42Z</time></trkpt>
			<trkpt lat="55.577000" lon="39.495020"><ele>126.2</ele><time>1970-01-01T02:38:05Z</time></trkpt>
			<trkpt lat="55.576960" lon="39.495270"><ele>126.2</ele><time>1970-01-01T02:38:27Z</time></trkpt>
			<trkpt lat="55.576890" lon="39.495830"><ele>126.2</ele><time>1970-01-01T02:38:49Z</time></trkpt>
			<trkpt lat="55.576810" lon="39.496290"><ele>126.0</ele><time>1970-01-01T02:39:11Z</time></trkpt>
			<trkpt lat="55.576750" lon="39.496660"><ele>125.9</ele><time>1970-01-01T02:39:33Z</time></trkpt>
			<trkpt lat="55.576690" lon="39.496930"><ele>126.0</ele><time>1970-01-01T02:39:56Z</time></trkpt>
			<trkpt lat="55.576580" lon="39.497370"><ele>125.8</ele><time>1970-01-01T02:40:18Z</time></trkpt>
			<trkpt lat="55.576510" lon="39.497620"><ele>125.5</ele><time>1970-01-01T02:40:40Z</time></trkpt>
			<trkpt lat="55.576350" lon="39.498090"><ele>124.8</ele><time>1970-01-01T02:41:02Z</time></trkpt>
			<trkpt lat="55.575920" lon="39.499115"><ele>123.0</ele><time>1970-01-01T02:41:25Z</time></trkpt>
			<trkpt lat="55.575920" lon="39.499120"><ele>123.0</ele><time>1970-01-01T02:41:25Z</time></trkpt>
			<trkpt lat="55.575820" lon="39.499360"><ele>122.5</ele><time>1970-01-01T02:41:38Z</time></trkpt>
			<trkpt lat="55.575330" lon="39.500550"><ele>121.6</ele><time>1970-01-01T02:41:52Z</time></trkpt>
			<trkpt lat="55.575160" lon="39.501000"><ele>121.6</ele><time>1970-01-01T02:42:06Z</time></trkpt>
			<trkpt lat="55.574860" lon="39.501700"><ele>121.0</ele><time>1970-01-01T02:42:20Z</time></trkpt>
			<trkpt lat="55.574750" lon="39.501890"><ele>121.0</ele><time>1970-01-01T02:42:34Z</time></trkpt>
			<trkpt lat="55.574700" lon="39.501970"><ele>121.0</ele><time>1970-01-01T02:42:48Z</time></trkpt>
			<trkpt lat="55.574580" lon="39.502110"><ele>121.0</ele><time>1970-01-01T02:43:02Z</time></trkpt>
			<trkpt lat="55.574510" lon="39.502200"><ele>121.0</ele><time>1970-01-01T02:43:16Z</time></trkpt>
			<trkpt lat="55.574480" lon="39.502270"><ele>121.0</ele><time>1970-01-01T02:43:30Z</time></trkpt>
			<trkpt lat="55.573900" lon="39.503750"><ele>121.0</ele><time>1970-01-01T02:43:44Z</time></trkpt>
			<trkpt lat="55.573740" lon="39.504140"><ele>121.0</ele><time>1970-01-01T02:43:58Z</time></trkpt>
			<trkpt lat="55.573280" lon="39.505350"><ele>121.1</ele><time>1970-01-01T02:44:11Z</time></trkpt>
			<trkpt lat="55.573190" lon="39.505660"><ele>121.3</ele><time>1970-01-01T02:44:25Z</time></trkpt>
			<trkpt lat="55.573150" lon="39.505860"><ele>121.5</ele><time>1970-01-01T02:44:39Z</time></trkpt>
			<trkpt lat="55.572870" lon="39.507650"><ele>123.0</ele><time>1970-01-01T02:44:53Z</time></trkpt>
			<trkpt lat="55.572800" lon="39.508080"><ele>123.0</ele><time>1970-01-01T02:45:07Z</time></trkpt>
			<trkpt lat="55.572610" lon="39.509380"><ele>122.7</ele><time>1970-01-01T02:45:21Z</time></trkpt>
			<trkpt lat="55.572450" lon="39.510850"><ele>122.9</ele><time>1970-01-01T02:45:35Z</time></trkpt>
			<trkpt lat="55.572400" lon="39.511930"><ele>123.2</ele><time>1970-01-01T02:45:49Z</time></trkpt>
			<trkpt lat="55.572370" lon="39.513370"><ele>124.0</ele><time>1970-01-01T02:46:03Z</time></trkpt>
			<trkpt lat="55.572300" lon="39.515830"><ele>124.5</ele><time>1970-01-01T02:46:17Z</time></trkpt>
			<trkpt lat="55.572240" lon="39.517260"><ele>124.0</ele><time>1970-01-01T02:46:31Z</time></trkpt>
			<trkpt lat="55.572240" lon="39.517260"><ele>124.0</ele><time>1970-01-01T02:46:31Z</time></trkpt>
			<trkpt lat="55.572200" lon="39.518350"><ele>124.3</ele><time>1970-01-01T02:46:34Z</time></trkpt>
			<trkpt lat="55.572140" lon="39.520370"><ele>123.8</ele><time>1970-01-01T02:46:37Z</time></trkpt>
			<trkpt lat="55.572120" lon="39.520920"><ele>123.0</ele><time>1970-01-01T02:46:41Z</time></trkpt>
			<trkpt lat="55.572110" lon="39.521960"><ele>123.7</ele><time>1970-01-01T02:46:44Z</time></trkpt>
			<trkpt lat="55.572080" lon="39.522720"><ele>124.9</ele><time>1970-01-01T02:46:48Z</time></trkpt>
			<trkpt lat="55.572080" lon="39.523140"><ele>124.6</ele><time>1970-01-01T02:46:51Z</time></trkpt>
			<trkpt lat="55.572000" lon="39.524820"><ele>124.4</ele><time>1970-01-01T02:46:54Z</time></trkpt>
			<trkpt lat="55.571870" lon="39.526320"><ele>125.4</ele><time>1970-01-01T02:46:58Z</time></trkpt>
			<trkpt lat="55.571750" lon="39.527900"><ele>124.7</ele><time>1970-01-01T02:47:01Z</time></trkpt>
			<trkpt lat="55.571690" lon="39.528600"><ele>125.0</ele><time>1970-01-01T02:47:05Z</time></trkpt>
			<trkpt lat="55.571650" lon="39.528890"><ele>125.0</ele><time>1970-01-01T02:47:08Z</time></trkpt>
			<trkpt lat="55.571600" lon="39.529200"><ele>124.8</ele><time>1970-01-01T02:47:11Z</time></trkpt>
			<trkpt lat="55.571510" lon="39.529580"><ele>124.4</ele><time>1970-01-01T02:47:15Z</time></trkpt>
			<trkpt lat="55.571060" lon="39.530780"><ele>124.4</ele><time>1970-01-01T02:47:18Z</time></trkpt>
			<trkpt lat="55.570970" lon="39.531130"><ele>124.7</ele><time>1970-01-01T02:47:22Z</time></trkpt>
			<trkpt lat="55.570740" lon="39.533850"><ele>124.7</ele><time>1970-01-01T02:47:25Z</time></trkpt>
			<trkpt lat="55.570720" lon="39.534020"><ele>124.8</ele><time>1970-01-01T02:47:28Z</time></trkpt>
			<trkpt lat="55.570500" lon="39.536500"><ele>123.6</ele><time>1970-01-01T02:47:32Z</time></trkpt>
			<trkpt lat="55.570420" lon="39.537460"><ele>123.0</ele><time>1970-01-01T02:47:35Z</time></trkpt>
			<trkpt lat="55.570390" lon="39.537920"><ele>122.8</ele><time>1970-01-01T02:47:39Z</time></trkpt>
			<trkpt lat="55.570420" lon="39.538560"><ele>122.5</ele><time>1970-01-01T02:47:42Z</time></trkpt>
			<trkpt lat="55.570470" lon="39.539240"><ele>122.4</ele><time>1970-01-01T02:47:45Z</time></trkpt>
			<trkpt lat="55.570640" lon="39.541250"><ele>122.3</ele><time>1970-01-01T02:47:49Z</time></trkpt>
			<trkpt lat="55.570650" lon="39.541740"><ele>122.8</ele><time>1970-01-01T02:47:52Z</time></trkpt>
			<trkpt lat="55.570620" lon="39.542080"><ele>123.1</ele><time>1970-01-01T02:47:56Z</time></trkpt>
			<trkpt lat="55.570560" lon="39.542540"><ele>123.3</ele><time>1970-01-01T02:47:59Z</time></trkpt>
			<trkpt lat="55.570450" lon="39.543030"><ele>122.4</ele><time>1970-01-01T02:48:02Z</time></trkpt>
			<trkpt lat="55.570320" lon="39.543420"><ele>121.8</ele><time>1970-01-01T02:48:06Z</time></trkpt>
			<trkpt lat="55.570130" lon="39.543820"><ele>121.8</ele><time>1970-01-01T02:48:09Z</time></trkpt>
			<trkpt lat="55.569950" lon="39.544110"><ele>121.9</ele><time>1970-01-01T02:48:13Z</time></trkpt>
			<trkpt lat="55.569950" lon="39.544110"><ele>121.9</ele><time>1970-01-01T02:48:13Z</time></trkpt>
			<trkpt lat="55.569320" lon="39.545090"><ele>122.1</ele><time>1970-01-01T02:48:26Z</time></trkpt>
			<trkpt lat="55.569130" lon="39.545460"><ele>122.5</ele><time>1970-01-01T02:48:39Z</time></trkpt>
			<trkpt lat="55.569000" lon="39.545750"><ele>122.7</ele><time>1970-01-01T02:48:52Z</time></trkpt>
			<trkpt lat="55.568720" lon="39.546530"><ele>122.1</ele><time>1970-01-01T02:49:06Z</time></trkpt>
			<trkpt lat="55.568630" lon="39.546830"><ele>121.7</ele><time>1970-01-01T02:49:19Z</time></trkpt>
			<trkpt lat="55.568580" lon="39.547020"><ele>121.3</ele><time>1970-01-01T02:49:32Z</time></trkpt>
			<trkpt lat="55.568530" lon="39.547270"><ele>120.7</ele><time>1970-01-01T02:49:45Z</time></trkpt>
			<trkpt lat="55.568510" lon="39.547530"><ele>120.3</ele><time>1970-01-01T02:49:59Z</time></trkpt>
			<trkpt lat="55.568500" lon="39.547710"><ele>120.2</ele><time>1970-01-01T02:50:12Z</time></trkpt>
			<trkpt lat="55.568510" lon="39.547930"><ele>120.1</ele><time>1970-01-01T02:50:25Z</time></trkpt>
			<trkpt lat="55.568730" lon="39.550480"><ele>119.6</ele><time>1970-01-01T02:50:38Z</time></trkpt>
			<trkpt lat="55.568870" lon="39.552140"><ele>119.6</ele><time>1970-01-01T02:50:52Z</time></trkpt>
			<trkpt lat="55.568890" lon="39.552560"><ele>119.8</ele><time>1970-01-01T02:51:05Z</time></trkpt>
			<trkpt lat="55.568870" lon="39.552960"><ele>120.2</ele><time>1970-01-01T02:51:18Z</time></trkpt>
			<trkpt lat="55.568830" lon="39.553370"><ele>120.6</ele><time>1970-01-01T02:51:31Z</time></trkpt>
			<trkpt lat="55.568700" lon="39.554060"><ele>120.8</ele><time>1970-01-01T02:51:45Z</time></trkpt>
			<trkpt lat="55.568550" lon="39.554850"><ele>120.6</ele><time>1970-01-01T02:51:58Z</time></trkpt>
			<trkpt lat="55.568490" lon="39.555180"><ele>120.8</ele><time>1970-01-01T02:52:11Z</time></trkpt>
			<trkpt lat="55.568330" lon="39.555950"><ele>121.8</ele><time>1970-01-01T02:52:24Z</time></trkpt>
			<trkpt lat="55.567900" lon="39.558010"><ele>121.7</ele><time>1970-01-01T02:52:38Z</time></trkpt>
			<trkpt lat="55.567820" lon="39.558470"><ele>121.7</ele><time>1970-01-01T02:52:51Z</time></trkpt>
			<trkpt lat="55.567780" lon="39.558790"><ele>122.0</ele><time>1970-01-01T02:53:04Z</time></trkpt>
			<trkpt lat="55.567710" lon="39.559980"><ele>121.5</ele><time>1970-01-01T02:53:17Z</time></trkpt>
			<trkpt lat="55.567660" lon="39.560300"><ele>121.3</ele><time>1970-01-01T02:53:31Z</time></trkpt>
			<trkpt lat="55.567580" lon="39.560540"><ele>121.1</ele><time>1970-01-01T02:53:44Z</time></trkpt>
			<trkpt lat="55.567470" lon="39.560750"><ele>121.0</ele><time>1970-01-01T02:53:57Z</time></trkpt>
			<trkpt lat="55.565510" lon="39.562290"><ele>121.4</ele><time>1970-01-01T02:54:11Z</time></trkpt>
			<trkpt lat="55.565350" lon="39.562470"><ele>121.6</ele><time>1970-01-01T02:54:24Z</time></trkpt>
			<trkpt lat="55.565050" lon="39.562890"><ele>121.9</ele><time>1970-01-01T02:54:37Z</time></trkpt>
			<trkpt lat="55.564830" lon="39.563270"><ele>123.0</ele><time>1970-01-01T02:54:50Z</time></trkpt>
			<trkpt lat="55.564710" lon="39.563520"><ele>123.6</ele><time>1970-01-01T02:55:04Z</time></trkpt>
			<trkpt lat="55.564590" lon="39.563760"><ele>124.2</ele><time>1970-01-01T02:55:17Z</time></trkpt>
			<trkpt lat="55.564530" lon="39.563900"><ele>124.5</ele><time>1970-01-01T02:55:30Z</time></trkpt>
			<trkpt lat="55.564050" lon="39.564880"><ele>125.3</ele><time>1970-01-01T02:55:43Z</time></trkpt>
			<trkpt lat="55.563890" lon="39.565220"><ele>124.7</ele><time>1970-01-01T02:55:57Z</time></trkpt>
			<trkpt lat="55.563850" lon="39.565310"><ele>124.5</ele><time>1970-01-01T02:56:10Z</time></trkpt>
			<trkpt lat="55.563200" lon="39.566630"><ele>124.6</ele><time>1970-01-01T02:56:23Z</time></trkpt>
			<trkpt lat="55.563020" lon="39.567050"><ele>125.6</ele><time>1970-01-01T02:56:36Z</time></trkpt>
			<trkpt lat="55.562880" lon="39.567520"><ele>126.5</ele><time>1970-01-01T02:56:50Z</time></trkpt>
			<trkpt lat="55.562820" lon="39.567900"><ele>126.4</ele><time>1970-01-01T02:57:03Z</time></trkpt>
			<trkpt lat="55.562700" lon="39.569110"><ele>126.3</ele><time>1970-01-01T02:57:16Z</time></trkpt>
			<trkpt lat="55.562690" lon="39.569190"><ele>126.3</ele><time>1970-01-01T02:57:29Z</time></trkpt>
			<trkpt lat="55.562630" lon="39.569870"><ele>126.4</ele><time>1970-01-01T02:57:43Z</time></trkpt>
			<trkpt lat="55.562560" lon="39.570680"><ele>125.9</ele><time>1970-01-01T02:57:56Z</time></trkpt>
			<trkpt lat="55.562520" lon="39.571040"><ele>125.9</ele><time>1970-01-01T02:58:09Z</time></trkpt>
			<trkpt lat="55.562250" lon="39.573920"><ele>128.0</ele><time>1970-01-01T02:58:22Z</time></trkpt>
			<trkpt lat="55.561520" lon="39.581560"><ele>126.3</ele><time>1970-01-01T02:58:36Z</time></trkpt>
			<trkpt lat="55.561430" lon="39.582520"><ele>127.2</ele><time>1970-01-01T02:58:49Z</time></trkpt>
			<trkpt lat="55.560870" lon="39.588390"><ele>127.0</ele><time>1970-01-01T02:59:02Z</time></trkpt>
			<trkpt lat="55.560660" lon="39.590760"><ele>129.0</ele><time>1970-01-01T02:59:15Z</time></trkpt>
			<trkpt lat="55.560540" lon="39.592610"><ele>129.2</ele><time>1970-01-01T02:59:29Z</time></trkpt>
			<trkpt lat="55.560520" lon="39.592920"><ele>128.9</ele><time>1970-01-01T02:59:42Z</time></trkpt>
			<trkpt lat="55.560520" lon="39.596460"><ele>129.4</ele><time>1970-01-01T02:59:55Z</time></trkpt>
			<trkpt lat="55.560520" lon="39.597430"><ele>130.9</ele><time>1970-01-01T03:00:09Z</time></trkpt>
			<trkpt lat="55.560480" lon="39.598580"><ele>131.7</ele><time>1970-01-01T03:00:22Z</time></trkpt>
			<trkpt lat="55.560370" lon="39.601000"><ele>129.4</ele><time>1970-01-01T03:00:35Z</time></trkpt>
			<trkpt lat="55.560210" lon="39.604480"><ele>131.7</ele><time>1970-01-01T03:00:48Z</time></trkpt>
			<trkpt lat="55.560080" lon="39.607310"><ele>133.6</ele><time>1970-01-01T03:01:02Z</time></trkpt>
			<trkpt lat="55.560070" lon="39.607730"><ele>133.0</ele><time>1970-01-01T03:01:15Z</time></trkpt>
			<trkpt lat="55.560080" lon="39.608200"><ele>132.4</ele><time>1970-01-01T03:01:28Z</time></trkpt>
			<trkpt lat="55.560100" lon="39.608430"><ele>132.4</ele><time>1970-01-01T03:01:41Z</time></trkpt>
			<trkpt lat="55.560160" lon="39.609310"><ele>132.5</ele><time>1970-01-01T03:01:55Z</time></trkpt>
			<trkpt lat="55.560260" lon="39.610080"><ele>130.8</ele><time>1970-01-01T03:02:08Z</time></trkpt>
			<trkpt lat="55.560370" lon="39.610850"><ele>129.1</ele><time>1970-01-01T03:02:21Z</time></trkpt>
			<trkpt lat="55.560550" lon="39.611910"><ele>128.2</ele><time>1970-01-01T03:02:34Z</time></trkpt>
			<trkpt lat="55.560640" lon="39.612430"><ele>128.1</ele><time>1970-01-01T03:02:48Z</time></trkpt>
			<trkpt lat="55.560740" lon="39.612790"><ele>128.3</ele><time>1970-01-01T03:03:01Z</time></trkpt>
			<trkpt lat="55.560850" lon="39.613060"><ele>128.6</ele><time>1970-01-01T03:03:14Z</time></trkpt>
			<trkpt lat="55.560990" lon="39.613300"><ele>128.6</ele><time>1970-01-01T03:03:27Z</time></trkpt>
			<trkpt lat="55.561690" lon="39.614030"><ele>127.8</ele><time>1970-01-01T03:03:41Z</time></trkpt>
			<trkpt lat="55.561910" lon="39.614270"><ele>127.7</ele><time>1970-01-01T03:03:54Z</time></trkpt>
			<trkpt lat="55.562600" lon="39.614950"><ele>126.9</ele><time>1970-01-01T03:04:07Z</time></trkpt>
			<trkpt lat="55.563130" lon="39.615560"><ele>126.9</ele><time>1970-01-01T03:04:20Z</time></trkpt>
			<trkpt lat="55.563380" lon="39.615960"><ele>127.1</ele><time>1970-01-01T03:04:34Z</time></trkpt>
			<trkpt lat="55.563700" lon="39.616630"><ele>127.0</ele><time>1970-01-01T03:04:47Z</time></trkpt>
			<trkpt lat="55.563920" lon="39.617140"><ele>126.6</ele><time>1970-01-01T03:05:00Z</time></trkpt>
			<trkpt lat="55.564020" lon="39.617310"><ele>126.3</ele><time>1970-01-01T03:05:14Z</time></trkpt>
			<trkpt lat="55.564160" lon="39.617620"><ele>126.4</ele><time>1970-01-01T03:05:27Z</time></trkpt>
			<trkpt lat="55.564710" lon="39.618860"><ele>128.2</ele><time>1970-01-01T03:05:40Z</time></trkpt>
			<trkpt lat="55.564980" lon="39.619710"><ele>128.1</ele><time>1970-01-01T03:05:53Z</time></trkpt>
			<trkpt lat="55.565280" lon="39.621210"><ele>129.4</ele><time>1970-01-01T03:06:07Z</time></trkpt>
			<trkpt lat="55.565330" lon="39.621990"><ele>131.2</ele><time>1970-01-01T03:06:20Z</time></trkpt>
			<trkpt lat="55.565440" lon="39.624670"><ele>130.0</ele><time>1970-01-01T03:06:33Z</time></trkpt>
			<trkpt lat="55.565450" lon="39.624890"><ele>129.4</ele><time>1970-01-01T03:06:46Z</time></trkpt>
			<trkpt lat="55.565510" lon="39.626620"><ele>126.9</ele><time>1970-01-01T03:07:00Z</time></trkpt>
			<trkpt lat="55.565680" lon="39.630240"><ele>134.0</ele><time>1970-01-01T03:07:13Z</time></trkpt>
			<trkpt lat="55.565770" lon="39.632470"><ele>132.2</ele><time>1970-01-01T03:07:26Z</time></trkpt>
			<trkpt lat="55.566170" lon="39.641950"><ele>132.3</ele><time>1970-01-01T03:07:39Z</time></trkpt>
			<trkpt lat="55.566350" lon="39.646590"><ele>127.7</ele><time>1970-01-01T03:07:53Z</time></trkpt>
			<trkpt lat="55.566370" lon="39.647390"><ele>126.6</ele><time>1970-01-01T03:08:06Z</time></trkpt>
			<trkpt lat="55.566390" lon="39.648270"><ele>126.6</ele><time>1970-01-01T03:08:19Z</time></trkpt>
			<trkpt lat="55.566440" lon="39.650440"><ele>123.3</ele><time>1970-01-01T03:08:32Z</time></trkpt>
			<trkpt lat="55.566450" lon="39.650910"><ele>122.4</ele><time>1970-01-01T03:08:46Z</time></trkpt>
			<trkpt lat="55.566460" lon="39.651350"><ele>121.7</ele><time>1970-01-01T03:08:59Z</time></trkpt>
			<trkpt lat="55.566490" lon="39.652170"><ele>121.0</ele><time>1970-01-01T03:09:12Z</time></trkpt>
			<trkpt lat="55.566510" lon="39.652650"><ele>120.6</ele><time>1970-01-01T03:09:25Z</time></trkpt>
			<trkpt lat="55.566550" lon="39.653140"><ele>120.1</ele><time>1970-01-01T03:09:39Z</time></trkpt>
			<trkpt lat="55.566610" lon="39.653510"><ele>119.9</ele><time>1970-01-01T03:09:52Z</time></trkpt>
			<trkpt lat="55.566650" lon="39.653730"><ele>120.0</ele><time>1970-01-01T03:10:05Z</time></trkpt>
			<trkpt lat="55.566770" lon="39.654370"><ele>120.3</ele><time>1970-01-01T03:10:18Z</time></trkpt>
			<trkpt lat="55.567310" lon="39.657020"><ele>119.0</ele><time>1970-01-01T03:10:32Z</time></trkpt>
			<trkpt lat="55.567670" lon="39.658760"><ele>119.7</ele><time>1970-01-01T03:10:45Z</time></trkpt>
			<trkpt lat="55.567810" lon="39.659530"><ele>119.9</ele><time>1970-01-01T03:10:58Z</time></trkpt>
			<trkpt lat="55.567850" lon="39.659820"><ele>120.3</ele><time>1970-01-01T03:11:12Z</time></trkpt>
			<trkpt lat="55.567940" lon="39.660480"><ele>121.1</ele><time>1970-01-01T03:11:25Z</time></trkpt>
			<trkpt lat="55.568050" lon="39.661410"><ele>121.9</ele><time>1970-01-01T03:11:38Z</time></trkpt>
			<trkpt lat="55.568390" lon="39.664990"><ele>124.1</ele><time>1970-01-01T03:11:51Z</time></trkpt>
			<trkpt lat="55.568510" lon="39.666220"><ele>125.8</ele><time>1970-01-01T03:12:05Z</time></trkpt>
			<trkpt lat="55.568590" lon="39.666860"><ele>127.5</ele><time>1970-01-01T03:12:18Z</time></trkpt>
			<trkpt lat="55.568680" lon="39.667350"><ele>128.4</ele><time>1970-01-01T03:12:31Z</time></trkpt>
			<trkpt lat="55.568820" lon="39.667880"><ele>128.4</ele><time>1970-01-01T03:12:44Z</time></trkpt>
			<trkpt lat="55.568990" lon="39.668430"><ele>127.9</ele><time>1970-01-01T03:12:58Z</time></trkpt>
			<trkpt lat="55.570190" lon="39.671530"><ele>127.0</ele><time>1970-01-01T03:13:11Z</time></trkpt>
			<trkpt lat="55.570800" lon="39.673190"><ele>127.1</ele><time>1970-01-01T03:13:24Z</time></trkpt>
			<trkpt lat="55.571100" lon="39.673890"><ele>128.6</ele><time>1970-01-01T03:13:37Z</time></trkpt>
			<trkpt lat="55.571340" lon="39.674390"><ele>128.2</ele><time>1970-01-01T03:13:51Z</time></trkpt>
			<trkpt lat="55.572250" lon="39.676110"><ele>126.4</ele><time>1970-01-01T03:14:04Z</time></trkpt>
			<trkpt lat="55.574010" lon="39.679380"><ele>120.9</ele><time>1970-01-01T03:14:17Z</time></trkpt>
			<trkpt lat="55.574360" lon="39.680020"><ele>121.1</ele><time>1970-01-01T03:14:30Z</time></trkpt>
			<trkpt lat="55.576150" lon="39.683350"><ele>119.1</ele><time>1970-01-01T03:14:44Z</time></trkpt>
			<trkpt lat="55.578240" lon="39.687190"><ele>118.9</ele><time>1970-01-01T03:14:57Z</time></trkpt>
			<trkpt lat="55.578370" lon="39.687440"><ele>118.9</ele><time>1970-01-01T03:15:10Z</time></trkpt>
			<trkpt lat="55.578590" lon="39.687850"><ele>118.8</ele><time>1970-01-01T03:15:23Z</time></trkpt>
			<trkpt lat="55.578940" lon="39.688470"><ele>119.1</ele><time>1970-01-01T03:15:37Z</time></trkpt>
			<trkpt lat="55.579290" lon="39.689120"><ele>119.0</ele><time>1970-01-01T03:15:50Z</time></trkpt>
			<trkpt lat="55.579340" lon="39.689200"><ele>119.1</ele><time>1970-01-01T03:16:03Z</time></trkpt>
			<trkpt lat="55.580040" lon="39.690470"><ele>120.0</ele><time>1970-01-01T03:16:16Z</time></trkpt>
			<trkpt lat="55.580940" lon="39.692060"><ele>120.9</ele><time>1970-01-01T03:16:30Z</time></trkpt>
			<trkpt lat="55.581270" lon="39.692630"><ele>121.6</ele><time>1970-01-01T03:16:43Z</time></trkpt>
			<trkpt lat="55.581760" lon="39.693410"><ele>121.8</ele><time>1970-01-01T03:16:56Z</time></trkpt>
			<trkpt lat="55.582240" lon="39.694110"><ele>120.4</ele><time>1970-01-01T03:17:10Z</time></trkpt>
			<trkpt lat="55.583010" lon="39.695200"><ele>117.7</ele><time>1970-01-01T03:17:23Z</time></trkpt>
			<trkpt lat="55.583650" lon="39.696120"><ele>116.7</ele><time>1970-01-01T03:17:36Z</time></trkpt>
			<trkpt lat="55.585870" lon="39.699250"><ele>114.1</ele><time>1970-01-01T03:17:49Z</time></trkpt>
			<trkpt lat="55.586460" lon="39.700040"><ele>114.7</ele><time>1970-01-01T03:18:03Z</time></trkpt>
			<trkpt lat="55.586780" lon="39.700420"><ele>115.3</ele><time>1970-01-01T03:18:16Z</time></trkpt>
			<trkpt lat="55.587070" lon="39.700690"><ele>116.4</ele><time>1970-01-01T03:18:29Z</time></trkpt>
			<trkpt lat="55.587440" lon="39.700910"><ele>117.7</ele><time>1970-01-01T03:18:42Z</time></trkpt>
			<trkpt lat="55.587790" lon="39.701040"><ele>118.1</ele><time>1970-01-01T03:18:56Z</time></trkpt>
			<trkpt lat="55.588010" lon="39.701080"><ele>118.3</ele><time>1970-01-01T03:19:09Z</time></trkpt>
			<trkpt lat="55.588360" lon="39.701090"><ele>118.6</ele><time>1970-01-01T03:19:22Z</time></trkpt>
			<trkpt lat="55.589950" lon="39.700900"><ele>118.0</ele><time>1970-01-01T03:19:35Z</time></trkpt>
			<trkpt lat="55.590150" lon="39.700880"><ele>118.3</ele><time>1970-01-01T03:19:49Z</time></trkpt>
			<trkpt lat="55.590840" lon="39.700830"><ele>120.0</ele><time>1970-01-01T03:20:02Z</time></trkpt>
			<trkpt lat="55.591950" lon="39.700760"><ele>119.6</ele><time>1970-01-01T03:20:15Z</time></trkpt>
			<trkpt lat="55.592320" lon="39.700750"><ele>119.2</ele><time>1970-01-01T03:20:28Z</time></trkpt>
			<trkpt lat="55.592540" lon="39.700820"><ele>119.0</ele><time>1970-01-01T03:20:42Z</time></trkpt>
			<trkpt lat="55.592710" lon="39.700890"><ele>119.0</ele><time>1970-01-01T03:20:55Z</time></trkpt>
			<trkpt lat="55.592980" lon="39.701050"><ele>119.0</ele><time>1970-01-01T03:21:08Z</time></trkpt>
			<trkpt lat="55.594940" lon="39.702300"><ele>120.7</ele><time>1970-01-01T03:21:21Z</time></trkpt>
			<trkpt lat="55.595900" lon="39.702910"><ele>121.4</ele><time>1970-01-01T03:21:35Z</time></trkpt>
			<trkpt lat="55.598600" lon="39.704630"><ele>121.0</ele><time>1970-01-01T03:21:48Z</time></trkpt>
			<trkpt lat="55.598980" lon="39.704860"><ele>121.0</ele><time>1970-01-01T03:22:01Z</time></trkpt>
			<trkpt lat="55.599480" lon="39.705160"><ele>120.1</ele><time>1970-01-01T03:22:15Z</time></trkpt>
			<trkpt lat="55.601630" lon="39.706500"><ele>118.8</ele><time>1970-01-01T03:22:28Z</time></trkpt>
			<trkpt lat="55.602110" lon="39.706820"><ele>118.3</ele><time>1970-01-01T03:22:41Z</time></trkpt>
			<trkpt lat="55.602590" lon="39.707150"><ele>118.1</ele><time>1970-01-01T03:22:54Z</time></trkpt>
			<trkpt lat="55.603740" lon="39.707890"><ele>118.8</ele><time>1970-01-01T03:23:08Z</time></trkpt>
			<trkpt lat="55.604060" lon="39.708160"><ele>118.9</ele><time>1970-01-01T03:23:21Z</time></trkpt>
			<trkpt lat="55.604490" lon="39.708560"><ele>118.6</ele><time>1970-01-01T03:23:34Z</time></trkpt>
			<trkpt lat="55.604780" lon="39.708850"><ele>118.6</ele><time>1970-01-01T03:23:47Z</time></trkpt>
			<trkpt lat="55.604950" lon="39.709050"><ele>118.8</ele><time>1970-01-01T03:24:01Z</time></trkpt>
			<trkpt lat="55.605310" lon="39.709460"><ele>119.0</ele><time>1970-01-01T03:24:14Z</time></trkpt>
			<trkpt lat="55.608490" lon="39.713590"><ele>118.6</ele><time>1970-01-01T03:24:27Z</time></trkpt>
			<trkpt lat="55.611200" lon="39.717120"><ele>127.5</ele><time>1970-01-01T03:24:40Z</time></trkpt>
			<trkpt lat="55.615390" lon="39.722570"><ele>130.5</ele><time>1970-01-01T03:24:54Z</time></trkpt>
			<trkpt lat="55.615990" lon="39.723260"><ele>132.0</ele><time>1970-01-01T03:25:07Z</time></trkpt>
			<trkpt lat="55.616860" lon="39.724300"><ele>132.5</ele><time>1970-01-01T03:25:20Z</time></trkpt>
			<trkpt lat="55.617390" lon="39.724940"><ele>132.2</ele><time>1970-01-01T03:25:33Z</time></trkpt>
			<trkpt lat="55.618350" lon="39.726110"><ele>133.3</ele><time>1970-01-01T03:25:47Z</time></trkpt>
			<trkpt lat="55.621390" lon="39.729810"><ele>133.3</ele><time>1970-01-01T03:26:00Z</time></trkpt>
			<trkpt lat="55.623620" lon="39.732510"><ele>133.7</ele><time>1970-01-01T03:26:13Z</time></trkpt>
			<trkpt lat="55.624460" lon="39.733600"><ele>132.7</ele><time>1970-01-01T03:26:26Z</time></trkpt>
			<trkpt lat="55.624930" lon="39.734430"><ele>131.6</ele><time>1970-01-01T03:26:40Z</time></trkpt>
			<trkpt lat="55.625150" lon="39.734850"><ele>130.9</ele><time>1970-01-01T03:26:53Z</time></trkpt>
			<trkpt lat="55.625940" lon="39.736760"><ele>129.6</ele><time>1970-01-01T03:27:06Z</time></trkpt>
			<trkpt lat="55.626360" lon="39.737700"><ele>127.9</ele><time>1970-01-01T03:27:19Z</time></trkpt>
			<trkpt lat="55.626840" lon="39.738650"><ele>127.8</ele><time>1970-01-01T03:27:33Z</time></trkpt>
			<trkpt lat="55.627180" lon="39.739200"><ele>129.3</ele><time>1970-01-01T03:27:46Z</time></trkpt>
			<trkpt lat="55.627630" lon="39.739700"><ele>131.6</ele><time>1970-01-01T03:27:59Z</time></trkpt>
			<trkpt lat="55.628240" lon="39.740350"><ele>132.7</ele><time>1970-01-01T03:28:13Z</time></trkpt>
			<trkpt lat="55.629520" lon="39.741790"><ele>133.0</ele><time>1970-01-01T03:28:26Z</time></trkpt>
			<trkpt lat="55.631760" lon="39.743970"><ele>127.1</ele><time>1970-01-01T03:28:39Z</time></trkpt>
			<trkpt lat="55.632380" lon="39.744670"><ele>122.1</ele><time>1970-01-01T03:28:52Z</time></trkpt>
			<trkpt lat="55.633430" lon="39.745720"><ele>124.5</ele><time>1970-01-01T03:29:06Z</time></trkpt>
			<trkpt lat="55.633500" lon="39.745780"><ele>125.3</ele><time>1970-01-01T03:29:19Z</time></trkpt>
			<trkpt lat="55.634130" lon="39.746450"><ele>130.1</ele><time>1970-01-01T03:29:32Z</time></trkpt>
			<trkpt lat="55.634460" lon="39.746800"><ele>130.1</ele><time>1970-01-01T03:29:45Z</time></trkpt>
			<trkpt lat="55.636410" lon="39.748830"><ele>130.6</ele><time>1970-01-01T03:29:59Z</time></trkpt>
			<trkpt lat="55.637480" lon="39.749960"><ele>130.2</ele><time>1970-01-01T03:30:12Z</time></trkpt>
			<trkpt lat="55.639860" lon="39.752420"><ele>130.9</ele><time>1970-01-01T03:30:25Z</time></trkpt>
			<trkpt lat="55.643160" lon="39.755970"><ele>121.0</ele><time>1970-01-01T03:30:38Z</time></trkpt>
			<trkpt lat="55.643610" lon="39.756410"><ele>121.6</ele><time>1970-01-01T03:30:52Z</time></trkpt>
			<trkpt lat="55.643940" lon="39.756670"><ele>122.3</ele><time>1970-01-01T03:31:05Z</time></trkpt>
			<trkpt lat="55.644390" lon="39.756970"><ele>123.2</ele><time>1970-01-01T03:31:18Z</time></trkpt>
			<trkpt lat="55.644800" lon="39.757180"><ele>124.3</ele><time>1970-01-01T03:31:31Z</time></trkpt>
			<trkpt lat="55.645190" lon="39.757330"><ele>125.0</ele><time>1970-01-01T03:31:45Z</time></trkpt>
			<trkpt lat="55.645720" lon="39.757470"><ele>125.0</ele><time>1970-01-01T03:31:58Z</time></trkpt>
			<trkpt lat="55.646160" lon="39.757510"><ele>124.6</ele><time>1970-01-01T03:32:11Z</time></trkpt>
			<trkpt lat="55.646600" lon="39.757490"><ele>124.1</ele><time>1970-01-01T03:32:24Z</time></trkpt>
			<trkpt lat="55.647030" lon="39.757420"><ele>123.5</ele><time>1970-01-01T03:32:38Z</time></trkpt>
			<trkpt lat="55.647580" lon="39.757270"><ele>123.1</ele><time>1970-01-01T03:32:51Z</time></trkpt>
			<trkpt lat="55.648320" lon="39.756970"><ele>124.0</ele><time>1970-01-01T03:33:04Z</time></trkpt>
			<trkpt lat="55.648500" lon="39.756830"><ele>124.1</ele><time>1970-01-01T03:33:18Z</time></trkpt>
			<trkpt lat="55.648502" lon="39.756834"><ele>124.1</ele><time>1970-01-01T03:33:18Z</time></trkpt>
			<trkpt lat="55.648830" lon="39.756600"><ele>124.5</ele><time>1970-01-01T03:33:34Z</time></trkpt>
			<trkpt lat="55.649030" lon="39.756440"><ele>124.6</ele><time>1970-01-01T03:33:50Z</time></trkpt>
			<trkpt lat="55.649580" lon="39.756010"><ele>124.5</ele><time>1970-01-01T03:34:06Z</time></trkpt>
			<trkpt lat="55.649850" lon="39.755810"><ele>124.8</ele><time>1970-01-01T03:34:22Z</time></trkpt>
			<trkpt lat="55.651070" lon="39.754900"><ele>123.7</ele><time>1970-01-01T03:34:38Z</time></trkpt>
			<trkpt lat="55.651130" lon="39.754850"><ele>123.6</ele><time>1970-01-01T03:34:54Z</time></trkpt>
			<trkpt lat="55.652460" lon="39.753850"><ele>121.4</ele><time>1970-01-01T03:35:11Z</time></trkpt>
			<trkpt lat="55.652910" lon="39.753530"><ele>121.6</ele><time>1970-01-01T03:35:27Z</time></trkpt>
			<trkpt lat="55.653350" lon="39.753220"><ele>122.0</ele><time>1970-01-01T03:35:43Z</time></trkpt>
			<trkpt lat="55.654050" lon="39.752720"><ele>120.9</ele><time>1970-01-01T03:35:59Z</time></trkpt>
			<trkpt lat="55.654260" lon="39.752620"><ele>120.7</ele><time>1970-01-01T03:36:15Z</time></trkpt>
			<trkpt lat="55.654530" lon="39.752480"><ele>120.5</ele><time>1970-01-01T03:36:31Z</time></trkpt>
			<trkpt lat="55.655020" lon="39.752290"><ele>119.9</ele><time>1970-01-01T03:36:48Z</time></trkpt>
			<trkpt lat="55.655730" lon="39.752120"><ele>118.6</ele><time>1970-01-01T03:37:04Z</time></trkpt>
			<trkpt lat="55.656210" lon="39.752030"><ele>117.9</ele><time>1970-01-01T03:37:20Z</time></trkpt>
			<trkpt lat="55.656220" lon="39.752020"><ele>117.9</ele><time>1970-01-01T03:37:36Z</time></trkpt>
			<trkpt lat="55.656770" lon="39.751940"><ele>117.3</ele><time>1970-01-01T03:37:52Z</time></trkpt>
			<trkpt lat="55.657040" lon="39.751930"><ele>117.4</ele><time>1970-01-01T03:38:08Z</time></trkpt>
			<trkpt lat="55.657480" lon="39.751960"><ele>117.1</ele><time>1970-01-01T03:38:24Z</time></trkpt>
			<trkpt lat="55.657480" lon="39.752000"><ele>117.1</ele><time>1970-01-01T03:38:41Z</time></trkpt>
			<trkpt lat="55.657530" lon="39.753050"><ele>115.4</ele><time>1970-01-01T03:38:57Z</time></trkpt>
			<trkpt lat="55.657560" lon="39.753590"><ele>114.7</ele><time>1970-01-01T03:39:13Z</time></trkpt>
			<trkpt lat="55.657650" lon="39.754950"><ele>112.3</ele><time>1970-01-01T03:39:29Z</time></trkpt>
			<trkpt lat="55.657660" lon="39.755080"><ele>112.2</ele><time>1970-01-01T03:39:45Z</time></trkpt>
			<trkpt lat="55.657890" lon="39.758280"><ele>112.5</ele><time>1970-01-01T03:40:01Z</time></trkpt>
			<trkpt lat="55.658220" lon="39.762270"><ele>110.8</ele><time>1970-01-01T03:40:18Z</time></trkpt>
			<trkpt lat="55.658330" lon="39.763410"><ele>111.3</ele><time>1970-01-01T03:40:34Z</time></trkpt>
			<trkpt lat="55.658770" lon="39.768360"><ele>121.7</ele><time>1970-01-01T03:40:50Z</time></trkpt>
			<trkpt lat="55.658820" lon="39.769370"><ele>124.3</ele><time>1970-01-01T03:41:06Z</time></trkpt>
			<trkpt lat="55.658810" lon="39.770520"><ele>125.0</ele><time>1970-01-01T03:41:22Z</time></trkpt>
			<trkpt lat="55.658700" lon="39.773000"><ele>124.4</ele><time>1970-01-01T03:41:38Z</time></trkpt>
			<trkpt lat="55.658540" lon="39.775520"><ele>124.6</ele><time>1970-01-01T03:41:55Z</time></trkpt>
			<trkpt lat="55.657900" lon="39.785780"><ele>126.6</ele><time>1970-01-01T03:42:11Z</time></trkpt>
			<trkpt lat="55.657590" lon="39.790550"><ele>121.9</ele><time>1970-01-01T03:42:27Z</time></trkpt>
			<trkpt lat="55.657250" lon="39.796730"><ele>123.7</ele><time>1970-01-01T03:42:43Z</time></trkpt>
			<trkpt lat="55.657200" lon="39.798140"><ele>126.4</ele><time>1970-01-01T03:42:59Z</time></trkpt>
			<trkpt lat="55.657180" lon="39.800280"><ele>126.9</ele><time>1970-01-01T03:43:15Z</time></trkpt>
			<trkpt lat="55.657180" lon="39.802270"><ele>123.9</ele><time>1970-01-01T03:43:31Z</time></trkpt>
			<trkpt lat="55.657220" lon="39.804830"><ele>124.3</ele><time>1970-01-01T03:43:48Z</time></trkpt>
			<trkpt lat="55.657270" lon="39.807710"><ele>123.3</ele><time>1970-01-01T03:44:04Z</time></trkpt>
			<trkpt lat="55.657270" lon="39.807750"><ele>123.2</ele><time>1970-01-01T03:44:20Z</time></trkpt>
			<trkpt lat="55.657480" lon="39.809540"><ele>120.1</ele><time>1970-01-01T03:44:36Z</time></trkpt>
			<trkpt lat="55.657840" lon="39.811450"><ele>123.0</ele><time>1970-01-01T03:44:52Z</time></trkpt>
			<trkpt lat="55.657840" lon="39.811450"><ele>123.0</ele><time>1970-01-01T03:45:08Z</time></trkpt>
			<trkpt lat="55.658410" lon="39.813760"><ele>124.0</ele><time>1970-01-01T03:45:25Z</time></trkpt>
			<trkpt lat="55.659210" lon="39.816830"><ele>124.5</ele><time>1970-01-01T03:45:41Z</time></trkpt>
			<trkpt lat="55.659510" lon="39.818270"><ele>121.1</ele><time>1970-01-01T03:45:57Z</time></trkpt>
			<trkpt lat="55.659530" lon="39.818370"><ele>120.8</ele><time>1970-01-01T03:46:13Z</time></trkpt>
			<trkpt lat="55.659770" lon="39.820250"><ele>116.4</ele><time>1970-01-01T03:46:29Z</time></trkpt>
			<trkpt lat="55.660550" lon="39.827600"><ele>113.1</ele><time>1970-01-01T03:46:45Z</time></trkpt>
			<trkpt lat="55.660610" lon="39.828230"><ele>113.6</ele><time>1970-01-01T03:47:01Z</time></trkpt>
			<trkpt lat="55.660960" lon="39.831880"><ele>114.7</ele><time>1970-01-01T03:47:18Z</time></trkpt>
			<trkpt lat="55.661050" lon="39.832860"><ele>113.5</ele><time>1970-01-01T03:47:34Z</time></trkpt>
			<trkpt lat="55.661400" lon="39.836240"><ele>115.4</ele><time>1970-01-01T03:47:50Z</time></trkpt>
			<trkpt lat="55.661480" lon="39.837010"><ele>116.2</ele><time>1970-01-01T03:48:06Z</time></trkpt>
			<trkpt lat="55.661690" lon="39.838330"><ele>118.1</ele><time>1970-01-01T03:48:22Z</time></trkpt>
			<trkpt lat="55.661850" lon="39.838980"><ele>119.1</ele><time>1970-01-01T03:48:38Z</time></trkpt>
			<trkpt lat="55.662000" lon="39.839450"><ele>119.1</ele><time>1970-01-01T03:48:55Z</time></trkpt>
			<trkpt lat="55.662570" lon="39.840780"><ele>118.1</ele><time>1970-01-01T03:49:11Z</time></trkpt>
			<trkpt lat="55.663080" lon="39.841770"><ele>117.6</ele><time>1970-01-01T03:49:27Z</time></trkpt>
			<trkpt lat="55.663260" lon="39.842140"><ele>117.4</ele><time>1970-01-01T03:49:43Z</time></trkpt>
			<trkpt lat="55.663290" lon="39.842380"><ele>117.1</ele><time>1970-01-01T03:49:59Z</time></trkpt>
			<trkpt lat="55.663300" lon="39.843680"><ele>117.0</ele><time>1970-01-01T03:50:15Z</time></trkpt>
			<trkpt lat="55.663300" lon="39.844820"><ele>117.0</ele><time>1970-01-01T03:50:32Z</time></trkpt>
			<trkpt lat="55.663290" lon="39.847030"><ele>118.4</ele><time>1970-01-01T03:50:48Z</time></trkpt>
			<trkpt lat="55.663290" lon="39.847140"><ele>118.5</ele><time>1970-01-01T03:51:04Z</time></trkpt>
			<trkpt lat="55.663290" lon="39.847340"><ele>118.8</ele><time>1970-01-01T03:51:20Z</time></trkpt>
			<trkpt lat="55.663290" lon="39.849740"><ele>121.0</ele><time>1970-01-01T03:51:36Z</time></trkpt>
			<trkpt lat="55.663290" lon="39.849890"><ele>121.0</ele><time>1970-01-01T03:51:52Z</time></trkpt>
			<trkpt lat="55.663290" lon="39.850060"><ele>121.0</ele><time>1970-01-01T03:52:08Z</time></trkpt>
			<trkpt lat="55.663260" lon="39.851600"><ele>120.1</ele><time>1970-01-01T03:52:25Z</time></trkpt>
			<trkpt lat="55.663250" lon="39.852510"><ele>119.8</ele><time>1970-01-01T03:52:41Z</time></trkpt>
			<trkpt lat="55.663250" lon="39.852620"><ele>119.7</ele><time>1970-01-01T03:52:57Z</time></trkpt>
			<trkpt lat="55.663240" lon="39.852800"><ele>119.5</ele><time>1970-01-01T03:53:13Z</time></trkpt>
			<trkpt lat="55.663230" lon="39.854620"><ele>118.8</ele><time>1970-01-01T03:53:29Z</time></trkpt>
			<trkpt lat="55.663230" lon="39.857490"><ele>119.5</ele><time>1970-01-01T03:53:45Z</time></trkpt>
			<trkpt lat="55.663340" lon="39.858620"><ele>118.6</ele><time>1970-01-01T03:54:02Z</time></trkpt>
			<trkpt lat="55.663370" lon="39.858880"><ele>118.2</ele><time>1970-01-01T03:54:18Z</time></trkpt>
			<trkpt lat="55.663510" lon="39.860480"><ele>116.9</ele><time>1970-01-01T03:54:34Z</time></trkpt>
			<trkpt lat="55.663520" lon="39.860600"><ele>116.8</ele><time>1970-01-01T03:54:50Z</time></trkpt>
			<trkpt lat="55.663620" lon="39.861480"><ele>116.3</ele><time>1970-01-01T03:55:06Z</time></trkpt>
			<trkpt lat="55.663650" lon="39.861890"><ele>115.9</ele><time>1970-01-01T03:55:22Z</time></trkpt>
			<trkpt lat="55.663690" lon="39.862450"><ele>114.8</ele><time>1970-01-01T03:55:39Z</time></trkpt>
			<trkpt lat="55.663660" lon="39.862740"><ele>114.4</ele><time>1970-01-01T03:55:55Z</time></trkpt>
			<trkpt lat="55.663540" lon="39.863970"><ele>113.2</ele><time>1970-01-01T03:56:11Z</time></trkpt>
			<trkpt lat="55.663480" lon="39.864550"><ele>113.8</ele><time>1970-01-01T03:56:27Z</time></trkpt>
			<trkpt lat="55.663430" lon="39.865040"><ele>114.5</ele><time>1970-01-01T03:56:43Z</time></trkpt>
			<trkpt lat="55.663320" lon="39.865550"><ele>113.6</ele><time>1970-01-01T03:56:59Z</time></trkpt>
			<trkpt lat="55.663180" lon="39.866020"><ele>112.8</ele><time>1970-01-01T03:57:15Z</time></trkpt>
			<trkpt lat="55.663020" lon="39.866520"><ele>113.1</ele><time>1970-01-01T03:57:32Z</time></trkpt>
			<trkpt lat="55.662720" lon="39.867490"><ele>114.1</ele><time>1970-01-01T03:57:48Z</time></trkpt>
			<trkpt lat="55.662560" lon="39.868160"><ele>114.8</ele><time>1970-01-01T03:58:04Z</time></trkpt>
			<trkpt lat="55.662560" lon="39.868160"><ele>114.8</ele><time>1970-01-01T03:58:20Z</time></trkpt>
			<trkpt lat="55.662540" lon="39.868460"><ele>115.1</ele><time>1970-01-01T03:58:36Z</time></trkpt>
			<trkpt lat="55.662490" lon="39.868800"><ele>115.6</ele><time>1970-01-01T03:58:52Z</time></trkpt>
			<trkpt lat="55.662450" lon="39.869100"><ele>116.0</ele><time>1970-01-01T03:59:09Z</time></trkpt>
			<trkpt lat="55.662360" lon="39.869970"><ele>117.2</ele><time>1970-01-01T03:59:25Z</time></trkpt>
			<trkpt lat="55.662230" lon="39.870770"><ele>119.7</ele><time>1970-01-01T03:59:41Z</time></trkpt>
			<trkpt lat="55.661780" lon="39.872300"><ele>120.5</ele><time>1970-01-01T03:59:57Z</time></trkpt>
			<trkpt lat="55.661410" lon="39.873630"><ele>118.3</ele><time>1970-01-01T04:00:13Z</time></trkpt>
			<trkpt lat="55.661000" lon="39.875260"><ele>116.5</ele><time>1970-01-01T04:00:29Z</time></trkpt>
			<trkpt lat="55.660640" lon="39.876560"><ele>117.2</ele><time>1970-01-01T04:00:45Z</time></trkpt>
			<trkpt lat="55.660380" lon="39.877650"><ele>119.1</ele><time>1970-01-01T04:01:02Z</time></trkpt>
			<trkpt lat="55.660380" lon="39.877650"><ele>119.1</ele><time>1970-01-01T04:01:18Z</time></trkpt>
			<trkpt lat="55.660340" lon="39.877920"><ele>120.2</ele><time>1970-01-01T04:01:34Z</time></trkpt>
			<trkpt lat="55.660300" lon="39.878670"><ele>122.3</ele><time>1970-01-01T04:01:50Z</time></trkpt>
			<trkpt lat="55.660250" lon="39.880330"><ele>120.4</ele><time>1970-01-01T04:02:06Z</time></trkpt>
			<trkpt lat="55.660230" lon="39.880660"><ele>119.5</ele><time>1970-01-01T04:02:22Z</time></trkpt>
			<trkpt lat="55.660110" lon="39.882310"><ele>116.1</ele><time>1970-01-01T04:02:39Z</time></trkpt>
			<trkpt lat="55.659940" lon="39.884150"><ele>114.3</ele><time>1970-01-01T04:02:55Z</time></trkpt>
			<trkpt lat="55.659840" lon="39.885220"><ele>114.6</ele><time>1970-01-01T04:03:11Z</time></trkpt>
			<trkpt lat="55.659790" lon="39.885880"><ele>114.7</ele><time>1970-01-01T04:03:27Z</time></trkpt>
			<trkpt lat="55.659690" lon="39.886940"><ele>117.1</ele><time>1970-01-01T04:03:43Z</time></trkpt>
			<trkpt lat="55.659680" lon="39.887660"><ele>117.8</ele><time>1970-01-01T04:03:59Z</time></trkpt>
			<trkpt lat="55.659670" lon="39.888530"><ele>118.6</ele><time>1970-01-01T04:04:16Z</time></trkpt>
			<trkpt lat="55.659650" lon="39.888700"><ele>118.8</ele><time>1970-01-01T04:04:32Z</time></trkpt>
			<trkpt lat="55.659590" lon="39.889450"><ele>118.8</ele><time>1970-01-01T04:04:48Z</time></trkpt>
			<trkpt lat="55.659400" lon="39.890960"><ele>115.9</ele><time>1970-01-01T04:05:04Z</time></trkpt>
			<trkpt lat="55.659160" lon="39.893150"><ele>113.2</ele><time>1970-01-01T04:05:20Z</time></trkpt>
			<trkpt lat="55.659050" lon="39.894180"><ele>112.8</ele><time>1970-01-01T04:05:36Z</time></trkpt>
			<trkpt lat="55.659020" lon="39.894620"><ele>112.4</ele><time>1970-01-01T04:05:52Z</time></trkpt>
			<trkpt lat="55.658600" lon="39.899720"><ele>112.2</ele><time>1970-01-01T04:06:09Z</time></trkpt>
			<trkpt lat="55.658440" lon="39.900850"><ele>112.1</ele><time>1970-01-01T04:06:25Z</time></trkpt>
			<trkpt lat="55.658270" lon="39.901520"><ele>112.1</ele><time>1970-01-01T04:06:41Z</time></trkpt>
			<trkpt lat="55.658170" lon="39.901820"><ele>112.2</ele><time>1970-01-01T04:06:57Z</time></trkpt>
			<trkpt lat="55.658070" lon="39.902110"><ele>112.3</ele><time>1970-01-01T04:07:13Z</time></trkpt>
			<trkpt lat="55.657520" lon="39.903110"><ele>113.0</ele><time>1970-01-01T04:07:29Z</time></trkpt>
			<trkpt lat="55.657380" lon="39.903310"><ele>112.9</ele><time>1970-01-01T04:07:46Z</time></trkpt>
			<trkpt lat="55.656780" lon="39.904170"><ele>112.8</ele><time>1970-01-01T04:08:02Z</time></trkpt>
			<trkpt lat="55.656270" lon="39.904680"><ele>112.2</ele><time>1970-01-01T04:08:18Z</time></trkpt>
			<trkpt lat="55.655440" lon="39.905390"><ele>112.2</ele><time>1970-01-01T04:08:34Z</time></trkpt>
			<trkpt lat="55.650960" lon="39.909090"><ele>114.9</ele><time>1970-01-01T04:08:50Z</time></trkpt>
			<trkpt lat="55.648450" lon="39.911110"><ele>117.4</ele><time>1970-01-01T04:09:06Z</time></trkpt>
			<trkpt lat="55.644770" lon="39.914050"><ele>117.7</ele><time>1970-01-01T04:09:22Z</time></trkpt>
			<trkpt lat="55.643150" lon="39.915420"><ele>119.9</ele><time>1970-01-01T04:09:39Z</time></trkpt>
			<trkpt lat="55.642440" lon="39.916190"><ele>120.2</ele><time>1970-01-01T04:09:55Z</time></trkpt>
			<trkpt lat="55.641990" lon="39.916840"><ele>122.3</ele><time>1970-01-01T04:10:11Z</time></trkpt>
			<trkpt lat="55.641530" lon="39.917670"><ele>122.7</ele><time>1970-01-01T04:10:27Z</time></trkpt>
			<trkpt lat="55.641410" lon="39.917980"><ele>122.8</ele><time>1970-01-01T04:10:43Z</time></trkpt>
			<trkpt lat="55.641220" lon="39.918470"><ele>122.9</ele><time>1970-01-01T04:10:59Z</time></trkpt>
			<trkpt lat="55.641000" lon="39.919210"><ele>121.8</ele><time>1970-01-01T04:11:16Z</time></trkpt>
			<trkpt lat="55.640280" lon="39.922740"><ele>121.8</ele><time>1970-01-01T04:11:32Z</time></trkpt>
			<trkpt lat="55.639310" lon="39.927530"><ele>123.6</ele><time>1970-01-01T04:11:48Z</time></trkpt>
			<trkpt lat="55.639080" lon="39.928660"><ele>121.4</ele><time>1970-01-01T04:12:04Z</time></trkpt>
			<trkpt lat="55.638790" lon="39.929640"><ele>121.6</ele><time>1970-01-01T04:12:20Z</time></trkpt>
			<trkpt lat="55.638420" lon="39.930580"><ele>122.5</ele><time>1970-01-01T04:12:36Z</time></trkpt>
			<trkpt lat="55.638150" lon="39.931110"><ele>122.7</ele><time>1970-01-01T04:12:53Z</time></trkpt>
			<trkpt lat="55.637840" lon="39.931590"><ele>123.3</ele><time>1970-01-01T04:13:09Z</time></trkpt>
			<trkpt lat="55.637290" lon="39.932280"><ele>123.5</ele><time>1970-01-01T04:13:25Z</time></trkpt>
			<trkpt lat="55.636710" lon="39.932780"><ele>124.9</ele><time>1970-01-01T04:13:41Z</time></trkpt>
			<trkpt lat="55.636220" lon="39.933070"><ele>124.8</ele><time>1970-01-01T04:13:57Z</time></trkpt>
			<trkpt lat="55.635720" lon="39.933260"><ele>123.6</ele><time>1970-01-01T04:14:13Z</time></trkpt>
			<trkpt lat="55.634530" lon="39.933580"><ele>125.1</ele><time>1970-01-01T04:14:29Z</time></trkpt>
			<trkpt lat="55.628550" lon="39.934910"><ele>124.4</ele><time>1970-01-01T04:14:46Z</time></trkpt>
			<trkpt lat="55.627310" lon="39.935130"><ele>122.7</ele><time>1970-01-01T04:15:02Z</time></trkpt>
			<trkpt lat="55.622750" lon="39.935260"><ele>120.5</ele><time>1970-01-01T04:15:18Z</time></trkpt>
			<trkpt lat="55.603810" lon="39.936000"><ele>122.1</ele><time>1970-01-01T04:15:34Z</time></trkpt>
			<trkpt lat="55.602300" lon="39.936020"><ele>121.5</ele><time>1970-01-01T04:15:50Z</time></trkpt>
			<trkpt lat="55.601900" lon="39.936060"><ele>122.1</ele><time>1970-01-01T04:16:06Z</time></trkpt>
			<trkpt lat="55.601520" lon="39.936140"><ele>122.8</ele><time>1970-01-01T04:16:23Z</time></trkpt>
			<trkpt lat="55.601090" lon="39.936300"><ele>123.6</ele><time>1970-01-01T04:16:39Z</time></trkpt>
			<trkpt lat="55.600670" lon="39.936500"><ele>123.0</ele><time>1970-01-01T04:16:55Z</time></trkpt>
			<trkpt lat="55.600350" lon="39.936710"><ele>121.9</ele><time>1970-01-01T04:17:11Z</time></trkpt>
			<trkpt lat="55.599450" lon="39.937440"><ele>120.2</ele><time>1970-01-01T04:17:27Z</time></trkpt>
			<trkpt lat="55.598090" lon="39.938600"><ele>121.4</ele><time>1970-01-01T04:17:43Z</time></trkpt>
			<trkpt lat="55.587800" lon="39.947110"><ele>121.6</ele><time>1970-01-01T04:18:00Z</time></trkpt>
			<trkpt lat="55.582710" lon="39.951370"><ele>125.4</ele><time>1970-01-01T04:18:16Z</time></trkpt>
			<trkpt lat="55.578040" lon="39.955290"><ele>129.1</ele><time>1970-01-01T04:18:32Z</time></trkpt>
			<trkpt lat="55.574660" lon="39.958100"><ele>128.8</ele><time>1970-01-01T04:18:48Z</time></trkpt>
			<trkpt lat="55.571820" lon="39.960560"><ele>127.3</ele><time>1970-01-01T04:19:04Z</time></trkpt>
			<trkpt lat="55.570520" lon="39.961570"><ele>128.3</ele><time>1970-01-01T04:19:20Z</time></trkpt>
			<trkpt lat="55.570090" lon="39.961940"><ele>127.1</ele><time>1970-01-01T04:19:36Z</time></trkpt>
			<trkpt lat="55.569800" lon="39.962110"><ele>125.4</ele><time>1970-01-01T04:19:53Z</time></trkpt>
			<trkpt lat="55.569620" lon="39.962170"><ele>124.3</ele><time>1970-01-01T04:20:09Z</time></trkpt>
			<trkpt lat="55.569390" lon="39.962190"><ele>123.1</ele><time>1970-01-01T04:20:25Z</time></trkpt>
			<trkpt lat="55.569040" lon="39.962170"><ele>122.4</ele><time>1970-01-01T04:20:41Z</time></trkpt>
			<trkpt lat="55.569030" lon="39.962170"><ele>122.5</ele><time>1970-01-01T04:20:57Z</time></trkpt>
			<trkpt lat="55.569150" lon="39.959440"><ele>127.9</ele><time>1970-01-01T04:21:13Z</time></trkpt>
			<trkpt lat="55.569310" lon="39.954860"><ele>127.9</ele><time>1970-01-01T04:21:30Z</time></trkpt>
			<trkpt lat="55.569440" lon="39.950590"><ele>128.6</ele><time>1970-01-01T04:21:46Z</time></trkpt>
			<trkpt lat="55.569420" lon="39.949670"><ele>128.4</ele><time>1970-01-01T04:22:02Z</time></trkpt>
			<trkpt lat="55.569380" lon="39.949100"><ele>128.5</ele><time>1970-01-01T04:22:18Z</time></trkpt>
			<trkpt lat="55.569370" lon="39.949010"><ele>128.5</ele><time>1970-01-01T04:22:34Z</time></trkpt>
			<trkpt lat="55.569310" lon="39.948500"><ele>128.5</ele><time>1970-01-01T04:22:50Z</time></trkpt>
			<trkpt lat="55.569190" lon="39.947930"><ele>128.6</ele><time>1970-01-01T04:23:06Z</time></trkpt>
			<trkpt lat="55.568910" lon="39.947060"><ele>129.8</ele><time>1970-01-01T04:23:23Z</time></trkpt>
			<trkpt lat="55.568240" lon="39.945530"><ele>130.0</ele><time>1970-01-01T04:23:39Z</time></trkpt>
			<trkpt lat="55.567040" lon="39.942440"><ele>129.9</ele><time>1970-01-01T04:23:55Z</time></trkpt>
			<trkpt lat="55.566620" lon="39.941490"><ele>128.8</ele><time>1970-01-01T04:24:11Z</time></trkpt>
			<trkpt lat="55.566170" lon="39.940440"><ele>131.4</ele><time>1970-01-01T04:24:27Z</time></trkpt>
			<trkpt lat="55.565650" lon="39.939090"><ele>129.7</ele><time>1970-01-01T04:24:43Z</time></trkpt>
			<trkpt lat="55.565470" lon="39.938480"><ele>129.7</ele><time>1970-01-01T04:25:00Z</time></trkpt>
			<trkpt lat="55.565260" lon="39.937640"><ele>128.7</ele><time>1970-01-01T04:25:16Z</time></trkpt>
			<trkpt lat="55.565170" lon="39.937200"><ele>128.3</ele><time>1970-01-01T04:25:32Z</time></trkpt>
			<trkpt lat="55.565120" lon="39.936600"><ele>128.2</ele><time>1970-01-01T04:25:48Z</time></trkpt>
			<trkpt lat="55.565050" lon="39.935640"><ele>129.2</ele><time>1970-01-01T04:26:04Z</time></trkpt>
			<trkpt lat="55.565040" lon="39.935270"><ele>129.7</ele><time>1970-01-01T04:26:20Z</time></trkpt>
			<trkpt lat="55.565030" lon="39.934620"><ele>130.9</ele><time>1970-01-01T04:26:37Z</time></trkpt>
			<trkpt lat="55.565160" lon="39.929580"><ele>126.2</ele><time>1970-01-01T04:26:53Z</time></trkpt>
			<trkpt lat="55.565260" lon="39.926470"><ele>124.0</ele><time>1970-01-01T04:27:09Z</time></trkpt>
			<trkpt lat="55.565250" lon="39.926200"><ele>124.0</ele><time>1970-01-01T04:27:25Z</time></trkpt>
			<trkpt lat="55.565220" lon="39.926020"><ele>123.9</ele><time>1970-01-01T04:27:41Z</time></trkpt>
			<trkpt lat="55.565190" lon="39.925870"><ele>123.7</ele><time>1970-01-01T04:27:57Z</time></trkpt>
			<trkpt lat="55.565110" lon="39.925720"><ele>123.3</ele><time>1970-01-01T04:28:13Z</time></trkpt>
			<trkpt lat="55.565010" lon="39.925620"><ele>122.9</ele><time>1970-01-01T04:28:30Z</time></trkpt>
			<trkpt lat="55.564860" lon="39.925510"><ele>122.9</ele><time>1970-01-01T04:28:46Z</time></trkpt>
			<trkpt lat="55.564570" lon="39.925400"><ele>122.5</ele><time>1970-01-01T04:29:02Z</time></trkpt>
			<trkpt lat="55.564330" lon="39.925260"><ele>121.8</ele><time>1970-01-01T04:29:18Z</time></trkpt>
			<trkpt lat="55.564080" lon="39.925010"><ele>121.3</ele><time>1970-01-01T04:29:34Z</time></trkpt>
			<trkpt lat="55.563850" lon="39.924650"><ele>121.9</ele><time>1970-01-01T04:29:50Z</time></trkpt>
			<trkpt lat="55.563740" lon="39.924410"><ele>122.4</ele><time>1970-01-01T04:30:07Z</time></trkpt>
			<trkpt lat="55.563660" lon="39.924160"><ele>122.7</ele><time>1970-01-01T04:30:23Z</time></trkpt>
			<trkpt lat="55.563590" lon="39.923630"><ele>122.8</ele><time>1970-01-01T04:30:39Z</time></trkpt>
			<trkpt lat="55.563530" lon="39.922360"><ele>122.1</ele><time>1970-01-01T04:30:55Z</time></trkpt>
			<trkpt lat="55.563460" lon="39.920100"><ele>121.9</ele><time>1970-01-01T04:31:11Z</time></trkpt>
			<trkpt lat="55.563310" lon="39.916900"><ele>119.8</ele><time>1970-01-01T04:31:27Z</time></trkpt>
			<trkpt lat="55.563310" lon="39.916660"><ele>120.0</ele><time>1970-01-01T04:31:43Z</time></trkpt>
			<trkpt lat="55.563300" lon="39.916170"><ele>119.5</ele><time>1970-01-01T04:32:00Z</time></trkpt>
			<trkpt lat="55.563340" lon="39.914970"><ele>119.1</ele><time>1970-01-01T04:32:16Z</time></trkpt>
			<trkpt lat="55.563360" lon="39.914770"><ele>119.3</ele><time>1970-01-01T04:32:32Z</time></trkpt>
			<trkpt lat="55.563420" lon="39.914350"><ele>119.8</ele><time>1970-01-01T04:32:48Z</time></trkpt>
			<trkpt lat="55.563670" lon="39.912860"><ele>123.0</ele><time>1970-01-01T04:33:04Z</time></trkpt>
			<trkpt lat="55.563880" lon="39.911800"><ele>124.6</ele><time>1970-01-01T04:33:20Z</time></trkpt>
			<trkpt lat="55.564490" lon="39.908560"><ele>123.5</ele><time>1970-01-01T04:33:37Z</time></trkpt>
			<trkpt lat="55.564620" lon="39.906940"><ele>122.8</ele><time>1970-01-01T04:33:53Z</time></trkpt>
			<trkpt lat="55.564800" lon="39.899030"><ele>123.4</ele><time>1970-01-01T04:34:09Z</time></trkpt>
			<trkpt lat="55.564860" lon="39.897000"><ele>123.7</ele><time>1970-01-01T04:34:25Z</time></trkpt>
			<trkpt lat="55.564910" lon="39.894320"><ele>121.3</ele><time>1970-01-01T04:34:41Z</time></trkpt>
			<trkpt lat="55.565030" lon="39.890370"><ele>124.5</ele><time>1970-01-01T04:34:57Z</time></trkpt>
			<trkpt lat="55.565090" lon="39.888300"><ele>122.3</ele><time>1970-01-01T04:35:14Z</time></trkpt>
			<trkpt lat="55.565380" lon="39.880190"><ele>123.4</ele><time>1970-01-01T04:35:30Z</time></trkpt>
			<trkpt lat="55.565580" lon="39.875550"><ele>120.5</ele><time>1970-01-01T04:35:46Z</time></trkpt>
			<trkpt lat="55.565640" lon="39.874150"><ele>122.4</ele><time>1970-01-01T04:36:02Z</time></trkpt>
			<trkpt lat="55.565640" lon="39.873910"><ele>122.5</ele><time>1970-01-01T04:36:18Z</time></trkpt>
			<trkpt lat="55.565670" lon="39.870910"><ele>121.3</ele><time>1970-01-01T04:36:34Z</time></trkpt>
			<trkpt lat="55.565630" lon="39.869490"><ele>121.6</ele><time>1970-01-01T04:36:50Z</time></trkpt>
			<trkpt lat="55.565580" lon="39.866930"><ele>121.2</ele><time>1970-01-01T04:37:07Z</time></trkpt>
			<trkpt lat="55.565530" lon="39.866090"><ele>121.1</ele><time>1970-01-01T04:37:23Z</time></trkpt>
			<trkpt lat="55.565400" lon="39.864740"><ele>121.0</ele><time>1970-01-01T04:37:39Z</time></trkpt>
			<trkpt lat="55.565210" lon="39.863130"><ele>121.5</ele><time>1970-01-01T04:37:55Z</time></trkpt>
			<trkpt lat="55.564770" lon="39.859580"><ele>121.1</ele><time>1970-01-01T04:38:11Z</time></trkpt>
			<trkpt lat="55.564680" lon="39.858880"><ele>120.4</ele><time>1970-01-01T04:38:27Z</time></trkpt>
			<trkpt lat="55.564220" lon="39.855990"><ele>121.2</ele><time>1970-01-01T04:38:44Z</time></trkpt>
			<trkpt lat="55.563850" lon="39.852980"><ele>121.5</ele><time>1970-01-01T04:39:00Z</time></trkpt>
			<trkpt lat="55.563720" lon="39.851860"><ele>122.1</ele><time>1970-01-01T04:39:16Z</time></trkpt>
			<trkpt lat="55.563590" lon="39.850900"><ele>122.2</ele><time>1970-01-01T04:39:32Z</time></trkpt>
			<trkpt lat="55.563000" lon="39.846160"><ele>123.0</ele><time>1970-01-01T04:39:48Z</time></trkpt>
			<trkpt lat="55.562780" lon="39.844090"><ele>121.0</ele><time>1970-01-01T04:40:04Z</time></trkpt>
			<trkpt lat="55.562350" lon="39.838910"><ele>123.4</ele><time>1970-01-01T04:40:21Z</time></trkpt>
			<trkpt lat="55.561930" lon="39.834490"><ele>125.0</ele><time>1970-01-01T04:40:37Z</time></trkpt>
			<trkpt lat="55.561860" lon="39.832000"><ele>124.2</ele><time>1970-01-01T04:40:53Z</time></trkpt>
			<trkpt lat="55.561870" lon="39.830750"><ele>123.6</ele><time>1970-01-01T04:41:09Z</time></trkpt>
			<trkpt lat="55.562170" lon="39.823870"><ele>122.2</ele><time>1970-01-01T04:41:25Z</time></trkpt>
			<trkpt lat="55.562370" lon="39.819760"><ele>122.7</ele><time>1970-01-01T04:41:41Z</time></trkpt>
			<trkpt lat="55.562510" lon="39.818280"><ele>121.9</ele><time>1970-01-01T04:41:57Z</time></trkpt>
			<trkpt lat="55.562510" lon="39.818280"><ele>121.9</ele><time>1970-01-01T04:42:14Z</time></trkpt>
			<trkpt lat="55.562610" lon="39.817700"><ele>121.8</ele><time>1970-01-01T04:42:30Z</time></trkpt>
			<trkpt lat="55.562720" lon="39.817000"><ele>121.9</ele><time>1970-01-01T04:42:46Z</time></trkpt>
			<trkpt lat="55.562950" lon="39.815920"><ele>121.2</ele><time>1970-01-01T04:43:02Z</time></trkpt>
			<trkpt lat="55.563250" lon="39.814830"><ele>120.5</ele><time>1970-01-01T04:43:18Z</time></trkpt>
			<trkpt lat="55.563710" lon="39.813090"><ele>121.7</ele><time>1970-01-01T04:43:34Z</time></trkpt>
			<trkpt lat="55.563850" lon="39.812400"><ele>122.6</ele><time>1970-01-01T04:43:51Z</time></trkpt>
			<trkpt lat="55.563930" lon="39.811710"><ele>122.6</ele><time>1970-01-01T04:44:07Z</time></trkpt>
			<trkpt lat="55.564100" lon="39.808320"><ele>121.2</ele><time>1970-01-01T04:44:23Z</time></trkpt>
			<trkpt lat="55.564180" lon="39.806900"><ele>122.8</ele><time>1970-01-01T04:44:39Z</time></trkpt>
			<trkpt lat="55.564240" lon="39.805670"><ele>123.0</ele><time>1970-01-01T04:44:55Z</time></trkpt>
			<trkpt lat="55.564250" lon="39.804930"><ele>122.2</ele><time>1970-01-01T04:45:11Z</time></trkpt>
			<trkpt lat="55.564240" lon="39.804380"><ele>122.1</ele><time>1970-01-01T04:45:27Z</time></trkpt>
			<trkpt lat="55.564240" lon="39.804050"><ele>122.0</ele><time>1970-01-01T04:45:44Z</time></trkpt>
			<trkpt lat="55.564170" lon="39.801960"><ele>123.3</ele><time>1970-01-01T04:46:00Z</time></trkpt>
			<trkpt lat="55.564120" lon="39.800910"><ele>122.1</ele><time>1970-01-01T04:46:16Z</time></trkpt>
			<trkpt lat="55.564100" lon="39.800680"><ele>121.9</ele><time>1970-01-01T04:46:32Z</time></trkpt>
			<trkpt lat="55.564100" lon="39.800610"><ele>121.9</ele><time>1970-01-01T04:46:48Z</time></trkpt>
			<trkpt lat="55.563880" lon="39.796240"><ele>121.3</ele><time>1970-01-01T04:47:04Z</time></trkpt>
			<trkpt lat="55.563870" lon="39.796190"><ele>121.3</ele><time>1970-01-01T04:47:21Z</time></trkpt>
			<trkpt lat="55.563860" lon="39.795780"><ele>121.4</ele><time>1970-01-01T04:47:37Z</time></trkpt>
			<trkpt lat="55.563800" lon="39.795150"><ele>121.4</ele><time>1970-01-01T04:47:53Z</time></trkpt>
			<trkpt lat="55.563690" lon="39.794470"><ele>121.6</ele><time>1970-01-01T04:48:09Z</time></trkpt>
			<trkpt lat="55.563640" lon="39.794220"><ele>121.5</ele><time>1970-01-01T04:48:25Z</time></trkpt>
			<trkpt lat="55.563550" lon="39.793800"><ele>120.9</ele><time>1970-01-01T04:48:41Z</time></trkpt>
			<trkpt lat="55.563550" lon="39.793800"><ele>120.9</ele><time>1970-01-01T04:48:58Z</time></trkpt>
			<trkpt lat="55.563320" lon="39.792980"><ele>120.0</ele><time>1970-01-01T04:49:14Z</time></trkpt>
			<trkpt lat="55.563190" lon="39.792570"><ele>120.0</ele><time>1970-01-01T04:49:30Z</time></trkpt>
			<trkpt lat="55.563030" lon="39.792170"><ele>120.0</ele><time>1970-01-01T04:49:46Z</time></trkpt>
			<trkpt lat="55.562830" lon="39.791730"><ele>120.0</ele><time>1970-01-01T04:50:02Z</time></trkpt>
			<trkpt lat="55.562610" lon="39.791310"><ele>119.7</ele><time>1970-01-01T04:50:18Z</time></trkpt>
			<trkpt lat="55.562350" lon="39.790890"><ele>119.3</ele><time>1970-01-01T04:50:34Z</time></trkpt>
			<trkpt lat="55.562090" lon="39.790530"><ele>119.5</ele><time>1970-01-01T04:50:51Z</time></trkpt>
			<trkpt lat="55.561820" lon="39.790200"><ele>119.8</ele><time>1970-01-01T04:51:07Z</time></trkpt>
			<trkpt lat="55.560940" lon="39.789300"><ele>120.0</ele><time>1970-01-01T04:51:23Z</time></trkpt>
			<trkpt lat="55.559470" lon="39.787750"><ele>118.9</ele><time>1970-01-01T04:51:39Z</time></trkpt>
			<trkpt lat="55.558800" lon="39.787040"><ele>120.4</ele><time>1970-01-01T04:51:55Z</time></trkpt>
			<trkpt lat="55.558140" lon="39.786370"><ele>121.3</ele><time>1970-01-01T04:52:11Z</time></trkpt>
			<trkpt lat="55.557510" lon="39.785690"><ele>120.8</ele><time>1970-01-01T04:52:28Z</time></trkpt>
			<trkpt lat="55.557500" lon="39.785690"><ele>120.8</ele><time>1970-01-01T04:52:44Z</time></trkpt>
			<trkpt lat="55.557360" lon="39.785490"><ele>120.5</ele><time>1970-01-01T04:53:00Z</time></trkpt>
			<trkpt lat="55.557320" lon="39.785440"><ele>120.4</ele><time>1970-01-01T04:53:16Z</time></trkpt>
			<trkpt lat="55.557120" lon="39.785070"><ele>119.7</ele><time>1970-01-01T04:53:32Z</time></trkpt>
			<trkpt lat="55.556940" lon="39.784640"><ele>119.3</ele><time>1970-01-01T04:53:48Z</time></trkpt>
			<trkpt lat="55.556820" lon="39.784270"><ele>119.2</ele><time>1970-01-01T04:54:04Z</time></trkpt>
			<trkpt lat="55.556740" lon="39.783960"><ele>119.3</ele><time>1970-01-01T04:54:21Z</time></trkpt>
			<trkpt lat="55.556690" lon="39.783710"><ele>119.5</ele><time>1970-01-01T04:54:37Z</time></trkpt>
			<trkpt lat="55.556640" lon="39.783420"><ele>119.8</ele><time>1970-01-01T04:54:53Z</time></trkpt>
			<trkpt lat="55.556610" lon="39.783090"><ele>119.9</ele><time>1970-01-01T04:55:09Z</time></trkpt>
			<trkpt lat="55.556590" lon="39.782720"><ele>119.9</ele><time>1970-01-01T04:55:25Z</time></trkpt>
			<trkpt lat="55.556600" lon="39.781890"><ele>119.9</ele><time>1970-01-01T04:55:41Z</time></trkpt>
			<trkpt lat="55.556720" lon="39.776510"><ele>122.1</ele><time>1970-01-01T04:55:58Z</time></trkpt>
			<trkpt lat="55.556730" lon="39.775490"><ele>123.0</ele><time>1970-01-01T04:56:14Z</time></trkpt>
			<trkpt lat="55.556710" lon="39.774320"><ele>123.9</ele><time>1970-01-01T04:56:30Z</time></trkpt>
			<trkpt lat="55.556680" lon="39.773410"><ele>124.0</ele><time>1970-01-01T04:56:46Z</time></trkpt>
			<trkpt lat="55.556650" lon="39.772650"><ele>122.3</ele><time>1970-01-01T04:57:02Z</time></trkpt>
			<trkpt lat="55.556550" lon="39.771310"><ele>119.4</ele><time>1970-01-01T04:57:18Z</time></trkpt>
			<trkpt lat="55.556490" lon="39.770580"><ele>118.3</ele><time>1970-01-01T04:57:35Z</time></trkpt>
			<trkpt lat="55.556460" lon="39.770150"><ele>117.6</ele><time>1970-01-01T04:57:51Z</time></trkpt>
			<trkpt lat="55.556420" lon="39.769800"><ele>117.4</ele><time>1970-01-01T04:58:07Z</time></trkpt>
			<trkpt lat="55.555930" lon="39.763950"><ele>120.4</ele><time>1970-01-01T04:58:23Z</time></trkpt>
			<trkpt lat="55.555880" lon="39.763260"><ele>119.9</ele><time>1970-01-01T04:58:39Z</time></trkpt>
			<trkpt lat="55.555470" lon="39.757970"><ele>118.9</ele><time>1970-01-01T04:58:55Z</time></trkpt>
			<trkpt lat="55.555410" lon="39.757170"><ele>119.4</ele><time>1970-01-01T04:59:11Z</time></trkpt>
			<trkpt lat="55.555030" lon="39.752830"><ele>122.5</ele><time>1970-01-01T04:59:28Z</time></trkpt>
			<trkpt lat="55.554760" lon="39.749540"><ele>127.9</ele><time>1970-01-01T04:59:44Z</time></trkpt>
			<trkpt lat="55.554730" lon="39.749160"><ele>128.0</ele><time>1970-01-01T05:00:00Z</time></trkpt>
			<trkpt lat="55.554550" lon="39.746970"><ele>126.2</ele><time>1970-01-01T05:00:16Z</time></trkpt>
			<trkpt lat="55.554430" lon="39.745480"><ele>125.9</ele><time>1970-01-01T05:00:32Z</time></trkpt>
			<trkpt lat="55.554290" lon="39.743750"><ele>125.8</ele><time>1970-01-01T05:00:48Z</time></trkpt>
			<trkpt lat="55.553570" lon="39.735080"><ele>132.6</ele><time>1970-01-01T05:01:05Z</time></trkpt>
			<trkpt lat="55.553230" lon="39.730950"><ele>134.3</ele><time>1970-01-01T05:01:21Z</time></trkpt>
			<trkpt lat="55.553140" lon="39.729750"><ele>135.3</ele><time>1970-01-01T05:01:37Z</time></trkpt>
			<trkpt lat="55.553050" lon="39.728560"><ele>136.6</ele><time>1970-01-01T05:01:53Z</time></trkpt>
			<trkpt lat="55.553020" lon="39.728190"><ele>136.5</ele><time>1970-01-01T05:02:09Z</time></trkpt>
			<trkpt lat="55.552990" lon="39.727710"><ele>136.1</ele><time>1970-01-01T05:02:25Z</time></trkpt>
			<trkpt lat="55.552950" lon="39.727360"><ele>135.9</ele><time>1970-01-01T05:02:42Z</time></trkpt>
			<trkpt lat="55.552850" lon="39.726710"><ele>135.6</ele><time>1970-01-01T05:02:58Z</time></trkpt>
			<trkpt lat="55.552680" lon="39.725780"><ele>135.4</ele><time>1970-01-01T05:03:14Z</time></trkpt>
			<trkpt lat="55.552600" lon="39.725240"><ele>134.6</ele><time>1970-01-01T05:03:30Z</time></trkpt>
			<trkpt lat="55.552540" lon="39.724720"><ele>133.4</ele><time>1970-01-01T05:03:46Z</time></trkpt>
			<trkpt lat="55.552480" lon="39.724130"><ele>131.9</ele><time>1970-01-01T05:04:02Z</time></trkpt>
			<trkpt lat="55.552450" lon="39.723510"><ele>130.4</ele><time>1970-01-01T05:04:18Z</time></trkpt>
			<trkpt lat="55.552440" lon="39.722990"><ele>129.5</ele><time>1970-01-01T05:04:35Z</time></trkpt>
			<trkpt lat="55.552470" lon="39.722060"><ele>129.5</ele><time>1970-01-01T05:04:51Z</time></trkpt>
			<trkpt lat="55.552530" lon="39.720840"><ele>129.0</ele><time>1970-01-01T05:05:07Z</time></trkpt>
			<trkpt lat="55.553040" lon="39.712320"><ele>132.2</ele><time>1970-01-01T05:05:23Z</time></trkpt>
			<trkpt lat="55.553050" lon="39.712060"><ele>133.1</ele><time>1970-01-01T05:05:39Z</time></trkpt>
			<trkpt lat="55.553050" lon="39.711730"><ele>134.1</ele><time>1970-01-01T05:05:55Z</time></trkpt>
			<trkpt lat="55.553020" lon="39.711500"><ele>134.7</ele><time>1970-01-01T05:06:12Z</time></trkpt>
			<trkpt lat="55.553010" lon="39.711410"><ele>134.9</ele><time>1970-01-01T05:06:28Z</time></trkpt>
			<trkpt lat="55.552910" lon="39.711040"><ele>135.9</ele><time>1970-01-01T05:06:44Z</time></trkpt>
			<trkpt lat="55.552380" lon="39.709090"><ele>136.4</ele><time>1970-01-01T05:07:00Z</time></trkpt>
			<trkpt lat="55.552230" lon="39.708530"><ele>135.9</ele><time>1970-01-01T05:07:16Z</time></trkpt>
			<trkpt lat="55.552080" lon="39.708030"><ele>135.9</ele><time>1970-01-01T05:07:32Z</time></trkpt>
			<trkpt lat="55.552080" lon="39.708030"><ele>135.9</ele><time>1970-01-01T05:07:48Z</time></trkpt>
			<trkpt lat="55.551440" lon="39.706520"><ele>136.0</ele><time>1970-01-01T05:08:05Z</time></trkpt>
			<trkpt lat="55.551340" lon="39.706260"><ele>135.4</ele><time>1970-01-01T05:08:21Z</time></trkpt>
			<trkpt lat="55.551230" lon="39.705870"><ele>135.0</ele><time>1970-01-01T05:08:37Z</time></trkpt>
			<trkpt lat="55.551030" lon="39.705000"><ele>136.5</ele><time>1970-01-01T05:08:53Z</time></trkpt>
			<trkpt lat="55.550930" lon="39.704510"><ele>136.4</ele><time>1970-01-01T05:09:09Z</time></trkpt>
			<trkpt lat="55.550820" lon="39.703790"><ele>136.9</ele><time>1970-01-01T05:09:25Z</time></trkpt>
			<trkpt lat="55.550800" lon="39.703600"><ele>137.3</ele><time>1970-01-01T05:09:42Z</time></trkpt>
			<trkpt lat="55.550510" lon="39.703650"><ele>138.2</ele><time>1970-01-01T05:09:58Z</time></trkpt>
			<trkpt lat="55.550190" lon="39.703690"><ele>139.0</ele><time>1970-01-01T05:10:14Z</time></trkpt>
			<trkpt lat="55.547520" lon="39.704070"><ele>135.2</ele><time>1970-01-01T05:10:30Z</time></trkpt>
			<trkpt lat="55.546060" lon="39.704240"><ele>139.8</ele><time>1970-01-01T05:10:46Z</time></trkpt>
			<trkpt lat="55.544850" lon="39.704390"><ele>142.0</ele><time>1970-01-01T05:11:02Z</time></trkpt>
			<trkpt lat="55.541920" lon="39.704840"><ele>148.5</ele><time>1970-01-01T05:11:19Z</time></trkpt>
			<trkpt lat="55.540530" lon="39.705070"><ele>151.4</ele><time>1970-01-01T05:11:35Z</time></trkpt>
			<trkpt lat="55.539870" lon="39.705230"><ele>154.1</ele><time>1970-01-01T05:11:51Z</time></trkpt>
			<trkpt lat="55.539250" lon="39.705440"><ele>155.7</ele><time>1970-01-01T05:12:07Z</time></trkpt>
			<trkpt lat="55.538720" lon="39.705640"><ele>154.7</ele><time>1970-01-01T05:12:23Z</time></trkpt>
			<trkpt lat="55.537810" lon="39.706030"><ele>153.3</ele><time>1970-01-01T05:12:39Z</time></trkpt>
			<trkpt lat="55.537180" lon="39.706380"><ele>153.1</ele><time>1970-01-01T05:12:55Z</time></trkpt>
			<trkpt lat="55.536450" lon="39.706840"><ele>153.7</ele><time>1970-01-01T05:13:12Z</time></trkpt>
			<trkpt lat="55.535380" lon="39.707570"><ele>153.4</ele><time>1970-01-01T05:13:28Z</time></trkpt>
			<trkpt lat="55.534170" lon="39.708430"><ele>150.9</ele><time>1970-01-01T05:13:44Z</time></trkpt>
			<trkpt lat="55.533770" lon="39.708710"><ele>150.8</ele><time>1970-01-01T05:14:00Z</time></trkpt>
			<trkpt lat="55.532810" lon="39.709250"><ele>151.5</ele><time>1970-01-01T05:14:16Z</time></trkpt>
			<trkpt lat="55.532120" lon="39.709630"><ele>152.1</ele><time>1970-01-01T05:14:32Z</time></trkpt>
			<trkpt lat="55.531310" lon="39.709930"><ele>152.6</ele><time>1970-01-01T05:14:49Z</time></trkpt>
			<trkpt lat="55.530310" lon="39.710170"><ele>152.5</ele><time>1970-01-01T05:15:05Z</time></trkpt>
			<trkpt lat="55.530290" lon="39.710170"><ele>152.5</ele><time>1970-01-01T05:15:21Z</time></trkpt>
			<trkpt lat="55.527160" lon="39.710500"><ele>151.0</ele><time>1970-01-01T05:15:37Z</time></trkpt>
			<trkpt lat="55.526920" lon="39.710520"><ele>150.4</ele><time>1970-01-01T05:15:53Z</time></trkpt>
			<trkpt lat="55.526320" lon="39.710580"><ele>150.1</ele><time>1970-01-01T05:16:09Z</time></trkpt>
			<trkpt lat="55.525760" lon="39.710640"><ele>150.6</ele><time>1970-01-01T05:16:26Z</time></trkpt>
			<trkpt lat="55.525280" lon="39.710690"><ele>149.6</ele><time>1970-01-01T05:16:42Z</time></trkpt>
			<trkpt lat="55.525220" lon="39.710700"><ele>149.5</ele><time>1970-01-01T05:16:58Z</time></trkpt>
			<trkpt lat="55.522110" lon="39.710990"><ele>143.5</ele><time>1970-01-01T05:17:14Z</time></trkpt>
			<trkpt lat="55.521900" lon="39.711030"><ele>142.7</ele><time>1970-01-01T05:17:30Z</time></trkpt>
			<trkpt lat="55.518460" lon="39.711430"><ele>136.9</ele><time>1970-01-01T05:17:46Z</time></trkpt>
			<trkpt lat="55.517990" lon="39.711490"><ele>136.9</ele><time>1970-01-01T05:18:02Z</time></trkpt>
			<trkpt lat="55.517750" lon="39.711520"><ele>137.0</ele><time>1970-01-01T05:18:19Z</time></trkpt>
			<trkpt lat="55.515350" lon="39.711790"><ele>140.2</ele><time>1970-01-01T05:18:35Z</time></trkpt>
			<trkpt lat="55.507430" lon="39.712720"><ele>152.2</ele><time>1970-01-01T05:18:51Z</time></trkpt>
			<trkpt lat="55.505320" lon="39.713010"><ele>150.6</ele><time>1970-01-01T05:19:07Z</time></trkpt>
			<trkpt lat="55.505200" lon="39.713030"><ele>150.1</ele><time>1970-01-01T05:19:23Z</time></trkpt>
			<trkpt lat="55.504140" lon="39.713160"><ele>149.0</ele><time>1970-01-01T05:19:39Z</time></trkpt>
			<trkpt lat="55.501440" lon="39.713510"><ele>143.0</ele><time>1970-01-01T05:19:56Z</time></trkpt>
			<trkpt lat="55.497250" lon="39.714020"><ele>148.9</ele><time>1970-01-01T05:20:12Z</time></trkpt>
			<trkpt lat="55.492560" lon="39.714620"><ele>146.1</ele><time>1970-01-01T05:20:28Z</time></trkpt>
			<trkpt lat="55.489590" lon="39.715000"><ele>143.5</ele><time>1970-01-01T05:20:44Z</time></trkpt>
			<trkpt lat="55.487320" lon="39.715310"><ele>146.5</ele><time>1970-01-01T05:21:00Z</time></trkpt>
			<trkpt lat="55.485880" lon="39.715470"><ele>148.2</ele><time>1970-01-01T05:21:16Z</time></trkpt>
			<trkpt lat="55.485020" lon="39.715530"><ele>156.1</ele><time>1970-01-01T05:21:32Z</time></trkpt>
			<trkpt lat="55.482450" lon="39.715920"><ele>161.2</ele><time>1970-01-01T05:21:49Z</time></trkpt>
			<trkpt lat="55.479520" lon="39.716280"><ele>154.5</ele><time>1970-01-01T05:22:05Z</time></trkpt>
			<trkpt lat="55.477610" lon="39.716470"><ele>151.5</ele><time>1970-01-01T05:22:21Z</time></trkpt>
			<trkpt lat="55.476660" lon="39.716600"><ele>153.2</ele><time>1970-01-01T05:22:37Z</time></trkpt>
			<trkpt lat="55.467150" lon="39.717790"><ele>147.6</ele><time>1970-01-01T05:22:53Z</time></trkpt>
			<trkpt lat="55.464060" lon="39.718180"><ele>142.0</ele><time>1970-01-01T05:23:09Z</time></trkpt>
			<trkpt lat="55.461910" lon="39.718450"><ele>138.4</ele><time>1970-01-01T05:23:26Z</time></trkpt>
			<trkpt lat="55.460670" lon="39.718590"><ele>142.2</ele><time>1970-01-01T05:23:42Z</time></trkpt>
			<trkpt lat="55.460130" lon="39.718660"><ele>143.8</ele><time>1970-01-01T05:23:58Z</time></trkpt>
			<trkpt lat="55.458920" lon="39.718810"><ele>142.7</ele><time>1970-01-01T05:24:14Z</time></trkpt>
			<trkpt lat="55.453480" lon="39.719520"><ele>139.9</ele><time>1970-01-01T05:24:30Z</time></trkpt>
			<trkpt lat="55.451250" lon="39.719740"><ele>146.4</ele><time>1970-01-01T05:24:46Z</time></trkpt>
			<trkpt lat="55.448820" lon="39.720070"><ele>144.6</ele><time>1970-01-01T05:25:03Z</time></trkpt>
			<trkpt lat="55.440580" lon="39.721130"><ele>147.6</ele><time>1970-01-01T05:25:19Z</time></trkpt>
			<trkpt lat="55.438810" lon="39.721360"><ele>149.6</ele><time>1970-01-01T05:25:35Z</time></trkpt>
			<trkpt lat="55.435440" lon="39.721810"><ele>155.6</ele><time>1970-01-01T05:25:51Z</time></trkpt>
			<trkpt lat="55.435380" lon="39.721820"><ele>155.4</ele><time>1970-01-01T05:26:07Z</time></trkpt>
			<trkpt lat="55.434710" lon="39.721890"><ele>155.4</ele><time>1970-01-01T05:26:23Z</time></trkpt>
			<trkpt lat="55.433620" lon="39.722040"><ele>157.2</ele><time>1970-01-01T05:26:39Z</time></trkpt>
			<trkpt lat="55.433320" lon="39.722100"><ele>157.3</ele><time>1970-01-01T05:26:56Z</time></trkpt>
			<trkpt lat="55.432950" lon="39.722250"><ele>156.7</ele><time>1970-01-01T05:27:12Z</time></trkpt>
			<trkpt lat="55.432880" lon="39.722280"><ele>156.5</ele><time>1970-01-01T05:27:28Z</time></trkpt>
			<trkpt lat="55.432690" lon="39.722410"><ele>156.1</ele><time>1970-01-01T05:27:44Z</time></trkpt>
			<trkpt lat="55.432530" lon="39.722540"><ele>155.9</ele><time>1970-01-01T05:28:00Z</time></trkpt>
			<trkpt lat="55.432310" lon="39.722760"><ele>155.5</ele><time>1970-01-01T05:28:16Z</time></trkpt>
			<trkpt lat="55.432050" lon="39.723060"><ele>155.2</ele><time>1970-01-01T05:28:33Z</time></trkpt>
			<trkpt lat="55.431830" lon="39.723350"><ele>155.0</ele><time>1970-01-01T05:28:49Z</time></trkpt>
			<trkpt lat="55.431620" lon="39.723630"><ele>155.4</ele><time>1970-01-01T05:29:05Z</time></trkpt>
			<trkpt lat="55.431400" lon="39.723990"><ele>156.0</ele><time>1970-01-01T05:29:21Z</time></trkpt>
			<trkpt lat="55.431170" lon="39.724400"><ele>157.1</ele><time>1970-01-01T05:29:37Z</time></trkpt>
			<trkpt lat="55.429590" lon="39.727420"><ele>146.8</ele><time>1970-01-01T05:29:53Z</time></trkpt>
			<trkpt lat="55.429420" lon="39.727710"><ele>145.4</ele><time>1970-01-01T05:30:09Z</time></trkpt>
			<trkpt lat="55.427870" lon="39.730590"><ele>145.5</ele><time>1970-01-01T05:30:26Z</time></trkpt>
			<trkpt lat="55.423470" lon="39.738840"><ele>145.9</ele><time>1970-01-01T05:30:42Z</time></trkpt>
			<trkpt lat="55.423320" lon="39.739120"><ele>146.1</ele><time>1970-01-01T05:30:58Z</time></trkpt>
			<trkpt lat="55.422890" lon="39.739890"><ele>145.7</ele><time>1970-01-01T05:31:14Z</time></trkpt>
			<trkpt lat="55.421780" lon="39.741640"><ele>137.9</ele><time>1970-01-01T05:31:30Z</time></trkpt>
			<trkpt lat="55.420520" lon="39.743490"><ele>138.6</ele><time>1970-01-01T05:31:46Z</time></trkpt>
			<trkpt lat="55.420170" lon="39.743980"><ele>137.9</ele><time>1970-01-01T05:32:03Z</time></trkpt>
			<trkpt lat="55.419770" lon="39.744500"><ele>137.5</ele><time>1970-01-01T05:32:19Z</time></trkpt>
			<trkpt lat="55.419460" lon="39.744850"><ele>137.0</ele><time>1970-01-01T05:32:35Z</time></trkpt>
			<trkpt lat="55.418870" lon="39.745550"><ele>134.4</ele><time>1970-01-01T05:32:51Z</time></trkpt>
			<trkpt lat="55.418420" lon="39.746020"><ele>133.1</ele><time>1970-01-01T05:33:07Z</time></trkpt>
			<trkpt lat="55.417900" lon="39.746500"><ele>133.1</ele><time>1970-01-01T05:33:23Z</time></trkpt>
			<trkpt lat="55.417320" lon="39.747030"><ele>132.2</ele><time>1970-01-01T05:33:40Z</time></trkpt>
			<trkpt lat="55.416210" lon="39.747920"><ele>132.4</ele><time>1970-01-01T05:33:56Z</time></trkpt>
			<trkpt lat="55.416000" lon="39.748080"><ele>132.9</ele><time>1970-01-01T05:34:12Z</time></trkpt>
			<trkpt lat="55.415320" lon="39.748600"><ele>133.0</ele><time>1970-01-01T05:34:28Z</time></trkpt>
			<trkpt lat="55.413930" lon="39.749730"><ele>133.1</ele><time>1970-01-01T05:34:44Z</time></trkpt>
			<trkpt lat="55.413570" lon="39.750070"><ele>134.2</ele><time>1970-01-01T05:35:00Z</time></trkpt>
			<trkpt lat="55.413150" lon="39.750510"><ele>136.0</ele><time>1970-01-01T05:35:16Z</time></trkpt>
			<trkpt lat="55.412960" lon="39.750760"><ele>136.6</ele><time>1970-01-01T05:35:33Z</time></trkpt>
			<trkpt lat="55.412730" lon="39.751040"><ele>137.4</ele><time>1970-01-01T05:35:49Z</time></trkpt>
			<trkpt lat="55.412330" lon="39.751630"><ele>138.0</ele><time>1970-01-01T05:36:05Z</time></trkpt>
			<trkpt lat="55.411180" lon="39.753340"><ele>137.3</ele><time>1970-01-01T05:36:21Z</time></trkpt>
			<trkpt lat="55.408400" lon="39.757440"><ele>142.3</ele><time>1970-01-01T05:36:37Z</time></trkpt>
			<trkpt lat="55.404590" lon="39.763090"><ele>141.2</ele><time>1970-01-01T05:36:53Z</time></trkpt>
			<trkpt lat="55.402770" lon="39.765920"><ele>142.4</ele><time>1970-01-01T05:37:10Z</time></trkpt>
			<trkpt lat="55.402660" lon="39.766100"><ele>142.3</ele><time>1970-01-01T05:37:26Z</time></trkpt>
			<trkpt lat="55.401570" lon="39.767960"><ele>134.6</ele><time>1970-01-01T05:37:42Z</time></trkpt>
			<trkpt lat="55.400190" lon="39.770690"><ele>133.5</ele><time>1970-01-01T05:37:58Z</time></trkpt>
			<trkpt lat="55.398030" lon="39.774940"><ele>136.3</ele><time>1970-01-01T05:38:14Z</time></trkpt>
			<trkpt lat="55.392470" lon="39.785770"><ele>143.4</ele><time>1970-01-01T05:38:30Z</time></trkpt>
			<trkpt lat="55.389970" lon="39.790760"><ele>136.7</ele><time>1970-01-01T05:38:47Z</time></trkpt>
			<trkpt lat="55.389730" lon="39.791310"><ele>135.5</ele><time>1970-01-01T05:39:03Z</time></trkpt>
			<trkpt lat="55.389630" lon="39.791550"><ele>135.5</ele><time>1970-01-01T05:39:19Z</time></trkpt>
			<trkpt lat="55.389450" lon="39.791970"><ele>135.8</ele><time>1970-01-01T05:39:35Z</time></trkpt>
			<trkpt lat="55.389070" lon="39.793110"><ele>136.7</ele><time>1970-01-01T05:39:51Z</time></trkpt>
			<trkpt lat="55.388860" lon="39.793860"><ele>135.9</ele><time>1970-01-01T05:40:07Z</time></trkpt>
			<trkpt lat="55.388660" lon="39.794780"><ele>135.1</ele><time>1970-01-01T05:40:23Z</time></trkpt>
			<trkpt lat="55.388540" lon="39.795330"><ele>134.5</ele><time>1970-01-01T05:40:40Z</time></trkpt>
			<trkpt lat="55.387990" lon="39.798490"><ele>131.1</ele><time>1970-01-01T05:40:56Z</time></trkpt>
			<trkpt lat="55.387770" lon="39.799800"><ele>129.5</ele><time>1970-01-01T05:41:12Z</time></trkpt>
			<trkpt lat="55.387530" lon="39.800970"><ele>126.0</ele><time>1970-01-01T05:41:28Z</time></trkpt>
			<trkpt lat="55.387480" lon="39.801220"><ele>125.4</ele><time>1970-01-01T05:41:44Z</time></trkpt>
			<trkpt lat="55.387390" lon="39.801560"><ele>124.6</ele><time>1970-01-01T05:42:00Z</time></trkpt>
			<trkpt lat="55.387200" lon="39.802110"><ele>122.9</ele><time>1970-01-01T05:42:17Z</time></trkpt>
			<trkpt lat="55.387030" lon="39.802510"><ele>121.9</ele><time>1970-01-01T05:42:33Z</time></trkpt>
			<trkpt lat="55.386690" lon="39.803220"><ele>121.0</ele><time>1970-01-01T05:42:49Z</time></trkpt>
			<trkpt lat="55.386560" lon="39.803460"><ele>120.5</ele><time>1970-01-01T05:43:05Z</time></trkpt>
			<trkpt lat="55.386450" lon="39.803650"><ele>120.0</ele><time>1970-01-01T05:43:21Z</time></trkpt>
			<trkpt lat="55.386070" lon="39.804300"><ele>119.8</ele><time>1970-01-01T05:43:37Z</time></trkpt>
			<trkpt lat="55.385560" lon="39.805040"><ele>120.9</ele><time>1970-01-01T05:43:53Z</time></trkpt>
			<trkpt lat="55.384530" lon="39.806370"><ele>120.5</ele><time>1970-01-01T05:44:10Z</time></trkpt>
			<trkpt lat="55.384480" lon="39.806430"><ele>120.5</ele><time>1970-01-01T05:44:26Z</time></trkpt>
			<trkpt lat="55.382000" lon="39.809630"><ele>120.8</ele><time>1970-01-01T05:44:42Z</time></trkpt>
			<trkpt lat="55.381750" lon="39.809940"><ele>120.3</ele><time>1970-01-01T05:44:58Z</time></trkpt>
			<trkpt lat="55.379920" lon="39.812300"><ele>129.1</ele><time>1970-01-01T05:45:14Z</time></trkpt>
			<trkpt lat="55.379080" lon="39.813370"><ele>129.1</ele><time>1970-01-01T05:45:30Z</time></trkpt>
			<trkpt lat="55.378870" lon="39.813610"><ele>128.9</ele><time>1970-01-01T05:45:47Z</time></trkpt>
			<trkpt lat="55.378650" lon="39.813860"><ele>128.6</ele><time>1970-01-01T05:46:03Z</time></trkpt>
			<trkpt lat="55.378360" lon="39.814190"><ele>127.9</ele><time>1970-01-01T05:46:19Z</time></trkpt>
			<trkpt lat="55.377850" lon="39.814740"><ele>125.3</ele><time>1970-01-01T05:46:35Z</time></trkpt>
			<trkpt lat="55.377090" lon="39.815510"><ele>127.7</ele><time>1970-01-01T05:46:51Z</time></trkpt>
			<trkpt lat="55.376590" lon="39.815980"><ele>129.6</ele><time>1970-01-01T05:47:07Z</time></trkpt>
			<trkpt lat="55.376030" lon="39.816480"><ele>129.6</ele><time>1970-01-01T05:47:24Z</time></trkpt>
			<trkpt lat="55.375880" lon="39.816620"><ele>129.9</ele><time>1970-01-01T05:47:40Z</time></trkpt>
			<trkpt lat="55.374630" lon="39.817580"><ele>131.9</ele><time>1970-01-01T05:47:56Z</time></trkpt>
			<trkpt lat="55.374060" lon="39.817940"><ele>132.6</ele><time>1970-01-01T05:48:12Z</time></trkpt>
			<trkpt lat="55.373500" lon="39.818240"><ele>130.5</ele><time>1970-01-01T05:48:28Z</time></trkpt>
			<trkpt lat="55.371590" lon="39.819060"><ele>127.5</ele><time>1970-01-01T05:48:44Z</time></trkpt>
			<trkpt lat="55.370980" lon="39.819260"><ele>126.5</ele><time>1970-01-01T05:49:00Z</time></trkpt>
			<trkpt lat="55.366800" lon="39.820950"><ele>126.4</ele><time>1970-01-01T05:49:17Z</time></trkpt>
			<trkpt lat="55.365760" lon="39.821340"><ele>126.2</ele><time>1970-01-01T05:49:33Z</time></trkpt>
			<trkpt lat="55.365460" lon="39.821450"><ele>126.0</ele><time>1970-01-01T05:49:49Z</time></trkpt>
			<trkpt lat="55.364940" lon="39.821640"><ele>126.1</ele><time>1970-01-01T05:50:05Z</time></trkpt>
			<trkpt lat="55.364500" lon="39.821800"><ele>126.5</ele><time>1970-01-01T05:50:21Z</time></trkpt>
			<trkpt lat="55.364270" lon="39.821870"><ele>126.8</ele><time>1970-01-01T05:50:37Z</time></trkpt>
			<trkpt lat="55.363940" lon="39.821960"><ele>127.2</ele><time>1970-01-01T05:50:54Z</time></trkpt>
			<trkpt lat="55.363580" lon="39.822030"><ele>127.4</ele><time>1970-01-01T05:51:10Z</time></trkpt>
			<trkpt lat="55.360860" lon="39.822570"><ele>134.9</ele><time>1970-01-01T05:51:26Z</time></trkpt>
			<trkpt lat="55.360750" lon="39.822590"><ele>135.1</ele><time>1970-01-01T05:51:42Z</time></trkpt>
			<trkpt lat="55.360420" lon="39.822660"><ele>135.7</ele><time>1970-01-01T05:51:58Z</time></trkpt>
			<trkpt lat="55.357340" lon="39.823220"><ele>129.2</ele><time>1970-01-01T05:52:14Z</time></trkpt>
			<trkpt lat="55.357130" lon="39.823260"><ele>128.5</ele><time>1970-01-01T05:52:30Z</time></trkpt>
			<trkpt lat="55.354230" lon="39.823720"><ele>129.3</ele><time>1970-01-01T05:52:47Z</time></trkpt>
			<trkpt lat="55.351390" lon="39.824200"><ele>137.5</ele><time>1970-01-01T05:53:03Z</time></trkpt>
			<trkpt lat="55.351190" lon="39.824230"><ele>137.1</ele><time>1970-01-01T05:53:19Z</time></trkpt>
			<trkpt lat="55.348140" lon="39.824780"><ele>132.2</ele><time>1970-01-01T05:53:35Z</time></trkpt>
			<trkpt lat="55.346760" lon="39.825010"><ele>135.9</ele><time>1970-01-01T05:53:51Z</time></trkpt>
			<trkpt lat="55.346270" lon="39.825060"><ele>134.6</ele><time>1970-01-01T05:54:07Z</time></trkpt>
			<trkpt lat="55.345940" lon="39.825080"><ele>133.5</ele><time>1970-01-01T05:54:24Z</time></trkpt>
			<trkpt lat="55.345490" lon="39.825090"><ele>132.7</ele><time>1970-01-01T05:54:40Z</time></trkpt>
			<trkpt lat="55.340510" lon="39.825200"><ele>134.9</ele><time>1970-01-01T05:54:56Z</time></trkpt>
			<trkpt lat="55.336980" lon="39.825200"><ele>131.8</ele><time>1970-01-01T05:55:12Z</time></trkpt>
			<trkpt lat="55.332570" lon="39.825260"><ele>130.3</ele><time>1970-01-01T05:55:28Z</time></trkpt>
			<trkpt lat="55.331170" lon="39.825240"><ele>132.5</ele><time>1970-01-01T05:55:44Z</time></trkpt>
			<trkpt lat="55.329360" lon="39.825350"><ele>124.8</ele><time>1970-01-01T05:56:01Z</time></trkpt>
			<trkpt lat="55.327390" lon="39.825380"><ele>125.4</ele><time>1970-01-01T05:56:17Z</time></trkpt>
			<trkpt lat="55.325830" lon="39.825410"><ele>125.5</ele><time>1970-01-01T05:56:33Z</time></trkpt>
			<trkpt lat="55.324050" lon="39.825430"><ele>126.1</ele><time>1970-01-01T05:56:49Z</time></trkpt>
			<trkpt lat="55.323590" lon="39.825430"><ele>124.8</ele><time>1970-01-01T05:57:05Z</time></trkpt>
			<trkpt lat="55.322870" lon="39.825430"><ele>123.7</ele><time>1970-01-01T05:57:21Z</time></trkpt>
			<trkpt lat="55.322650" lon="39.825420"><ele>123.6</ele><time>1970-01-01T05:57:37Z</time></trkpt>
			<trkpt lat="55.322170" lon="39.825430"><ele>123.7</ele><time>1970-01-01T05:57:54Z</time></trkpt>
			<trkpt lat="55.322150" lon="39.825440"><ele>123.7</ele><time>1970-01-01T05:58:10Z</time></trkpt>
			<trkpt lat="55.321500" lon="39.825460"><ele>123.7</ele><time>1970-01-01T05:58:26Z</time></trkpt>
			<trkpt lat="55.321160" lon="39.825510"><ele>123.2</ele><time>1970-01-01T05:58:42Z</time></trkpt>
			<trkpt lat="55.320810" lon="39.825590"><ele>122.6</ele><time>1970-01-01T05:58:58Z</time></trkpt>
			<trkpt lat="55.320760" lon="39.825600"><ele>122.7</ele><time>1970-01-01T05:59:14Z</time></trkpt>
			<trkpt lat="55.320650" lon="39.825630"><ele>122.9</ele><time>1970-01-01T05:59:31Z</time></trkpt>
			<trkpt lat="55.320020" lon="39.825830"><ele>123.9</ele><time>1970-01-01T05:59:47Z</time></trkpt>
			<trkpt lat="55.319570" lon="39.826010"><ele>124.5</ele><time>1970-01-01T06:00:03Z</time></trkpt>
			<trkpt lat="55.318840" lon="39.826380"><ele>126.2</ele><time>1970-01-01T06:00:19Z</time></trkpt>
			<trkpt lat="55.318400" lon="39.826550"><ele>127.8</ele><time>1970-01-01T06:00:35Z</time></trkpt>
			<trkpt lat="55.318080" lon="39.826640"><ele>128.0</ele><time>1970-01-01T06:00:51Z</time></trkpt>
			<trkpt lat="55.317920" lon="39.826660"><ele>128.0</ele><time>1970-01-01T06:01:08Z</time></trkpt>
			<trkpt lat="55.317680" lon="39.826670"><ele>128.0</ele><time>1970-01-01T06:01:24Z</time></trkpt>
			<trkpt lat="55.317380" lon="39.826680"><ele>128.0</ele><time>1970-01-01T06:01:40Z</time></trkpt>
			<trkpt lat="55.317220" lon="39.826700"><ele>128.0</ele><time>1970-01-01T06:01:56Z</time></trkpt>
			<trkpt lat="55.317210" lon="39.826650"><ele>128.0</ele><time>1970-01-01T06:02:12Z</time></trkpt>
			<trkpt lat="55.317180" lon="39.826530"><ele>128.0</ele><time>1970-01-01T06:02:28Z</time></trkpt>
			<trkpt lat="55.317140" lon="39.826450"><ele>128.0</ele><time>1970-01-01T06:02:44Z</time></trkpt>
			<trkpt lat="55.317060" lon="39.826380"><ele>128.0</ele><time>1970-01-01T06:03:01Z</time></trkpt>
			<trkpt lat="55.316970" lon="39.826370"><ele>128.0</ele><time>1970-01-01T06:03:17Z</time></trkpt>
			<trkpt lat="55.316890" lon="39.826400"><ele>128.0</ele><time>1970-01-01T06:03:33Z</time></trkpt>
			<trkpt lat="55.316840" lon="39.826050"><ele>128.0</ele><time>1970-01-01T06:03:49Z</time></trkpt>
			<trkpt lat="55.316790" lon="39.825900"><ele>128.0</ele><time>1970-01-01T06:04:05Z</time></trkpt>
			<trkpt lat="55.316580" lon="39.825550"><ele>128.0</ele><time>1970-01-01T06:04:21Z</time></trkpt>
			<trkpt lat="55.316380" lon="39.825320"><ele>128.3</ele><time>1970-01-01T06:04:38Z</time></trkpt>
			<trkpt lat="55.316150" lon="39.825130"><ele>129.0</ele><time>1970-01-01T06:04:54Z</time></trkpt>
			<trkpt lat="55.315690" lon="39.824840"><ele>129.5</ele><time>1970-01-01T06:05:10Z</time></trkpt>
			<trkpt lat="55.315610" lon="39.824790"><ele>129.3</ele><time>1970-01-01T06:05:26Z</time></trkpt>
			<trkpt lat="55.315510" lon="39.825380"><ele>128.1</ele><time>1970-01-01T06:05:42Z</time></trkpt>
			<trkpt lat="55.315120" lon="39.825220"><ele>127.7</ele><time>1970-01-01T06:05:58Z</time></trkpt>
			<trkpt lat="55.314710" lon="39.825050"><ele>126.8</ele><time>1970-01-01T06:06:14Z</time></trkpt>
			<trkpt lat="55.314820" lon="39.824180"><ele>127.2</ele><time>1970-01-01T06:06:31Z</time></trkpt>
			<trkpt lat="55.314470" lon="39.823650"><ele>126.3</ele><time>1970-01-01T06:06:47Z</time></trkpt>
			<trkpt lat="55.314240" lon="39.823300"><ele>125.9</ele><time>1970-01-01T06:07:03Z</time></trkpt>
			<trkpt lat="55.314160" lon="39.823140"><ele>125.4</ele><time>1970-01-01T06:07:19Z</time></trkpt>
			<trkpt lat="55.313890" lon="39.822620"><ele>122.9</ele><time>1970-01-01T06:07:35Z</time></trkpt>
			<trkpt lat="55.313300" lon="39.821500"><ele>120.0</ele><time>1970-01-01T06:07:51Z</time></trkpt>
			<trkpt lat="55.313010" lon="39.821080"><ele>120.1</ele><time>1970-01-01T06:08:08Z</time></trkpt>
			<trkpt lat="55.312820" lon="39.820800"><ele>120.0</ele><time>1970-01-01T06:08:24Z</time></trkpt>
			<trkpt lat="55.312120" lon="39.819990"><ele>118.6</ele><time>1970-01-01T06:08:40Z</time></trkpt>
			<trkpt lat="55.312050" lon="39.819910"><ele>118.3</ele><time>1970-01-01T06:08:56Z</time></trkpt>
			<trkpt lat="55.311820" lon="39.819660"><ele>117.5</ele><time>1970-01-01T06:09:12Z</time></trkpt>
			<trkpt lat="55.311560" lon="39.819380"><ele>117.2</ele><time>1970-01-01T06:09:28Z</time></trkpt>
			<trkpt lat="55.311420" lon="39.819240"><ele>117.6</ele><time>1970-01-01T06:09:45Z</time></trkpt>
			<trkpt lat="55.311280" lon="39.819140"><ele>118.0</ele><time>1970-01-01T06:10:01Z</time></trkpt>
			<trkpt lat="55.311100" lon="39.819030"><ele>118.6</ele><time>1970-01-01T06:10:17Z</time></trkpt>
			<trkpt lat="55.310700" lon="39.818860"><ele>120.0</ele><time>1970-01-01T06:10:33Z</time></trkpt>
			<trkpt lat="55.310550" lon="39.818800"><ele>120.4</ele><time>1970-01-01T06:10:49Z</time></trkpt>
			<trkpt lat="55.309860" lon="39.818540"><ele>122.1</ele><time>1970-01-01T06:11:05Z</time></trkpt>
			<trkpt lat="55.309570" lon="39.818430"><ele>122.9</ele><time>1970-01-01T06:11:21Z</time></trkpt>
			<trkpt lat="55.309300" lon="39.818310"><ele>123.6</ele><time>1970-01-01T06:11:38Z</time></trkpt>
			<trkpt lat="55.309110" lon="39.818180"><ele>123.8</ele><time>1970-01-01T06:11:54Z</time></trkpt>
			<trkpt lat="55.309040" lon="39.818120"><ele>123.8</ele><time>1970-01-01T06:12:10Z</time></trkpt>
			<trkpt lat="55.308950" lon="39.818040"><ele>123.7</ele><time>1970-01-01T06:12:26Z</time></trkpt>
			<trkpt lat="55.308740" lon="39.817770"><ele>123.7</ele><time>1970-01-01T06:12:42Z</time></trkpt>
			<trkpt lat="55.305690" lon="39.813110"><ele>129.3</ele><time>1970-01-01T06:12:58Z</time></trkpt>
			<trkpt lat="55.304800" lon="39.811740"><ele>132.0</ele><time>1970-01-01T06:13:15Z</time></trkpt>
			<trkpt lat="55.304500" lon="39.811300"><ele>132.0</ele><time>1970-01-01T06:13:31Z</time></trkpt>
			<trkpt lat="55.304430" lon="39.811200"><ele>132.0</ele><time>1970-01-01T06:13:47Z</time></trkpt>
			<trkpt lat="55.304290" lon="39.810940"><ele>132.0</ele><time>1970-01-01T06:14:03Z</time></trkpt>
			<trkpt lat="55.304200" lon="39.810730"><ele>132.3</ele><time>1970-01-01T06:14:19Z</time></trkpt>
			<trkpt lat="55.304120" lon="39.810520"><ele>132.8</ele><time>1970-01-01T06:14:35Z</time></trkpt>
			<trkpt lat="55.304030" lon="39.810200"><ele>133.7</ele><time>1970-01-01T06:14:51Z</time></trkpt>
			<trkpt lat="55.303880" lon="39.809590"><ele>134.7</ele><time>1970-01-01T06:15:08Z</time></trkpt>
			<trkpt lat="55.302850" lon="39.804820"><ele>136.5</ele><time>1970-01-01T06:15:24Z</time></trkpt>
			<trkpt lat="55.302350" lon="39.802500"><ele>135.0</ele><time>1970-01-01T06:15:40Z</time></trkpt>
			<trkpt lat="55.302250" lon="39.802030"><ele>134.3</ele><time>1970-01-01T06:15:56Z</time></trkpt>
			<trkpt lat="55.302180" lon="39.801780"><ele>133.8</ele><time>1970-01-01T06:16:12Z</time></trkpt>
			<trkpt lat="55.302030" lon="39.801360"><ele>132.5</ele><time>1970-01-01T06:16:28Z</time></trkpt>
			<trkpt lat="55.301970" lon="39.801200"><ele>132.0</ele><time>1970-01-01T06:16:45Z</time></trkpt>
			<trkpt lat="55.301910" lon="39.801100"><ele>131.7</ele><time>1970-01-01T06:17:01Z</time></trkpt>
			<trkpt lat="55.301610" lon="39.800620"><ele>130.9</ele><time>1970-01-01T06:17:17Z</time></trkpt>
			<trkpt lat="55.301260" lon="39.800070"><ele>130.5</ele><time>1970-01-01T06:17:33Z</time></trkpt>
			<trkpt lat="55.300640" lon="39.799090"><ele>131.5</ele><time>1970-01-01T06:17:49Z</time></trkpt>
			<trkpt lat="55.297120" lon="39.793600"><ele>134.4</ele><time>1970-01-01T06:18:05Z</time></trkpt>
			<trkpt lat="55.288020" lon="39.779440"><ele>141.6</ele><time>1970-01-01T06:18:22Z</time></trkpt>
			<trkpt lat="55.287940" lon="39.779310"><ele>141.6</ele><time>1970-01-01T06:18:38Z</time></trkpt>
			<trkpt lat="55.285760" lon="39.775840"><ele>136.0</ele><time>1970-01-01T06:18:54Z</time></trkpt>
			<trkpt lat="55.285650" lon="39.775630"><ele>136.0</ele><time>1970-01-01T06:19:10Z</time></trkpt>
			<trkpt lat="55.285400" lon="39.775090"><ele>136.0</ele><time>1970-01-01T06:19:26Z</time></trkpt>
			<trkpt lat="55.284560" lon="39.772750"><ele>136.7</ele><time>1970-01-01T06:19:42Z</time></trkpt>
			<trkpt lat="55.284440" lon="39.772400"><ele>137.0</ele><time>1970-01-01T06:19:58Z</time></trkpt>
			<trkpt lat="55.282130" lon="39.765680"><ele>143.9</ele><time>1970-01-01T06:20:15Z</time></trkpt>
			<trkpt lat="55.279740" lon="39.758740"><ele>146.4</ele><time>1970-01-01T06:20:31Z</time></trkpt>
			<trkpt lat="55.276540" lon="39.749440"><ele>145.7</ele><time>1970-01-01T06:20:47Z</time></trkpt>
			<trkpt lat="55.273280" lon="39.740190"><ele>144.8</ele><time>1970-01-01T06:21:03Z</time></trkpt>
			<trkpt lat="55.269690" lon="39.729910"><ele>146.1</ele><time>1970-01-01T06:21:19Z</time></trkpt>
			<trkpt lat="55.266640" lon="39.721250"><ele>140.6</ele><time>1970-01-01T06:21:35Z</time></trkpt>
			<trkpt lat="55.265720" lon="39.718650"><ele>136.5</ele><time>1970-01-01T06:21:52Z</time></trkpt>
			<trkpt lat="55.265220" lon="39.717250"><ele>133.2</ele><time>1970-01-01T06:22:08Z</time></trkpt>
			<trkpt lat="55.263570" lon="39.712650"><ele>131.9</ele><time>1970-01-01T06:22:24Z</time></trkpt>
			<trkpt lat="55.262940" lon="39.710850"><ele>132.0</ele><time>1970-01-01T06:22:40Z</time></trkpt>
			<trkpt lat="55.262900" lon="39.710750"><ele>132.0</ele><time>1970-01-01T06:22:56Z</time></trkpt>
			<trkpt lat="55.262840" lon="39.710560"><ele>132.1</ele><time>1970-01-01T06:23:12Z</time></trkpt>
			<trkpt lat="55.261780" lon="39.707190"><ele>134.1</ele><time>1970-01-01T06:23:29Z</time></trkpt>
			<trkpt lat="55.261700" lon="39.706920"><ele>134.6</ele><time>1970-01-01T06:23:45Z</time></trkpt>
			<trkpt lat="55.261600" lon="39.706650"><ele>135.0</ele><time>1970-01-01T06:24:01Z</time></trkpt>
			<trkpt lat="55.261510" lon="39.706490"><ele>135.0</ele><time>1970-01-01T06:24:17Z</time></trkpt>
			<trkpt lat="55.261420" lon="39.706410"><ele>135.0</ele><time>1970-01-01T06:24:33Z</time></trkpt>
			<trkpt lat="55.261460" lon="39.706140"><ele>135.0</ele><time>1970-01-01T06:24:49Z</time></trkpt>
			<trkpt lat="55.261470" lon="39.705930"><ele>135.0</ele><time>1970-01-01T06:25:05Z</time></trkpt>
			<trkpt lat="55.261450" lon="39.705600"><ele>134.8</ele><time>1970-01-01T06:25:22Z</time></trkpt>
			<trkpt lat="55.261300" lon="39.704050"><ele>134.3</ele><time>1970-01-01T06:25:38Z</time></trkpt>
			<trkpt lat="55.260750" lon="39.699090"><ele>141.1</ele><time>1970-01-01T06:25:54Z</time></trkpt>
			<trkpt lat="55.260730" lon="39.698870"><ele>142.0</ele><time>1970-01-01T06:26:10Z</time></trkpt>
			<trkpt lat="55.260550" lon="39.697320"><ele>145.5</ele><time>1970-01-01T06:26:26Z</time></trkpt>
			<trkpt lat="55.260450" lon="39.696440"><ele>148.5</ele><time>1970-01-01T06:26:42Z</time></trkpt>
			<trkpt lat="55.260150" lon="39.693810"><ele>143.3</ele><time>1970-01-01T06:26:59Z</time></trkpt>
			<trkpt lat="55.260060" lon="39.693260"><ele>143.1</ele><time>1970-01-01T06:27:15Z</time></trkpt>
			<trkpt lat="55.259940" lon="39.692710"><ele>144.2</ele><time>1970-01-01T06:27:31Z</time></trkpt>
			<trkpt lat="55.259780" lon="39.692170"><ele>145.3</ele><time>1970-01-01T06:27:47Z</time></trkpt>
			<trkpt lat="55.259610" lon="39.691720"><ele>145.4</ele><time>1970-01-01T06:28:03Z</time></trkpt>
			<trkpt lat="55.258740" lon="39.689870"><ele>140.8</ele><time>1970-01-01T06:28:19Z</time></trkpt>
			<trkpt lat="55.258080" lon="39.688370"><ele>136.9</ele><time>1970-01-01T06:28:35Z</time></trkpt>
			<trkpt lat="55.258010" lon="39.688190"><ele>136.3</ele><time>1970-01-01T06:28:52Z</time></trkpt>
			<trkpt lat="55.256230" lon="39.684100"><ele>131.4</ele><time>1970-01-01T06:29:08Z</time></trkpt>
			<trkpt lat="55.255880" lon="39.683230"><ele>130.7</ele><time>1970-01-01T06:29:24Z</time></trkpt>
			<trkpt lat="55.255860" lon="39.683170"><ele>130.7</ele><time>1970-01-01T06:29:40Z</time></trkpt>
			<trkpt lat="55.255000" lon="39.681150"><ele>130.1</ele><time>1970-01-01T06:29:56Z</time></trkpt>
			<trkpt lat="55.254950" lon="39.680970"><ele>129.7</ele><time>1970-01-01T06:30:12Z</time></trkpt>
			<trkpt lat="55.254900" lon="39.680720"><ele>129.2</ele><time>1970-01-01T06:30:29Z</time></trkpt>
			<trkpt lat="55.254890" lon="39.680670"><ele>129.0</ele><time>1970-01-01T06:30:45Z</time></trkpt>
			<trkpt lat="55.254870" lon="39.680270"><ele>127.9</ele><time>1970-01-01T06:31:01Z</time></trkpt>
			<trkpt lat="55.254880" lon="39.680070"><ele>127.3</ele><time>1970-01-01T06:31:17Z</time></trkpt>
			<trkpt lat="55.254980" lon="39.679430"><ele>126.3</ele><time>1970-01-01T06:31:33Z</time></trkpt>
			<trkpt lat="55.255090" lon="39.678760"><ele>126.4</ele><time>1970-01-01T06:31:49Z</time></trkpt>
			<trkpt lat="55.255240" lon="39.677910"><ele>127.2</ele><time>1970-01-01T06:32:06Z</time></trkpt>
			<trkpt lat="55.255610" lon="39.675860"><ele>128.5</ele><time>1970-01-01T06:32:22Z</time></trkpt>
			<trkpt lat="55.255990" lon="39.673740"><ele>130.2</ele><time>1970-01-01T06:32:38Z</time></trkpt>
			<trkpt lat="55.256370" lon="39.671630"><ele>131.3</ele><time>1970-01-01T06:32:54Z</time></trkpt>
			<trkpt lat="55.256640" lon="39.670000"><ele>132.0</ele><time>1970-01-01T06:33:10Z</time></trkpt>
			<trkpt lat="55.256700" lon="39.669530"><ele>132.5</ele><time>1970-01-01T06:33:26Z</time></trkpt>
			<trkpt lat="55.256740" lon="39.669150"><ele>133.0</ele><time>1970-01-01T06:33:42Z</time></trkpt>
			<trkpt lat="55.256800" lon="39.668330"><ele>134.7</ele><time>1970-01-01T06:33:59Z</time></trkpt>
			<trkpt lat="55.256820" lon="39.667870"><ele>134.8</ele><time>1970-01-01T06:34:15Z</time></trkpt>
			<trkpt lat="55.256840" lon="39.666700"><ele>135.7</ele><time>1970-01-01T06:34:31Z</time></trkpt>
			<trkpt lat="55.256840" lon="39.666260"><ele>135.9</ele><time>1970-01-01T06:34:47Z</time></trkpt>
			<trkpt lat="55.256900" lon="39.661810"><ele>140.5</ele><time>1970-01-01T06:35:03Z</time></trkpt>
			<trkpt lat="55.256930" lon="39.660750"><ele>140.5</ele><time>1970-01-01T06:35:19Z</time></trkpt>
			<trkpt lat="55.256970" lon="39.659930"><ele>140.9</ele><time>1970-01-01T06:35:36Z</time></trkpt>
			<trkpt lat="55.257010" lon="39.659470"><ele>141.0</ele><time>1970-01-01T06:35:52Z</time></trkpt>
			<trkpt lat="55.257060" lon="39.659030"><ele>141.2</ele><time>1970-01-01T06:36:08Z</time></trkpt>
			<trkpt lat="55.257160" lon="39.658190"><ele>141.6</ele><time>1970-01-01T06:36:24Z</time></trkpt>
			<trkpt lat="55.257290" lon="39.657110"><ele>143.6</ele><time>1970-01-01T06:36:40Z</time></trkpt>
			<trkpt lat="55.257630" lon="39.654670"><ele>145.8</ele><time>1970-01-01T06:36:56Z</time></trkpt>
			<trkpt lat="55.257630" lon="39.654663"><ele>145.8</ele><time>1970-01-01T06:37:13Z</time></trkpt>
			<trkpt lat="55.257630" lon="39.654663"><ele>145.8</ele><time>1970-01-01T06:37:13Z</time></trkpt>
			<trkpt lat="55.257690" lon="39.654250"><ele>145.9</ele><time>1970-01-01T06:37:25Z</time></trkpt>
			<trkpt lat="55.258020" lon="39.651680"><ele>144.5</ele><time>1970-01-01T06:37:37Z</time></trkpt>
			<trkpt lat="55.258040" lon="39.651460"><ele>144.2</ele><time>1970-01-01T06:37:49Z</time></trkpt>
			<trkpt lat="55.258320" lon="39.649140"><ele>144.0</ele><time>1970-01-01T06:38:01Z</time></trkpt>
			<trkpt lat="55.258710" lon="39.646040"><ele>142.9</ele><time>1970-01-01T06:38:13Z</time></trkpt>
			<trkpt lat="55.258870" lon="39.644770"><ele>142.6</ele><time>1970-01-01T06:38:25Z</time></trkpt>
			<trkpt lat="55.258980" lon="39.643910"><ele>143.7</ele><time>1970-01-01T06:38:37Z</time></trkpt>
			<trkpt lat="55.259040" lon="39.643410"><ele>144.7</ele><time>1970-01-01T06:38:49Z</time></trkpt>
			<trkpt lat="55.259150" lon="39.642750"><ele>145.0</ele><time>1970-01-01T06:39:01Z</time></trkpt>
			<trkpt lat="55.259170" lon="39.642650"><ele>144.9</ele><time>1970-01-01T06:39:13Z</time></trkpt>
			<trkpt lat="55.259320" lon="39.642010"><ele>144.5</ele><time>1970-01-01T06:39:25Z</time></trkpt>
			<trkpt lat="55.259640" lon="39.640940"><ele>143.9</ele><time>1970-01-01T06:39:37Z</time></trkpt>
			<trkpt lat="55.259710" lon="39.640730"><ele>143.7</ele><time>1970-01-01T06:39:49Z</time></trkpt>
			<trkpt lat="55.260580" lon="39.638150"><ele>140.9</ele><time>1970-01-01T06:40:01Z</time></trkpt>
			<trkpt lat="55.261400" lon="39.635740"><ele>139.2</ele><time>1970-01-01T06:40:13Z</time></trkpt>
			<trkpt lat="55.261840" lon="39.634460"><ele>140.4</ele><time>1970-01-01T06:40:25Z</time></trkpt>
			<trkpt lat="55.262930" lon="39.631300"><ele>138.5</ele><time>1970-01-01T06:40:37Z</time></trkpt>
			<trkpt lat="55.263130" lon="39.630590"><ele>137.8</ele><time>1970-01-01T06:40:49Z</time></trkpt>
			<trkpt lat="55.263330" lon="39.629860"><ele>136.2</ele><time>1970-01-01T06:41:01Z</time></trkpt>
			<trkpt lat="55.263650" lon="39.627580"><ele>136.4</ele><time>1970-01-01T06:41:13Z</time></trkpt>
			<trkpt lat="55.263910" lon="39.625620"><ele>141.6</ele><time>1970-01-01T06:41:25Z</time></trkpt>
			<trkpt lat="55.264030" lon="39.624870"><ele>141.9</ele><time>1970-01-01T06:41:37Z</time></trkpt>
			<trkpt lat="55.264090" lon="39.624520"><ele>141.1</ele><time>1970-01-01T06:41:49Z</time></trkpt>
			<trkpt lat="55.264190" lon="39.624060"><ele>140.1</ele><time>1970-01-01T06:42:01Z</time></trkpt>
			<trkpt lat="55.264340" lon="39.623470"><ele>140.4</ele><time>1970-01-01T06:42:13Z</time></trkpt>
			<trkpt lat="55.264510" lon="39.622940"><ele>139.8</ele><time>1970-01-01T06:42:25Z</time></trkpt>
			<trkpt lat="55.264710" lon="39.622360"><ele>137.8</ele><time>1970-01-01T06:42:37Z</time></trkpt>
			<trkpt lat="55.265070" lon="39.621480"><ele>131.6</ele><time>1970-01-01T06:42:50Z</time></trkpt>
			<trkpt lat="55.266800" lon="39.617540"><ele>136.3</ele><time>1970-01-01T06:43:02Z</time></trkpt>
			<trkpt lat="55.267170" lon="39.616730"><ele>136.5</ele><time>1970-01-01T06:43:14Z</time></trkpt>
			<trkpt lat="55.267350" lon="39.616340"><ele>136.5</ele><time>1970-01-01T06:43:26Z</time></trkpt>
			<trkpt lat="55.268580" lon="39.613690"><ele>138.0</ele><time>1970-01-01T06:43:38Z</time></trkpt>
			<trkpt lat="55.268680" lon="39.613410"><ele>137.6</ele><time>1970-01-01T06:43:50Z</time></trkpt>
			<trkpt lat="55.268740" lon="39.613260"><ele>137.5</ele><time>1970-01-01T06:44:02Z</time></trkpt>
			<trkpt lat="55.268870" lon="39.612850"><ele>137.3</ele><time>1970-01-01T06:44:14Z</time></trkpt>
			<trkpt lat="55.269020" lon="39.612360"><ele>136.8</ele><time>1970-01-01T06:44:26Z</time></trkpt>
			<trkpt lat="55.269370" lon="39.611170"><ele>134.1</ele><time>1970-01-01T06:44:38Z</time></trkpt>
			<trkpt lat="55.269680" lon="39.610100"><ele>130.9</ele><time>1970-01-01T06:44:50Z</time></trkpt>
			<trkpt lat="55.269880" lon="39.609310"><ele>130.9</ele><time>1970-01-01T06:45:02Z</time></trkpt>
			<trkpt lat="55.269970" lon="39.608940"><ele>131.5</ele><time>1970-01-01T06:45:14Z</time></trkpt>
			<trkpt lat="55.270020" lon="39.608590"><ele>132.4</ele><time>1970-01-01T06:45:26Z</time></trkpt>
			<trkpt lat="55.270050" lon="39.608300"><ele>133.1</ele><time>1970-01-01T06:45:38Z</time></trkpt>
			<trkpt lat="55.270090" lon="39.607800"><ele>134.8</ele><time>1970-01-01T06:45:50Z</time></trkpt>
			<trkpt lat="55.270120" lon="39.607200"><ele>136.7</ele><time>1970-01-01T06:46:02Z</time></trkpt>
			<trkpt lat="55.270230" lon="39.603430"><ele>146.4</ele><time>1970-01-01T06:46:14Z</time></trkpt>
			<trkpt lat="55.270300" lon="39.601040"><ele>146.6</ele><time>1970-01-01T06:46:26Z</time></trkpt>
			<trkpt lat="55.270300" lon="39.600740"><ele>146.4</ele><time>1970-01-01T06:46:38Z</time></trkpt>
			<trkpt lat="55.270300" lon="39.600540"><ele>145.9</ele><time>1970-01-01T06:46:50Z</time></trkpt>
			<trkpt lat="55.270290" lon="39.600030"><ele>145.0</ele><time>1970-01-01T06:47:02Z</time></trkpt>
			<trkpt lat="55.270210" lon="39.598730"><ele>147.6</ele><time>1970-01-01T06:47:14Z</time></trkpt>
			<trkpt lat="55.269870" lon="39.594190"><ele>153.1</ele><time>1970-01-01T06:47:26Z</time></trkpt>
			<trkpt lat="55.269760" lon="39.592510"><ele>152.7</ele><time>1970-01-01T06:47:38Z</time></trkpt>
			<trkpt lat="55.269760" lon="39.591900"><ele>151.0</ele><time>1970-01-01T06:47:50Z</time></trkpt>
			<trkpt lat="55.269780" lon="39.591380"><ele>150.4</ele><time>1970-01-01T06:48:02Z</time></trkpt>
			<trkpt lat="55.269800" lon="39.591130"><ele>150.4</ele><time>1970-01-01T06:48:15Z</time></trkpt>
			<trkpt lat="55.269820" lon="39.590970"><ele>150.4</ele><time>1970-01-01T06:48:27Z</time></trkpt>
			<trkpt lat="55.269880" lon="39.590560"><ele>150.9</ele><time>1970-01-01T06:48:39Z</time></trkpt>
			<trkpt lat="55.270370" lon="39.587390"><ele>153.3</ele><time>1970-01-01T06:48:51Z</time></trkpt>
			<trkpt lat="55.270740" lon="39.584970"><ele>154.4</ele><time>1970-01-01T06:49:03Z</time></trkpt>
			<trkpt lat="55.271120" lon="39.582690"><ele>154.0</ele><time>1970-01-01T06:49:15Z</time></trkpt>
			<trkpt lat="55.271470" lon="39.580570"><ele>151.6</ele><time>1970-01-01T06:49:27Z</time></trkpt>
			<trkpt lat="55.271640" lon="39.579870"><ele>149.6</ele><time>1970-01-01T06:49:39Z</time></trkpt>
			<trkpt lat="55.271680" lon="39.579730"><ele>149.7</ele><time>1970-01-01T06:49:51Z</time></trkpt>
			<trkpt lat="55.271840" lon="39.579310"><ele>150.7</ele><time>1970-01-01T06:50:03Z</time></trkpt>
			<trkpt lat="55.272100" lon="39.578760"><ele>152.2</ele><time>1970-01-01T06:50:15Z</time></trkpt>
			<trkpt lat="55.272740" lon="39.577800"><ele>152.7</ele><time>1970-01-01T06:50:27Z</time></trkpt>
			<trkpt lat="55.273600" lon="39.576570"><ele>154.5</ele><time>1970-01-01T06:50:39Z</time></trkpt>
			<trkpt lat="55.273850" lon="39.576100"><ele>155.6</ele><time>1970-01-01T06:50:51Z</time></trkpt>
			<trkpt lat="55.273880" lon="39.576030"><ele>155.7</ele><time>1970-01-01T06:51:03Z</time></trkpt>
			<trkpt lat="55.274030" lon="39.575570"><ele>156.4</ele><time>1970-01-01T06:51:15Z</time></trkpt>
			<trkpt lat="55.274140" lon="39.574980"><ele>157.0</ele><time>1970-01-01T06:51:27Z</time></trkpt>
			<trkpt lat="55.274300" lon="39.573750"><ele>156.3</ele><time>1970-01-01T06:51:39Z</time></trkpt>
			<trkpt lat="55.274560" lon="39.572560"><ele>157.0</ele><time>1970-01-01T06:51:51Z</time></trkpt>
			<trkpt lat="55.274580" lon="39.572460"><ele>156.9</ele><time>1970-01-01T06:52:03Z</time></trkpt>
			<trkpt lat="55.274800" lon="39.571770"><ele>155.7</ele><time>1970-01-01T06:52:15Z</time></trkpt>
			<trkpt lat="55.275610" lon="39.569510"><ele>155.7</ele><time>1970-01-01T06:52:27Z</time></trkpt>
			<trkpt lat="55.276270" lon="39.567670"><ele>155.3</ele><time>1970-01-01T06:52:39Z</time></trkpt>
			<trkpt lat="55.279360" lon="39.559050"><ele>148.9</ele><time>1970-01-01T06:52:51Z</time></trkpt>
			<trkpt lat="55.279680" lon="39.558300"><ele>146.9</ele><time>1970-01-01T06:53:03Z</time></trkpt>
			<trkpt lat="55.279950" lon="39.557690"><ele>144.5</ele><time>1970-01-01T06:53:15Z</time></trkpt>
			<trkpt lat="55.280430" lon="39.556730"><ele>141.7</ele><time>1970-01-01T06:53:27Z</time></trkpt>
			<trkpt lat="55.282564" lon="39.552544"><ele>134.8</ele><time>1970-01-01T06:53:40Z</time></trkpt>
			<trkpt lat="55.282560" lon="39.552540"><ele>134.8</ele><time>1970-01-01T06:53:40Z</time></trkpt>
			<trkpt lat="55.282940" lon="39.551770"><ele>130.8</ele><time>1970-01-01T06:54:04Z</time></trkpt>
			<trkpt lat="55.283310" lon="39.551950"><ele>130.8</ele><time>1970-01-01T06:54:28Z</time></trkpt>
			<trkpt lat="55.284860" lon="39.552530"><ele>132.8</ele><time>1970-01-01T06:54:52Z</time></trkpt>
			<trkpt lat="55.284863" lon="39.552528"><ele>132.8</ele><time>1970-01-01T06:54:52Z</time></trkpt>
			<trkpt lat="55.285760" lon="39.552860"><ele>131.6</ele><time>1970-01-01T06:55:04Z</time></trkpt>
			<trkpt lat="55.286310" lon="39.553000"><ele>132.7</ele><time>1970-01-01T06:55:17Z</time></trkpt>
			<trkpt lat="55.291500" lon="39.553490"><ele>145.0</ele><time>1970-01-01T06:55:30Z</time></trkpt>
			<trkpt lat="55.291900" lon="39.553530"><ele>145.6</ele><time>1970-01-01T06:55:43Z</time></trkpt>
			<trkpt lat="55.292720" lon="39.553600"><ele>146.4</ele><time>1970-01-01T06:55:56Z</time></trkpt>
			<trkpt lat="55.295580" lon="39.553710"><ele>146.1</ele><time>1970-01-01T06:56:08Z</time></trkpt>
			<trkpt lat="55.301800" lon="39.554050"><ele>157.1</ele><time>1970-01-01T06:56:21Z</time></trkpt>
			<trkpt lat="55.304220" lon="39.554180"><ele>148.0</ele><time>1970-01-01T06:56:34Z</time></trkpt>
			<trkpt lat="55.304590" lon="39.554280"><ele>147.6</ele><time>1970-01-01T06:56:47Z</time></trkpt>
			<trkpt lat="55.304660" lon="39.554300"><ele>147.7</ele><time>1970-01-01T06:57:00Z</time></trkpt>
			<trkpt lat="55.305120" lon="39.554610"><ele>148.8</ele><time>1970-01-01T06:57:12Z</time></trkpt>
			<trkpt lat="55.305630" lon="39.555080"><ele>149.6</ele><time>1970-01-01T06:57:25Z</time></trkpt>
			<trkpt lat="55.305790" lon="39.555240"><ele>150.3</ele><time>1970-01-01T06:57:38Z</time></trkpt>
			<trkpt lat="55.306090" lon="39.555570"><ele>152.6</ele><time>1970-01-01T06:57:51Z</time></trkpt>
			<trkpt lat="55.307190" lon="39.557430"><ele>157.8</ele><time>1970-01-01T06:58:04Z</time></trkpt>
			<trkpt lat="55.307300" lon="39.557590"><ele>157.3</ele><time>1970-01-01T06:58:16Z</time></trkpt>
			<trkpt lat="55.307650" lon="39.558060"><ele>155.8</ele><time>1970-01-01T06:58:29Z</time></trkpt>
			<trkpt lat="55.308100" lon="39.558510"><ele>156.0</ele><time>1970-01-01T06:58:42Z</time></trkpt>
			<trkpt lat="55.308450" lon="39.558750"><ele>156.5</ele><time>1970-01-01T06:58:55Z</time></trkpt>
			<trkpt lat="55.308490" lon="39.558780"><ele>156.5</ele><time>1970-01-01T06:59:08Z</time></trkpt>
			<trkpt lat="55.309700" lon="39.559270"><ele>153.6</ele><time>1970-01-01T06:59:20Z</time></trkpt>
			<trkpt lat="55.310540" lon="39.559660"><ele>150.5</ele><time>1970-01-01T06:59:33Z</time></trkpt>
			<trkpt lat="55.310990" lon="39.559690"><ele>149.0</ele><time>1970-01-01T06:59:46Z</time></trkpt>
			<trkpt lat="55.311790" lon="39.559580"><ele>147.0</ele><time>1970-01-01T06:59:59Z</time></trkpt>
			<trkpt lat="55.312160" lon="39.559610"><ele>145.7</ele><time>1970-01-01T07:00:12Z</time></trkpt>
			<trkpt lat="55.312420" lon="39.559670"><ele>144.9</ele><time>1970-01-01T07:00:25Z</time></trkpt>
			<trkpt lat="55.312540" lon="39.559690"><ele>144.5</ele><time>1970-01-01T07:00:37Z</time></trkpt>
			<trkpt lat="55.316210" lon="39.561120"><ele>147.3</ele><time>1970-01-01T07:00:50Z</time></trkpt>
			<trkpt lat="55.316650" lon="39.561300"><ele>144.6</ele><time>1970-01-01T07:01:03Z</time></trkpt>
			<trkpt lat="55.317160" lon="39.561480"><ele>144.1</ele><time>1970-01-01T07:01:16Z</time></trkpt>
			<trkpt lat="55.317800" lon="39.561660"><ele>144.4</ele><time>1970-01-01T07:01:29Z</time></trkpt>
			<trkpt lat="55.318700" lon="39.561900"><ele>143.8</ele><time>1970-01-01T07:01:41Z</time></trkpt>
			<trkpt lat="55.318940" lon="39.561950"><ele>143.7</ele><time>1970-01-01T07:01:54Z</time></trkpt>
			<trkpt lat="55.319610" lon="39.562030"><ele>143.2</ele><time>1970-01-01T07:02:07Z</time></trkpt>
			<trkpt lat="55.320130" lon="39.562040"><ele>143.1</ele><time>1970-01-01T07:02:20Z</time></trkpt>
			<trkpt lat="55.320320" lon="39.562050"><ele>143.0</ele><time>1970-01-01T07:02:33Z</time></trkpt>
			<trkpt lat="55.320550" lon="39.562110"><ele>143.0</ele><time>1970-01-01T07:02:45Z</time></trkpt>
			<trkpt lat="55.320680" lon="39.562140"><ele>143.0</ele><time>1970-01-01T07:02:58Z</time></trkpt>
			<trkpt lat="55.320870" lon="39.562240"><ele>142.9</ele><time>1970-01-01T07:03:11Z</time></trkpt>
			<trkpt lat="55.321120" lon="39.562420"><ele>142.3</ele><time>1970-01-01T07:03:24Z</time></trkpt>
			<trkpt lat="55.321590" lon="39.562830"><ele>141.2</ele><time>1970-01-01T07:03:37Z</time></trkpt>
			<trkpt lat="55.322200" lon="39.563390"><ele>140.3</ele><time>1970-01-01T07:03:49Z</time></trkpt>
			<trkpt lat="55.323620" lon="39.564810"><ele>137.4</ele><time>1970-01-01T07:04:02Z</time></trkpt>
			<trkpt lat="55.323700" lon="39.564870"><ele>137.5</ele><time>1970-01-01T07:04:15Z</time></trkpt>
			<trkpt lat="55.323900" lon="39.565020"><ele>137.7</ele><time>1970-01-01T07:04:28Z</time></trkpt>
			<trkpt lat="55.324200" lon="39.565200"><ele>138.0</ele><time>1970-01-01T07:04:41Z</time></trkpt>
			<trkpt lat="55.325110" lon="39.565600"><ele>136.4</ele><time>1970-01-01T07:04:54Z</time></trkpt>
			<trkpt lat="55.325640" lon="39.565930"><ele>134.8</ele><time>1970-01-01T07:05:06Z</time></trkpt>
			<trkpt lat="55.325780" lon="39.566050"><ele>134.1</ele><time>1970-01-01T07:05:19Z</time></trkpt>
			<trkpt lat="55.326060" lon="39.566280"><ele>132.9</ele><time>1970-01-01T07:05:32Z</time></trkpt>
			<trkpt lat="55.327130" lon="39.567340"><ele>130.5</ele><time>1970-01-01T07:05:45Z</time></trkpt>
			<trkpt lat="55.327670" lon="39.567800"><ele>131.2</ele><time>1970-01-01T07:05:58Z</time></trkpt>
			<trkpt lat="55.328000" lon="39.568090"><ele>131.1</ele><time>1970-01-01T07:06:10Z</time></trkpt>
			<trkpt lat="55.330400" lon="39.568860"><ele>121.5</ele><time>1970-01-01T07:06:23Z</time></trkpt>
			<trkpt lat="55.330760" lon="39.568920"><ele>120.5</ele><time>1970-01-01T07:06:36Z</time></trkpt>
			<trkpt lat="55.330840" lon="39.568930"><ele>120.4</ele><time>1970-01-01T07:06:49Z</time></trkpt>
			<trkpt lat="55.331170" lon="39.568910"><ele>121.1</ele><time>1970-01-01T07:07:02Z</time></trkpt>
			<trkpt lat="55.332070" lon="39.568760"><ele>121.5</ele><time>1970-01-01T07:07:14Z</time></trkpt>
			<trkpt lat="55.332530" lon="39.568720"><ele>120.6</ele><time>1970-01-01T07:07:27Z</time></trkpt>
			<trkpt lat="55.332690" lon="39.568720"><ele>120.7</ele><time>1970-01-01T07:07:40Z</time></trkpt>
			<trkpt lat="55.332840" lon="39.568740"><ele>120.7</ele><time>1970-01-01T07:07:53Z</time></trkpt>
			<trkpt lat="55.333010" lon="39.568800"><ele>120.7</ele><time>1970-01-01T07:08:06Z</time></trkpt>
			<trkpt lat="55.333200" lon="39.568900"><ele>120.6</ele><time>1970-01-01T07:08:18Z</time></trkpt>
			<trkpt lat="55.333350" lon="39.569020"><ele>120.4</ele><time>1970-01-01T07:08:31Z</time></trkpt>
			<trkpt lat="55.333470" lon="39.569140"><ele>120.4</ele><time>1970-01-01T07:08:44Z</time></trkpt>
			<trkpt lat="55.333760" lon="39.569520"><ele>121.2</ele><time>1970-01-01T07:08:57Z</time></trkpt>
			<trkpt lat="55.333980" lon="39.569840"><ele>121.7</ele><time>1970-01-01T07:09:10Z</time></trkpt>
			<trkpt lat="55.334250" lon="39.570290"><ele>122.6</ele><time>1970-01-01T07:09:22Z</time></trkpt>
			<trkpt lat="55.334680" lon="39.570970"><ele>123.8</ele><time>1970-01-01T07:09:35Z</time></trkpt>
			<trkpt lat="55.334840" lon="39.571180"><ele>124.3</ele><time>1970-01-01T07:09:48Z</time></trkpt>
			<trkpt lat="55.334980" lon="39.571310"><ele>124.6</ele><time>1970-01-01T07:10:01Z</time></trkpt>
			<trkpt lat="55.335220" lon="39.571510"><ele>125.3</ele><time>1970-01-01T07:10:14Z</time></trkpt>
			<trkpt lat="55.335310" lon="39.571570"><ele>125.6</ele><time>1970-01-01T07:10:27Z</time></trkpt>
			<trkpt lat="55.336190" lon="39.572080"><ele>127.2</ele><time>1970-01-01T07:10:39Z</time></trkpt>
			<trkpt lat="55.336550" lon="39.572260"><ele>127.6</ele><time>1970-01-01T07:10:52Z</time></trkpt>
			<trkpt lat="55.336860" lon="39.572400"><ele>127.9</ele><time>1970-01-01T07:11:05Z</time></trkpt>
			<trkpt lat="55.337130" lon="39.572480"><ele>128.0</ele><time>1970-01-01T07:11:18Z</time></trkpt>
			<trkpt lat="55.337440" lon="39.572550"><ele>128.1</ele><time>1970-01-01T07:11:31Z</time></trkpt>
			<trkpt lat="55.337890" lon="39.572620"><ele>128.1</ele><time>1970-01-01T07:11:43Z</time></trkpt>
			<trkpt lat="55.338250" lon="39.572680"><ele>128.2</ele><time>1970-01-01T07:11:56Z</time></trkpt>
			<trkpt lat="55.338620" lon="39.572740"><ele>128.9</ele><time>1970-01-01T07:12:09Z</time></trkpt>
			<trkpt lat="55.338910" lon="39.572810"><ele>129.5</ele><time>1970-01-01T07:12:22Z</time></trkpt>
			<trkpt lat="55.338970" lon="39.572840"><ele>129.6</ele><time>1970-01-01T07:12:35Z</time></trkpt>
			<trkpt lat="55.339130" lon="39.572900"><ele>129.9</ele><time>1970-01-01T07:12:47Z</time></trkpt>
			<trkpt lat="55.339290" lon="39.572990"><ele>130.3</ele><time>1970-01-01T07:13:00Z</time></trkpt>
			<trkpt lat="55.339480" lon="39.573120"><ele>130.9</ele><time>1970-01-01T07:13:13Z</time></trkpt>
			<trkpt lat="55.340660" lon="39.573880"><ele>133.0</ele><time>1970-01-01T07:13:26Z</time></trkpt>
			<trkpt lat="55.341050" lon="39.574120"><ele>133.5</ele><time>1970-01-01T07:13:39Z</time></trkpt>
			<trkpt lat="55.341200" lon="39.574220"><ele>133.9</ele><time>1970-01-01T07:13:51Z</time></trkpt>
			<trkpt lat="55.341510" lon="39.574270"><ele>134.7</ele><time>1970-01-01T07:14:04Z</time></trkpt>
			<trkpt lat="55.342380" lon="39.574360"><ele>137.8</ele><time>1970-01-01T07:14:17Z</time></trkpt>
			<trkpt lat="55.342490" lon="39.574410"><ele>138.2</ele><time>1970-01-01T07:14:30Z</time></trkpt>
			<trkpt lat="55.342610" lon="39.574460"><ele>138.6</ele><time>1970-01-01T07:14:43Z</time></trkpt>
			<trkpt lat="55.342800" lon="39.574610"><ele>139.1</ele><time>1970-01-01T07:14:56Z</time></trkpt>
			<trkpt lat="55.342910" lon="39.574780"><ele>139.4</ele><time>1970-01-01T07:15:08Z</time></trkpt>
			<trkpt lat="55.343000" lon="39.574900"><ele>139.5</ele><time>1970-01-01T07:15:21Z</time></trkpt>
			<trkpt lat="55.343160" lon="39.575300"><ele>139.9</ele><time>1970-01-01T07:15:34Z</time></trkpt>
			<trkpt lat="55.343290" lon="39.575820"><ele>140.1</ele><time>1970-01-01T07:15:47Z</time></trkpt>
			<trkpt lat="55.344810" lon="39.581870"><ele>142.9</ele><time>1970-01-01T07:16:00Z</time></trkpt>
			<trkpt lat="55.345190" lon="39.583510"><ele>143.9</ele><time>1970-01-01T07:16:12Z</time></trkpt>
			<trkpt lat="55.345650" lon="39.584950"><ele>144.2</ele><time>1970-01-01T07:16:25Z</time></trkpt>
			<trkpt lat="55.345740" lon="39.585220"><ele>145.4</ele><time>1970-01-01T07:16:38Z</time></trkpt>
			<trkpt lat="55.346260" lon="39.586680"><ele>151.4</ele><time>1970-01-01T07:16:51Z</time></trkpt>
			<trkpt lat="55.348550" lon="39.591860"><ele>155.4</ele><time>1970-01-01T07:17:04Z</time></trkpt>
			<trkpt lat="55.349080" lon="39.593130"><ele>156.4</ele><time>1970-01-01T07:17:16Z</time></trkpt>
			<trkpt lat="55.349260" lon="39.593490"><ele>156.3</ele><time>1970-01-01T07:17:29Z</time></trkpt>
			<trkpt lat="55.349730" lon="39.594420"><ele>157.9</ele><time>1970-01-01T07:17:42Z</time></trkpt>
			<trkpt lat="55.350940" lon="39.596330"><ele>159.0</ele><time>1970-01-01T07:17:55Z</time></trkpt>
			<trkpt lat="55.353120" lon="39.599660"><ele>157.1</ele><time>1970-01-01T07:18:08Z</time></trkpt>
			<trkpt lat="55.354280" lon="39.601440"><ele>158.8</ele><time>1970-01-01T07:18:20Z</time></trkpt>
			<trkpt lat="55.356260" lon="39.604320"><ele>155.8</ele><time>1970-01-01T07:18:33Z</time></trkpt>
			<trkpt lat="55.357090" lon="39.605500"><ele>152.5</ele><time>1970-01-01T07:18:46Z</time></trkpt>
			<trkpt lat="55.357300" lon="39.605780"><ele>152.3</ele><time>1970-01-01T07:18:59Z</time></trkpt>
			<trkpt lat="55.357660" lon="39.606250"><ele>152.7</ele><time>1970-01-01T07:19:12Z</time></trkpt>
			<trkpt lat="55.358260" lon="39.606950"><ele>150.3</ele><time>1970-01-01T07:19:24Z</time></trkpt>
			<trkpt lat="55.358330" lon="39.607020"><ele>149.6</ele><time>1970-01-01T07:19:37Z</time></trkpt>
			<trkpt lat="55.358720" lon="39.607420"><ele>144.7</ele><time>1970-01-01T07:19:50Z</time></trkpt>
			<trkpt lat="55.359120" lon="39.607790"><ele>139.8</ele><time>1970-01-01T07:20:03Z</time></trkpt>
			<trkpt lat="55.359420" lon="39.608030"><ele>138.2</ele><time>1970-01-01T07:20:16Z</time></trkpt>
			<trkpt lat="55.359910" lon="39.608370"><ele>136.2</ele><time>1970-01-01T07:20:29Z</time></trkpt>
			<trkpt lat="55.360780" lon="39.608930"><ele>135.1</ele><time>1970-01-01T07:20:41Z</time></trkpt>
			<trkpt lat="55.362720" lon="39.610090"><ele>138.7</ele><time>1970-01-01T07:20:54Z</time></trkpt>
			<trkpt lat="55.365750" lon="39.611970"><ele>136.9</ele><time>1970-01-01T07:21:07Z</time></trkpt>
			<trkpt lat="55.366590" lon="39.612450"><ele>135.5</ele><time>1970-01-01T07:21:20Z</time></trkpt>
			<trkpt lat="55.370220" lon="39.614660"><ele>138.4</ele><time>1970-01-01T07:21:33Z</time></trkpt>
			<trkpt lat="55.370950" lon="39.615120"><ele>135.9</ele><time>1970-01-01T07:21:45Z</time></trkpt>
			<trkpt lat="55.371910" lon="39.615720"><ele>133.9</ele><time>1970-01-01T07:21:58Z</time></trkpt>
			<trkpt lat="55.372270" lon="39.615800"><ele>132.2</ele><time>1970-01-01T07:22:11Z</time></trkpt>
			<trkpt lat="55.372340" lon="39.615790"><ele>131.8</ele><time>1970-01-01T07:22:24Z</time></trkpt>
			<trkpt lat="55.372650" lon="39.615770"><ele>131.1</ele><time>1970-01-01T07:22:37Z</time></trkpt>
			<trkpt lat="55.373040" lon="39.615640"><ele>130.9</ele><time>1970-01-01T07:22:49Z</time></trkpt>
			<trkpt lat="55.373430" lon="39.615400"><ele>130.5</ele><time>1970-01-01T07:23:02Z</time></trkpt>
			<trkpt lat="55.373540" lon="39.615340"><ele>130.5</ele><time>1970-01-01T07:23:15Z</time></trkpt>
			<trkpt lat="55.373940" lon="39.614700"><ele>130.2</ele><time>1970-01-01T07:23:28Z</time></trkpt>
			<trkpt lat="55.375410" lon="39.612120"><ele>128.8</ele><time>1970-01-01T07:23:41Z</time></trkpt>
			<trkpt lat="55.376800" lon="39.609760"><ele>126.8</ele><time>1970-01-01T07:23:53Z</time></trkpt>
			<trkpt lat="55.376860" lon="39.609660"><ele>126.7</ele><time>1970-01-01T07:24:06Z</time></trkpt>
			<trkpt lat="55.377310" lon="39.609160"><ele>126.0</ele><time>1970-01-01T07:24:19Z</time></trkpt>
			<trkpt lat="55.377690" lon="39.608940"><ele>125.9</ele><time>1970-01-01T07:24:32Z</time></trkpt>
			<trkpt lat="55.377770" lon="39.608920"><ele>125.9</ele><time>1970-01-01T07:24:45Z</time></trkpt>
			<trkpt lat="55.377800" lon="39.608910"><ele>126.0</ele><time>1970-01-01T07:24:58Z</time></trkpt>
			<trkpt lat="55.378090" lon="39.608860"><ele>126.1</ele><time>1970-01-01T07:25:10Z</time></trkpt>
			<trkpt lat="55.378520" lon="39.608920"><ele>127.3</ele><time>1970-01-01T07:25:23Z</time></trkpt>
			<trkpt lat="55.379360" lon="39.609100"><ele>131.3</ele><time>1970-01-01T07:25:36Z</time></trkpt>
			<trkpt lat="55.380210" lon="39.609220"><ele>133.5</ele><time>1970-01-01T07:25:49Z</time></trkpt>
			<trkpt lat="55.380510" lon="39.609280"><ele>134.0</ele><time>1970-01-01T07:26:02Z</time></trkpt>
			<trkpt lat="55.380590" lon="39.609290"><ele>134.1</ele><time>1970-01-01T07:26:14Z</time></trkpt>
			<trkpt lat="55.380810" lon="39.609390"><ele>134.3</ele><time>1970-01-01T07:26:27Z</time></trkpt>
			<trkpt lat="55.382310" lon="39.610140"><ele>140.9</ele><time>1970-01-01T07:26:40Z</time></trkpt>
			<trkpt lat="55.386130" lon="39.612060"><ele>142.7</ele><time>1970-01-01T07:26:53Z</time></trkpt>
			<trkpt lat="55.386340" lon="39.612150"><ele>142.2</ele><time>1970-01-01T07:27:06Z</time></trkpt>
			<trkpt lat="55.386500" lon="39.612190"><ele>141.9</ele><time>1970-01-01T07:27:18Z</time></trkpt>
			<trkpt lat="55.386520" lon="39.612190"><ele>141.8</ele><time>1970-01-01T07:27:31Z</time></trkpt>
			<trkpt lat="55.386880" lon="39.612100"><ele>141.7</ele><time>1970-01-01T07:27:44Z</time></trkpt>
			<trkpt lat="55.387820" lon="39.611770"><ele>143.1</ele><time>1970-01-01T07:27:57Z</time></trkpt>
			<trkpt lat="55.391720" lon="39.610060"><ele>144.7</ele><time>1970-01-01T07:28:10Z</time></trkpt>
			<trkpt lat="55.395660" lon="39.608280"><ele>146.2</ele><time>1970-01-01T07:28:22Z</time></trkpt>
			<trkpt lat="55.397330" lon="39.607520"><ele>147.1</ele><time>1970-01-01T07:28:35Z</time></trkpt>
			<trkpt lat="55.398500" lon="39.606970"><ele>148.3</ele><time>1970-01-01T07:28:48Z</time></trkpt>
			<trkpt lat="55.399810" lon="39.606390"><ele>147.2</ele><time>1970-01-01T07:29:01Z</time></trkpt>
			<trkpt lat="55.402470" lon="39.605270"><ele>148.1</ele><time>1970-01-01T07:29:14Z</time></trkpt>
			<trkpt lat="55.403240" lon="39.604950"><ele>148.0</ele><time>1970-01-01T07:29:26Z</time></trkpt>
			<trkpt lat="55.403650" lon="39.604740"><ele>147.2</ele><time>1970-01-01T07:29:39Z</time></trkpt>
			<trkpt lat="55.403980" lon="39.604520"><ele>145.0</ele><time>1970-01-01T07:29:52Z</time></trkpt>
			<trkpt lat="55.404220" lon="39.604340"><ele>142.8</ele><time>1970-01-01T07:30:05Z</time></trkpt>
			<trkpt lat="55.404440" lon="39.604160"><ele>141.1</ele><time>1970-01-01T07:30:18Z</time></trkpt>
			<trkpt lat="55.404920" lon="39.603700"><ele>139.4</ele><time>1970-01-01T07:30:31Z</time></trkpt>
			<trkpt lat="55.407810" lon="39.600640"><ele>142.2</ele><time>1970-01-01T07:30:43Z</time></trkpt>
			<trkpt lat="55.410620" lon="39.597610"><ele>139.6</ele><time>1970-01-01T07:30:56Z</time></trkpt>
			<trkpt lat="55.413420" lon="39.594570"><ele>138.0</ele><time>1970-01-01T07:31:09Z</time></trkpt>
			<trkpt lat="55.413930" lon="39.594000"><ele>139.2</ele><time>1970-01-01T07:31:22Z</time></trkpt>
			<trkpt lat="55.414260" lon="39.593570"><ele>138.5</ele><time>1970-01-01T07:31:35Z</time></trkpt>
			<trkpt lat="55.414740" lon="39.592830"><ele>139.3</ele><time>1970-01-01T07:31:47Z</time></trkpt>
			<trkpt lat="55.414750" lon="39.592830"><ele>139.4</ele><time>1970-01-01T07:32:00Z</time></trkpt>
			<trkpt lat="55.414920" lon="39.592530"><ele>139.9</ele><time>1970-01-01T07:32:13Z</time></trkpt>
			<trkpt lat="55.415410" lon="39.591670"><ele>143.4</ele><time>1970-01-01T07:32:26Z</time></trkpt>
			<trkpt lat="55.416100" lon="39.590110"><ele>143.2</ele><time>1970-01-01T07:32:39Z</time></trkpt>
			<trkpt lat="55.416380" lon="39.589310"><ele>142.0</ele><time>1970-01-01T07:32:51Z</time></trkpt>
			<trkpt lat="55.416440" lon="39.589160"><ele>141.7</ele><time>1970-01-01T07:33:04Z</time></trkpt>
			<trkpt lat="55.418530" lon="39.581540"><ele>143.2</ele><time>1970-01-01T07:33:17Z</time></trkpt>
			<trkpt lat="55.419290" lon="39.578900"><ele>141.2</ele><time>1970-01-01T07:33:30Z</time></trkpt>
			<trkpt lat="55.419370" lon="39.578680"><ele>141.3</ele><time>1970-01-01T07:33:43Z</time></trkpt>
			<trkpt lat="55.419590" lon="39.578090"><ele>141.1</ele><time>1970-01-01T07:33:55Z</time></trkpt>
			<trkpt lat="55.420080" lon="39.577340"><ele>138.9</ele><time>1970-01-01T07:34:08Z</time></trkpt>
			<trkpt lat="55.420170" lon="39.577230"><ele>138.7</ele><time>1970-01-01T07:34:21Z</time></trkpt>
			<trkpt lat="55.421800" lon="39.575250"><ele>138.5</ele><time>1970-01-01T07:34:34Z</time></trkpt>
			<trkpt lat="55.422530" lon="39.574450"><ele>140.0</ele><time>1970-01-01T07:34:47Z</time></trkpt>
			<trkpt lat="55.423050" lon="39.574000"><ele>140.2</ele><time>1970-01-01T07:35:00Z</time></trkpt>
			<trkpt lat="55.423200" lon="39.573930"><ele>140.3</ele><time>1970-01-01T07:35:12Z</time></trkpt>
			<trkpt lat="55.423830" lon="39.573600"><ele>140.5</ele><time>1970-01-01T07:35:25Z</time></trkpt>
			<trkpt lat="55.425340" lon="39.572950"><ele>140.5</ele><time>1970-01-01T07:35:38Z</time></trkpt>
			<trkpt lat="55.428080" lon="39.571830"><ele>135.4</ele><time>1970-01-01T07:35:51Z</time></trkpt>
			<trkpt lat="55.430010" lon="39.571030"><ele>134.3</ele><time>1970-01-01T07:36:04Z</time></trkpt>
			<trkpt lat="55.430780" lon="39.570680"><ele>137.6</ele><time>1970-01-01T07:36:16Z</time></trkpt>
			<trkpt lat="55.431540" lon="39.570360"><ele>137.6</ele><time>1970-01-01T07:36:29Z</time></trkpt>
			<trkpt lat="55.431700" lon="39.570280"><ele>137.6</ele><time>1970-01-01T07:36:42Z</time></trkpt>
			<trkpt lat="55.432170" lon="39.570030"><ele>136.8</ele><time>1970-01-01T07:36:55Z</time></trkpt>
			<trkpt lat="55.432360" lon="39.569890"><ele>136.3</ele><time>1970-01-01T07:37:08Z</time></trkpt>
			<trkpt lat="55.432590" lon="39.569660"><ele>135.6</ele><time>1970-01-01T07:37:20Z</time></trkpt>
			<trkpt lat="55.432810" lon="39.569340"><ele>134.6</ele><time>1970-01-01T07:37:33Z</time></trkpt>
			<trkpt lat="55.432840" lon="39.569290"><ele>134.4</ele><time>1970-01-01T07:37:46Z</time></trkpt>
			<trkpt lat="55.433000" lon="39.569000"><ele>133.5</ele><time>1970-01-01T07:37:59Z</time></trkpt>
			<trkpt lat="55.433290" lon="39.568360"><ele>130.6</ele><time>1970-01-01T07:38:12Z</time></trkpt>
			<trkpt lat="55.433450" lon="39.567960"><ele>130.8</ele><time>1970-01-01T07:38:24Z</time></trkpt>
			<trkpt lat="55.434730" lon="39.564570"><ele>134.1</ele><time>1970-01-01T07:38:37Z</time></trkpt>
			<trkpt lat="55.435670" lon="39.562060"><ele>129.4</ele><time>1970-01-01T07:38:50Z</time></trkpt>
			<trkpt lat="55.437460" lon="39.557140"><ele>127.5</ele><time>1970-01-01T07:39:03Z</time></trkpt>
			<trkpt lat="55.437630" lon="39.556750"><ele>127.6</ele><time>1970-01-01T07:39:16Z</time></trkpt>
			<trkpt lat="55.437890" lon="39.556290"><ele>127.7</ele><time>1970-01-01T07:39:28Z</time></trkpt>
			<trkpt lat="55.438190" lon="39.555910"><ele>127.4</ele><time>1970-01-01T07:39:41Z</time></trkpt>
			<trkpt lat="55.438400" lon="39.555660"><ele>126.3</ele><time>1970-01-01T07:39:54Z</time></trkpt>
			<trkpt lat="55.438580" lon="39.555530"><ele>125.7</ele><time>1970-01-01T07:40:07Z</time></trkpt>
			<trkpt lat="55.438740" lon="39.555440"><ele>125.3</ele><time>1970-01-01T07:40:20Z</time></trkpt>
			<trkpt lat="55.438900" lon="39.555380"><ele>125.1</ele><time>1970-01-01T07:40:33Z</time></trkpt>
			<trkpt lat="55.439140" lon="39.555330"><ele>125.1</ele><time>1970-01-01T07:40:45Z</time></trkpt>
			<trkpt lat="55.439450" lon="39.555300"><ele>125.9</ele><time>1970-01-01T07:40:58Z</time></trkpt>
			<trkpt lat="55.439580" lon="39.555290"><ele>126.3</ele><time>1970-01-01T07:41:11Z</time></trkpt>
			<trkpt lat="55.439800" lon="39.555280"><ele>127.0</ele><time>1970-01-01T07:41:24Z</time></trkpt>
			<trkpt lat="55.440000" lon="39.555260"><ele>127.7</ele><time>1970-01-01T07:41:37Z</time></trkpt>
			<trkpt lat="55.440730" lon="39.555200"><ele>129.5</ele><time>1970-01-01T07:41:49Z</time></trkpt>
			<trkpt lat="55.441900" lon="39.555180"><ele>125.7</ele><time>1970-01-01T07:42:02Z</time></trkpt>
			<trkpt lat="55.442260" lon="39.555190"><ele>125.1</ele><time>1970-01-01T07:42:15Z</time></trkpt>
			<trkpt lat="55.442350" lon="39.555200"><ele>125.0</ele><time>1970-01-01T07:42:28Z</time></trkpt>
			<trkpt lat="55.447930" lon="39.555360"><ele>122.7</ele><time>1970-01-01T07:42:41Z</time></trkpt>
			<trkpt lat="55.448640" lon="39.555460"><ele>123.2</ele><time>1970-01-01T07:42:53Z</time></trkpt>
			<trkpt lat="55.448910" lon="39.555570"><ele>123.5</ele><time>1970-01-01T07:43:06Z</time></trkpt>
			<trkpt lat="55.449420" lon="39.555850"><ele>123.3</ele><time>1970-01-01T07:43:19Z</time></trkpt>
			<trkpt lat="55.449630" lon="39.555980"><ele>122.8</ele><time>1970-01-01T07:43:32Z</time></trkpt>
			<trkpt lat="55.451240" lon="39.557100"><ele>121.2</ele><time>1970-01-01T07:43:45Z</time></trkpt>
			<trkpt lat="55.451470" lon="39.557250"><ele>121.7</ele><time>1970-01-01T07:43:57Z</time></trkpt>
			<trkpt lat="55.451700" lon="39.557410"><ele>122.4</ele><time>1970-01-01T07:44:10Z</time></trkpt>
			<trkpt lat="55.452410" lon="39.557930"><ele>129.2</ele><time>1970-01-01T07:44:23Z</time></trkpt>
			<trkpt lat="55.456080" lon="39.560460"><ele>128.8</ele><time>1970-01-01T07:44:36Z</time></trkpt>
			<trkpt lat="55.456580" lon="39.560760"><ele>128.2</ele><time>1970-01-01T07:44:49Z</time></trkpt>
			<trkpt lat="55.456796" lon="39.560886"><ele>129.0</ele><time>1970-01-01T07:45:02Z</time></trkpt>
			<trkpt lat="55.456800" lon="39.560890"><ele>129.0</ele><time>1970-01-01T07:45:02Z</time></trkpt>
			<trkpt lat="55.456890" lon="39.560940"><ele>129.5</ele><time>1970-01-01T07:45:04Z</time></trkpt>
			<trkpt lat="55.456920" lon="39.560700"><ele>129.7</ele><time>1970-01-01T07:45:06Z</time></trkpt>
			<trkpt lat="55.456948" lon="39.560357"><ele>130.2</ele><time>1970-01-01T07:45:09Z</time></trkpt>
			<trkpt lat="55.456948" lon="39.560357"><ele>130.2</ele><time>1970-01-01T07:45:09Z</time></trkpt>
			<trkpt lat="55.456950" lon="39.560330"><ele>130.3</ele><time>1970-01-01T07:45:30Z</time></trkpt>
			<trkpt lat="55.457130" lon="39.559370"><ele>131.7</ele><time>1970-01-01T07:45:51Z</time></trkpt>
			<trkpt lat="55.457350" lon="39.557990"><ele>130.1</ele><time>1970-01-01T07:46:13Z</time></trkpt>
			<trkpt lat="55.457450" lon="39.557120"><ele>130.9</ele><time>1970-01-01T07:46:34Z</time></trkpt>
			<trkpt lat="55.457470" lon="39.556600"><ele>131.5</ele><time>1970-01-01T07:46:56Z</time></trkpt>
			<trkpt lat="55.457280" lon="39.548690"><ele>133.4</ele><time>1970-01-01T07:47:17Z</time></trkpt>
			<trkpt lat="55.457280" lon="39.548030"><ele>134.0</ele><time>1970-01-01T07:47:39Z</time></trkpt>
			<trkpt lat="55.457310" lon="39.547480"><ele>134.5</ele><time>1970-01-01T07:48:00Z</time></trkpt>
			<trkpt lat="55.457420" lon="39.546770"><ele>133.2</ele><time>1970-01-01T07:48:21Z</time></trkpt>
			<trkpt lat="55.457880" lon="39.544510"><ele>131.1</ele><time>1970-01-01T07:48:43Z</time></trkpt>
			<trkpt lat="55.458220" lon="39.542890"><ele>129.6</ele><time>1970-01-01T07:49:04Z</time></trkpt>
			<trkpt lat="55.458380" lon="39.542090"><ele>128.7</ele><time>1970-01-01T07:49:26Z</time></trkpt>
			<trkpt lat="55.458460" lon="39.541650"><ele>128.9</ele><time>1970-01-01T07:49:47Z</time></trkpt>
			<trkpt lat="55.458560" lon="39.541040"><ele>129.8</ele><time>1970-01-01T07:50:09Z</time></trkpt>
			<trkpt lat="55.458760" lon="39.539520"><ele>126.6</ele><time>1970-01-01T07:50:30Z</time></trkpt>
			<trkpt lat="55.458920" lon="39.537760"><ele>126.0</ele><time>1970-01-01T07:50:51Z</time></trkpt>
			<trkpt lat="55.458960" lon="39.537330"><ele>126.5</ele><time>1970-01-01T07:51:13Z</time></trkpt>
			<trkpt lat="55.460110" lon="39.525340"><ele>126.8</ele><time>1970-01-01T07:51:34Z</time></trkpt>
			<trkpt lat="55.460330" lon="39.522800"><ele>124.8</ele><time>1970-01-01T07:51:56Z</time></trkpt>
			<trkpt lat="55.460390" lon="39.521880"><ele>123.8</ele><time>1970-01-01T07:52:17Z</time></trkpt>
			<trkpt lat="55.460420" lon="39.518900"><ele>124.7</ele><time>1970-01-01T07:52:39Z</time></trkpt>
			<trkpt lat="55.460410" lon="39.516490"><ele>125.7</ele><time>1970-01-01T07:53:00Z</time></trkpt>
			<trkpt lat="55.460400" lon="39.515360"><ele>127.3</ele><time>1970-01-01T07:53:22Z</time></trkpt>
			<trkpt lat="55.460420" lon="39.513460"><ele>131.6</ele><time>1970-01-01T07:53:43Z</time></trkpt>
			<trkpt lat="55.460400" lon="39.503790"><ele>140.0</ele><time>1970-01-01T07:54:04Z</time></trkpt>
			<trkpt lat="55.460400" lon="39.502210"><ele>136.5</ele><time>1970-01-01T07:54:26Z</time></trkpt>
			<trkpt lat="55.460330" lon="39.492330"><ele>145.6</ele><time>1970-01-01T07:54:47Z</time></trkpt>
			<trkpt lat="55.460330" lon="39.488950"><ele>145.2</ele><time>1970-01-01T07:55:09Z</time></trkpt>
			<trkpt lat="55.460320" lon="39.483070"><ele>149.6</ele><time>1970-01-01T07:55:30Z</time></trkpt>
			<trkpt lat="55.460280" lon="39.482040"><ele>149.3</ele><time>1970-01-01T07:55:52Z</time></trkpt>
			<trkpt lat="55.460240" lon="39.481470"><ele>149.1</ele><time>1970-01-01T07:56:13Z</time></trkpt>
			<trkpt lat="55.460120" lon="39.480450"><ele>147.7</ele><time>1970-01-01T07:56:34Z</time></trkpt>
			<trkpt lat="55.460050" lon="39.479910"><ele>147.1</ele><time>1970-01-01T07:56:56Z</time></trkpt>
			<trkpt lat="55.459950" lon="39.479300"><ele>147.2</ele><time>1970-01-01T07:57:17Z</time></trkpt>
			<trkpt lat="55.459600" lon="39.477550"><ele>147.5</ele><time>1970-01-01T07:57:39Z</time></trkpt>
			<trkpt lat="55.459220" lon="39.476030"><ele>146.6</ele><time>1970-01-01T07:58:00Z</time></trkpt>
			<trkpt lat="55.457690" lon="39.470170"><ele>135.1</ele><time>1970-01-01T07:58:22Z</time></trkpt>
			<trkpt lat="55.457470" lon="39.469280"><ele>133.4</ele><time>1970-01-01T07:58:43Z</time></trkpt>
			<trkpt lat="55.457370" lon="39.468780"><ele>133.9</ele><time>1970-01-01T07:59:04Z</time></trkpt>
			<trkpt lat="55.457270" lon="39.468240"><ele>133.7</ele><time>1970-01-01T07:59:26Z</time></trkpt>
			<trkpt lat="55.457160" lon="39.467570"><ele>132.7</ele><time>1970-01-01T07:59:47Z</time></trkpt>
			<trkpt lat="55.456900" lon="39.465720"><ele>131.9</ele><time>1970-01-01T08:00:09Z</time></trkpt>
			<trkpt lat="55.456850" lon="39.465250"><ele>131.3</ele><time>1970-01-01T08:00:30Z</time></trkpt>
			<trkpt lat="55.456800" lon="39.464820"><ele>131.2</ele><time>1970-01-01T08:00:52Z</time></trkpt>
			<trkpt lat="55.456730" lon="39.464030"><ele>132.0</ele><time>1970-01-01T08:01:13Z</time></trkpt>
			<trkpt lat="55.456680" lon="39.463290"><ele>132.9</ele><time>1970-01-01T08:01:35Z</time></trkpt>
			<trkpt lat="55.456660" lon="39.462940"><ele>133.0</ele><time>1970-01-01T08:01:56Z</time></trkpt>
			<trkpt lat="55.456560" lon="39.459730"><ele>129.9</ele><time>1970-01-01T08:02:17Z</time></trkpt>
			<trkpt lat="55.456530" lon="39.459050"><ele>129.7</ele><time>1970-01-01T08:02:39Z</time></trkpt>
			<trkpt lat="55.456470" lon="39.458550"><ele>129.5</ele><time>1970-01-01T08:03:00Z</time></trkpt>
			<trkpt lat="55.456390" lon="39.457990"><ele>129.2</ele><time>1970-01-01T08:03:22Z</time></trkpt>
			<trkpt lat="55.456300" lon="39.457520"><ele>129.0</ele><time>1970-01-01T08:03:43Z</time></trkpt>
			<trkpt lat="55.456200" lon="39.457060"><ele>129.0</ele><time>1970-01-01T08:04:05Z</time></trkpt>
			<trkpt lat="55.456010" lon="39.456320"><ele>129.0</ele><time>1970-01-01T08:04:26Z</time></trkpt>
			<trkpt lat="55.455740" lon="39.455480"><ele>129.5</ele><time>1970-01-01T08:04:47Z</time></trkpt>
			<trkpt lat="55.454780" lon="39.452800"><ele>132.3</ele><time>1970-01-01T08:05:09Z</time></trkpt>
			<trkpt lat="55.453020" lon="39.447810"><ele>135.0</ele><time>1970-01-01T08:05:30Z</time></trkpt>
			<trkpt lat="55.451830" lon="39.444350"><ele>140.2</ele><time>1970-01-01T08:05:52Z</time></trkpt>
			<trkpt lat="55.451620" lon="39.443770"><ele>141.7</ele><time>1970-01-01T08:06:13Z</time></trkpt>
			<trkpt lat="55.449960" lon="39.439300"><ele>144.2</ele><time>1970-01-01T08:06:35Z</time></trkpt>
			<trkpt lat="55.449560" lon="39.438380"><ele>146.9</ele><time>1970-01-01T08:06:56Z</time></trkpt>
			<trkpt lat="55.449120" lon="39.437560"><ele>145.9</ele><time>1970-01-01T08:07:18Z</time></trkpt>
			<trkpt lat="55.448740" lon="39.436960"><ele>144.8</ele><time>1970-01-01T08:07:39Z</time></trkpt>
			<trkpt lat="55.448340" lon="39.436460"><ele>142.4</ele><time>1970-01-01T08:08:00Z</time></trkpt>
			<trkpt lat="55.448070" lon="39.436180"><ele>142.1</ele><time>1970-01-01T08:08:22Z</time></trkpt>
			<trkpt lat="55.447780" lon="39.435930"><ele>141.2</ele><time>1970-01-01T08:08:43Z</time></trkpt>
			<trkpt lat="55.447400" lon="39.435680"><ele>140.8</ele><time>1970-01-01T08:09:05Z</time></trkpt>
			<trkpt lat="55.447280" lon="39.435610"><ele>141.2</ele><time>1970-01-01T08:09:26Z</time></trkpt>
			<trkpt lat="55.446550" lon="39.435360"><ele>142.8</ele><time>1970-01-01T08:09:48Z</time></trkpt>
			<trkpt lat="55.445530" lon="39.435220"><ele>144.3</ele><time>1970-01-01T08:10:09Z</time></trkpt>
			<trkpt lat="55.444720" lon="39.435080"><ele>143.5</ele><time>1970-01-01T08:10:30Z</time></trkpt>
			<trkpt lat="55.443880" lon="39.434980"><ele>141.7</ele><time>1970-01-01T08:10:52Z</time></trkpt>
			<trkpt lat="55.443250" lon="39.434830"><ele>141.3</ele><time>1970-01-01T08:11:13Z</time></trkpt>
			<trkpt lat="55.442350" lon="39.434440"><ele>142.3</ele><time>1970-01-01T08:11:35Z</time></trkpt>
			<trkpt lat="55.441860" lon="39.434200"><ele>142.9</ele><time>1970-01-01T08:11:56Z</time></trkpt>
			<trkpt lat="55.440950" lon="39.433660"><ele>144.0</ele><time>1970-01-01T08:12:18Z</time></trkpt>
			<trkpt lat="55.440090" lon="39.433120"><ele>144.3</ele><time>1970-01-01T08:12:39Z</time></trkpt>
			<trkpt lat="55.439340" lon="39.432480"><ele>143.5</ele><time>1970-01-01T08:13:00Z</time></trkpt>
			<trkpt lat="55.438610" lon="39.431700"><ele>142.7</ele><time>1970-01-01T08:13:22Z</time></trkpt>
			<trkpt lat="55.438010" lon="39.430880"><ele>137.7</ele><time>1970-01-01T08:13:43Z</time></trkpt>
			<trkpt lat="55.437710" lon="39.430420"><ele>135.1</ele><time>1970-01-01T08:14:05Z</time></trkpt>
			<trkpt lat="55.437460" lon="39.430020"><ele>134.0</ele><time>1970-01-01T08:14:26Z</time></trkpt>
			<trkpt lat="55.437070" lon="39.429280"><ele>133.5</ele><time>1970-01-01T08:14:48Z</time></trkpt>
			<trkpt lat="55.436640" lon="39.428390"><ele>133.0</ele><time>1970-01-01T08:15:09Z</time></trkpt>
			<trkpt lat="55.436360" lon="39.427730"><ele>133.0</ele><time>1970-01-01T08:15:31Z</time></trkpt>
			<trkpt lat="55.435980" lon="39.426680"><ele>132.1</ele><time>1970-01-01T08:15:52Z</time></trkpt>
			<trkpt lat="55.435930" lon="39.426520"><ele>132.0</ele><time>1970-01-01T08:16:13Z</time></trkpt>
			<trkpt lat="55.435760" lon="39.425920"><ele>131.9</ele><time>1970-01-01T08:16:35Z</time></trkpt>
			<trkpt lat="55.435520" lon="39.425020"><ele>130.7</ele><time>1970-01-01T08:16:56Z</time></trkpt>
			<trkpt lat="55.435330" lon="39.424100"><ele>130.9</ele><time>1970-01-01T08:17:18Z</time></trkpt>
			<trkpt lat="55.435010" lon="39.422410"><ele>130.0</ele><time>1970-01-01T08:17:39Z</time></trkpt>
			<trkpt lat="55.434630" lon="39.420500"><ele>129.6</ele><time>1970-01-01T08:18:01Z</time></trkpt>
			<trkpt lat="55.434230" lon="39.418320"><ele>130.1</ele><time>1970-01-01T08:18:22Z</time></trkpt>
			<trkpt lat="55.433910" lon="39.416390"><ele>131.2</ele><time>1970-01-01T08:18:43Z</time></trkpt>
			<trkpt lat="55.433530" lon="39.413760"><ele>131.7</ele><time>1970-01-01T08:19:05Z</time></trkpt>
			<trkpt lat="55.433110" lon="39.410870"><ele>133.1</ele><time>1970-01-01T08:19:26Z</time></trkpt>
			<trkpt lat="55.433040" lon="39.410300"><ele>132.8</ele><time>1970-01-01T08:19:48Z</time></trkpt>
			<trkpt lat="55.432850" lon="39.409030"><ele>132.1</ele><time>1970-01-01T08:20:09Z</time></trkpt>
			<trkpt lat="55.432700" lon="39.407840"><ele>132.2</ele><time>1970-01-01T08:20:31Z</time></trkpt>
			<trkpt lat="55.431690" lon="39.400770"><ele>132.1</ele><time>1970-01-01T08:20:52Z</time></trkpt>
			<trkpt lat="55.431060" lon="39.396440"><ele>133.0</ele><time>1970-01-01T08:21:13Z</time></trkpt>
			<trkpt lat="55.429870" lon="39.388260"><ele>139.5</ele><time>1970-01-01T08:21:35Z</time></trkpt>
			<trkpt lat="55.429700" lon="39.386990"><ele>141.9</ele><time>1970-01-01T08:21:56Z</time></trkpt>
			<trkpt lat="55.429640" lon="39.386500"><ele>142.4</ele><time>1970-01-01T08:22:18Z</time></trkpt>
			<trkpt lat="55.429600" lon="39.385720"><ele>142.7</ele><time>1970-01-01T08:22:39Z</time></trkpt>
			<trkpt lat="55.429600" lon="39.385030"><ele>142.7</ele><time>1970-01-01T08:23:01Z</time></trkpt>
			<trkpt lat="55.429890" lon="39.377250"><ele>147.0</ele><time>1970-01-01T08:23:22Z</time></trkpt>
			<trkpt lat="55.430390" lon="39.362840"><ele>140.0</ele><time>1970-01-01T08:23:44Z</time></trkpt>
			<trkpt lat="55.430450" lon="39.361050"><ele>141.7</ele><time>1970-01-01T08:24:05Z</time></trkpt>
			<trkpt lat="55.430450" lon="39.360420"><ele>142.0</ele><time>1970-01-01T08:24:26Z</time></trkpt>
			<trkpt lat="55.430440" lon="39.359900"><ele>141.8</ele><time>1970-01-01T08:24:48Z</time></trkpt>
			<trkpt lat="55.430340" lon="39.359130"><ele>140.1</ele><time>1970-01-01T08:25:09Z</time></trkpt>
			<trkpt lat="55.429200" lon="39.353180"><ele>141.3</ele><time>1970-01-01T08:25:31Z</time></trkpt>
			<trkpt lat="55.429070" lon="39.352450"><ele>142.0</ele><time>1970-01-01T08:25:52Z</time></trkpt>
			<trkpt lat="55.428970" lon="39.351680"><ele>144.4</ele><time>1970-01-01T08:26:14Z</time></trkpt>
			<trkpt lat="55.428740" lon="39.348370"><ele>139.2</ele><time>1970-01-01T08:26:35Z</time></trkpt>
			<trkpt lat="55.428700" lon="39.346780"><ele>136.1</ele><time>1970-01-01T08:26:56Z</time></trkpt>
			<trkpt lat="55.428670" lon="39.346260"><ele>136.3</ele><time>1970-01-01T08:27:18Z</time></trkpt>
			<trkpt lat="55.428420" lon="39.342250"><ele>144.0</ele><time>1970-01-01T08:27:39Z</time></trkpt>
			<trkpt lat="55.428090" lon="39.336070"><ele>135.1</ele><time>1970-01-01T08:28:01Z</time></trkpt>
			<trkpt lat="55.427810" lon="39.330690"><ele>134.0</ele><time>1970-01-01T08:28:22Z</time></trkpt>
			<trkpt lat="55.427410" lon="39.323250"><ele>142.1</ele><time>1970-01-01T08:28:44Z</time></trkpt>
			<trkpt lat="55.427270" lon="39.321710"><ele>143.8</ele><time>1970-01-01T08:29:05Z</time></trkpt>
			<trkpt lat="55.426810" lon="39.318380"><ele>138.8</ele><time>1970-01-01T08:29:27Z</time></trkpt>
			<trkpt lat="55.426210" lon="39.314680"><ele>140.6</ele><time>1970-01-01T08:29:48Z</time></trkpt>
			<trkpt lat="55.426010" lon="39.313230"><ele>142.6</ele><time>1970-01-01T08:30:09Z</time></trkpt>
			<trkpt lat="55.425190" lon="39.307260"><ele>136.1</ele><time>1970-01-01T08:30:31Z</time></trkpt>
			<trkpt lat="55.425020" lon="39.305970"><ele>132.4</ele><time>1970-01-01T08:30:52Z</time></trkpt>
			<trkpt lat="55.424970" lon="39.305060"><ele>132.0</ele><time>1970-01-01T08:31:14Z</time></trkpt>
			<trkpt lat="55.424960" lon="39.300680"><ele>133.5</ele><time>1970-01-01T08:31:35Z</time></trkpt>
			<trkpt lat="55.424980" lon="39.300050"><ele>131.5</ele><time>1970-01-01T08:31:57Z</time></trkpt>
			<trkpt lat="55.424980" lon="39.299670"><ele>131.4</ele><time>1970-01-01T08:32:18Z</time></trkpt>
			<trkpt lat="55.424980" lon="39.299240"><ele>132.0</ele><time>1970-01-01T08:32:39Z</time></trkpt>
			<trkpt lat="55.425010" lon="39.297150"><ele>134.4</ele><time>1970-01-01T08:33:01Z</time></trkpt>
			<trkpt lat="55.425000" lon="39.287740"><ele>134.3</ele><time>1970-01-01T08:33:22Z</time></trkpt>
			<trkpt lat="55.425060" lon="39.286800"><ele>132.0</ele><time>1970-01-01T08:33:44Z</time></trkpt>
			<trkpt lat="55.425150" lon="39.286030"><ele>131.3</ele><time>1970-01-01T08:34:05Z</time></trkpt>
			<trkpt lat="55.425580" lon="39.282920"><ele>134.8</ele><time>1970-01-01T08:34:27Z</time></trkpt>
			<trkpt lat="55.425970" lon="39.280220"><ele>135.8</ele><time>1970-01-01T08:34:48Z</time></trkpt>
			<trkpt lat="55.426280" lon="39.278140"><ele>135.7</ele><time>1970-01-01T08:35:09Z</time></trkpt>
			<trkpt lat="55.426920" lon="39.273680"><ele>132.4</ele><time>1970-01-01T08:35:31Z</time></trkpt>
			<trkpt lat="55.427520" lon="39.269530"><ele>136.5</ele><time>1970-01-01T08:35:52Z</time></trkpt>
			<trkpt lat="55.427570" lon="39.269070"><ele>137.0</ele><time>1970-01-01T08:36:14Z</time></trkpt>
			<trkpt lat="55.427610" lon="39.268540"><ele>137.5</ele><time>1970-01-01T08:36:35Z</time></trkpt>
			<trkpt lat="55.427640" lon="39.267700"><ele>137.0</ele><time>1970-01-01T08:36:57Z</time></trkpt>
			<trkpt lat="55.427660" lon="39.266600"><ele>136.9</ele><time>1970-01-01T08:37:18Z</time></trkpt>
			<trkpt lat="55.427660" lon="39.265860"><ele>137.6</ele><time>1970-01-01T08:37:40Z</time></trkpt>
			<trkpt lat="55.427670" lon="39.265430"><ele>137.5</ele><time>1970-01-01T08:38:01Z</time></trkpt>
			<trkpt lat="55.427830" lon="39.254910"><ele>126.7</ele><time>1970-01-01T08:38:22Z</time></trkpt>
			<trkpt lat="55.428000" lon="39.243840"><ele>129.8</ele><time>1970-01-01T08:38:44Z</time></trkpt>
			<trkpt lat="55.428030" lon="39.242030"><ele>129.6</ele><time>1970-01-01T08:39:05Z</time></trkpt>
			<trkpt lat="55.428150" lon="39.233090"><ele>127.0</ele><time>1970-01-01T08:39:27Z</time></trkpt>
			<trkpt lat="55.428300" lon="39.222510"><ele>129.9</ele><time>1970-01-01T08:39:48Z</time></trkpt>
			<trkpt lat="55.428300" lon="39.222390"><ele>129.9</ele><time>1970-01-01T08:40:10Z</time></trkpt>
			<trkpt lat="55.428420" lon="39.214830"><ele>135.8</ele><time>1970-01-01T08:40:31Z</time></trkpt>
			<trkpt lat="55.428430" lon="39.214430"><ele>136.2</ele><time>1970-01-01T08:40:52Z</time></trkpt>
			<trkpt lat="55.428440" lon="39.213570"><ele>136.7</ele><time>1970-01-01T08:41:14Z</time></trkpt>
			<trkpt lat="55.428470" lon="39.211350"><ele>138.6</ele><time>1970-01-01T08:41:35Z</time></trkpt>
			<trkpt lat="55.428530" lon="39.207330"><ele>138.4</ele><time>1970-01-01T08:41:57Z</time></trkpt>
			<trkpt lat="55.428540" lon="39.206430"><ele>137.9</ele><time>1970-01-01T08:42:18Z</time></trkpt>
			<trkpt lat="55.428550" lon="39.205360"><ele>139.3</ele><time>1970-01-01T08:42:40Z</time></trkpt>
			<trkpt lat="55.428560" lon="39.204660"><ele>140.9</ele><time>1970-01-01T08:43:01Z</time></trkpt>
			<trkpt lat="55.428560" lon="39.204127"><ele>141.6</ele><time>1970-01-01T08:43:23Z</time></trkpt>
			<trkpt lat="55.428560" lon="39.204130"><ele>141.6</ele><time>1970-01-01T08:43:23Z</time></trkpt>
			<trkpt lat="55.428560" lon="39.203910"><ele>141.9</ele><time>1970-01-01T08:43:44Z</time></trkpt>
			<trkpt lat="55.428550" lon="39.203120"><ele>142.1</ele><time>1970-01-01T08:44:06Z</time></trkpt>
			<trkpt lat="55.428540" lon="39.202670"><ele>141.1</ele><time>1970-01-01T08:44:27Z</time></trkpt>
			<trkpt lat="55.428450" lon="39.201500"><ele>140.1</ele><time>1970-01-01T08:44:49Z</time></trkpt>
			<trkpt lat="55.428430" lon="39.201290"><ele>139.8</ele><time>1970-01-01T08:45:10Z</time></trkpt>
			<trkpt lat="55.428420" lon="39.201130"><ele>139.6</ele><time>1970-01-01T08:45:32Z</time></trkpt>
			<trkpt lat="55.428419" lon="39.201130"><ele>139.6</ele><time>1970-01-01T08:45:32Z</time></trkpt>
			<trkpt lat="55.428410" lon="39.201020"><ele>139.4</ele><time>1970-01-01T08:46:04Z</time></trkpt>
			<trkpt lat="55.428360" lon="39.200320"><ele>138.0</ele><time>1970-01-01T08:46:37Z</time></trkpt>
			<trkpt lat="55.428600" lon="39.200580"><ele>139.0</ele><time>1970-01-01T08:47:10Z</time></trkpt>
			<trkpt lat="55.428690" lon="39.200690"><ele>139.5</ele><time>1970-01-01T08:47:43Z</time></trkpt>
			<trkpt lat="55.429360" lon="39.201470"><ele>141.4</ele><time>1970-01-01T08:48:16Z</time></trkpt>
			<trkpt lat="55.429530" lon="39.201700"><ele>141.2</ele><time>1970-01-01T08:48:49Z</time></trkpt>
			<trkpt lat="55.429630" lon="39.201820"><ele>141.0</ele><time>1970-01-01T08:49:22Z</time></trkpt>
			<trkpt lat="55.429760" lon="39.201930"><ele>140.9</ele><time>1970-01-01T08:49:55Z</time></trkpt>
			<trkpt lat="55.429880" lon="39.201960"><ele>140.6</ele><time>1970-01-01T08:50:28Z</time></trkpt>
			<trkpt lat="55.429950" lon="39.201960"><ele>140.5</ele><time>1970-01-01T08:51:01Z</time></trkpt>
			<trkpt lat="55.430120" lon="39.201880"><ele>140.2</ele><time>1970-01-01T08:51:34Z</time></trkpt>
			<trkpt lat="55.430370" lon="39.201650"><ele>140.0</ele><time>1970-01-01T08:52:07Z</time></trkpt>
			<trkpt lat="55.430720" lon="39.201260"><ele>140.0</ele><time>1970-01-01T08:52:40Z</time></trkpt>
			<trkpt lat="55.431003" lon="39.200944"><ele>139.8</ele><time>1970-01-01T08:53:13Z</time></trkpt>
			<trkpt lat="55.431003" lon="39.200944"><ele>139.8</ele><time>1970-01-01T08:53:13Z</time></trkpt>
			<trkpt lat="55.431800" lon="39.200070"><ele>138.1</ele><time>1970-01-01T08:54:28Z</time></trkpt>
			<trkpt lat="55.433040" lon="39.198700"><ele>136.4</ele><time>1970-01-01T08:55:43Z</time></trkpt>
			<trkpt lat="55.433560" lon="39.198140"><ele>135.0</ele><time>1970-01-01T08:56:59Z</time></trkpt>
			<trkpt lat="55.434030" lon="39.197640"><ele>133.4</ele><time>1970-01-01T08:58:14Z</time></trkpt>
			<trkpt lat="55.435570" lon="39.195990"><ele>130.3</ele><time>1970-01-01T08:59:29Z</time></trkpt>
			<trkpt lat="55.436250" lon="39.195250"><ele>132.2</ele><time>1970-01-01T09:00:45Z</time></trkpt>
			<trkpt lat="55.437270" lon="39.194120"><ele>128.1</ele><time>1970-01-01T09:02:00Z</time></trkpt>
			<trkpt lat="55.438100" lon="39.193160"><ele>129.8</ele><time>1970-01-01T09:03:15Z</time></trkpt>
			<trkpt lat="55.438800" lon="39.192350"><ele>132.3</ele><time>1970-01-01T09:04:31Z</time></trkpt>
			<trkpt lat="55.439090" lon="39.191960"><ele>132.7</ele><time>1970-01-01T09:05:46Z</time></trkpt>
			<trkpt lat="55.439300" lon="39.191640"><ele>133.4</ele><time>1970-01-01T09:07:01Z</time></trkpt>
			<trkpt lat="55.439600" lon="39.191060"><ele>133.8</ele><time>1970-01-01T09:08:17Z</time></trkpt>
			<trkpt lat="55.439690" lon="39.190870"><ele>133.7</ele><time>1970-01-01T09:09:32Z</time></trkpt>
			<trkpt lat="55.440550" lon="39.188890"><ele>131.5</ele><time>1970-01-01T09:10:47Z</time></trkpt>
			<trkpt lat="55.441160" lon="39.187430"><ele>129.6</ele><time>1970-01-01T09:12:03Z</time></trkpt>
			<trkpt lat="55.441300" lon="39.187130"><ele>129.3</ele><time>1970-01-01T09:13:18Z</time></trkpt>
			<trkpt lat="55.441590" lon="39.186590"><ele>129.0</ele><time>1970-01-01T09:14:34Z</time></trkpt>
			<trkpt lat="55.441900" lon="39.186080"><ele>128.7</ele><time>1970-01-01T09:15:49Z</time></trkpt>
			<trkpt lat="55.442340" lon="39.185480"><ele>128.1</ele><time>1970-01-01T09:17:04Z</time></trkpt>
			<trkpt lat="55.442580" lon="39.185230"><ele>128.1</ele><time>1970-01-01T09:18:20Z</time></trkpt>
			<trkpt lat="55.442830" lon="39.185020"><ele>128.4</ele><time>1970-01-01T09:19:35Z</time></trkpt>
			<trkpt lat="55.443110" lon="39.184800"><ele>128.9</ele><time>1970-01-01T09:20:50Z</time></trkpt>
			<trkpt lat="55.444600" lon="39.183770"><ele>133.1</ele><time>1970-01-01T09:22:06Z</time></trkpt>
			<trkpt lat="55.446100" lon="39.182700"><ele>136.3</ele><time>1970-01-01T09:23:21Z</time></trkpt>
			<trkpt lat="55.446810" lon="39.182230"><ele>138.5</ele><time>1970-01-01T09:24:36Z</time></trkpt>
			<trkpt lat="55.447950" lon="39.181370"><ele>139.2</ele><time>1970-01-01T09:25:52Z</time></trkpt>
			<trkpt lat="55.449110" lon="39.180570"><ele>143.1</ele><time>1970-01-01T09:27:07Z</time></trkpt>
			<trkpt lat="55.449390" lon="39.180420"><ele>144.4</ele><time>1970-01-01T09:28:22Z</time></trkpt>
			<trkpt lat="55.449520" lon="39.180360"><ele>145.0</ele><time>1970-01-01T09:29:38Z</time></trkpt>
			<trkpt lat="55.449680" lon="39.180320"><ele>145.7</ele><time>1970-01-01T09:30:53Z</time></trkpt>
			<trkpt lat="55.449800" lon="39.180300"><ele>146.2</ele><time>1970-01-01T09:32:09Z</time></trkpt>
			<trkpt lat="55.450040" lon="39.180310"><ele>146.9</ele><time>1970-01-01T09:33:24Z</time></trkpt>
			<trkpt lat="55.450320" lon="39.180340"><ele>147.2</ele><time>1970-01-01T09:34:39Z</time></trkpt>
			<trkpt lat="55.450590" lon="39.180430"><ele>147.3</ele><time>1970-01-01T09:35:55Z</time></trkpt>
			<trkpt lat="55.451020" lon="39.180680"><ele>147.4</ele><time>1970-01-01T09:37:10Z</time></trkpt>
			<trkpt lat="55.451470" lon="39.180970"><ele>148.1</ele><time>1970-01-01T09:38:25Z</time></trkpt>
			<trkpt lat="55.452370" lon="39.181600"><ele>151.0</ele><time>1970-01-01T09:39:41Z</time></trkpt>
			<trkpt lat="55.453260" lon="39.182190"><ele>149.9</ele><time>1970-01-01T09:40:56Z</time></trkpt>
			<trkpt lat="55.453580" lon="39.182370"><ele>149.3</ele><time>1970-01-01T09:42:11Z</time></trkpt>
			<trkpt lat="55.453730" lon="39.182440"><ele>149.2</ele><time>1970-01-01T09:43:27Z</time></trkpt>
			<trkpt lat="55.453970" lon="39.182530"><ele>149.1</ele><time>1970-01-01T09:44:42Z</time></trkpt>
			<trkpt lat="55.454370" lon="39.182600"><ele>149.6</ele><time>1970-01-01T09:45:57Z</time></trkpt>
			<trkpt lat="55.455220" lon="39.182590"><ele>150.0</ele><time>1970-01-01T09:47:13Z</time></trkpt>
			<trkpt lat="55.456060" lon="39.182540"><ele>149.6</ele><time>1970-01-01T09:48:28Z</time></trkpt>
			<trkpt lat="55.456180" lon="39.182520"><ele>149.8</ele><time>1970-01-01T09:49:44Z</time></trkpt>
			<trkpt lat="55.456390" lon="39.182450"><ele>150.5</ele><time>1970-01-01T09:50:59Z</time></trkpt>
			<trkpt lat="55.456610" lon="39.182330"><ele>151.3</ele><time>1970-01-01T09:52:14Z</time></trkpt>
			<trkpt lat="55.456830" lon="39.182170"><ele>151.9</ele><time>1970-01-01T09:53:30Z</time></trkpt>
			<trkpt lat="55.457040" lon="39.181980"><ele>152.0</ele><time>1970-01-01T09:54:45Z</time></trkpt>
			<trkpt lat="55.457310" lon="39.181620"><ele>151.4</ele><time>1970-01-01T09:56:00Z</time></trkpt>
			<trkpt lat="55.458680" lon="39.179730"><ele>151.7</ele><time>1970-01-01T09:57:16Z</time></trkpt>
			<trkpt lat="55.458950" lon="39.179400"><ele>152.6</ele><time>1970-01-01T09:58:31Z</time></trkpt>
			<trkpt lat="55.459080" lon="39.179290"><ele>152.9</ele><time>1970-01-01T09:59:46Z</time></trkpt>
			<trkpt lat="55.459300" lon="39.179110"><ele>153.4</ele><time>1970-01-01T10:01:02Z</time></trkpt>
			<trkpt lat="55.459530" lon="39.178980"><ele>154.1</ele><time>1970-01-01T10:02:17Z</time></trkpt>
			<trkpt lat="55.459680" lon="39.178920"><ele>154.4</ele><time>1970-01-01T10:03:32Z</time></trkpt>
			<trkpt lat="55.460020" lon="39.178830"><ele>154.7</ele><time>1970-01-01T10:04:48Z</time></trkpt>
			<trkpt lat="55.460200" lon="39.178800"><ele>154.6</ele><time>1970-01-01T10:06:03Z</time></trkpt>
			<trkpt lat="55.460580" lon="39.178770"><ele>154.3</ele><time>1970-01-01T10:07:19Z</time></trkpt>
			<trkpt lat="55.460580" lon="39.178770"><ele>154.3</ele><time>1970-01-01T10:07:19Z</time></trkpt>
			<trkpt lat="55.461690" lon="39.178700"><ele>154.5</ele><time>1970-01-01T10:07:24Z</time></trkpt>
			<trkpt lat="55.462060" lon="39.178700"><ele>154.0</ele><time>1970-01-01T10:07:30Z</time></trkpt>
			<trkpt lat="55.462350" lon="39.178690"><ele>153.6</ele><time>1970-01-01T10:07:35Z</time></trkpt>
			<trkpt lat="55.464220" lon="39.178680"><ele>149.5</ele><time>1970-01-01T10:07:41Z</time></trkpt>
			<trkpt lat="55.464980" lon="39.178610"><ele>144.3</ele><time>1970-01-01T10:07:46Z</time></trkpt>
			<trkpt lat="55.467760" lon="39.178250"><ele>145.0</ele><time>1970-01-01T10:07:52Z</time></trkpt>
			<trkpt lat="55.467960" lon="39.178220"><ele>145.8</ele><time>1970-01-01T10:07:57Z</time></trkpt>
			<trkpt lat="55.468300" lon="39.178190"><ele>147.0</ele><time>1970-01-01T10:08:03Z</time></trkpt>
			<trkpt lat="55.468730" lon="39.178140"><ele>146.6</ele><time>1970-01-01T10:08:08Z</time></trkpt>
			<trkpt lat="55.468840" lon="39.178150"><ele>146.5</ele><time>1970-01-01T10:08:14Z</time></trkpt>
			<trkpt lat="55.468920" lon="39.178170"><ele>146.4</ele><time>1970-01-01T10:08:19Z</time></trkpt>
			<trkpt lat="55.469070" lon="39.178250"><ele>146.1</ele><time>1970-01-01T10:08:25Z</time></trkpt>
			<trkpt lat="55.469130" lon="39.178300"><ele>146.0</ele><time>1970-01-01T10:08:30Z</time></trkpt>
			<trkpt lat="55.469280" lon="39.178490"><ele>145.6</ele><time>1970-01-01T10:08:36Z</time></trkpt>
			<trkpt lat="55.469370" lon="39.178610"><ele>145.3</ele><time>1970-01-01T10:08:41Z</time></trkpt>
			<trkpt lat="55.469940" lon="39.179690"><ele>144.1</ele><time>1970-01-01T10:08:47Z</time></trkpt>
			<trkpt lat="55.470010" lon="39.179830"><ele>144.0</ele><time>1970-01-01T10:08:52Z</time></trkpt>
			<trkpt lat="55.470710" lon="39.181100"><ele>145.2</ele><time>1970-01-01T10:08:58Z</time></trkpt>
			<trkpt lat="55.470850" lon="39.181360"><ele>145.0</ele><time>1970-01-01T10:09:04Z</time></trkpt>
			<trkpt lat="55.471310" lon="39.182030"><ele>145.1</ele><time>1970-01-01T10:09:09Z</time></trkpt>
			<trkpt lat="55.471560" lon="39.182300"><ele>145.6</ele><time>1970-01-01T10:09:15Z</time></trkpt>
			<trkpt lat="55.471660" lon="39.182380"><ele>145.8</ele><time>1970-01-01T10:09:20Z</time></trkpt>
			<trkpt lat="55.471860" lon="39.182520"><ele>146.0</ele><time>1970-01-01T10:09:26Z</time></trkpt>
			<trkpt lat="55.472240" lon="39.182760"><ele>146.0</ele><time>1970-01-01T10:09:31Z</time></trkpt>
			<trkpt lat="55.472330" lon="39.182800"><ele>146.0</ele><time>1970-01-01T10:09:37Z</time></trkpt>
			<trkpt lat="55.472540" lon="39.182880"><ele>146.0</ele><time>1970-01-01T10:09:42Z</time></trkpt>
			<trkpt lat="55.474860" lon="39.183670"><ele>145.1</ele><time>1970-01-01T10:09:48Z</time></trkpt>
			<trkpt lat="55.475420" lon="39.183860"><ele>145.4</ele><time>1970-01-01T10:09:53Z</time></trkpt>
			<trkpt lat="55.476010" lon="39.184030"><ele>145.6</ele><time>1970-01-01T10:09:59Z</time></trkpt>
			<trkpt lat="55.476440" lon="39.184070"><ele>145.4</ele><time>1970-01-01T10:10:04Z</time></trkpt>
			<trkpt lat="55.477680" lon="39.183970"><ele>143.9</ele><time>1970-01-01T10:10:10Z</time></trkpt>
			<trkpt lat="55.478390" lon="39.183910"><ele>145.0</ele><time>1970-01-01T10:10:15Z</time></trkpt>
			<trkpt lat="55.479060" lon="39.183900"><ele>148.4</ele><time>1970-01-01T10:10:21Z</time></trkpt>
			<trkpt lat="55.479300" lon="39.183940"><ele>149.4</ele><time>1970-01-01T10:10:26Z</time></trkpt>
			<trkpt lat="55.479550" lon="39.184050"><ele>150.2</ele><time>1970-01-01T10:10:32Z</time></trkpt>
			<trkpt lat="55.480100" lon="39.184400"><ele>152.1</ele><time>1970-01-01T10:10:37Z</time></trkpt>
			<trkpt lat="55.480860" lon="39.184990"><ele>152.1</ele><time>1970-01-01T10:10:43Z</time></trkpt>
			<trkpt lat="55.480970" lon="39.185090"><ele>152.0</ele><time>1970-01-01T10:10:49Z</time></trkpt>
			<trkpt lat="55.483040" lon="39.186680"><ele>152.1</ele><time>1970-01-01T10:10:54Z</time></trkpt>
			<trkpt lat="55.484220" lon="39.187570"><ele>150.9</ele><time>1970-01-01T10:11:00Z</time></trkpt>
			<trkpt lat="55.485920" lon="39.188580"><ele>147.5</ele><time>1970-01-01T10:11:05Z</time></trkpt>
			<trkpt lat="55.486000" lon="39.188630"><ele>147.0</ele><time>1970-01-01T10:11:11Z</time></trkpt>
			<trkpt lat="55.486650" lon="39.188990"><ele>144.4</ele><time>1970-01-01T10:11:16Z</time></trkpt>
			<trkpt lat="55.486890" lon="39.189130"><ele>144.3</ele><time>1970-01-01T10:11:22Z</time></trkpt>
			<trkpt lat="55.487170" lon="39.189290"><ele>144.5</ele><time>1970-01-01T10:11:27Z</time></trkpt>
			<trkpt lat="55.488740" lon="39.190220"><ele>145.8</ele><time>1970-01-01T10:11:33Z</time></trkpt>
			<trkpt lat="55.491090" lon="39.191580"><ele>148.3</ele><time>1970-01-01T10:11:38Z</time></trkpt>
			<trkpt lat="55.491230" lon="39.191660"><ele>148.0</ele><time>1970-01-01T10:11:44Z</time></trkpt>
			<trkpt lat="55.491660" lon="39.191890"><ele>147.0</ele><time>1970-01-01T10:11:49Z</time></trkpt>
			<trkpt lat="55.491930" lon="39.192030"><ele>146.4</ele><time>1970-01-01T10:11:55Z</time></trkpt>
			<trkpt lat="55.492790" lon="39.192480"><ele>144.3</ele><time>1970-01-01T10:12:00Z</time></trkpt>
			<trkpt lat="55.493180" lon="39.192680"><ele>143.4</ele><time>1970-01-01T10:12:06Z</time></trkpt>
			<trkpt lat="55.494150" lon="39.193190"><ele>140.9</ele><time>1970-01-01T10:12:11Z</time></trkpt>
			<trkpt lat="55.495400" lon="39.193980"><ele>140.4</ele><time>1970-01-01T10:12:17Z</time></trkpt>
			<trkpt lat="55.495960" lon="39.194440"><ele>143.9</ele><time>1970-01-01T10:12:22Z</time></trkpt>
			<trkpt lat="55.496360" lon="39.194830"><ele>146.5</ele><time>1970-01-01T10:12:28Z</time></trkpt>
			<trkpt lat="55.497340" lon="39.195780"><ele>148.3</ele><time>1970-01-01T10:12:34Z</time></trkpt>
			<trkpt lat="55.497830" lon="39.196300"><ele>151.3</ele><time>1970-01-01T10:12:39Z</time></trkpt>
			<trkpt lat="55.499300" lon="39.197800"><ele>153.8</ele><time>1970-01-01T10:12:45Z</time></trkpt>
			<trkpt lat="55.499760" lon="39.198320"><ele>154.1</ele><time>1970-01-01T10:12:50Z</time></trkpt>
			<trkpt lat="55.499950" lon="39.198560"><ele>154.0</ele><time>1970-01-01T10:12:56Z</time></trkpt>
			<trkpt lat="55.500110" lon="39.198820"><ele>154.6</ele><time>1970-01-01T10:13:01Z</time></trkpt>
			<trkpt lat="55.500330" lon="39.199220"><ele>155.1</ele><time>1970-01-01T10:13:07Z</time></trkpt>
			<trkpt lat="55.500530" lon="39.199750"><ele>154.6</ele><time>1970-01-01T10:13:12Z</time></trkpt>
			<trkpt lat="55.501980" lon="39.204130"><ele>153.5</ele><time>1970-01-01T10:13:18Z</time></trkpt>
			<trkpt lat="55.502490" lon="39.205630"><ele>156.8</ele><time>1970-01-01T10:13:23Z</time></trkpt>
			<trkpt lat="55.503430" lon="39.208660"><ele>154.1</ele><time>1970-01-01T10:13:29Z</time></trkpt>
			<trkpt lat="55.503780" lon="39.209820"><ele>153.9</ele><time>1970-01-01T10:13:34Z</time></trkpt>
			<trkpt lat="55.504160" lon="39.210980"><ele>150.8</ele><time>1970-01-01T10:13:40Z</time></trkpt>
			<trkpt lat="55.504370" lon="39.211550"><ele>149.7</ele><time>1970-01-01T10:13:45Z</time></trkpt>
			<trkpt lat="55.504610" lon="39.212080"><ele>150.3</ele><time>1970-01-01T10:13:51Z</time></trkpt>
			<trkpt lat="55.505030" lon="39.212790"><ele>150.8</ele><time>1970-01-01T10:13:56Z</time></trkpt>
			<trkpt lat="55.505790" lon="39.213830"><ele>153.5</ele><time>1970-01-01T10:14:02Z</time></trkpt>
			<trkpt lat="55.508310" lon="39.217410"><ele>152.8</ele><time>1970-01-01T10:14:07Z</time></trkpt>
			<trkpt lat="55.508460" lon="39.217640"><ele>152.7</ele><time>1970-01-01T10:14:13Z</time></trkpt>
			<trkpt lat="55.508600" lon="39.217890"><ele>152.7</ele><time>1970-01-01T10:14:19Z</time></trkpt>
			<trkpt lat="55.508740" lon="39.218200"><ele>152.9</ele><time>1970-01-01T10:14:24Z</time></trkpt>
			<trkpt lat="55.508920" lon="39.218610"><ele>152.8</ele><time>1970-01-01T10:14:30Z</time></trkpt>
			<trkpt lat="55.509330" lon="39.219680"><ele>149.9</ele><time>1970-01-01T10:14:35Z</time></trkpt>
			<trkpt lat="55.509480" lon="39.220070"><ele>148.5</ele><time>1970-01-01T10:14:41Z</time></trkpt>
			<trkpt lat="55.509510" lon="39.220140"><ele>148.4</ele><time>1970-01-01T10:14:46Z</time></trkpt>
			<trkpt lat="55.510030" lon="39.221370"><ele>149.9</ele><time>1970-01-01T10:14:52Z</time></trkpt>
			<trkpt lat="55.511590" lon="39.224700"><ele>147.0</ele><time>1970-01-01T10:14:57Z</time></trkpt>
			<trkpt lat="55.512290" lon="39.226000"><ele>144.3</ele><time>1970-01-01T10:15:03Z</time></trkpt>
			<trkpt lat="55.512780" lon="39.226790"><ele>143.7</ele><time>1970-01-01T10:15:08Z</time></trkpt>
			<trkpt lat="55.513410" lon="39.227610"><ele>139.7</ele><time>1970-01-01T10:15:14Z</time></trkpt>
			<trkpt lat="55.514080" lon="39.228430"><ele>136.4</ele><time>1970-01-01T10:15:19Z</time></trkpt>
			<trkpt lat="55.515100" lon="39.229560"><ele>142.6</ele><time>1970-01-01T10:15:25Z</time></trkpt>
			<trkpt lat="55.517650" lon="39.232430"><ele>155.9</ele><time>1970-01-01T10:15:30Z</time></trkpt>
			<trkpt lat="55.517890" lon="39.232780"><ele>156.7</ele><time>1970-01-01T10:15:36Z</time></trkpt>
			<trkpt lat="55.517990" lon="39.232940"><ele>156.8</ele><time>1970-01-01T10:15:41Z</time></trkpt>
			<trkpt lat="55.518080" lon="39.233110"><ele>156.6</ele><time>1970-01-01T10:15:47Z</time></trkpt>
			<trkpt lat="55.518170" lon="39.233320"><ele>156.1</ele><time>1970-01-01T10:15:52Z</time></trkpt>
			<trkpt lat="55.518380" lon="39.233830"><ele>153.9</ele><time>1970-01-01T10:15:58Z</time></trkpt>
			<trkpt lat="55.519470" lon="39.236840"><ele>154.4</ele><time>1970-01-01T10:16:04Z</time></trkpt>
			<trkpt lat="55.519830" lon="39.237840"><ele>154.7</ele><time>1970-01-01T10:16:09Z</time></trkpt>
			<trkpt lat="55.520550" lon="39.239840"><ele>154.4</ele><time>1970-01-01T10:16:15Z</time></trkpt>
			<trkpt lat="55.520920" lon="39.240850"><ele>154.3</ele><time>1970-01-01T10:16:20Z</time></trkpt>
			<trkpt lat="55.521730" lon="39.242940"><ele>155.7</ele><time>1970-01-01T10:16:26Z</time></trkpt>
			<trkpt lat="55.522400" lon="39.244620"><ele>158.3</ele><time>1970-01-01T10:16:31Z</time></trkpt>
			<trkpt lat="55.522480" lon="39.244800"><ele>158.2</ele><time>1970-01-01T10:16:37Z</time></trkpt>
			<trkpt lat="55.522880" lon="39.245600"><ele>157.1</ele><time>1970-01-01T10:16:42Z</time></trkpt>
			<trkpt lat="55.523560" lon="39.246770"><ele>154.2</ele><time>1970-01-01T10:16:48Z</time></trkpt>
			<trkpt lat="55.523960" lon="39.247450"><ele>156.3</ele><time>1970-01-01T10:16:53Z</time></trkpt>
			<trkpt lat="55.525430" lon="39.250010"><ele>156.0</ele><time>1970-01-01T10:16:59Z</time></trkpt>
			<trkpt lat="55.526910" lon="39.252700"><ele>152.0</ele><time>1970-01-01T10:17:04Z</time></trkpt>
			<trkpt lat="55.528710" lon="39.256060"><ele>148.3</ele><time>1970-01-01T10:17:10Z</time></trkpt>
			<trkpt lat="55.530330" lon="39.259130"><ele>148.1</ele><time>1970-01-01T10:17:15Z</time></trkpt>
			<trkpt lat="55.530960" lon="39.260350"><ele>148.1</ele><time>1970-01-01T10:17:21Z</time></trkpt>
			<trkpt lat="55.531310" lon="39.261020"><ele>147.9</ele><time>1970-01-01T10:17:26Z</time></trkpt>
			<trkpt lat="55.531580" lon="39.261580"><ele>147.2</ele><time>1970-01-01T10:17:32Z</time></trkpt>
			<trkpt lat="55.532620" lon="39.263820"><ele>147.6</ele><time>1970-01-01T10:17:37Z</time></trkpt>
			<trkpt lat="55.532750" lon="39.264100"><ele>147.3</ele><time>1970-01-01T10:17:43Z</time></trkpt>
			<trkpt lat="55.532950" lon="39.264510"><ele>146.7</ele><time>1970-01-01T10:17:49Z</time></trkpt>
			<trkpt lat="55.533110" lon="39.264890"><ele>146.3</ele><time>1970-01-01T10:17:54Z</time></trkpt>
			<trkpt lat="55.533820" lon="39.266450"><ele>145.9</ele><time>1970-01-01T10:18:00Z</time></trkpt>
			<trkpt lat="55.535080" lon="39.269220"><ele>148.1</ele><time>1970-01-01T10:18:05Z</time></trkpt>
			<trkpt lat="55.535470" lon="39.270040"><ele>148.5</ele><time>1970-01-01T10:18:11Z</time></trkpt>
			<trkpt lat="55.536030" lon="39.271290"><ele>146.8</ele><time>1970-01-01T10:18:16Z</time></trkpt>
			<trkpt lat="55.536340" lon="39.271980"><ele>145.8</ele><time>1970-01-01T10:18:22Z</time></trkpt>
			<trkpt lat="55.537060" lon="39.273520"><ele>145.9</ele><time>1970-01-01T10:18:27Z</time></trkpt>
			<trkpt lat="55.537740" lon="39.275040"><ele>147.1</ele><time>1970-01-01T10:18:33Z</time></trkpt>
			<trkpt lat="55.538200" lon="39.276090"><ele>145.8</ele><time>1970-01-01T10:18:38Z</time></trkpt>
			<trkpt lat="55.538590" lon="39.276900"><ele>145.4</ele><time>1970-01-01T10:18:44Z</time></trkpt>
			<trkpt lat="55.538710" lon="39.277100"><ele>145.7</ele><time>1970-01-01T10:18:49Z</time></trkpt>
			<trkpt lat="55.538950" lon="39.277510"><ele>146.5</ele><time>1970-01-01T10:18:55Z</time></trkpt>
			<trkpt lat="55.539140" lon="39.277810"><ele>146.9</ele><time>1970-01-01T10:19:00Z</time></trkpt>
			<trkpt lat="55.539360" lon="39.278100"><ele>146.7</ele><time>1970-01-01T10:19:06Z</time></trkpt>
			<trkpt lat="55.539910" lon="39.278720"><ele>146.5</ele><time>1970-01-01T10:19:11Z</time></trkpt>
			<trkpt lat="55.540910" lon="39.279800"><ele>147.7</ele><time>1970-01-01T10:19:17Z</time></trkpt>
			<trkpt lat="55.541030" lon="39.279930"><ele>147.9</ele><time>1970-01-01T10:19:22Z</time></trkpt>
			<trkpt lat="55.541550" lon="39.280480"><ele>147.9</ele><time>1970-01-01T10:19:28Z</time></trkpt>
			<trkpt lat="55.542070" lon="39.281050"><ele>148.6</ele><time>1970-01-01T10:19:34Z</time></trkpt>
			<trkpt lat="55.542290" lon="39.281290"><ele>148.9</ele><time>1970-01-01T10:19:39Z</time></trkpt>
			<trkpt lat="55.542520" lon="39.281490"><ele>149.0</ele><time>1970-01-01T10:19:45Z</time></trkpt>
			<trkpt lat="55.542820" lon="39.281720"><ele>149.4</ele><time>1970-01-01T10:19:50Z</time></trkpt>
			<trkpt lat="55.542930" lon="39.281790"><ele>149.6</ele><time>1970-01-01T10:19:56Z</time></trkpt>
			<trkpt lat="55.543100" lon="39.281840"><ele>149.9</ele><time>1970-01-01T10:20:01Z</time></trkpt>
			<trkpt lat="55.543290" lon="39.281870"><ele>150.2</ele><time>1970-01-01T10:20:07Z</time></trkpt>
			<trkpt lat="55.543420" lon="39.281860"><ele>150.1</ele><time>1970-01-01T10:20:12Z</time></trkpt>
			<trkpt lat="55.544180" lon="39.281750"><ele>149.0</ele><time>1970-01-01T10:20:18Z</time></trkpt>
			<trkpt lat="55.544290" lon="39.281740"><ele>149.0</ele><time>1970-01-01T10:20:23Z</time></trkpt>
			<trkpt lat="55.544620" lon="39.281680"><ele>149.0</ele><time>1970-01-01T10:20:29Z</time></trkpt>
			<trkpt lat="55.545100" lon="39.281570"><ele>148.9</ele><time>1970-01-01T10:20:34Z</time></trkpt>
			<trkpt lat="55.545360" lon="39.281470"><ele>148.9</ele><time>1970-01-01T10:20:40Z</time></trkpt>
			<trkpt lat="55.545420" lon="39.281450"><ele>148.9</ele><time>1970-01-01T10:20:45Z</time></trkpt>
			<trkpt lat="55.545590" lon="39.281370"><ele>148.9</ele><time>1970-01-01T10:20:51Z</time></trkpt>
			<trkpt lat="55.545810" lon="39.281240"><ele>149.0</ele><time>1970-01-01T10:20:56Z</time></trkpt>
			<trkpt lat="55.546650" lon="39.280700"><ele>147.0</ele><time>1970-01-01T10:21:02Z</time></trkpt>
			<trkpt lat="55.548320" lon="39.279670"><ele>149.5</ele><time>1970-01-01T10:21:07Z</time></trkpt>
			<trkpt lat="55.548400" lon="39.279620"><ele>149.8</ele><time>1970-01-01T10:21:13Z</time></trkpt>
			<trkpt lat="55.549350" lon="39.278970"><ele>155.4</ele><time>1970-01-01T10:21:19Z</time></trkpt>
			<trkpt lat="55.551150" lon="39.277790"><ele>155.8</ele><time>1970-01-01T10:21:24Z</time></trkpt>
			<trkpt lat="55.551980" lon="39.277270"><ele>156.7</ele><time>1970-01-01T10:21:30Z</time></trkpt>
			<trkpt lat="55.552850" lon="39.276740"><ele>156.5</ele><time>1970-01-01T10:21:35Z</time></trkpt>
			<trkpt lat="55.552970" lon="39.276690"><ele>156.0</ele><time>1970-01-01T10:21:41Z</time></trkpt>
			<trkpt lat="55.553210" lon="39.276630"><ele>155.3</ele><time>1970-01-01T10:21:46Z</time></trkpt>
			<trkpt lat="55.553300" lon="39.276610"><ele>155.0</ele><time>1970-01-01T10:21:52Z</time></trkpt>
			<trkpt lat="55.553480" lon="39.276600"><ele>154.2</ele><time>1970-01-01T10:21:57Z</time></trkpt>
			<trkpt lat="55.553640" lon="39.276610"><ele>153.4</ele><time>1970-01-01T10:22:03Z</time></trkpt>
			<trkpt lat="55.553750" lon="39.276640"><ele>152.9</ele><time>1970-01-01T10:22:08Z</time></trkpt>
			<trkpt lat="55.553960" lon="39.276720"><ele>152.4</ele><time>1970-01-01T10:22:14Z</time></trkpt>
			<trkpt lat="55.555050" lon="39.277380"><ele>154.4</ele><time>1970-01-01T10:22:19Z</time></trkpt>
			<trkpt lat="55.555130" lon="39.277420"><ele>154.7</ele><time>1970-01-01T10:22:25Z</time></trkpt>
			<trkpt lat="55.555980" lon="39.277970"><ele>155.2</ele><time>1970-01-01T10:22:30Z</time></trkpt>
			<trkpt lat="55.556340" lon="39.278190"><ele>154.2</ele><time>1970-01-01T10:22:36Z</time></trkpt>
			<trkpt lat="55.557320" lon="39.278810"><ele>156.1</ele><time>1970-01-01T10:22:41Z</time></trkpt>
			<trkpt lat="55.557450" lon="39.278870"><ele>156.2</ele><time>1970-01-01T10:22:47Z</time></trkpt>
			<trkpt lat="55.557600" lon="39.278940"><ele>156.1</ele><time>1970-01-01T10:22:52Z</time></trkpt>
			<trkpt lat="55.557700" lon="39.278970"><ele>155.9</ele><time>1970-01-01T10:22:58Z</time></trkpt>
			<trkpt lat="55.558030" lon="39.279020"><ele>154.9</ele><time>1970-01-01T10:23:04Z</time></trkpt>
			<trkpt lat="55.558150" lon="39.279030"><ele>154.6</ele><time>1970-01-01T10:23:09Z</time></trkpt>
			<trkpt lat="55.558250" lon="39.279010"><ele>154.3</ele><time>1970-01-01T10:23:15Z</time></trkpt>
			<trkpt lat="55.558710" lon="39.278890"><ele>154.3</ele><time>1970-01-01T10:23:20Z</time></trkpt>
			<trkpt lat="55.559950" lon="39.278490"><ele>154.2</ele><time>1970-01-01T10:23:26Z</time></trkpt>
			<trkpt lat="55.560180" lon="39.278410"><ele>154.0</ele><time>1970-01-01T10:23:31Z</time></trkpt>
			<trkpt lat="55.560420" lon="39.278330"><ele>153.5</ele><time>1970-01-01T10:23:37Z</time></trkpt>
			<trkpt lat="55.560680" lon="39.278280"><ele>153.3</ele><time>1970-01-01T10:23:42Z</time></trkpt>
			<trkpt lat="55.560970" lon="39.278270"><ele>152.8</ele><time>1970-01-01T10:23:48Z</time></trkpt>
			<trkpt lat="55.561700" lon="39.278360"><ele>150.9</ele><time>1970-01-01T10:23:53Z</time></trkpt>
			<trkpt lat="55.562880" lon="39.278570"><ele>149.2</ele><time>1970-01-01T10:23:59Z</time></trkpt>
			<trkpt lat="55.563380" lon="39.278640"><ele>149.7</ele><time>1970-01-01T10:24:04Z</time></trkpt>
			<trkpt lat="55.563540" lon="39.278630"><ele>149.6</ele><time>1970-01-01T10:24:10Z</time></trkpt>
			<trkpt lat="55.563840" lon="39.278610"><ele>149.4</ele><time>1970-01-01T10:24:15Z</time></trkpt>
			<trkpt lat="55.564190" lon="39.278520"><ele>148.8</ele><time>1970-01-01T10:24:21Z</time></trkpt>
			<trkpt lat="55.564530" lon="39.278370"><ele>147.3</ele><time>1970-01-01T10:24:26Z</time></trkpt>
			<trkpt lat="55.564890" lon="39.278180"><ele>146.7</ele><time>1970-01-01T10:24:32Z</time></trkpt>
			<trkpt lat="55.566742" lon="39.277022"><ele>152.0</ele><time>1970-01-01T10:24:38Z</time></trkpt>
			<trkpt lat="55.566750" lon="39.277050"><ele>152.0</ele><time>1970-01-01T10:24:38Z</time></trkpt>
			<trkpt lat="55.567130" lon="39.276820"><ele>151.4</ele><time>1970-01-01T10:24:54Z</time></trkpt>
			<trkpt lat="55.567490" lon="39.276660"><ele>150.2</ele><time>1970-01-01T10:25:11Z</time></trkpt>
			<trkpt lat="55.567760" lon="39.276570"><ele>149.9</ele><time>1970-01-01T10:25:28Z</time></trkpt>
			<trkpt lat="55.567920" lon="39.276540"><ele>149.8</ele><time>1970-01-01T10:25:45Z</time></trkpt>
			<trkpt lat="55.568150" lon="39.276540"><ele>149.7</ele><time>1970-01-01T10:26:02Z</time></trkpt>
			<trkpt lat="55.568270" lon="39.276550"><ele>149.7</ele><time>1970-01-01T10:26:19Z</time></trkpt>
			<trkpt lat="55.568650" lon="39.276620"><ele>150.7</ele><time>1970-01-01T10:26:35Z</time></trkpt>
			<trkpt lat="55.568920" lon="39.276700"><ele>151.5</ele><time>1970-01-01T10:26:52Z</time></trkpt>
			<trkpt lat="55.569120" lon="39.276710"><ele>151.8</ele><time>1970-01-01T10:27:09Z</time></trkpt>
			<trkpt lat="55.568480" lon="39.275690"><ele>149.4</ele><time>1970-01-01T10:27:26Z</time></trkpt>
			<trkpt lat="55.568380" lon="39.275490"><ele>149.5</ele><time>1970-01-01T10:27:43Z</time></trkpt>
			<trkpt lat="55.568190" lon="39.275070"><ele>150.4</ele><time>1970-01-01T10:28:00Z</time></trkpt>
			<trkpt lat="55.568030" lon="39.274660"><ele>150.3</ele><time>1970-01-01T10:28:17Z</time></trkpt>
			<trkpt lat="55.567960" lon="39.274390"><ele>150.1</ele><time>1970-01-01T10:28:33Z</time></trkpt>
			<trkpt lat="55.567850" lon="39.274020"><ele>149.7</ele><time>1970-01-01T10:28:50Z</time></trkpt>
			<trkpt lat="55.567800" lon="39.273770"><ele>149.3</ele><time>1970-01-01T10:29:07Z</time></trkpt>
			<trkpt lat="55.567770" lon="39.273640"><ele>149.0</ele><time>1970-01-01T10:29:24Z</time></trkpt>
			<trkpt lat="55.567710" lon="39.273190"><ele>148.4</ele><time>1970-01-01T10:29:41Z</time></trkpt>
			<trkpt lat="55.567690" lon="39.273010"><ele>148.2</ele><time>1970-01-01T10:29:58Z</time></trkpt>
			<trkpt lat="55.567070" lon="39.264310"><ele>147.5</ele><time>1970-01-01T10:30:15Z</time></trkpt>
			<trkpt lat="55.566310" lon="39.253210"><ele>147.2</ele><time>1970-01-01T10:30:31Z</time></trkpt>
			<trkpt lat="55.565090" lon="39.236640"><ele>139.9</ele><time>1970-01-01T10:30:48Z</time></trkpt>
			<trkpt lat="55.564960" lon="39.234530"><ele>142.0</ele><time>1970-01-01T10:31:05Z</time></trkpt>
			<trkpt lat="55.564300" lon="39.225250"><ele>139.2</ele><time>1970-01-01T10:31:22Z</time></trkpt>
			<trkpt lat="55.563850" lon="39.218800"><ele>145.1</ele><time>1970-01-01T10:31:39Z</time></trkpt>
			<trkpt lat="55.563590" lon="39.215570"><ele>141.2</ele><time>1970-01-01T10:31:56Z</time></trkpt>
			<trkpt lat="55.563230" lon="39.210520"><ele>137.9</ele><time>1970-01-01T10:32:12Z</time></trkpt>
			<trkpt lat="55.563200" lon="39.210130"><ele>137.6</ele><time>1970-01-01T10:32:29Z</time></trkpt>
			<trkpt lat="55.562980" lon="39.207140"><ele>137.2</ele><time>1970-01-01T10:32:46Z</time></trkpt>
			<trkpt lat="55.561700" lon="39.189240"><ele>139.1</ele><time>1970-01-01T10:33:03Z</time></trkpt>
			<trkpt lat="55.561240" lon="39.182660"><ele>148.4</ele><time>1970-01-01T10:33:20Z</time></trkpt>
			<trkpt lat="55.560140" lon="39.167250"><ele>149.6</ele><time>1970-01-01T10:33:37Z</time></trkpt>
			<trkpt lat="55.560040" lon="39.165790"><ele>151.2</ele><time>1970-01-01T10:33:54Z</time></trkpt>
			<trkpt lat="55.558720" lon="39.147330"><ele>151.6</ele><time>1970-01-01T10:34:10Z</time></trkpt>
			<trkpt lat="55.556870" lon="39.122470"><ele>140.4</ele><time>1970-01-01T10:34:27Z</time></trkpt>
			<trkpt lat="55.556750" lon="39.120960"><ele>140.1</ele><time>1970-01-01T10:34:44Z</time></trkpt>
			<trkpt lat="55.556710" lon="39.120490"><ele>141.3</ele><time>1970-01-01T10:35:01Z</time></trkpt>
			<trkpt lat="55.556430" lon="39.116570"><ele>147.8</ele><time>1970-01-01T10:35:18Z</time></trkpt>
			<trkpt lat="55.556340" lon="39.115190"><ele>147.9</ele><time>1970-01-01T10:35:35Z</time></trkpt>
			<trkpt lat="55.556360" lon="39.114100"><ele>145.3</ele><time>1970-01-01T10:35:52Z</time></trkpt>
			<trkpt lat="55.556370" lon="39.113770"><ele>144.6</ele><time>1970-01-01T10:36:08Z</time></trkpt>
			<trkpt lat="55.556490" lon="39.112850"><ele>142.7</ele><time>1970-01-01T10:36:25Z</time></trkpt>
			<trkpt lat="55.556510" lon="39.112660"><ele>142.4</ele><time>1970-01-01T10:36:42Z</time></trkpt>
			<trkpt lat="55.556640" lon="39.112000"><ele>142.0</ele><time>1970-01-01T10:36:59Z</time></trkpt>
			<trkpt lat="55.556700" lon="39.111690"><ele>141.9</ele><time>1970-01-01T10:37:16Z</time></trkpt>
			<trkpt lat="55.557080" lon="39.110190"><ele>141.4</ele><time>1970-01-01T10:37:33Z</time></trkpt>
			<trkpt lat="55.558140" lon="39.106060"><ele>140.8</ele><time>1970-01-01T10:37:50Z</time></trkpt>
			<trkpt lat="55.558253" lon="39.106031"><ele>140.4</ele><time>1970-01-01T10:37:51Z</time></trkpt>
			<trkpt lat="55.558311" lon="39.105800"><ele>140.6</ele><time>1970-01-01T10:37:54Z</time></trkpt>
			<trkpt lat="55.558267" lon="39.105591"><ele>141.1</ele><time>1970-01-01T10:37:55Z</time></trkpt>
			<trkpt lat="55.558456" lon="39.104831"><ele>143.0</ele><time>1970-01-01T10:38:00Z</time></trkpt>
			<trkpt lat="55.558450" lon="39.104820"><ele>143.0</ele><time>1970-01-01T10:38:00Z</time></trkpt>
			<trkpt lat="55.558660" lon="39.104020"><ele>144.2</ele><time>1970-01-01T10:38:06Z</time></trkpt>
			<trkpt lat="55.558940" lon="39.102940"><ele>144.5</ele><time>1970-01-01T10:38:12Z</time></trkpt>
			<trkpt lat="55.559130" lon="39.102210"><ele>143.2</ele><time>1970-01-01T10:38:18Z</time></trkpt>
			<trkpt lat="55.559610" lon="39.100580"><ele>138.3</ele><time>1970-01-01T10:38:24Z</time></trkpt>
			<trkpt lat="55.559860" lon="39.099730"><ele>137.2</ele><time>1970-01-01T10:38:31Z</time></trkpt>
			<trkpt lat="55.560000" lon="39.099270"><ele>137.9</ele><time>1970-01-01T10:38:37Z</time></trkpt>
			<trkpt lat="55.561040" lon="39.096420"><ele>138.0</ele><time>1970-01-01T10:38:43Z</time></trkpt>
			<trkpt lat="55.561240" lon="39.095560"><ele>138.0</ele><time>1970-01-01T10:38:49Z</time></trkpt>
			<trkpt lat="55.561380" lon="39.094850"><ele>138.1</ele><time>1970-01-01T10:38:55Z</time></trkpt>
			<trkpt lat="55.561830" lon="39.091740"><ele>139.6</ele><time>1970-01-01T10:39:02Z</time></trkpt>
			<trkpt lat="55.563130" lon="39.081690"><ele>134.1</ele><time>1970-01-01T10:39:08Z</time></trkpt>
			<trkpt lat="55.563960" lon="39.075310"><ele>133.4</ele><time>1970-01-01T10:39:14Z</time></trkpt>
			<trkpt lat="55.564160" lon="39.073300"><ele>133.1</ele><time>1970-01-01T10:39:20Z</time></trkpt>
			<trkpt lat="55.564160" lon="39.072990"><ele>133.0</ele><time>1970-01-01T10:39:26Z</time></trkpt>
			<trkpt lat="55.564130" lon="39.071850"><ele>133.1</ele><time>1970-01-01T10:39:33Z</time></trkpt>
			<trkpt lat="55.564120" lon="39.071130"><ele>133.1</ele><time>1970-01-01T10:39:39Z</time></trkpt>
			<trkpt lat="55.564110" lon="39.070540"><ele>132.7</ele><time>1970-01-01T10:39:45Z</time></trkpt>
			<trkpt lat="55.564180" lon="39.063760"><ele>127.5</ele><time>1970-01-01T10:39:51Z</time></trkpt>
			<trkpt lat="55.564460" lon="39.051200"><ele>127.5</ele><time>1970-01-01T10:39:58Z</time></trkpt>
			<trkpt lat="55.564430" lon="39.049860"><ele>127.6</ele><time>1970-01-01T10:40:04Z</time></trkpt>
			<trkpt lat="55.564350" lon="39.048850"><ele>126.8</ele><time>1970-01-01T10:40:10Z</time></trkpt>
			<trkpt lat="55.563940" lon="39.045770"><ele>125.8</ele><time>1970-01-01T10:40:16Z</time></trkpt>
			<trkpt lat="55.563850" lon="39.044190"><ele>123.5</ele><time>1970-01-01T10:40:22Z</time></trkpt>
			<trkpt lat="55.564060" lon="39.030050"><ele>127.9</ele><time>1970-01-01T10:40:29Z</time></trkpt>
			<trkpt lat="55.564240" lon="39.020760"><ele>128.3</ele><time>1970-01-01T10:40:35Z</time></trkpt>
			<trkpt lat="55.564460" lon="39.005860"><ele>132.3</ele><time>1970-01-01T10:40:41Z</time></trkpt>
			<trkpt lat="55.564840" lon="38.983460"><ele>128.8</ele><time>1970-01-01T10:40:47Z</time></trkpt>
			<trkpt lat="55.564840" lon="38.983100"><ele>128.0</ele><time>1970-01-01T10:40:53Z</time></trkpt>
			<trkpt lat="55.567520" lon="38.979370"><ele>120.3</ele><time>1970-01-01T10:41:00Z</time></trkpt>
			<trkpt lat="55.567650" lon="38.979280"><ele>120.2</ele><time>1970-01-01T10:41:06Z</time></trkpt>
			<trkpt lat="55.567750" lon="38.979250"><ele>120.1</ele><time>1970-01-01T10:41:12Z</time></trkpt>
			<trkpt lat="55.567890" lon="38.979260"><ele>120.1</ele><time>1970-01-01T10:41:18Z</time></trkpt>
			<trkpt lat="55.568110" lon="38.979330"><ele>120.2</ele><time>1970-01-01T10:41:24Z</time></trkpt>
			<trkpt lat="55.568210" lon="38.979300"><ele>120.1</ele><time>1970-01-01T10:41:31Z</time></trkpt>
			<trkpt lat="55.568330" lon="38.979160"><ele>120.1</ele><time>1970-01-01T10:41:37Z</time></trkpt>
			<trkpt lat="55.569800" lon="38.976550"><ele>120.7</ele><time>1970-01-01T10:41:43Z</time></trkpt>
			<trkpt lat="55.570190" lon="38.975790"><ele>119.8</ele><time>1970-01-01T10:41:49Z</time></trkpt>
			<trkpt lat="55.570480" lon="38.975250"><ele>119.4</ele><time>1970-01-01T10:41:56Z</time></trkpt>
			<trkpt lat="55.570710" lon="38.974750"><ele>119.2</ele><time>1970-01-01T10:42:02Z</time></trkpt>
			<trkpt lat="55.571070" lon="38.973590"><ele>119.3</ele><time>1970-01-01T10:42:08Z</time></trkpt>
			<trkpt lat="55.571240" lon="38.972910"><ele>120.3</ele><time>1970-01-01T10:42:14Z</time></trkpt>
			<trkpt lat="55.571850" lon="38.970910"><ele>123.6</ele><time>1970-01-01T10:42:20Z</time></trkpt>
			<trkpt lat="55.574170" lon="38.963280"><ele>120.9</ele><time>1970-01-01T10:42:27Z</time></trkpt>
			<trkpt lat="55.574420" lon="38.961960"><ele>119.8</ele><time>1970-01-01T10:42:33Z</time></trkpt>
			<trkpt lat="55.575400" lon="38.956420"><ele>118.7</ele><time>1970-01-01T10:42:39Z</time></trkpt>
			<trkpt lat="55.575400" lon="38.956380"><ele>118.7</ele><time>1970-01-01T10:42:45Z</time></trkpt>
			<trkpt lat="55.575830" lon="38.953870"><ele>119.9</ele><time>1970-01-01T10:42:51Z</time></trkpt>
			<trkpt lat="55.576220" lon="38.951480"><ele>119.1</ele><time>1970-01-01T10:42:58Z</time></trkpt>
			<trkpt lat="55.576580" lon="38.949660"><ele>120.8</ele><time>1970-01-01T10:43:04Z</time></trkpt>
			<trkpt lat="55.577770" lon="38.944300"><ele>120.0</ele><time>1970-01-01T10:43:10Z</time></trkpt>
			<trkpt lat="55.578910" lon="38.939140"><ele>118.3</ele><time>1970-01-01T10:43:16Z</time></trkpt>
			<trkpt lat="55.579350" lon="38.937080"><ele>119.7</ele><time>1970-01-01T10:43:22Z</time></trkpt>
			<trkpt lat="55.579370" lon="38.936690"><ele>119.5</ele><time>1970-01-01T10:43:29Z</time></trkpt>
			<trkpt lat="55.579430" lon="38.935870"><ele>119.3</ele><time>1970-01-01T10:43:35Z</time></trkpt>
			<trkpt lat="55.579600" lon="38.933640"><ele>118.1</ele><time>1970-01-01T10:43:41Z</time></trkpt>
			<trkpt lat="55.579760" lon="38.931560"><ele>117.6</ele><time>1970-01-01T10:43:47Z</time></trkpt>
			<trkpt lat="55.579800" lon="38.930690"><ele>117.6</ele><time>1970-01-01T10:43:54Z</time></trkpt>
			<trkpt lat="55.579730" lon="38.929380"><ele>119.1</ele><time>1970-01-01T10:44:00Z</time></trkpt>
			<trkpt lat="55.579620" lon="38.928070"><ele>119.6</ele><time>1970-01-01T10:44:06Z</time></trkpt>
			<trkpt lat="55.579430" lon="38.925150"><ele>120.7</ele><time>1970-01-01T10:44:12Z</time></trkpt>
			<trkpt lat="55.579370" lon="38.924170"><ele>121.9</ele><time>1970-01-01T10:44:18Z</time></trkpt>
			<trkpt lat="55.579360" lon="38.924030"><ele>122.1</ele><time>1970-01-01T10:44:25Z</time></trkpt>
			<trkpt lat="55.579250" lon="38.922400"><ele>122.2</ele><time>1970-01-01T10:44:31Z</time></trkpt>
			<trkpt lat="55.579230" lon="38.922070"><ele>122.6</ele><time>1970-01-01T10:44:37Z</time></trkpt>
			<trkpt lat="55.579180" lon="38.921340"><ele>122.6</ele><time>1970-01-01T10:44:43Z</time></trkpt>
			<trkpt lat="55.579150" lon="38.920820"><ele>122.1</ele><time>1970-01-01T10:44:49Z</time></trkpt>
			<trkpt lat="55.579140" lon="38.920560"><ele>122.3</ele><time>1970-01-01T10:44:56Z</time></trkpt>
			<trkpt lat="55.579060" lon="38.919510"><ele>123.3</ele><time>1970-01-01T10:45:02Z</time></trkpt>
			<trkpt lat="55.578930" lon="38.917310"><ele>122.7</ele><time>1970-01-01T10:45:08Z</time></trkpt>
			<trkpt lat="55.578750" lon="38.914760"><ele>120.6</ele><time>1970-01-01T10:45:14Z</time></trkpt>
			<trkpt lat="55.578700" lon="38.914010"><ele>119.6</ele><time>1970-01-01T10:45:20Z</time></trkpt>
			<trkpt lat="55.578630" lon="38.912780"><ele>120.1</ele><time>1970-01-01T10:45:27Z</time></trkpt>
			<trkpt lat="55.578610" lon="38.912340"><ele>120.1</ele><time>1970-01-01T10:45:33Z</time></trkpt>
			<trkpt lat="55.577860" lon="38.903740"><ele>118.6</ele><time>1970-01-01T10:45:39Z</time></trkpt>
			<trkpt lat="55.577620" lon="38.901030"><ele>118.9</ele><time>1970-01-01T10:45:45Z</time></trkpt>
			<trkpt lat="55.577480" lon="38.899490"><ele>117.4</ele><time>1970-01-01T10:45:52Z</time></trkpt>
			<trkpt lat="55.577500" lon="38.899260"><ele>117.1</ele><time>1970-01-01T10:45:58Z</time></trkpt>
			<trkpt lat="55.577540" lon="38.899080"><ele>117.1</ele><time>1970-01-01T10:46:04Z</time></trkpt>
			<trkpt lat="55.577610" lon="38.898810"><ele>117.2</ele><time>1970-01-01T10:46:10Z</time></trkpt>
			<trkpt lat="55.577790" lon="38.898210"><ele>117.7</ele><time>1970-01-01T10:46:16Z</time></trkpt>
			<trkpt lat="55.577990" lon="38.897580"><ele>118.0</ele><time>1970-01-01T10:46:23Z</time></trkpt>
			<trkpt lat="55.578030" lon="38.897350"><ele>117.9</ele><time>1970-01-01T10:46:29Z</time></trkpt>
			<trkpt lat="55.578180" lon="38.896210"><ele>117.9</ele><time>1970-01-01T10:46:35Z</time></trkpt>
			<trkpt lat="55.578290" lon="38.894890"><ele>119.3</ele><time>1970-01-01T10:46:41Z</time></trkpt>
			<trkpt lat="55.578320" lon="38.894620"><ele>119.5</ele><time>1970-01-01T10:46:47Z</time></trkpt>
			<trkpt lat="55.578490" lon="38.892600"><ele>122.6</ele><time>1970-01-01T10:46:54Z</time></trkpt>
			<trkpt lat="55.578590" lon="38.891590"><ele>123.1</ele><time>1970-01-01T10:47:00Z</time></trkpt>
			<trkpt lat="55.578750" lon="38.890110"><ele>122.0</ele><time>1970-01-01T10:47:06Z</time></trkpt>
			<trkpt lat="55.578960" lon="38.889550"><ele>120.9</ele><time>1970-01-01T10:47:12Z</time></trkpt>
			<trkpt lat="55.579150" lon="38.889110"><ele>119.9</ele><time>1970-01-01T10:47:19Z</time></trkpt>
			<trkpt lat="55.579310" lon="38.888830"><ele>119.0</ele><time>1970-01-01T10:47:25Z</time></trkpt>
			<trkpt lat="55.580370" lon="38.884850"><ele>116.2</ele><time>1970-01-01T10:47:31Z</time></trkpt>
			<trkpt lat="55.580420" lon="38.884560"><ele>116.3</ele><time>1970-01-01T10:47:37Z</time></trkpt>
			<trkpt lat="55.580450" lon="38.884270"><ele>116.3</ele><time>1970-01-01T10:47:43Z</time></trkpt>
			<trkpt lat="55.580480" lon="38.883660"><ele>115.8</ele><time>1970-01-01T10:47:50Z</time></trkpt>
			<trkpt lat="55.580490" lon="38.881820"><ele>117.0</ele><time>1970-01-01T10:47:56Z</time></trkpt>
			<trkpt lat="55.580500" lon="38.881670"><ele>117.1</ele><time>1970-01-01T10:48:02Z</time></trkpt>
			<trkpt lat="55.580510" lon="38.881620"><ele>117.1</ele><time>1970-01-01T10:48:08Z</time></trkpt>
			<trkpt lat="55.580550" lon="38.881370"><ele>117.0</ele><time>1970-01-01T10:48:14Z</time></trkpt>
			<trkpt lat="55.580970" lon="38.880390"><ele>117.6</ele><time>1970-01-01T10:48:21Z</time></trkpt>
			<trkpt lat="55.581040" lon="38.880210"><ele>117.9</ele><time>1970-01-01T10:48:27Z</time></trkpt>
			<trkpt lat="55.581180" lon="38.880000"><ele>118.4</ele><time>1970-01-01T10:48:33Z</time></trkpt>
			<trkpt lat="55.581450" lon="38.879630"><ele>118.7</ele><time>1970-01-01T10:48:39Z</time></trkpt>
			<trkpt lat="55.581670" lon="38.879370"><ele>119.0</ele><time>1970-01-01T10:48:45Z</time></trkpt>
			<trkpt lat="55.581830" lon="38.879220"><ele>119.2</ele><time>1970-01-01T10:48:52Z</time></trkpt>
			<trkpt lat="55.581980" lon="38.879100"><ele>119.2</ele><time>1970-01-01T10:48:58Z</time></trkpt>
			<trkpt lat="55.582550" lon="38.878780"><ele>119.7</ele><time>1970-01-01T10:49:04Z</time></trkpt>
			<trkpt lat="55.582930" lon="38.878570"><ele>120.8</ele><time>1970-01-01T10:49:10Z</time></trkpt>
			<trkpt lat="55.583100" lon="38.878460"><ele>121.3</ele><time>1970-01-01T10:49:17Z</time></trkpt>
			<trkpt lat="55.583730" lon="38.878040"><ele>120.3</ele><time>1970-01-01T10:49:23Z</time></trkpt>
			<trkpt lat="55.586030" lon="38.876280"><ele>126.8</ele><time>1970-01-01T10:49:29Z</time></trkpt>
			<trkpt lat="55.588990" lon="38.873860"><ele>125.4</ele><time>1970-01-01T10:49:35Z</time></trkpt>
			<trkpt lat="55.589570" lon="38.873390"><ele>128.9</ele><time>1970-01-01T10:49:41Z</time></trkpt>
			<trkpt lat="55.589810" lon="38.873270"><ele>130.7</ele><time>1970-01-01T10:49:48Z</time></trkpt>
			<trkpt lat="55.597870" lon="38.869590"><ele>124.6</ele><time>1970-01-01T10:49:54Z</time></trkpt>
			<trkpt lat="55.600040" lon="38.868590"><ele>122.1</ele><time>1970-01-01T10:50:00Z</time></trkpt>
			<trkpt lat="55.600600" lon="38.868320"><ele>122.7</ele><time>1970-01-01T10:50:06Z</time></trkpt>
			<trkpt lat="55.601190" lon="38.868020"><ele>123.7</ele><time>1970-01-01T10:50:12Z</time></trkpt>
			<trkpt lat="55.601590" lon="38.867610"><ele>124.0</ele><time>1970-01-01T10:50:19Z</time></trkpt>
			<trkpt lat="55.602040" lon="38.866970"><ele>125.5</ele><time>1970-01-01T10:50:25Z</time></trkpt>
			<trkpt lat="55.602800" lon="38.865870"><ele>125.7</ele><time>1970-01-01T10:50:31Z</time></trkpt>
			<trkpt lat="55.602880" lon="38.865760"><ele>126.0</ele><time>1970-01-01T10:50:37Z</time></trkpt>
			<trkpt lat="55.603130" lon="38.865370"><ele>126.3</ele><time>1970-01-01T10:50:43Z</time></trkpt>
			<trkpt lat="55.603210" lon="38.865250"><ele>126.3</ele><time>1970-01-01T10:50:50Z</time></trkpt>
			<trkpt lat="55.603610" lon="38.864630"><ele>126.0</ele><time>1970-01-01T10:50:56Z</time></trkpt>
			<trkpt lat="55.604430" lon="38.863410"><ele>126.7</ele><time>1970-01-01T10:51:02Z</time></trkpt>
			<trkpt lat="55.605750" lon="38.861450"><ele>128.8</ele><time>1970-01-01T10:51:08Z</time></trkpt>
			<trkpt lat="55.607560" lon="38.858820"><ele>125.3</ele><time>1970-01-01T10:51:15Z</time></trkpt>
			<trkpt lat="55.607810" lon="38.858500"><ele>125.0</ele><time>1970-01-01T10:51:21Z</time></trkpt>
			<trkpt lat="55.607950" lon="38.858290"><ele>125.2</ele><time>1970-01-01T10:51:27Z</time></trkpt>
			<trkpt lat="55.608440" lon="38.857540"><ele>126.3</ele><time>1970-01-01T10:51:33Z</time></trkpt>
			<trkpt lat="55.608650" lon="38.857240"><ele>126.9</ele><time>1970-01-01T10:51:39Z</time></trkpt>
			<trkpt lat="55.608760" lon="38.857100"><ele>127.3</ele><time>1970-01-01T10:51:46Z</time></trkpt>
			<trkpt lat="55.608890" lon="38.856970"><ele>127.8</ele><time>1970-01-01T10:51:52Z</time></trkpt>
			<trkpt lat="55.609050" lon="38.856840"><ele>128.4</ele><time>1970-01-01T10:51:58Z</time></trkpt>
			<trkpt lat="55.610240" lon="38.855950"><ele>126.7</ele><time>1970-01-01T10:52:04Z</time></trkpt>
			<trkpt lat="55.610320" lon="38.855860"><ele>126.6</ele><time>1970-01-01T10:52:10Z</time></trkpt>
			<trkpt lat="55.610360" lon="38.855750"><ele>126.7</ele><time>1970-01-01T10:52:17Z</time></trkpt>
			<trkpt lat="55.610380" lon="38.855630"><ele>126.8</ele><time>1970-01-01T10:52:23Z</time></trkpt>
			<trkpt lat="55.610370" lon="38.855510"><ele>126.9</ele><time>1970-01-01T10:52:29Z</time></trkpt>
			<trkpt lat="55.610270" lon="38.854700"><ele>127.9</ele><time>1970-01-01T10:52:35Z</time></trkpt>
			<trkpt lat="55.610180" lon="38.853990"><ele>128.9</ele><time>1970-01-01T10:52:41Z</time></trkpt>
			<trkpt lat="55.610230" lon="38.853720"><ele>128.8</ele><time>1970-01-01T10:52:48Z</time></trkpt>
			<trkpt lat="55.610280" lon="38.853620"><ele>128.8</ele><time>1970-01-01T10:52:54Z</time></trkpt>
			<trkpt lat="55.610350" lon="38.853560"><ele>128.7</ele><time>1970-01-01T10:53:00Z</time></trkpt>
			<trkpt lat="55.610500" lon="38.853460"><ele>128.5</ele><time>1970-01-01T10:53:06Z</time></trkpt>
			<trkpt lat="55.611230" lon="38.853210"><ele>129.3</ele><time>1970-01-01T10:53:13Z</time></trkpt>
			<trkpt lat="55.613910" lon="38.852370"><ele>132.1</ele><time>1970-01-01T10:53:19Z</time></trkpt>
			<trkpt lat="55.615950" lon="38.851730"><ele>131.8</ele><time>1970-01-01T10:53:25Z</time></trkpt>
			<trkpt lat="55.617070" lon="38.851440"><ele>131.0</ele><time>1970-01-01T10:53:31Z</time></trkpt>
			<trkpt lat="55.617280" lon="38.851400"><ele>130.9</ele><time>1970-01-01T10:53:37Z</time></trkpt>
			<trkpt lat="55.617440" lon="38.851450"><ele>130.8</ele><time>1970-01-01T10:53:44Z</time></trkpt>
			<trkpt lat="55.617520" lon="38.851500"><ele>130.8</ele><time>1970-01-01T10:53:50Z</time></trkpt>
			<trkpt lat="55.617600" lon="38.851580"><ele>130.8</ele><time>1970-01-01T10:53:56Z</time></trkpt>
			<trkpt lat="55.617740" lon="38.851760"><ele>130.8</ele><time>1970-01-01T10:54:02Z</time></trkpt>
			<trkpt lat="55.617980" lon="38.852200"><ele>130.8</ele><time>1970-01-01T10:54:08Z</time></trkpt>
			<trkpt lat="55.618020" lon="38.852260"><ele>130.8</ele><time>1970-01-01T10:54:15Z</time></trkpt>
			<trkpt lat="55.618060" lon="38.852340"><ele>130.9</ele><time>1970-01-01T10:54:21Z</time></trkpt>
			<trkpt lat="55.618280" lon="38.852710"><ele>131.2</ele><time>1970-01-01T10:54:27Z</time></trkpt>
			<trkpt lat="55.618570" lon="38.853230"><ele>131.6</ele><time>1970-01-01T10:54:33Z</time></trkpt>
			<trkpt lat="55.619070" lon="38.854110"><ele>132.7</ele><time>1970-01-01T10:54:39Z</time></trkpt>
			<trkpt lat="55.619660" lon="38.855110"><ele>133.1</ele><time>1970-01-01T10:54:46Z</time></trkpt>
			<trkpt lat="55.620630" lon="38.856770"><ele>133.0</ele><time>1970-01-01T10:54:52Z</time></trkpt>
			<trkpt lat="55.621190" lon="38.857680"><ele>132.2</ele><time>1970-01-01T10:54:58Z</time></trkpt>
			<trkpt lat="55.621410" lon="38.858010"><ele>132.6</ele><time>1970-01-01T10:55:04Z</time></trkpt>
			<trkpt lat="55.621520" lon="38.858140"><ele>132.8</ele><time>1970-01-01T10:55:11Z</time></trkpt>
			<trkpt lat="55.621670" lon="38.858290"><ele>132.8</ele><time>1970-01-01T10:55:17Z</time></trkpt>
			<trkpt lat="55.621770" lon="38.858370"><ele>132.6</ele><time>1970-01-01T10:55:23Z</time></trkpt>
			<trkpt lat="55.621940" lon="38.858460"><ele>132.1</ele><time>1970-01-01T10:55:29Z</time></trkpt>
			<trkpt lat="55.622330" lon="38.858640"><ele>130.4</ele><time>1970-01-01T10:55:35Z</time></trkpt>
			<trkpt lat="55.623070" lon="38.859010"><ele>129.7</ele><time>1970-01-01T10:55:42Z</time></trkpt>
			<trkpt lat="55.623730" lon="38.859400"><ele>131.6</ele><time>1970-01-01T10:55:48Z</time></trkpt>
			<trkpt lat="55.625980" lon="38.860770"><ele>131.8</ele><time>1970-01-01T10:55:54Z</time></trkpt>
			<trkpt lat="55.628820" lon="38.862490"><ele>129.5</ele><time>1970-01-01T10:56:00Z</time></trkpt>
			<trkpt lat="55.629060" lon="38.862650"><ele>129.3</ele><time>1970-01-01T10:56:06Z</time></trkpt>
			<trkpt lat="55.629270" lon="38.862870"><ele>129.0</ele><time>1970-01-01T10:56:13Z</time></trkpt>
			<trkpt lat="55.629340" lon="38.862960"><ele>128.9</ele><time>1970-01-01T10:56:19Z</time></trkpt>
			<trkpt lat="55.629530" lon="38.863220"><ele>128.4</ele><time>1970-01-01T10:56:25Z</time></trkpt>
			<trkpt lat="55.630400" lon="38.864720"><ele>123.5</ele><time>1970-01-01T10:56:31Z</time></trkpt>
			<trkpt lat="55.631780" lon="38.867120"><ele>121.5</ele><time>1970-01-01T10:56:38Z</time></trkpt>
			<trkpt lat="55.632080" lon="38.867610"><ele>122.1</ele><time>1970-01-01T10:56:44Z</time></trkpt>
			<trkpt lat="55.632330" lon="38.867960"><ele>122.5</ele><time>1970-01-01T10:56:50Z</time></trkpt>
			<trkpt lat="55.632660" lon="38.868400"><ele>122.9</ele><time>1970-01-01T10:56:56Z</time></trkpt>
			<trkpt lat="55.632890" lon="38.868610"><ele>122.8</ele><time>1970-01-01T10:57:02Z</time></trkpt>
			<trkpt lat="55.633130" lon="38.868770"><ele>122.9</ele><time>1970-01-01T10:57:09Z</time></trkpt>
			<trkpt lat="55.633410" lon="38.868940"><ele>123.0</ele><time>1970-01-01T10:57:15Z</time></trkpt>
			<trkpt lat="55.633690" lon="38.869050"><ele>122.9</ele><time>1970-01-01T10:57:21Z</time></trkpt>
			<trkpt lat="55.633960" lon="38.869140"><ele>123.0</ele><time>1970-01-01T10:57:27Z</time></trkpt>
			<trkpt lat="55.634190" lon="38.869190"><ele>123.1</ele><time>1970-01-01T10:57:33Z</time></trkpt>
			<trkpt lat="55.634470" lon="38.869200"><ele>123.4</ele><time>1970-01-01T10:57:40Z</time></trkpt>
			<trkpt lat="55.634740" lon="38.869170"><ele>123.7</ele><time>1970-01-01T10:57:46Z</time></trkpt>
			<trkpt lat="55.635410" lon="38.868990"><ele>124.5</ele><time>1970-01-01T10:57:52Z</time></trkpt>
			<trkpt lat="55.636010" lon="38.868730"><ele>125.8</ele><time>1970-01-01T10:57:58Z</time></trkpt>
			<trkpt lat="55.636220" lon="38.868600"><ele>126.3</ele><time>1970-01-01T10:58:04Z</time></trkpt>
			<trkpt lat="55.636430" lon="38.868450"><ele>126.7</ele><time>1970-01-01T10:58:11Z</time></trkpt>
			<trkpt lat="55.636660" lon="38.868160"><ele>126.6</ele><time>1970-01-01T10:58:17Z</time></trkpt>
			<trkpt lat="55.636700" lon="38.868110"><ele>126.5</ele><time>1970-01-01T10:58:23Z</time></trkpt>
			<trkpt lat="55.636750" lon="38.868050"><ele>126.4</ele><time>1970-01-01T10:58:29Z</time></trkpt>
			<trkpt lat="55.636860" lon="38.867850"><ele>126.2</ele><time>1970-01-01T10:58:36Z</time></trkpt>
			<trkpt lat="55.636890" lon="38.867800"><ele>126.2</ele><time>1970-01-01T10:58:42Z</time></trkpt>
			<trkpt lat="55.636940" lon="38.867700"><ele>126.1</ele><time>1970-01-01T10:58:48Z</time></trkpt>
			<trkpt lat="55.637220" lon="38.867200"><ele>126.5</ele><time>1970-01-01T10:58:54Z</time></trkpt>
			<trkpt lat="55.637710" lon="38.866380"><ele>127.5</ele><time>1970-01-01T10:59:00Z</time></trkpt>
			<trkpt lat="55.638350" lon="38.865370"><ele>126.4</ele><time>1970-01-01T10:59:07Z</time></trkpt>
			<trkpt lat="55.638620" lon="38.864920"><ele>126.0</ele><time>1970-01-01T10:59:13Z</time></trkpt>
			<trkpt lat="55.640530" lon="38.861790"><ele>126.0</ele><time>1970-01-01T10:59:19Z</time></trkpt>
			<trkpt lat="55.640880" lon="38.861280"><ele>126.0</ele><time>1970-01-01T10:59:25Z</time></trkpt>
			<trkpt lat="55.641160" lon="38.860900"><ele>126.0</ele><time>1970-01-01T10:59:31Z</time></trkpt>
			<trkpt lat="55.641240" lon="38.860820"><ele>126.0</ele><time>1970-01-01T10:59:38Z</time></trkpt>
			<trkpt lat="55.641320" lon="38.860730"><ele>126.0</ele><time>1970-01-01T10:59:44Z</time></trkpt>
			<trkpt lat="55.641640" lon="38.860370"><ele>126.0</ele><time>1970-01-01T10:59:50Z</time></trkpt>
			<trkpt lat="55.641920" lon="38.860090"><ele>126.3</ele><time>1970-01-01T10:59:56Z</time></trkpt>
			<trkpt lat="55.642090" lon="38.859940"><ele>126.4</ele><time>1970-01-01T11:00:02Z</time></trkpt>
			<trkpt lat="55.643220" lon="38.859070"><ele>126.7</ele><time>1970-01-01T11:00:09Z</time></trkpt>
			<trkpt lat="55.643380" lon="38.858940"><ele>126.7</ele><time>1970-01-01T11:00:15Z</time></trkpt>
			<trkpt lat="55.643600" lon="38.858750"><ele>126.5</ele><time>1970-01-01T11:00:21Z</time></trkpt>
			<trkpt lat="55.643940" lon="38.858410"><ele>126.1</ele><time>1970-01-01T11:00:27Z</time></trkpt>
			<trkpt lat="55.644240" lon="38.858040"><ele>126.4</ele><time>1970-01-01T11:00:34Z</time></trkpt>
			<trkpt lat="55.644570" lon="38.857560"><ele>127.0</ele><time>1970-01-01T11:00:40Z</time></trkpt>
			<trkpt lat="55.645630" lon="38.856040"><ele>128.8</ele><time>1970-01-01T11:00:46Z</time></trkpt>
			<trkpt lat="55.646340" lon="38.854980"><ele>130.2</ele><time>1970-01-01T11:00:52Z</time></trkpt>
			<trkpt lat="55.647490" lon="38.853250"><ele>132.1</ele><time>1970-01-01T11:00:58Z</time></trkpt>
			<trkpt lat="55.647680" lon="38.852870"><ele>132.9</ele><time>1970-01-01T11:01:05Z</time></trkpt>
			<trkpt lat="55.647850" lon="38.852430"><ele>133.4</ele><time>1970-01-01T11:01:11Z</time></trkpt>
			<trkpt lat="55.649820" lon="38.846450"><ele>134.9</ele><time>1970-01-01T11:01:17Z</time></trkpt>
			<trkpt lat="55.650060" lon="38.845570"><ele>134.0</ele><time>1970-01-01T11:01:23Z</time></trkpt>
			<trkpt lat="55.651430" lon="38.839850"><ele>127.4</ele><time>1970-01-01T11:01:29Z</time></trkpt>
			<trkpt lat="55.651840" lon="38.837450"><ele>124.0</ele><time>1970-01-01T11:01:36Z</time></trkpt>
			<trkpt lat="55.651860" lon="38.837330"><ele>124.0</ele><time>1970-01-01T11:01:42Z</time></trkpt>
			<trkpt lat="55.653400" lon="38.828200"><ele>125.2</ele><time>1970-01-01T11:01:48Z</time></trkpt>
			<trkpt lat="55.653660" lon="38.826470"><ele>128.9</ele><time>1970-01-01T11:01:54Z</time></trkpt>
			<trkpt lat="55.653810" lon="38.825430"><ele>131.7</ele><time>1970-01-01T11:02:00Z</time></trkpt>
			<trkpt lat="55.654120" lon="38.823110"><ele>132.7</ele><time>1970-01-01T11:02:07Z</time></trkpt>
			<trkpt lat="55.654450" lon="38.820640"><ele>134.0</ele><time>1970-01-01T11:02:13Z</time></trkpt>
			<trkpt lat="55.654530" lon="38.820280"><ele>134.0</ele><time>1970-01-01T11:02:19Z</time></trkpt>
			<trkpt lat="55.654630" lon="38.819930"><ele>133.9</ele><time>1970-01-01T11:02:25Z</time></trkpt>
			<trkpt lat="55.654770" lon="38.819580"><ele>133.9</ele><time>1970-01-01T11:02:32Z</time></trkpt>
			<trkpt lat="55.655050" lon="38.819020"><ele>134.2</ele><time>1970-01-01T11:02:38Z</time></trkpt>
			<trkpt lat="55.661180" lon="38.808800"><ele>137.5</ele><time>1970-01-01T11:02:44Z</time></trkpt>
			<trkpt lat="55.663340" lon="38.805120"><ele>138.7</ele><time>1970-01-01T11:02:50Z</time></trkpt>
			<trkpt lat="55.663570" lon="38.804660"><ele>138.7</ele><time>1970-01-01T11:02:56Z</time></trkpt>
			<trkpt lat="55.663730" lon="38.804260"><ele>138.5</ele><time>1970-01-01T11:03:03Z</time></trkpt>
			<trkpt lat="55.663960" lon="38.803500"><ele>138.1</ele><time>1970-01-01T11:03:09Z</time></trkpt>
			<trkpt lat="55.664050" lon="38.803190"><ele>138.1</ele><time>1970-01-01T11:03:15Z</time></trkpt>
			<trkpt lat="55.664670" lon="38.800890"><ele>139.9</ele><time>1970-01-01T11:03:21Z</time></trkpt>
			<trkpt lat="55.664780" lon="38.800500"><ele>140.1</ele><time>1970-01-01T11:03:27Z</time></trkpt>
			<trkpt lat="55.665180" lon="38.799050"><ele>139.6</ele><time>1970-01-01T11:03:34Z</time></trkpt>
			<trkpt lat="55.665380" lon="38.798270"><ele>139.2</ele><time>1970-01-01T11:03:40Z</time></trkpt>
			<trkpt lat="55.665540" lon="38.797540"><ele>139.3</ele><time>1970-01-01T11:03:46Z</time></trkpt>
			<trkpt lat="55.665610" lon="38.797040"><ele>138.5</ele><time>1970-01-01T11:03:52Z</time></trkpt>
			<trkpt lat="55.665710" lon="38.796060"><ele>137.6</ele><time>1970-01-01T11:03:59Z</time></trkpt>
			<trkpt lat="55.666070" lon="38.791840"><ele>140.2</ele><time>1970-01-01T11:04:05Z</time></trkpt>
			<trkpt lat="55.666360" lon="38.788560"><ele>140.3</ele><time>1970-01-01T11:04:11Z</time></trkpt>
			<trkpt lat="55.666450" lon="38.787770"><ele>140.1</ele><time>1970-01-01T11:04:17Z</time></trkpt>
			<trkpt lat="55.666550" lon="38.787220"><ele>139.1</ele><time>1970-01-01T11:04:23Z</time></trkpt>
			<trkpt lat="55.666700" lon="38.786630"><ele>137.9</ele><time>1970-01-01T11:04:30Z</time></trkpt>
			<trkpt lat="55.666940" lon="38.785890"><ele>137.0</ele><time>1970-01-01T11:04:36Z</time></trkpt>
			<trkpt lat="55.667300" lon="38.784920"><ele>136.3</ele><time>1970-01-01T11:04:42Z</time></trkpt>
			<trkpt lat="55.667610" lon="38.784080"><ele>135.7</ele><time>1970-01-01T11:04:48Z</time></trkpt>
			<trkpt lat="55.667970" lon="38.783150"><ele>135.8</ele><time>1970-01-01T11:04:54Z</time></trkpt>
			<trkpt lat="55.668270" lon="38.782290"><ele>137.2</ele><time>1970-01-01T11:05:01Z</time></trkpt>
			<trkpt lat="55.668460" lon="38.781620"><ele>137.8</ele><time>1970-01-01T11:05:07Z</time></trkpt>
			<trkpt lat="55.668660" lon="38.780850"><ele>137.7</ele><time>1970-01-01T11:05:13Z</time></trkpt>
			<trkpt lat="55.668880" lon="38.779760"><ele>138.2</ele><time>1970-01-01T11:05:19Z</time></trkpt>
			<trkpt lat="55.669280" lon="38.777480"><ele>139.3</ele><time>1970-01-01T11:05:25Z</time></trkpt>
			<trkpt lat="55.669420" lon="38.776840"><ele>138.2</ele><time>1970-01-01T11:05:32Z</time></trkpt>
			<trkpt lat="55.669450" lon="38.776710"><ele>138.0</ele><time>1970-01-01T11:05:38Z</time></trkpt>
			<trkpt lat="55.669510" lon="38.776480"><ele>137.8</ele><time>1970-01-01T11:05:44Z</time></trkpt>
			<trkpt lat="55.669600" lon="38.776160"><ele>137.4</ele><time>1970-01-01T11:05:50Z</time></trkpt>
			<trkpt lat="55.670340" lon="38.773970"><ele>137.4</ele><time>1970-01-01T11:05:57Z</time></trkpt>
			<trkpt lat="55.670530" lon="38.773360"><ele>137.7</ele><time>1970-01-01T11:06:03Z</time></trkpt>
			<trkpt lat="55.670730" lon="38.772570"><ele>138.1</ele><time>1970-01-01T11:06:09Z</time></trkpt>
			<trkpt lat="55.671240" lon="38.770280"><ele>139.7</ele><time>1970-01-01T11:06:15Z</time></trkpt>
			<trkpt lat="55.671690" lon="38.768070"><ele>138.9</ele><time>1970-01-01T11:06:21Z</time></trkpt>
			<trkpt lat="55.671730" lon="38.767830"><ele>138.7</ele><time>1970-01-01T11:06:28Z</time></trkpt>
			<trkpt lat="55.671960" lon="38.766700"><ele>136.6</ele><time>1970-01-01T11:06:34Z</time></trkpt>
			<trkpt lat="55.672030" lon="38.766440"><ele>136.1</ele><time>1970-01-01T11:06:40Z</time></trkpt>
			<trkpt lat="55.672100" lon="38.766250"><ele>135.7</ele><time>1970-01-01T11:06:46Z</time></trkpt>
			<trkpt lat="55.672170" lon="38.766110"><ele>135.3</ele><time>1970-01-01T11:06:52Z</time></trkpt>
			<trkpt lat="55.672280" lon="38.765940"><ele>134.8</ele><time>1970-01-01T11:06:59Z</time></trkpt>
			<trkpt lat="55.672450" lon="38.765740"><ele>134.3</ele><time>1970-01-01T11:07:05Z</time></trkpt>
			<trkpt lat="55.673220" lon="38.764820"><ele>133.3</ele><time>1970-01-01T11:07:11Z</time></trkpt>
			<trkpt lat="55.674150" lon="38.763760"><ele>131.6</ele><time>1970-01-01T11:07:17Z</time></trkpt>
			<trkpt lat="55.674580" lon="38.763170"><ele>132.6</ele><time>1970-01-01T11:07:23Z</time></trkpt>
			<trkpt lat="55.674880" lon="38.762640"><ele>133.0</ele><time>1970-01-01T11:07:30Z</time></trkpt>
			<trkpt lat="55.675110" lon="38.762090"><ele>133.9</ele><time>1970-01-01T11:07:36Z</time></trkpt>
			<trkpt lat="55.675310" lon="38.761380"><ele>135.2</ele><time>1970-01-01T11:07:42Z</time></trkpt>
			<trkpt lat="55.675650" lon="38.759900"><ele>135.9</ele><time>1970-01-01T11:07:48Z</time></trkpt>
			<trkpt lat="55.675700" lon="38.759440"><ele>136.6</ele><time>1970-01-01T11:07:55Z</time></trkpt>
			<trkpt lat="55.675700" lon="38.758690"><ele>137.0</ele><time>1970-01-01T11:08:01Z</time></trkpt>
			<trkpt lat="55.675730" lon="38.757770"><ele>137.7</ele><time>1970-01-01T11:08:07Z</time></trkpt>
			<trkpt lat="55.675830" lon="38.756860"><ele>138.0</ele><time>1970-01-01T11:08:13Z</time></trkpt>
			<trkpt lat="55.676090" lon="38.755080"><ele>137.4</ele><time>1970-01-01T11:08:19Z</time></trkpt>
			<trkpt lat="55.676370" lon="38.753370"><ele>137.0</ele><time>1970-01-01T11:08:26Z</time></trkpt>
			<trkpt lat="55.677470" lon="38.747210"><ele>139.1</ele><time>1970-01-01T11:08:32Z</time></trkpt>
			<trkpt lat="55.678190" lon="38.744120"><ele>142.1</ele><time>1970-01-01T11:08:38Z</time></trkpt>
			<trkpt lat="55.678330" lon="38.743290"><ele>140.3</ele><time>1970-01-01T11:08:44Z</time></trkpt>
			<trkpt lat="55.678440" lon="38.742390"><ele>141.8</ele><time>1970-01-01T11:08:50Z</time></trkpt>
			<trkpt lat="55.678580" lon="38.741720"><ele>144.4</ele><time>1970-01-01T11:08:57Z</time></trkpt>
			<trkpt lat="55.678700" lon="38.741320"><ele>144.1</ele><time>1970-01-01T11:09:03Z</time></trkpt>
			<trkpt lat="55.679930" lon="38.738620"><ele>138.6</ele><time>1970-01-01T11:09:09Z</time></trkpt>
			<trkpt lat="55.680300" lon="38.737810"><ele>136.0</ele><time>1970-01-01T11:09:15Z</time></trkpt>
			<trkpt lat="55.680660" lon="38.737170"><ele>135.3</ele><time>1970-01-01T11:09:21Z</time></trkpt>
			<trkpt lat="55.680810" lon="38.736850"><ele>135.3</ele><time>1970-01-01T11:09:28Z</time></trkpt>
			<trkpt lat="55.681020" lon="38.736510"><ele>136.3</ele><time>1970-01-01T11:09:34Z</time></trkpt>
			<trkpt lat="55.681210" lon="38.736260"><ele>137.8</ele><time>1970-01-01T11:09:40Z</time></trkpt>
			<trkpt lat="55.681490" lon="38.735980"><ele>139.8</ele><time>1970-01-01T11:09:46Z</time></trkpt>
			<trkpt lat="55.682040" lon="38.735470"><ele>142.6</ele><time>1970-01-01T11:09:53Z</time></trkpt>
			<trkpt lat="55.685280" lon="38.732920"><ele>141.2</ele><time>1970-01-01T11:09:59Z</time></trkpt>
			<trkpt lat="55.685680" lon="38.732550"><ele>141.0</ele><time>1970-01-01T11:10:05Z</time></trkpt>
			<trkpt lat="55.685980" lon="38.732150"><ele>140.4</ele><time>1970-01-01T11:10:11Z</time></trkpt>
			<trkpt lat="55.686610" lon="38.731240"><ele>138.1</ele><time>1970-01-01T11:10:17Z</time></trkpt>
			<trkpt lat="55.686920" lon="38.730820"><ele>136.7</ele><time>1970-01-01T11:10:24Z</time></trkpt>
			<trkpt lat="55.687070" lon="38.730660"><ele>136.3</ele><time>1970-01-01T11:10:30Z</time></trkpt>
			<trkpt lat="55.687200" lon="38.730580"><ele>136.1</ele><time>1970-01-01T11:10:36Z</time></trkpt>
			<trkpt lat="55.688050" lon="38.730210"><ele>136.4</ele><time>1970-01-01T11:10:42Z</time></trkpt>
			<trkpt lat="55.688220" lon="38.730150"><ele>136.5</ele><time>1970-01-01T11:10:48Z</time></trkpt>
			<trkpt lat="55.689090" lon="38.729800"><ele>136.9</ele><time>1970-01-01T11:10:55Z</time></trkpt>
			<trkpt lat="55.689290" lon="38.729720"><ele>136.3</ele><time>1970-01-01T11:11:01Z</time></trkpt>
			<trkpt lat="55.689690" lon="38.729610"><ele>134.6</ele><time>1970-01-01T11:11:07Z</time></trkpt>
			<trkpt lat="55.690460" lon="38.729600"><ele>134.2</ele><time>1970-01-01T11:11:13Z</time></trkpt>
			<trkpt lat="55.695150" lon="38.729520"><ele>128.6</ele><time>1970-01-01T11:11:19Z</time></trkpt>
			<trkpt lat="55.695330" lon="38.729490"><ele>128.2</ele><time>1970-01-01T11:11:26Z</time></trkpt>
			<trkpt lat="55.695390" lon="38.729480"><ele>128.1</ele><time>1970-01-01T11:11:32Z</time></trkpt>
			<trkpt lat="55.696000" lon="38.729220"><ele>127.1</ele><time>1970-01-01T11:11:38Z</time></trkpt>
			<trkpt lat="55.697050" lon="38.728650"><ele>127.4</ele><time>1970-01-01T11:11:44Z</time></trkpt>
			<trkpt lat="55.697270" lon="38.728600"><ele>128.0</ele><time>1970-01-01T11:11:51Z</time></trkpt>
			<trkpt lat="55.697420" lon="38.728600"><ele>128.4</ele><time>1970-01-01T11:11:57Z</time></trkpt>
			<trkpt lat="55.699320" lon="38.728950"><ele>125.8</ele><time>1970-01-01T11:12:03Z</time></trkpt>
			<trkpt lat="55.700540" lon="38.729070"><ele>127.8</ele><time>1970-01-01T11:12:09Z</time></trkpt>
			<trkpt lat="55.700700" lon="38.729060"><ele>127.8</ele><time>1970-01-01T11:12:15Z</time></trkpt>
			<trkpt lat="55.700850" lon="38.729020"><ele>127.7</ele><time>1970-01-01T11:12:22Z</time></trkpt>
			<trkpt lat="55.701010" lon="38.728950"><ele>127.2</ele><time>1970-01-01T11:12:28Z</time></trkpt>
			<trkpt lat="55.701180" lon="38.728830"><ele>126.5</ele><time>1970-01-01T11:12:34Z</time></trkpt>
			<trkpt lat="55.701690" lon="38.728250"><ele>125.0</ele><time>1970-01-01T11:12:40Z</time></trkpt>
			<trkpt lat="55.702250" lon="38.727600"><ele>124.1</ele><time>1970-01-01T11:12:46Z</time></trkpt>
			<trkpt lat="55.702900" lon="38.726870"><ele>124.0</ele><time>1970-01-01T11:12:53Z</time></trkpt>
			<trkpt lat="55.703090" lon="38.726710"><ele>124.0</ele><time>1970-01-01T11:12:59Z</time></trkpt>
			<trkpt lat="55.703310" lon="38.726570"><ele>124.1</ele><time>1970-01-01T11:13:05Z</time></trkpt>
			<trkpt lat="55.703390" lon="38.726530"><ele>124.3</ele><time>1970-01-01T11:13:11Z</time></trkpt>
			<trkpt lat="55.703530" lon="38.726490"><ele>124.8</ele><time>1970-01-01T11:13:18Z</time></trkpt>
			<trkpt lat="55.703810" lon="38.726450"><ele>125.7</ele><time>1970-01-01T11:13:24Z</time></trkpt>
			<trkpt lat="55.704600" lon="38.726350"><ele>127.7</ele><time>1970-01-01T11:13:30Z</time></trkpt>
			<trkpt lat="55.705210" lon="38.726270"><ele>128.8</ele><time>1970-01-01T11:13:36Z</time></trkpt>
			<trkpt lat="55.705950" lon="38.726180"><ele>129.6</ele><time>1970-01-01T11:13:42Z</time></trkpt>
			<trkpt lat="55.708100" lon="38.725960"><ele>131.2</ele><time>1970-01-01T11:13:49Z</time></trkpt>
			<trkpt lat="55.710170" lon="38.725770"><ele>132.1</ele><time>1970-01-01T11:13:55Z</time></trkpt>
			<trkpt lat="55.711060" lon="38.725680"><ele>132.7</ele><time>1970-01-01T11:14:01Z</time></trkpt>
			<trkpt lat="55.711460" lon="38.725610"><ele>132.2</ele><time>1970-01-01T11:14:07Z</time></trkpt>
			<trkpt lat="55.711620" lon="38.725550"><ele>132.0</ele><time>1970-01-01T11:14:13Z</time></trkpt>
			<trkpt lat="55.711750" lon="38.725470"><ele>131.9</ele><time>1970-01-01T11:14:20Z</time></trkpt>
			<trkpt lat="55.711900" lon="38.725320"><ele>131.6</ele><time>1970-01-01T11:14:26Z</time></trkpt>
			<trkpt lat="55.711990" lon="38.725100"><ele>131.3</ele><time>1970-01-01T11:14:32Z</time></trkpt>
			<trkpt lat="55.712050" lon="38.724800"><ele>131.0</ele><time>1970-01-01T11:14:38Z</time></trkpt>
			<trkpt lat="55.712050" lon="38.724430"><ele>130.8</ele><time>1970-01-01T11:14:44Z</time></trkpt>
			<trkpt lat="55.711930" lon="38.721630"><ele>129.6</ele><time>1970-01-01T11:14:51Z</time></trkpt>
			<trkpt lat="55.711980" lon="38.721380"><ele>129.2</ele><time>1970-01-01T11:14:57Z</time></trkpt>
			<trkpt lat="55.712060" lon="38.721140"><ele>128.9</ele><time>1970-01-01T11:15:03Z</time></trkpt>
			<trkpt lat="55.712150" lon="38.720960"><ele>128.7</ele><time>1970-01-01T11:15:09Z</time></trkpt>
			<trkpt lat="55.712430" lon="38.720550"><ele>129.4</ele><time>1970-01-01T11:15:16Z</time></trkpt>
			<trkpt lat="55.712490" lon="38.720450"><ele>129.8</ele><time>1970-01-01T11:15:22Z</time></trkpt>
			<trkpt lat="55.713200" lon="38.719500"><ele>129.7</ele><time>1970-01-01T11:15:28Z</time></trkpt>
			<trkpt lat="55.717650" lon="38.713460"><ele>130.7</ele><time>1970-01-01T11:15:34Z</time></trkpt>
			<trkpt lat="55.718410" lon="38.712450"><ele>133.3</ele><time>1970-01-01T11:15:40Z</time></trkpt>
			<trkpt lat="55.718560" lon="38.712250"><ele>133.8</ele><time>1970-01-01T11:15:47Z</time></trkpt>
			<trkpt lat="55.719430" lon="38.711090"><ele>132.5</ele><time>1970-01-01T11:15:53Z</time></trkpt>
			<trkpt lat="55.720690" lon="38.709740"><ele>136.4</ele><time>1970-01-01T11:15:59Z</time></trkpt>
			<trkpt lat="55.721540" lon="38.708760"><ele>139.8</ele><time>1970-01-01T11:16:05Z</time></trkpt>
			<trkpt lat="55.721930" lon="38.708240"><ele>140.3</ele><time>1970-01-01T11:16:11Z</time></trkpt>
			<trkpt lat="55.722850" lon="38.706910"><ele>140.0</ele><time>1970-01-01T11:16:18Z</time></trkpt>
			<trkpt lat="55.723550" lon="38.706030"><ele>140.5</ele><time>1970-01-01T11:16:24Z</time></trkpt>
			<trkpt lat="55.723830" lon="38.705700"><ele>141.3</ele><time>1970-01-01T11:16:30Z</time></trkpt>
			<trkpt lat="55.724060" lon="38.705480"><ele>141.8</ele><time>1970-01-01T11:16:36Z</time></trkpt>
			<trkpt lat="55.724130" lon="38.705430"><ele>141.9</ele><time>1970-01-01T11:16:42Z</time></trkpt>
			<trkpt lat="55.724230" lon="38.705360"><ele>142.0</ele><time>1970-01-01T11:16:49Z</time></trkpt>
			<trkpt lat="55.724610" lon="38.705170"><ele>141.6</ele><time>1970-01-01T11:16:55Z</time></trkpt>
			<trkpt lat="55.725180" lon="38.704870"><ele>141.3</ele><time>1970-01-01T11:17:01Z</time></trkpt>
			<trkpt lat="55.725720" lon="38.704560"><ele>141.6</ele><time>1970-01-01T11:17:07Z</time></trkpt>
			<trkpt lat="55.726080" lon="38.704300"><ele>141.7</ele><time>1970-01-01T11:17:14Z</time></trkpt>
			<trkpt lat="55.726560" lon="38.703890"><ele>142.1</ele><time>1970-01-01T11:17:20Z</time></trkpt>
			<trkpt lat="55.727540" lon="38.703070"><ele>141.2</ele><time>1970-01-01T11:17:26Z</time></trkpt>
			<trkpt lat="55.728220" lon="38.702520"><ele>138.5</ele><time>1970-01-01T11:17:32Z</time></trkpt>
			<trkpt lat="55.728540" lon="38.702290"><ele>137.0</ele><time>1970-01-01T11:17:38Z</time></trkpt>
			<trkpt lat="55.729050" lon="38.702040"><ele>135.2</ele><time>1970-01-01T11:17:45Z</time></trkpt>
			<trkpt lat="55.729390" lon="38.701980"><ele>134.4</ele><time>1970-01-01T11:17:51Z</time></trkpt>
			<trkpt lat="55.729670" lon="38.701970"><ele>133.9</ele><time>1970-01-01T11:17:57Z</time></trkpt>
			<trkpt lat="55.729960" lon="38.702050"><ele>133.6</ele><time>1970-01-01T11:18:03Z</time></trkpt>
			<trkpt lat="55.730190" lon="38.702120"><ele>134.0</ele><time>1970-01-01T11:18:09Z</time></trkpt>
			<trkpt lat="55.730450" lon="38.702240"><ele>134.6</ele><time>1970-01-01T11:18:16Z</time></trkpt>
			<trkpt lat="55.730870" lon="38.702510"><ele>134.9</ele><time>1970-01-01T11:18:22Z</time></trkpt>
			<trkpt lat="55.731150" lon="38.702750"><ele>134.7</ele><time>1970-01-01T11:18:28Z</time></trkpt>
			<trkpt lat="55.732920" lon="38.704300"><ele>136.0</ele><time>1970-01-01T11:18:34Z</time></trkpt>
			<trkpt lat="55.733200" lon="38.704540"><ele>135.3</ele><time>1970-01-01T11:18:40Z</time></trkpt>
			<trkpt lat="55.733560" lon="38.704780"><ele>136.0</ele><time>1970-01-01T11:18:47Z</time></trkpt>
			<trkpt lat="55.733880" lon="38.704930"><ele>137.1</ele><time>1970-01-01T11:18:53Z</time></trkpt>
			<trkpt lat="55.734170" lon="38.705010"><ele>137.6</ele><time>1970-01-01T11:18:59Z</time></trkpt>
			<trkpt lat="55.734470" lon="38.705040"><ele>136.5</ele><time>1970-01-01T11:19:05Z</time></trkpt>
			<trkpt lat="55.734980" lon="38.704970"><ele>134.4</ele><time>1970-01-01T11:19:12Z</time></trkpt>
			<trkpt lat="55.736040" lon="38.704730"><ele>136.7</ele><time>1970-01-01T11:19:18Z</time></trkpt>
			<trkpt lat="55.736650" lon="38.704580"><ele>135.2</ele><time>1970-01-01T11:19:24Z</time></trkpt>
			<trkpt lat="55.736930" lon="38.704470"><ele>135.3</ele><time>1970-01-01T11:19:30Z</time></trkpt>
			<trkpt lat="55.737440" lon="38.704210"><ele>135.9</ele><time>1970-01-01T11:19:36Z</time></trkpt>
			<trkpt lat="55.738390" lon="38.703610"><ele>131.9</ele><time>1970-01-01T11:19:43Z</time></trkpt>
			<trkpt lat="55.738680" lon="38.703430"><ele>131.5</ele><time>1970-01-01T11:19:49Z</time></trkpt>
			<trkpt lat="55.739000" lon="38.703200"><ele>130.7</ele><time>1970-01-01T11:19:55Z</time></trkpt>
			<trkpt lat="55.739400" lon="38.702860"><ele>130.7</ele><time>1970-01-01T11:20:01Z</time></trkpt>
			<trkpt lat="55.740780" lon="38.701680"><ele>133.8</ele><time>1970-01-01T11:20:07Z</time></trkpt>
			<trkpt lat="55.740910" lon="38.701580"><ele>133.8</ele><time>1970-01-01T11:20:14Z</time></trkpt>
			<trkpt lat="55.741130" lon="38.701470"><ele>133.5</ele><time>1970-01-01T11:20:20Z</time></trkpt>
			<trkpt lat="55.741350" lon="38.701410"><ele>133.4</ele><time>1970-01-01T11:20:26Z</time></trkpt>
			<trkpt lat="55.741600" lon="38.701400"><ele>133.4</ele><time>1970-01-01T11:20:32Z</time></trkpt>
			<trkpt lat="55.743180" lon="38.701670"><ele>133.6</ele><time>1970-01-01T11:20:38Z</time></trkpt>
			<trkpt lat="55.744130" lon="38.701910"><ele>133.8</ele><time>1970-01-01T11:20:45Z</time></trkpt>
			<trkpt lat="55.745400" lon="38.702290"><ele>131.9</ele><time>1970-01-01T11:20:51Z</time></trkpt>
			<trkpt lat="55.747220" lon="38.702840"><ele>132.7</ele><time>1970-01-01T11:20:57Z</time></trkpt>
			<trkpt lat="55.748180" lon="38.703120"><ele>132.2</ele><time>1970-01-01T11:21:03Z</time></trkpt>
			<trkpt lat="55.749630" lon="38.703550"><ele>130.9</ele><time>1970-01-01T11:21:10Z</time></trkpt>
			<trkpt lat="55.749870" lon="38.703570"><ele>130.7</ele><time>1970-01-01T11:21:16Z</time></trkpt>
			<trkpt lat="55.750010" lon="38.703540"><ele>130.6</ele><time>1970-01-01T11:21:22Z</time></trkpt>
			<trkpt lat="55.750060" lon="38.703530"><ele>130.6</ele><time>1970-01-01T11:21:28Z</time></trkpt>
			<trkpt lat="55.750350" lon="38.703350"><ele>130.9</ele><time>1970-01-01T11:21:34Z</time></trkpt>
			<trkpt lat="55.750560" lon="38.703160"><ele>131.1</ele><time>1970-01-01T11:21:41Z</time></trkpt>
			<trkpt lat="55.751110" lon="38.702550"><ele>131.7</ele><time>1970-01-01T11:21:47Z</time></trkpt>
			<trkpt lat="55.751280" lon="38.702310"><ele>132.1</ele><time>1970-01-01T11:21:53Z</time></trkpt>
			<trkpt lat="55.751460" lon="38.701980"><ele>132.5</ele><time>1970-01-01T11:21:59Z</time></trkpt>
			<trkpt lat="55.751590" lon="38.701610"><ele>132.8</ele><time>1970-01-01T11:22:05Z</time></trkpt>
			<trkpt lat="55.751790" lon="38.700920"><ele>133.2</ele><time>1970-01-01T11:22:12Z</time></trkpt>
			<trkpt lat="55.751900" lon="38.700740"><ele>133.2</ele><time>1970-01-01T11:22:18Z</time></trkpt>
			<trkpt lat="55.752000" lon="38.700680"><ele>133.2</ele><time>1970-01-01T11:22:24Z</time></trkpt>
			<trkpt lat="55.752100" lon="38.700690"><ele>133.3</ele><time>1970-01-01T11:22:30Z</time></trkpt>
			<trkpt lat="55.752200" lon="38.700740"><ele>133.5</ele><time>1970-01-01T11:22:37Z</time></trkpt>
			<trkpt lat="55.752610" lon="38.701000"><ele>134.0</ele><time>1970-01-01T11:22:43Z</time></trkpt>
			<trkpt lat="55.752840" lon="38.701210"><ele>133.8</ele><time>1970-01-01T11:22:49Z</time></trkpt>
			<trkpt lat="55.753000" lon="38.701420"><ele>133.9</ele><time>1970-01-01T11:22:55Z</time></trkpt>
			<trkpt lat="55.754760" lon="38.704170"><ele>136.0</ele><time>1970-01-01T11:23:01Z</time></trkpt>
			<trkpt lat="55.755190" lon="38.704830"><ele>136.6</ele><time>1970-01-01T11:23:08Z</time></trkpt>
			<trkpt lat="55.757590" lon="38.708590"><ele>135.8</ele><time>1970-01-01T11:23:14Z</time></trkpt>
			<trkpt lat="55.757770" lon="38.708720"><ele>135.5</ele><time>1970-01-01T11:23:20Z</time></trkpt>
			<trkpt lat="55.757930" lon="38.708740"><ele>135.2</ele><time>1970-01-01T11:23:26Z</time></trkpt>
			<trkpt lat="55.758100" lon="38.708670"><ele>134.8</ele><time>1970-01-01T11:23:32Z</time></trkpt>
			<trkpt lat="55.758290" lon="38.708500"><ele>134.3</ele><time>1970-01-01T11:23:39Z</time></trkpt>
			<trkpt lat="55.758520" lon="38.708170"><ele>133.7</ele><time>1970-01-01T11:23:45Z</time></trkpt>
			<trkpt lat="55.758810" lon="38.707690"><ele>133.2</ele><time>1970-01-01T11:23:51Z</time></trkpt>
			<trkpt lat="55.758930" lon="38.707480"><ele>132.8</ele><time>1970-01-01T11:23:57Z</time></trkpt>
			<trkpt lat="55.759090" lon="38.707250"><ele>132.3</ele><time>1970-01-01T11:24:03Z</time></trkpt>
			<trkpt lat="55.760120" lon="38.705690"><ele>127.5</ele><time>1970-01-01T11:24:10Z</time></trkpt>
			<trkpt lat="55.760320" lon="38.705410"><ele>126.7</ele><time>1970-01-01T11:24:16Z</time></trkpt>
			<trkpt lat="55.760500" lon="38.705220"><ele>126.3</ele><time>1970-01-01T11:24:22Z</time></trkpt>
			<trkpt lat="55.760700" lon="38.705050"><ele>126.1</ele><time>1970-01-01T11:24:28Z</time></trkpt>
			<trkpt lat="55.760920" lon="38.704910"><ele>126.1</ele><time>1970-01-01T11:24:35Z</time></trkpt>
			<trkpt lat="55.761170" lon="38.704720"><ele>126.2</ele><time>1970-01-01T11:24:41Z</time></trkpt>
			<trkpt lat="55.762320" lon="38.703800"><ele>127.8</ele><time>1970-01-01T11:24:47Z</time></trkpt>
			<trkpt lat="55.762540" lon="38.703630"><ele>127.8</ele><time>1970-01-01T11:24:53Z</time></trkpt>
			<trkpt lat="55.762690" lon="38.703470"><ele>127.7</ele><time>1970-01-01T11:24:59Z</time></trkpt>
			<trkpt lat="55.762840" lon="38.703250"><ele>127.9</ele><time>1970-01-01T11:25:06Z</time></trkpt>
			<trkpt lat="55.762930" lon="38.703090"><ele>128.2</ele><time>1970-01-01T11:25:12Z</time></trkpt>
			<trkpt lat="55.763060" lon="38.702820"><ele>128.8</ele><time>1970-01-01T11:25:18Z</time></trkpt>
			<trkpt lat="55.763260" lon="38.702400"><ele>129.6</ele><time>1970-01-01T11:25:24Z</time></trkpt>
			<trkpt lat="55.763290" lon="38.702340"><ele>129.6</ele><time>1970-01-01T11:25:30Z</time></trkpt>
			<trkpt lat="55.763440" lon="38.702080"><ele>129.5</ele><time>1970-01-01T11:25:37Z</time></trkpt>
			<trkpt lat="55.763610" lon="38.701850"><ele>129.4</ele><time>1970-01-01T11:25:43Z</time></trkpt>
			<trkpt lat="55.764090" lon="38.701310"><ele>130.3</ele><time>1970-01-01T11:25:49Z</time></trkpt>
			<trkpt lat="55.764910" lon="38.700480"><ele>131.4</ele><time>1970-01-01T11:25:55Z</time></trkpt>
			<trkpt lat="55.765300" lon="38.699960"><ele>132.7</ele><time>1970-01-01T11:26:01Z</time></trkpt>
			<trkpt lat="55.765490" lon="38.699640"><ele>133.1</ele><time>1970-01-01T11:26:08Z</time></trkpt>
			<trkpt lat="55.765690" lon="38.699410"><ele>133.2</ele><time>1970-01-01T11:26:14Z</time></trkpt>
			<trkpt lat="55.765890" lon="38.699240"><ele>133.1</ele><time>1970-01-01T11:26:20Z</time></trkpt>
			<trkpt lat="55.766690" lon="38.698860"><ele>133.0</ele><time>1970-01-01T11:26:26Z</time></trkpt>
			<trkpt lat="55.766820" lon="38.698730"><ele>132.9</ele><time>1970-01-01T11:26:33Z</time></trkpt>
			<trkpt lat="55.766920" lon="38.698520"><ele>132.9</ele><time>1970-01-01T11:26:39Z</time></trkpt>
			<trkpt lat="55.766980" lon="38.698210"><ele>132.9</ele><time>1970-01-01T11:26:45Z</time></trkpt>
			<trkpt lat="55.767000" lon="38.697920"><ele>132.7</ele><time>1970-01-01T11:26:51Z</time></trkpt>
			<trkpt lat="55.766970" lon="38.697040"><ele>132.7</ele><time>1970-01-01T11:26:57Z</time></trkpt>
			<trkpt lat="55.766980" lon="38.696780"><ele>132.9</ele><time>1970-01-01T11:27:04Z</time></trkpt>
			<trkpt lat="55.767020" lon="38.696550"><ele>133.1</ele><time>1970-01-01T11:27:10Z</time></trkpt>
			<trkpt lat="55.767090" lon="38.696350"><ele>133.4</ele><time>1970-01-01T11:27:16Z</time></trkpt>
			<trkpt lat="55.767170" lon="38.696230"><ele>133.5</ele><time>1970-01-01T11:27:22Z</time></trkpt>
			<trkpt lat="55.767380" lon="38.696070"><ele>133.7</ele><time>1970-01-01T11:27:28Z</time></trkpt>
			<trkpt lat="55.768440" lon="38.695440"><ele>134.8</ele><time>1970-01-01T11:27:35Z</time></trkpt>
			<trkpt lat="55.768700" lon="38.695260"><ele>134.4</ele><time>1970-01-01T11:27:41Z</time></trkpt>
			<trkpt lat="55.770030" lon="38.694190"><ele>133.1</ele><time>1970-01-01T11:27:47Z</time></trkpt>
			<trkpt lat="55.770140" lon="38.694060"><ele>133.2</ele><time>1970-01-01T11:27:53Z</time></trkpt>
			<trkpt lat="55.770420" lon="38.693660"><ele>133.1</ele><time>1970-01-01T11:27:59Z</time></trkpt>
			<trkpt lat="55.771270" lon="38.692260"><ele>132.5</ele><time>1970-01-01T11:28:06Z</time></trkpt>
			<trkpt lat="55.771640" lon="38.691540"><ele>134.0</ele><time>1970-01-01T11:28:12Z</time></trkpt>
			<trkpt lat="55.771770" lon="38.691230"><ele>134.4</ele><time>1970-01-01T11:28:18Z</time></trkpt>
			<trkpt lat="55.771820" lon="38.691070"><ele>134.5</ele><time>1970-01-01T11:28:24Z</time></trkpt>
			<trkpt lat="55.771860" lon="38.690900"><ele>134.6</ele><time>1970-01-01T11:28:31Z</time></trkpt>
			<trkpt lat="55.772140" lon="38.689330"><ele>134.6</ele><time>1970-01-01T11:28:37Z</time></trkpt>
			<trkpt lat="55.772310" lon="38.688330"><ele>135.0</ele><time>1970-01-01T11:28:43Z</time></trkpt>
			<trkpt lat="55.772360" lon="38.688120"><ele>135.2</ele><time>1970-01-01T11:28:49Z</time></trkpt>
			<trkpt lat="55.772440" lon="38.687880"><ele>135.5</ele><time>1970-01-01T11:28:55Z</time></trkpt>
			<trkpt lat="55.772690" lon="38.687300"><ele>135.2</ele><time>1970-01-01T11:29:02Z</time></trkpt>
			<trkpt lat="55.773020" lon="38.686530"><ele>134.4</ele><time>1970-01-01T11:29:08Z</time></trkpt>
			<trkpt lat="55.773220" lon="38.686060"><ele>134.7</ele><time>1970-01-01T11:29:14Z</time></trkpt>
			<trkpt lat="55.773370" lon="38.685380"><ele>135.0</ele><time>1970-01-01T11:29:20Z</time></trkpt>
			<trkpt lat="55.773400" lon="38.685250"><ele>135.0</ele><time>1970-01-01T11:29:26Z</time></trkpt>
			<trkpt lat="55.773670" lon="38.683670"><ele>136.6</ele><time>1970-01-01T11:29:33Z</time></trkpt>
			<trkpt lat="55.773760" lon="38.683180"><ele>137.1</ele><time>1970-01-01T11:29:39Z</time></trkpt>
			<trkpt lat="55.774130" lon="38.681050"><ele>138.0</ele><time>1970-01-01T11:29:45Z</time></trkpt>
			<trkpt lat="55.774320" lon="38.680120"><ele>137.0</ele><time>1970-01-01T11:29:51Z</time></trkpt>
			<trkpt lat="55.774330" lon="38.680047"><ele>136.9</ele><time>1970-01-01T11:29:58Z</time></trkpt>
			<trkpt lat="55.774330" lon="38.680050"><ele>136.9</ele><time>1970-01-01T11:29:58Z</time></trkpt>
			<trkpt lat="55.774340" lon="38.679960"><ele>136.7</ele><time>1970-01-01T11:30:01Z</time></trkpt>
			<trkpt lat="55.774340" lon="38.679830"><ele>136.6</ele><time>1970-01-01T11:30:04Z</time></trkpt>
			<trkpt lat="55.774320" lon="38.679760"><ele>136.5</ele><time>1970-01-01T11:30:07Z</time></trkpt>
			<trkpt lat="55.774440" lon="38.679700"><ele>136.3</ele><time>1970-01-01T11:30:10Z</time></trkpt>
			<trkpt lat="55.774530" lon="38.679650"><ele>136.1</ele><time>1970-01-01T11:30:13Z</time></trkpt>
			<trkpt lat="55.774550" lon="38.679550"><ele>136.0</ele><time>1970-01-01T11:30:16Z</time></trkpt>
			<trkpt lat="55.774650" lon="38.678910"><ele>135.6</ele><time>1970-01-01T11:30:19Z</time></trkpt>
			<trkpt lat="55.774700" lon="38.678090"><ele>135.7</ele><time>1970-01-01T11:30:22Z</time></trkpt>
			<trkpt lat="55.774670" lon="38.677780"><ele>135.8</ele><time>1970-01-01T11:30:25Z</time></trkpt>
			<trkpt lat="55.774660" lon="38.677670"><ele>135.8</ele><time>1970-01-01T11:30:28Z</time></trkpt>
			<trkpt lat="55.774710" lon="38.677660"><ele>135.7</ele><time>1970-01-01T11:30:31Z</time></trkpt>
			<trkpt lat="55.774803" lon="38.677634"><ele>135.5</ele><time>1970-01-01T11:30:34Z</time></trkpt>
			<trkpt lat="55.774951" lon="38.677424"><ele>135.3</ele><time>1970-01-01T11:30:48Z</time></trkpt>
			<trkpt lat="55.774941" lon="38.676899"><ele>135.6</ele><time>1970-01-01T11:30:55Z</time></trkpt>
			<trkpt lat="55.775047" lon="38.677046"><ele>135.8</ele><time>1970-01-01T11:31:02Z</time></trkpt>
		</trkseg>
	</trk>
<wpt lat="55.776378" lon="38.674790"><ele>139.000</ele><time>2026-08-29T05:00:00Z</time><name>Старт(0.0 км) Старт Павловский посад, ж.д. Вокзал</name><cmt>Старт</cmt><desc>фото-отметка на фоне ж.д. Вокзал</desc><type>Generic</type><sym>Start</sym></wpt><wpt lat="55.578567" lon="38.912558"><ele>120.156</ele><time>2026-08-29T06:28:05Z</time><name>КП-1(32.3 км) Куровское, Церковь Иоана Лествичника</name><cmt>КП-1</cmt><desc>фото-отметка на фоне Церковь Иоана Лествичника</desc><type>Generic</type><sym>Waypoint</sym></wpt><wpt lat="55.575575" lon="39.500227"><ele>121.912</ele><time>2026-08-29T08:12:04Z</time><name>КП-2(70.4 км) Шатура, стелла Шатура</name><cmt>КП-2</cmt><desc>фото-отметка на фоне стелла Шатура</desc><type>Generic</type><sym>Waypoint</sym></wpt><wpt lat="55.660213" lon="39.881621"><ele>117.526</ele><time>2026-08-29T09:38:11Z</time><name>КП-3(102.0 км) Рошаль, Церковь Иконы Божией Матери</name><cmt>КП-3</cmt><desc>фото-отметка на фоне Церковь Иконы Божией Матери</desc><type>Generic</type><sym>Waypoint</sym></wpt><wpt lat="55.257939" lon="39.654861"><ele>145.750</ele><time>2026-08-29T12:54:03Z</time><name>КП-4(173.8 км) Середниково, Мемориал ВОВ</name><cmt>КП-4</cmt><desc>фото-отметка на фоне Мемориал ВОВ</desc><type>Generic</type><sym>Waypoint</sym></wpt><wpt lat="55.428797" lon="39.205388"><ele>139.278</ele><time>2026-08-29T15:20:34Z</time><name>КП-5(227.5 км) Саввино, маг. Авокадо</name><cmt>КП-5</cmt><desc>фото-отметка на фоне маг. Авокадо</desc><type>Generic</type><sym>Waypoint</sym></wpt><wpt lat="55.558314" lon="39.106028"><ele>140.437</ele><time>2026-08-29T16:43:06Z</time><name>КП-6(257.8 км) Авсюнино, Пиццерия</name><cmt>КП-6</cmt><desc>фото-отметка на фоне Пиццерия</desc><type>Generic</type><sym>Waypoint</sym></wpt><wpt lat="55.775061" lon="38.677020"><ele>135.800</ele><time>2026-08-29T18:45:05Z</time><name>Финиш(302.5 км) Финиш Павловский Посад, буквы Павловский посад</name><cmt>Финиш</cmt><desc>фото-отметка на фоне буквы Павловский посад на привокзальной площади</desc><type>Generic</type><sym>Finish</sym></wpt></gpx>